<?xml version='1.0' encoding='UTF-8'?><gpx version="1.1" creator="JPX - https://github.com/jenetics/jpx" xmlns="http://www.topografix.com/GPX/1/1"><trk><trkseg><trkpt lat="45.4093435" lon="9.2721295"><ele>100.0</ele><time>2026-04-20T16:18:45.385Z</time></trkpt><trkpt lat="45.4094012" lon="9.2716337"><ele>100.0</ele><time>2026-04-20T16:18:46.388Z</time></trkpt><trkpt lat="45.4091947" lon="9.2719837"><ele>100.5</ele><time>2026-04-20T16:18:52.387Z</time></trkpt><trkpt lat="45.408974" lon="9.2724072"><ele>101.0</ele><time>2026-04-20T16:18:53.382Z</time></trkpt><trkpt lat="45.4090853" lon="9.2725521"><ele>100.5</ele><time>2026-04-20T16:18:54.394Z</time></trkpt><trkpt lat="45.4091916" lon="9.2721548"><ele>100.0</ele><time>2026-04-20T16:18:55.387Z</time></trkpt><trkpt lat="45.4092649" lon="9.2719408"><ele>100.0</ele><time>2026-04-20T16:18:56.393Z</time></trkpt><trkpt lat="45.4091288" lon="9.2714994"><ele>100.0</ele><time>2026-04-20T16:18:57.389Z</time></trkpt><trkpt lat="45.4093678" lon="9.2718449"><ele>100.0</ele><time>2026-04-20T16:19:02.389Z</time></trkpt><trkpt lat="45.4095634" lon="9.271869"><ele>100.0</ele><time>2026-04-20T16:19:03.382Z</time></trkpt><trkpt lat="45.4092092" lon="9.2720469"><ele>100.0</ele><time>2026-04-20T16:19:04.39Z</time></trkpt><trkpt lat="45.4089446" lon="9.2719547"><ele>100.0</ele><time>2026-04-20T16:19:05.384Z</time></trkpt><trkpt lat="45.409245" lon="9.2718224"><ele>100.0</ele><time>2026-04-20T16:19:08.384Z</time></trkpt><trkpt lat="45.4094768" lon="9.2712256"><ele>100.0</ele><time>2026-04-20T16:19:09.383Z</time></trkpt><trkpt lat="45.4090934" lon="9.2709531"><ele>100.0</ele><time>2026-04-20T16:19:12.383Z</time></trkpt><trkpt lat="45.4092995" lon="9.2710864"><ele>100.0</ele><time>2026-04-20T16:19:15.38Z</time></trkpt><trkpt lat="45.4090102" lon="9.2718233"><ele>100.0</ele><time>2026-04-20T16:19:25.6Z</time></trkpt><trkpt lat="45.4093561" lon="9.2717966"><ele>100.0</ele><time>2026-04-20T16:19:30.389Z</time></trkpt><trkpt lat="45.4092536" lon="9.2714281"><ele>100.0</ele><time>2026-04-20T16:19:51.387Z</time></trkpt><trkpt lat="45.4092415" lon="9.2717359"><ele>100.0</ele><time>2026-04-20T16:19:52.378Z</time></trkpt><trkpt lat="45.4091559" lon="9.2717637"><ele>100.0</ele><time>2026-04-20T16:19:53.379Z</time></trkpt><trkpt lat="45.4091735" lon="9.2716113"><ele>100.0</ele><time>2026-04-20T16:20:04.389Z</time></trkpt><trkpt lat="45.4090973" lon="9.2716125"><ele>100.0</ele><time>2026-04-20T16:20:10.396Z</time></trkpt><trkpt lat="45.4089889" lon="9.2716007"><ele>100.0</ele><time>2026-04-20T16:20:13.386Z</time></trkpt><trkpt lat="45.4089201" lon="9.2715592"><ele>100.0</ele><time>2026-04-20T16:20:14.391Z</time></trkpt><trkpt lat="45.4088487" lon="9.2714653"><ele>100.0</ele><time>2026-04-20T16:20:16.397Z</time></trkpt><trkpt lat="45.4088045" lon="9.2713213"><ele>100.0</ele><time>2026-04-20T16:20:19.4Z</time></trkpt><trkpt lat="45.408814" lon="9.2712087"><ele>100.00000000000001</ele><time>2026-04-20T16:20:23.389Z</time></trkpt><trkpt lat="45.4088537" lon="9.2711221"><ele>100.0</ele><time>2026-04-20T16:20:26.398Z</time></trkpt><trkpt lat="45.4089165" lon="9.2710768"><ele>100.0</ele><time>2026-04-20T16:20:29.4Z</time></trkpt><trkpt lat="45.408932" lon="9.2709617"><ele>100.0</ele><time>2026-04-20T16:20:40.401Z</time></trkpt><trkpt lat="45.408992" lon="9.2708893"><ele>100.0</ele><time>2026-04-20T16:20:43.398Z</time></trkpt><trkpt lat="45.409051" lon="9.2708193"><ele>100.00000000000001</ele><time>2026-04-20T16:20:47.393Z</time></trkpt><trkpt lat="45.4090771" lon="9.2707357"><ele>100.0</ele><time>2026-04-20T16:20:50.392Z</time></trkpt><trkpt lat="45.4091144" lon="9.2706203"><ele>100.33333333333334</ele><time>2026-04-20T16:20:53.4Z</time></trkpt><trkpt lat="45.4090748" lon="9.2705061"><ele>100.66666666666667</ele><time>2026-04-20T16:20:55.393Z</time></trkpt><trkpt lat="45.4090257" lon="9.2704062"><ele>101.0</ele><time>2026-04-20T16:20:57.397Z</time></trkpt><trkpt lat="45.4090298" lon="9.2702898"><ele>101.33333333333334</ele><time>2026-04-20T16:20:59.399Z</time></trkpt><trkpt lat="45.4090552" lon="9.270186"><ele>101.66666666666667</ele><time>2026-04-20T16:21:01.392Z</time></trkpt><trkpt lat="45.4090983" lon="9.2701138"><ele>102.0</ele><time>2026-04-20T16:21:03.399Z</time></trkpt><trkpt lat="45.4091591" lon="9.2700257"><ele>102.0</ele><time>2026-04-20T16:21:05.392Z</time></trkpt><trkpt lat="45.4092235" lon="9.2699588"><ele>102.0</ele><time>2026-04-20T16:21:07.406Z</time></trkpt><trkpt lat="45.4092936" lon="9.2698988"><ele>102.0</ele><time>2026-04-20T16:21:09.398Z</time></trkpt><trkpt lat="45.4093703" lon="9.2698433"><ele>102.0</ele><time>2026-04-20T16:21:11.402Z</time></trkpt><trkpt lat="45.4094249" lon="9.2697899"><ele>102.0</ele><time>2026-04-20T16:21:13.403Z</time></trkpt><trkpt lat="45.4094873" lon="9.2697455"><ele>102.0</ele><time>2026-04-20T16:21:15.395Z</time></trkpt><trkpt lat="45.4095395" lon="9.2696906"><ele>102.0</ele><time>2026-04-20T16:21:17.402Z</time></trkpt><trkpt lat="45.4096041" lon="9.2696231"><ele>102.71428571428572</ele><time>2026-04-20T16:21:19.398Z</time></trkpt><trkpt lat="45.4096693" lon="9.269572"><ele>103.42857142857143</ele><time>2026-04-20T16:21:21.395Z</time></trkpt><trkpt lat="45.4097414" lon="9.2696069"><ele>104.14285714285714</ele><time>2026-04-20T16:21:23.395Z</time></trkpt><trkpt lat="45.4098088" lon="9.2695746"><ele>104.85714285714286</ele><time>2026-04-20T16:21:25.395Z</time></trkpt><trkpt lat="45.4098417" lon="9.2694953"><ele>105.57142857142857</ele><time>2026-04-20T16:21:27.396Z</time></trkpt><trkpt lat="45.4098401" lon="9.269386"><ele>106.28571428571429</ele><time>2026-04-20T16:21:29.391Z</time></trkpt><trkpt lat="45.4098667" lon="9.2692844"><ele>107.0</ele><time>2026-04-20T16:21:31.396Z</time></trkpt><trkpt lat="45.4098913" lon="9.2691877"><ele>106.99999999999999</ele><time>2026-04-20T16:21:33.395Z</time></trkpt><trkpt lat="45.4099123" lon="9.2690824"><ele>107.0</ele><time>2026-04-20T16:21:35.398Z</time></trkpt><trkpt lat="45.409949" lon="9.2689728"><ele>107.0</ele><time>2026-04-20T16:21:37.395Z</time></trkpt><trkpt lat="45.4099875" lon="9.2688882"><ele>107.0</ele><time>2026-04-20T16:21:39.396Z</time></trkpt><trkpt lat="45.4100166" lon="9.2687944"><ele>106.99999999999999</ele><time>2026-04-20T16:21:41.393Z</time></trkpt><trkpt lat="45.4100503" lon="9.2686911"><ele>107.0</ele><time>2026-04-20T16:21:43.392Z</time></trkpt><trkpt lat="45.4100861" lon="9.2685742"><ele>106.33333333333333</ele><time>2026-04-20T16:21:45.396Z</time></trkpt><trkpt lat="45.4101405" lon="9.268476"><ele>105.66666666666666</ele><time>2026-04-20T16:21:47.397Z</time></trkpt><trkpt lat="45.4101889" lon="9.2684004"><ele>105.0</ele><time>2026-04-20T16:21:49.395Z</time></trkpt><trkpt lat="45.4102308" lon="9.2683218"><ele>104.33333333333334</ele><time>2026-04-20T16:21:51.4Z</time></trkpt><trkpt lat="45.4102842" lon="9.2682489"><ele>103.66666666666667</ele><time>2026-04-20T16:21:53.404Z</time></trkpt><trkpt lat="45.4103276" lon="9.2681627"><ele>103.0</ele><time>2026-04-20T16:21:55.404Z</time></trkpt><trkpt lat="45.4103831" lon="9.2680562"><ele>102.83333333333334</ele><time>2026-04-20T16:21:57.403Z</time></trkpt><trkpt lat="45.4104384" lon="9.2679709"><ele>102.66666666666667</ele><time>2026-04-20T16:21:59.403Z</time></trkpt><trkpt lat="45.410485" lon="9.2678744"><ele>102.5</ele><time>2026-04-20T16:22:01.399Z</time></trkpt><trkpt lat="45.4105493" lon="9.2678079"><ele>102.33333333333334</ele><time>2026-04-20T16:22:03.393Z</time></trkpt><trkpt lat="45.4106058" lon="9.2677098"><ele>102.16666666666667</ele><time>2026-04-20T16:22:06.395Z</time></trkpt><trkpt lat="45.4106602" lon="9.2676543"><ele>102.0</ele><time>2026-04-20T16:22:08.399Z</time></trkpt><trkpt lat="45.4107214" lon="9.2676022"><ele>102.28571428571429</ele><time>2026-04-20T16:22:10.4Z</time></trkpt><trkpt lat="45.4107798" lon="9.267537"><ele>102.57142857142858</ele><time>2026-04-20T16:22:12.395Z</time></trkpt><trkpt lat="45.4108371" lon="9.2674639"><ele>102.85714285714286</ele><time>2026-04-20T16:22:14.396Z</time></trkpt><trkpt lat="45.410902" lon="9.2674064"><ele>103.14285714285714</ele><time>2026-04-20T16:22:16.406Z</time></trkpt><trkpt lat="45.4109535" lon="9.2673507"><ele>103.42857142857143</ele><time>2026-04-20T16:22:18.402Z</time></trkpt><trkpt lat="45.4110211" lon="9.2673025"><ele>103.71428571428571</ele><time>2026-04-20T16:22:20.403Z</time></trkpt><trkpt lat="45.4110748" lon="9.267232"><ele>104.0</ele><time>2026-04-20T16:22:22.403Z</time></trkpt><trkpt lat="45.4111306" lon="9.2671782"><ele>103.85714285714285</ele><time>2026-04-20T16:22:24.402Z</time></trkpt><trkpt lat="45.4111827" lon="9.267121"><ele>103.71428571428572</ele><time>2026-04-20T16:22:26.393Z</time></trkpt><trkpt lat="45.4112545" lon="9.2670385"><ele>103.57142857142857</ele><time>2026-04-20T16:22:29.399Z</time></trkpt><trkpt lat="45.4113082" lon="9.2669867"><ele>103.42857142857142</ele><time>2026-04-20T16:22:31.393Z</time></trkpt><trkpt lat="45.4113665" lon="9.2669202"><ele>103.28571428571428</ele><time>2026-04-20T16:22:33.394Z</time></trkpt><trkpt lat="45.411424" lon="9.2668701"><ele>103.14285714285714</ele><time>2026-04-20T16:22:35.395Z</time></trkpt><trkpt lat="45.411481" lon="9.2668196"><ele>103.0</ele><time>2026-04-20T16:22:37.395Z</time></trkpt><trkpt lat="45.411539" lon="9.2667224"><ele>102.99999999999999</ele><time>2026-04-20T16:22:40.4Z</time></trkpt><trkpt lat="45.4115916" lon="9.2666723"><ele>103.0</ele><time>2026-04-20T16:22:42.402Z</time></trkpt><trkpt lat="45.4116489" lon="9.2666258"><ele>103.0</ele><time>2026-04-20T16:22:44.394Z</time></trkpt><trkpt lat="45.4117227" lon="9.2666496"><ele>103.0</ele><time>2026-04-20T16:22:47.4Z</time></trkpt><trkpt lat="45.4117067" lon="9.2665587"><ele>103.0</ele><time>2026-04-20T16:22:52.407Z</time></trkpt><trkpt lat="45.4116477" lon="9.2664676"><ele>102.99999999999999</ele><time>2026-04-20T16:22:55.392Z</time></trkpt><trkpt lat="45.4116157" lon="9.2663748"><ele>103.0</ele><time>2026-04-20T16:22:57.399Z</time></trkpt><trkpt lat="45.4115767" lon="9.2662951"><ele>102.66666666666667</ele><time>2026-04-20T16:22:59.401Z</time></trkpt><trkpt lat="45.4115297" lon="9.2662036"><ele>102.33333333333334</ele><time>2026-04-20T16:23:02.396Z</time></trkpt><trkpt lat="45.4114726" lon="9.2661222"><ele>102.0</ele><time>2026-04-20T16:23:05.398Z</time></trkpt><trkpt lat="45.4114314" lon="9.2660228"><ele>101.66666666666666</ele><time>2026-04-20T16:23:08.404Z</time></trkpt><trkpt lat="45.4113772" lon="9.2659411"><ele>101.33333333333333</ele><time>2026-04-20T16:23:12.404Z</time></trkpt><trkpt lat="45.4113042" lon="9.2658661"><ele>101.0</ele><time>2026-04-20T16:23:47.393Z</time></trkpt><trkpt lat="45.4112585" lon="9.2658016"><ele>100.99999999999999</ele><time>2026-04-20T16:23:49.398Z</time></trkpt><trkpt lat="45.4112395" lon="9.2657054"><ele>101.0</ele><time>2026-04-20T16:23:51.398Z</time></trkpt><trkpt lat="45.4111966" lon="9.2655925"><ele>101.0</ele><time>2026-04-20T16:23:53.398Z</time></trkpt><trkpt lat="45.4111377" lon="9.2654995"><ele>101.0</ele><time>2026-04-20T16:23:55.4Z</time></trkpt><trkpt lat="45.4110804" lon="9.2654095"><ele>100.99999999999999</ele><time>2026-04-20T16:23:57.398Z</time></trkpt><trkpt lat="45.411031" lon="9.2653382"><ele>101.0</ele><time>2026-04-20T16:23:59.397Z</time></trkpt><trkpt lat="45.4109852" lon="9.2652545"><ele>100.99999999999999</ele><time>2026-04-20T16:24:01.401Z</time></trkpt><trkpt lat="45.4109466" lon="9.2651794"><ele>101.0</ele><time>2026-04-20T16:24:03.392Z</time></trkpt><trkpt lat="45.4109009" lon="9.2651101"><ele>101.0</ele><time>2026-04-20T16:24:05.395Z</time></trkpt><trkpt lat="45.4108475" lon="9.2650021"><ele>101.0</ele><time>2026-04-20T16:24:08.4Z</time></trkpt><trkpt lat="45.4107899" lon="9.264899"><ele>100.99999999999999</ele><time>2026-04-20T16:24:11.394Z</time></trkpt><trkpt lat="45.4107335" lon="9.2648259"><ele>101.0</ele><time>2026-04-20T16:24:13.393Z</time></trkpt><trkpt lat="45.41069" lon="9.2647593"><ele>101.0</ele><time>2026-04-20T16:24:15.398Z</time></trkpt><trkpt lat="45.4106431" lon="9.2646922"><ele>101.0</ele><time>2026-04-20T16:24:17.398Z</time></trkpt><trkpt lat="45.4105932" lon="9.2646155"><ele>101.0</ele><time>2026-04-20T16:24:20.394Z</time></trkpt><trkpt lat="45.4105479" lon="9.2645521"><ele>101.0</ele><time>2026-04-20T16:24:22.4Z</time></trkpt><trkpt lat="45.410504" lon="9.2644855"><ele>101.0</ele><time>2026-04-20T16:24:24.393Z</time></trkpt><trkpt lat="45.4104467" lon="9.2644301"><ele>101.0</ele><time>2026-04-20T16:24:26.396Z</time></trkpt><trkpt lat="45.4103821" lon="9.2643571"><ele>101.0</ele><time>2026-04-20T16:24:28.399Z</time></trkpt><trkpt lat="45.4103331" lon="9.2642846"><ele>101.16666666666666</ele><time>2026-04-20T16:24:30.401Z</time></trkpt><trkpt lat="45.4102781" lon="9.2641916"><ele>101.33333333333333</ele><time>2026-04-20T16:24:33.399Z</time></trkpt><trkpt lat="45.4102257" lon="9.2641036"><ele>101.5</ele><time>2026-04-20T16:24:36.399Z</time></trkpt><trkpt lat="45.410169" lon="9.264031"><ele>101.66666666666666</ele><time>2026-04-20T16:24:39.396Z</time></trkpt><trkpt lat="45.4101135" lon="9.2639493"><ele>101.83333333333333</ele><time>2026-04-20T16:24:42.404Z</time></trkpt><trkpt lat="45.4100611" lon="9.2638605"><ele>102.0</ele><time>2026-04-20T16:24:45.4Z</time></trkpt><trkpt lat="45.4100149" lon="9.2637992"><ele>102.0</ele><time>2026-04-20T16:24:47.4Z</time></trkpt><trkpt lat="45.4099536" lon="9.2637349"><ele>102.0</ele><time>2026-04-20T16:24:49.389Z</time></trkpt><trkpt lat="45.4098992" lon="9.263675"><ele>102.0</ele><time>2026-04-20T16:24:51.399Z</time></trkpt><trkpt lat="45.4098557" lon="9.2635953"><ele>102.0</ele><time>2026-04-20T16:24:53.396Z</time></trkpt><trkpt lat="45.4098121" lon="9.263521"><ele>102.0</ele><time>2026-04-20T16:24:55.402Z</time></trkpt><trkpt lat="45.4097663" lon="9.263447"><ele>102.0</ele><time>2026-04-20T16:24:57.396Z</time></trkpt><trkpt lat="45.4097269" lon="9.2633718"><ele>102.0</ele><time>2026-04-20T16:24:59.39Z</time></trkpt><trkpt lat="45.4096721" lon="9.2632864"><ele>101.8</ele><time>2026-04-20T16:25:01.4Z</time></trkpt><trkpt lat="45.4096056" lon="9.2631926"><ele>101.6</ele><time>2026-04-20T16:25:03.393Z</time></trkpt><trkpt lat="45.4095242" lon="9.2630835"><ele>101.39999999999999</ele><time>2026-04-20T16:25:05.392Z</time></trkpt><trkpt lat="45.4094338" lon="9.2630021"><ele>101.19999999999999</ele><time>2026-04-20T16:25:07.401Z</time></trkpt><trkpt lat="45.4093622" lon="9.2629101"><ele>101.0</ele><time>2026-04-20T16:25:09.391Z</time></trkpt><trkpt lat="45.409306" lon="9.2628388"><ele>100.4</ele><time>2026-04-20T16:25:11.397Z</time></trkpt><trkpt lat="45.4093302" lon="9.2627087"><ele>99.8</ele><time>2026-04-20T16:25:14.402Z</time></trkpt><trkpt lat="45.4092697" lon="9.2625905"><ele>99.2</ele><time>2026-04-20T16:25:17.399Z</time></trkpt><trkpt lat="45.4092038" lon="9.2625063"><ele>98.60000000000001</ele><time>2026-04-20T16:25:19.399Z</time></trkpt><trkpt lat="45.4092103" lon="9.2623783"><ele>98.0</ele><time>2026-04-20T16:25:21.395Z</time></trkpt><trkpt lat="45.4093006" lon="9.2622942"><ele>98.0</ele><time>2026-04-20T16:25:23.396Z</time></trkpt><trkpt lat="45.4094084" lon="9.2623115"><ele>98.0</ele><time>2026-04-20T16:25:25.398Z</time></trkpt><trkpt lat="45.409522" lon="9.2623438"><ele>98.0</ele><time>2026-04-20T16:25:27.397Z</time></trkpt><trkpt lat="45.4096334" lon="9.2623586"><ele>98.0</ele><time>2026-04-20T16:25:29.397Z</time></trkpt><trkpt lat="45.4097469" lon="9.2623664"><ele>99.0</ele><time>2026-04-20T16:25:31.399Z</time></trkpt><trkpt lat="45.4098531" lon="9.2623916"><ele>100.0</ele><time>2026-04-20T16:25:33.398Z</time></trkpt><trkpt lat="45.4099609" lon="9.2624319"><ele>101.0</ele><time>2026-04-20T16:25:35.393Z</time></trkpt><trkpt lat="45.4100548" lon="9.2625036"><ele>102.0</ele><time>2026-04-20T16:25:37.394Z</time></trkpt><trkpt lat="45.4101557" lon="9.2625835"><ele>103.0</ele><time>2026-04-20T16:25:39.402Z</time></trkpt><trkpt lat="45.4102467" lon="9.2626036"><ele>103.0</ele><time>2026-04-20T16:25:41.389Z</time></trkpt><trkpt lat="45.4103296" lon="9.2625403"><ele>103.0</ele><time>2026-04-20T16:25:43.402Z</time></trkpt><trkpt lat="45.4103968" lon="9.2624156"><ele>103.0</ele><time>2026-04-20T16:25:45.404Z</time></trkpt><trkpt lat="45.4104343" lon="9.2622912"><ele>103.0</ele><time>2026-04-20T16:25:47.402Z</time></trkpt><trkpt lat="45.4104421" lon="9.26217"><ele>103.0</ele><time>2026-04-20T16:25:49.399Z</time></trkpt><trkpt lat="45.4104429" lon="9.2620538"><ele>103.0</ele><time>2026-04-20T16:25:51.388Z</time></trkpt><trkpt lat="45.4104561" lon="9.2619234"><ele>103.0</ele><time>2026-04-20T16:25:53.384Z</time></trkpt><trkpt lat="45.4104641" lon="9.261722"><ele>103.0</ele><time>2026-04-20T16:25:55.384Z</time></trkpt><trkpt lat="45.4104662" lon="9.2615866"><ele>103.0</ele><time>2026-04-20T16:25:56.395Z</time></trkpt><trkpt lat="45.410469" lon="9.2614863"><ele>103.0</ele><time>2026-04-20T16:25:57.398Z</time></trkpt><trkpt lat="45.410425" lon="9.2613418"><ele>102.0</ele><time>2026-04-20T16:25:59.396Z</time></trkpt><trkpt lat="45.4103693" lon="9.2612982"><ele>101.0</ele><time>2026-04-20T16:26:00.397Z</time></trkpt><trkpt lat="45.4102627" lon="9.2612689"><ele>100.0</ele><time>2026-04-20T16:26:02.398Z</time></trkpt><trkpt lat="45.410156" lon="9.2612546"><ele>99.0</ele><time>2026-04-20T16:26:04.394Z</time></trkpt><trkpt lat="45.4100432" lon="9.2612356"><ele>98.0</ele><time>2026-04-20T16:26:06.39Z</time></trkpt><trkpt lat="45.4099315" lon="9.2612186"><ele>98.0</ele><time>2026-04-20T16:26:08.402Z</time></trkpt><trkpt lat="45.4098197" lon="9.2612099"><ele>98.0</ele><time>2026-04-20T16:26:10.394Z</time></trkpt><trkpt lat="45.4097191" lon="9.2611449"><ele>98.0</ele><time>2026-04-20T16:26:12.392Z</time></trkpt><trkpt lat="45.409631" lon="9.2610411"><ele>98.0</ele><time>2026-04-20T16:26:14.398Z</time></trkpt><trkpt lat="45.4095863" lon="9.2609018"><ele>98.0</ele><time>2026-04-20T16:26:16.395Z</time></trkpt><trkpt lat="45.4095722" lon="9.2607397"><ele>97.60000000000001</ele><time>2026-04-20T16:26:18.39Z</time></trkpt><trkpt lat="45.4095954" lon="9.2605878"><ele>97.2</ele><time>2026-04-20T16:26:20.4Z</time></trkpt><trkpt lat="45.4096167" lon="9.2604246"><ele>96.8</ele><time>2026-04-20T16:26:22.4Z</time></trkpt><trkpt lat="45.4096316" lon="9.260258"><ele>96.4</ele><time>2026-04-20T16:26:24.403Z</time></trkpt><trkpt lat="45.4096427" lon="9.2601638"><ele>96.0</ele><time>2026-04-20T16:26:25.402Z</time></trkpt><trkpt lat="45.4096448" lon="9.260072"><ele>95.99999999999999</ele><time>2026-04-20T16:26:26.399Z</time></trkpt><trkpt lat="45.4096495" lon="9.2599776"><ele>96.0</ele><time>2026-04-20T16:26:27.394Z</time></trkpt><trkpt lat="45.409657" lon="9.2598794"><ele>96.0</ele><time>2026-04-20T16:26:28.395Z</time></trkpt><trkpt lat="45.4096589" lon="9.2597871"><ele>96.0</ele><time>2026-04-20T16:26:29.398Z</time></trkpt><trkpt lat="45.4096589" lon="9.2596914"><ele>96.0</ele><time>2026-04-20T16:26:30.4Z</time></trkpt><trkpt lat="45.4096544" lon="9.2595935"><ele>95.99999999999999</ele><time>2026-04-20T16:26:31.399Z</time></trkpt><trkpt lat="45.4096428" lon="9.2594951"><ele>96.0</ele><time>2026-04-20T16:26:32.4Z</time></trkpt><trkpt lat="45.4096185" lon="9.2593969"><ele>96.28571428571428</ele><time>2026-04-20T16:26:33.392Z</time></trkpt><trkpt lat="45.4095819" lon="9.2592973"><ele>96.57142857142857</ele><time>2026-04-20T16:26:34.404Z</time></trkpt><trkpt lat="45.4095442" lon="9.2592093"><ele>96.85714285714286</ele><time>2026-04-20T16:26:35.391Z</time></trkpt><trkpt lat="45.4094998" lon="9.2591342"><ele>97.14285714285714</ele><time>2026-04-20T16:26:36.393Z</time></trkpt><trkpt lat="45.4094513" lon="9.2590682"><ele>97.42857142857143</ele><time>2026-04-20T16:26:37.402Z</time></trkpt><trkpt lat="45.4093953" lon="9.2590057"><ele>97.71428571428571</ele><time>2026-04-20T16:26:38.396Z</time></trkpt><trkpt lat="45.4093433" lon="9.2589395"><ele>98.0</ele><time>2026-04-20T16:26:39.39Z</time></trkpt><trkpt lat="45.4092965" lon="9.2588753"><ele>98.0</ele><time>2026-04-20T16:26:40.396Z</time></trkpt><trkpt lat="45.4092503" lon="9.2588059"><ele>98.0</ele><time>2026-04-20T16:26:41.395Z</time></trkpt><trkpt lat="45.4092069" lon="9.2587387"><ele>98.0</ele><time>2026-04-20T16:26:42.396Z</time></trkpt><trkpt lat="45.4091403" lon="9.2586398"><ele>98.0</ele><time>2026-04-20T16:26:44.398Z</time></trkpt><trkpt lat="45.4090802" lon="9.2585627"><ele>98.0</ele><time>2026-04-20T16:26:46.399Z</time></trkpt><trkpt lat="45.4090535" lon="9.2584783"><ele>98.0</ele><time>2026-04-20T16:26:48.4Z</time></trkpt><trkpt lat="45.4090602" lon="9.2583865"><ele>98.0</ele><time>2026-04-20T16:26:50.403Z</time></trkpt><trkpt lat="45.4091095" lon="9.2582964"><ele>97.99999999999999</ele><time>2026-04-20T16:26:52.399Z</time></trkpt><trkpt lat="45.4091627" lon="9.2582103"><ele>98.0</ele><time>2026-04-20T16:26:54.395Z</time></trkpt><trkpt lat="45.4092178" lon="9.2581196"><ele>98.0</ele><time>2026-04-20T16:26:56.397Z</time></trkpt><trkpt lat="45.409276" lon="9.2580169"><ele>98.0</ele><time>2026-04-20T16:26:58.398Z</time></trkpt><trkpt lat="45.4093402" lon="9.257923"><ele>97.99999999999999</ele><time>2026-04-20T16:27:00.403Z</time></trkpt><trkpt lat="45.4094029" lon="9.2578134"><ele>98.0</ele><time>2026-04-20T16:27:02.399Z</time></trkpt><trkpt lat="45.4094615" lon="9.2577089"><ele>98.0</ele><time>2026-04-20T16:27:04.396Z</time></trkpt><trkpt lat="45.4095254" lon="9.2575961"><ele>98.0</ele><time>2026-04-20T16:27:06.396Z</time></trkpt><trkpt lat="45.4095854" lon="9.2575023"><ele>98.0</ele><time>2026-04-20T16:27:08.398Z</time></trkpt><trkpt lat="45.4096503" lon="9.2573862"><ele>98.0</ele><time>2026-04-20T16:27:10.401Z</time></trkpt><trkpt lat="45.4097177" lon="9.2572828"><ele>98.0</ele><time>2026-04-20T16:27:12.392Z</time></trkpt><trkpt lat="45.4097805" lon="9.2571832"><ele>98.0</ele><time>2026-04-20T16:27:14.398Z</time></trkpt><trkpt lat="45.4098442" lon="9.2570783"><ele>98.0</ele><time>2026-04-20T16:27:16.396Z</time></trkpt><trkpt lat="45.4099086" lon="9.256985"><ele>98.0</ele><time>2026-04-20T16:27:18.399Z</time></trkpt><trkpt lat="45.4099702" lon="9.2568723"><ele>98.0</ele><time>2026-04-20T16:27:20.399Z</time></trkpt><trkpt lat="45.4100322" lon="9.2567599"><ele>98.0</ele><time>2026-04-20T16:27:22.406Z</time></trkpt><trkpt lat="45.4100966" lon="9.2566526"><ele>98.0</ele><time>2026-04-20T16:27:24.402Z</time></trkpt><trkpt lat="45.4101576" lon="9.2565455"><ele>98.0</ele><time>2026-04-20T16:27:26.396Z</time></trkpt><trkpt lat="45.4102248" lon="9.2564513"><ele>98.0</ele><time>2026-04-20T16:27:28.396Z</time></trkpt><trkpt lat="45.4102906" lon="9.2563475"><ele>98.0</ele><time>2026-04-20T16:27:30.398Z</time></trkpt><trkpt lat="45.4103508" lon="9.2562303"><ele>98.0</ele><time>2026-04-20T16:27:32.399Z</time></trkpt><trkpt lat="45.4104123" lon="9.256128"><ele>98.0</ele><time>2026-04-20T16:27:34.397Z</time></trkpt><trkpt lat="45.4104741" lon="9.2560239"><ele>98.0</ele><time>2026-04-20T16:27:36.401Z</time></trkpt><trkpt lat="45.4105407" lon="9.2559102"><ele>98.0</ele><time>2026-04-20T16:27:38.396Z</time></trkpt><trkpt lat="45.4106056" lon="9.2558026"><ele>98.0</ele><time>2026-04-20T16:27:40.405Z</time></trkpt><trkpt lat="45.4106691" lon="9.2556996"><ele>98.0</ele><time>2026-04-20T16:27:42.397Z</time></trkpt><trkpt lat="45.4107258" lon="9.255579"><ele>97.0</ele><time>2026-04-20T16:27:44.393Z</time></trkpt><trkpt lat="45.4107835" lon="9.2554862"><ele>96.0</ele><time>2026-04-20T16:27:46.404Z</time></trkpt><trkpt lat="45.4108447" lon="9.2553871"><ele>95.0</ele><time>2026-04-20T16:27:48.394Z</time></trkpt><trkpt lat="45.4109095" lon="9.2552806"><ele>94.0</ele><time>2026-04-20T16:27:50.397Z</time></trkpt><trkpt lat="45.4109688" lon="9.2551747"><ele>93.0</ele><time>2026-04-20T16:27:52.403Z</time></trkpt><trkpt lat="45.4110412" lon="9.2550796"><ele>93.0</ele><time>2026-04-20T16:27:54.406Z</time></trkpt><trkpt lat="45.4111033" lon="9.2549788"><ele>93.0</ele><time>2026-04-20T16:27:56.397Z</time></trkpt><trkpt lat="45.4111625" lon="9.2548773"><ele>93.0</ele><time>2026-04-20T16:27:58.398Z</time></trkpt><trkpt lat="45.4112258" lon="9.2547878"><ele>93.0</ele><time>2026-04-20T16:28:00.398Z</time></trkpt><trkpt lat="45.4112834" lon="9.2546787"><ele>93.0</ele><time>2026-04-20T16:28:02.403Z</time></trkpt><trkpt lat="45.4113516" lon="9.254584"><ele>93.60000000000001</ele><time>2026-04-20T16:28:04.393Z</time></trkpt><trkpt lat="45.4114164" lon="9.2544795"><ele>94.2</ele><time>2026-04-20T16:28:06.397Z</time></trkpt><trkpt lat="45.4114792" lon="9.2543772"><ele>94.8</ele><time>2026-04-20T16:28:08.39Z</time></trkpt><trkpt lat="45.4115404" lon="9.25427"><ele>95.4</ele><time>2026-04-20T16:28:10.393Z</time></trkpt><trkpt lat="45.4116003" lon="9.2541647"><ele>96.0</ele><time>2026-04-20T16:28:12.409Z</time></trkpt><trkpt lat="45.4116621" lon="9.2540555"><ele>96.0</ele><time>2026-04-20T16:28:14.395Z</time></trkpt><trkpt lat="45.4117168" lon="9.2539647"><ele>96.0</ele><time>2026-04-20T16:28:16.392Z</time></trkpt><trkpt lat="45.4117826" lon="9.2538598"><ele>96.0</ele><time>2026-04-20T16:28:18.393Z</time></trkpt><trkpt lat="45.411842" lon="9.2537633"><ele>96.0</ele><time>2026-04-20T16:28:20.396Z</time></trkpt><trkpt lat="45.4119013" lon="9.2536741"><ele>96.0</ele><time>2026-04-20T16:28:22.398Z</time></trkpt><trkpt lat="45.4119821" lon="9.2535941"><ele>96.19999999999999</ele><time>2026-04-20T16:28:24.394Z</time></trkpt><trkpt lat="45.412073" lon="9.2535958"><ele>96.39999999999999</ele><time>2026-04-20T16:28:26.397Z</time></trkpt><trkpt lat="45.4121566" lon="9.2536269"><ele>96.6</ele><time>2026-04-20T16:28:28.396Z</time></trkpt><trkpt lat="45.4122453" lon="9.2536986"><ele>96.8</ele><time>2026-04-20T16:28:30.399Z</time></trkpt><trkpt lat="45.4123359" lon="9.2537428"><ele>97.0</ele><time>2026-04-20T16:28:32.397Z</time></trkpt><trkpt lat="45.4124403" lon="9.2537396"><ele>97.6</ele><time>2026-04-20T16:28:34.398Z</time></trkpt><trkpt lat="45.4125374" lon="9.2537466"><ele>98.19999999999999</ele><time>2026-04-20T16:28:36.398Z</time></trkpt><trkpt lat="45.4126324" lon="9.2537478"><ele>98.8</ele><time>2026-04-20T16:28:38.402Z</time></trkpt><trkpt lat="45.4127339" lon="9.2537571"><ele>99.4</ele><time>2026-04-20T16:28:40.399Z</time></trkpt><trkpt lat="45.4128355" lon="9.2537619"><ele>100.0</ele><time>2026-04-20T16:28:42.397Z</time></trkpt><trkpt lat="45.4129377" lon="9.2537545"><ele>100.6</ele><time>2026-04-20T16:28:44.394Z</time></trkpt><trkpt lat="45.41304" lon="9.2537387"><ele>101.2</ele><time>2026-04-20T16:28:46.389Z</time></trkpt><trkpt lat="45.4131367" lon="9.2537021"><ele>101.80000000000001</ele><time>2026-04-20T16:28:48.395Z</time></trkpt><trkpt lat="45.4132312" lon="9.253639"><ele>102.4</ele><time>2026-04-20T16:28:50.399Z</time></trkpt><trkpt lat="45.4133098" lon="9.2535486"><ele>103.0</ele><time>2026-04-20T16:28:52.402Z</time></trkpt><trkpt lat="45.4133875" lon="9.2534503"><ele>103.0</ele><time>2026-04-20T16:28:54.399Z</time></trkpt><trkpt lat="45.4134593" lon="9.2533483"><ele>103.0</ele><time>2026-04-20T16:28:56.399Z</time></trkpt><trkpt lat="45.4135208" lon="9.2532351"><ele>103.0</ele><time>2026-04-20T16:28:58.399Z</time></trkpt><trkpt lat="45.4135862" lon="9.2531234"><ele>103.0</ele><time>2026-04-20T16:29:00.395Z</time></trkpt><trkpt lat="45.4136574" lon="9.2530177"><ele>103.0</ele><time>2026-04-20T16:29:02.399Z</time></trkpt><trkpt lat="45.4137263" lon="9.2529174"><ele>102.60000000000001</ele><time>2026-04-20T16:29:04.397Z</time></trkpt><trkpt lat="45.4138096" lon="9.2528258"><ele>102.2</ele><time>2026-04-20T16:29:06.401Z</time></trkpt><trkpt lat="45.4138848" lon="9.2527333"><ele>101.8</ele><time>2026-04-20T16:29:08.404Z</time></trkpt><trkpt lat="45.4139585" lon="9.2526315"><ele>101.4</ele><time>2026-04-20T16:29:10.402Z</time></trkpt><trkpt lat="45.4140385" lon="9.2525507"><ele>101.0</ele><time>2026-04-20T16:29:12.402Z</time></trkpt><trkpt lat="45.414113" lon="9.2524686"><ele>102.0</ele><time>2026-04-20T16:29:14.397Z</time></trkpt><trkpt lat="45.4141669" lon="9.2523579"><ele>103.0</ele><time>2026-04-20T16:29:16.398Z</time></trkpt><trkpt lat="45.4141785" lon="9.2522311"><ele>104.0</ele><time>2026-04-20T16:29:18.4Z</time></trkpt><trkpt lat="45.4141397" lon="9.2520999"><ele>105.0</ele><time>2026-04-20T16:29:20.387Z</time></trkpt><trkpt lat="45.4140839" lon="9.2519701"><ele>106.0</ele><time>2026-04-20T16:29:22.404Z</time></trkpt><trkpt lat="45.4140269" lon="9.251855"><ele>106.0</ele><time>2026-04-20T16:29:24.396Z</time></trkpt><trkpt lat="45.4139622" lon="9.2517425"><ele>106.0</ele><time>2026-04-20T16:29:26.405Z</time></trkpt><trkpt lat="45.4139024" lon="9.2516384"><ele>106.0</ele><time>2026-04-20T16:29:28.399Z</time></trkpt><trkpt lat="45.4138436" lon="9.2515301"><ele>106.0</ele><time>2026-04-20T16:29:30.398Z</time></trkpt><trkpt lat="45.4137773" lon="9.2514286"><ele>106.0</ele><time>2026-04-20T16:29:32.416Z</time></trkpt><trkpt lat="45.4137133" lon="9.2513302"><ele>105.6</ele><time>2026-04-20T16:29:34.395Z</time></trkpt><trkpt lat="45.4136468" lon="9.2512339"><ele>105.19999999999999</ele><time>2026-04-20T16:29:36.394Z</time></trkpt><trkpt lat="45.4135781" lon="9.2511418"><ele>104.80000000000001</ele><time>2026-04-20T16:29:38.392Z</time></trkpt><trkpt lat="45.4135153" lon="9.2510433"><ele>104.4</ele><time>2026-04-20T16:29:40.397Z</time></trkpt><trkpt lat="45.4134502" lon="9.250941"><ele>104.0</ele><time>2026-04-20T16:29:42.396Z</time></trkpt><trkpt lat="45.4133908" lon="9.2508428"><ele>104.0</ele><time>2026-04-20T16:29:44.394Z</time></trkpt><trkpt lat="45.4133327" lon="9.2507392"><ele>104.0</ele><time>2026-04-20T16:29:46.392Z</time></trkpt><trkpt lat="45.4132614" lon="9.250637"><ele>104.0</ele><time>2026-04-20T16:29:48.394Z</time></trkpt><trkpt lat="45.4131947" lon="9.2505299"><ele>104.0</ele><time>2026-04-20T16:29:50.395Z</time></trkpt><trkpt lat="45.413128" lon="9.2504386"><ele>104.0</ele><time>2026-04-20T16:29:52.394Z</time></trkpt><trkpt lat="45.4130524" lon="9.2503587"><ele>102.6</ele><time>2026-04-20T16:29:54.397Z</time></trkpt><trkpt lat="45.4129682" lon="9.2502926"><ele>101.2</ele><time>2026-04-20T16:29:56.401Z</time></trkpt><trkpt lat="45.4128678" lon="9.2502461"><ele>99.8</ele><time>2026-04-20T16:29:58.395Z</time></trkpt><trkpt lat="45.4127611" lon="9.2502025"><ele>98.39999999999999</ele><time>2026-04-20T16:30:00.398Z</time></trkpt><trkpt lat="45.4126656" lon="9.2501515"><ele>97.0</ele><time>2026-04-20T16:30:02.398Z</time></trkpt><trkpt lat="45.4125675" lon="9.2501059"><ele>97.0</ele><time>2026-04-20T16:30:04.405Z</time></trkpt><trkpt lat="45.4124721" lon="9.2500828"><ele>97.0</ele><time>2026-04-20T16:30:06.392Z</time></trkpt><trkpt lat="45.4123778" lon="9.2501078"><ele>97.0</ele><time>2026-04-20T16:30:08.401Z</time></trkpt><trkpt lat="45.4122843" lon="9.2501486"><ele>97.0</ele><time>2026-04-20T16:30:10.407Z</time></trkpt><trkpt lat="45.4121944" lon="9.2500994"><ele>97.0</ele><time>2026-04-20T16:30:12.399Z</time></trkpt><trkpt lat="45.412169" lon="9.2499462"><ele>97.0</ele><time>2026-04-20T16:30:14.392Z</time></trkpt><trkpt lat="45.4121609" lon="9.2498121"><ele>97.0</ele><time>2026-04-20T16:30:16.389Z</time></trkpt><trkpt lat="45.4121224" lon="9.2496858"><ele>97.0</ele><time>2026-04-20T16:30:18.399Z</time></trkpt><trkpt lat="45.4120336" lon="9.2495719"><ele>97.0</ele><time>2026-04-20T16:30:20.399Z</time></trkpt><trkpt lat="45.4119446" lon="9.2494851"><ele>97.0</ele><time>2026-04-20T16:30:22.396Z</time></trkpt><trkpt lat="45.4118686" lon="9.2493777"><ele>97.39999999999999</ele><time>2026-04-20T16:30:24.396Z</time></trkpt><trkpt lat="45.4117956" lon="9.2492602"><ele>97.8</ele><time>2026-04-20T16:30:26.394Z</time></trkpt><trkpt lat="45.4117249" lon="9.2491481"><ele>98.2</ele><time>2026-04-20T16:30:28.398Z</time></trkpt><trkpt lat="45.4116599" lon="9.2490422"><ele>98.6</ele><time>2026-04-20T16:30:30.395Z</time></trkpt><trkpt lat="45.4116062" lon="9.2489287"><ele>99.0</ele><time>2026-04-20T16:30:32.394Z</time></trkpt><trkpt lat="45.4115576" lon="9.2487946"><ele>99.0</ele><time>2026-04-20T16:30:34.398Z</time></trkpt><trkpt lat="45.4115049" lon="9.2486721"><ele>99.0</ele><time>2026-04-20T16:30:36.398Z</time></trkpt><trkpt lat="45.4114514" lon="9.2485331"><ele>99.0</ele><time>2026-04-20T16:30:38.395Z</time></trkpt><trkpt lat="45.4113969" lon="9.2483946"><ele>99.0</ele><time>2026-04-20T16:30:40.396Z</time></trkpt><trkpt lat="45.4113465" lon="9.2482477"><ele>99.0</ele><time>2026-04-20T16:30:42.394Z</time></trkpt><trkpt lat="45.4112906" lon="9.2481193"><ele>99.2</ele><time>2026-04-20T16:30:44.397Z</time></trkpt><trkpt lat="45.4112445" lon="9.2479824"><ele>99.4</ele><time>2026-04-20T16:30:46.392Z</time></trkpt><trkpt lat="45.4111905" lon="9.247849"><ele>99.6</ele><time>2026-04-20T16:30:48.403Z</time></trkpt><trkpt lat="45.4111422" lon="9.2477221"><ele>99.8</ele><time>2026-04-20T16:30:50.394Z</time></trkpt><trkpt lat="45.4111038" lon="9.2475844"><ele>100.0</ele><time>2026-04-20T16:30:52.397Z</time></trkpt><trkpt lat="45.4110505" lon="9.247471"><ele>100.0</ele><time>2026-04-20T16:30:54.395Z</time></trkpt><trkpt lat="45.4109665" lon="9.2473859"><ele>100.0</ele><time>2026-04-20T16:30:56.4Z</time></trkpt><trkpt lat="45.4108716" lon="9.2473133"><ele>100.0</ele><time>2026-04-20T16:30:58.4Z</time></trkpt><trkpt lat="45.4107717" lon="9.2472446"><ele>100.0</ele><time>2026-04-20T16:31:00.392Z</time></trkpt><trkpt lat="45.4106809" lon="9.2471559"><ele>100.0</ele><time>2026-04-20T16:31:02.395Z</time></trkpt><trkpt lat="45.410593" lon="9.2470696"><ele>99.8</ele><time>2026-04-20T16:31:04.398Z</time></trkpt><trkpt lat="45.4105052" lon="9.2469851"><ele>99.6</ele><time>2026-04-20T16:31:06.398Z</time></trkpt><trkpt lat="45.4104161" lon="9.2469118"><ele>99.4</ele><time>2026-04-20T16:31:08.393Z</time></trkpt><trkpt lat="45.4103315" lon="9.2468284"><ele>99.2</ele><time>2026-04-20T16:31:10.397Z</time></trkpt><trkpt lat="45.4102414" lon="9.246752"><ele>99.0</ele><time>2026-04-20T16:31:12.399Z</time></trkpt><trkpt lat="45.4101548" lon="9.2466619"><ele>99.6</ele><time>2026-04-20T16:31:14.399Z</time></trkpt><trkpt lat="45.4100677" lon="9.2465783"><ele>100.2</ele><time>2026-04-20T16:31:16.39Z</time></trkpt><trkpt lat="45.4099775" lon="9.2464962"><ele>100.8</ele><time>2026-04-20T16:31:18.393Z</time></trkpt><trkpt lat="45.4098868" lon="9.2464154"><ele>101.39999999999999</ele><time>2026-04-20T16:31:20.392Z</time></trkpt><trkpt lat="45.4098007" lon="9.2463295"><ele>102.0</ele><time>2026-04-20T16:31:22.399Z</time></trkpt><trkpt lat="45.4097127" lon="9.246254"><ele>101.6</ele><time>2026-04-20T16:31:24.404Z</time></trkpt><trkpt lat="45.4096269" lon="9.2461719"><ele>101.19999999999999</ele><time>2026-04-20T16:31:26.402Z</time></trkpt><trkpt lat="45.4095412" lon="9.2460888"><ele>100.8</ele><time>2026-04-20T16:31:28.399Z</time></trkpt><trkpt lat="45.409451" lon="9.2460024"><ele>100.4</ele><time>2026-04-20T16:31:30.393Z</time></trkpt><trkpt lat="45.4093654" lon="9.2459217"><ele>100.0</ele><time>2026-04-20T16:31:32.396Z</time></trkpt><trkpt lat="45.409277" lon="9.2458409"><ele>100.0</ele><time>2026-04-20T16:31:34.397Z</time></trkpt><trkpt lat="45.4091909" lon="9.2457585"><ele>100.0</ele><time>2026-04-20T16:31:36.398Z</time></trkpt><trkpt lat="45.409102" lon="9.2456782"><ele>100.0</ele><time>2026-04-20T16:31:38.396Z</time></trkpt><trkpt lat="45.4090175" lon="9.245598"><ele>100.0</ele><time>2026-04-20T16:31:40.406Z</time></trkpt><trkpt lat="45.4089305" lon="9.2455144"><ele>100.0</ele><time>2026-04-20T16:31:42.392Z</time></trkpt><trkpt lat="45.408851" lon="9.2454284"><ele>99.2</ele><time>2026-04-20T16:31:44.406Z</time></trkpt><trkpt lat="45.4087651" lon="9.245353"><ele>98.4</ele><time>2026-04-20T16:31:46.397Z</time></trkpt><trkpt lat="45.408683" lon="9.2452704"><ele>97.6</ele><time>2026-04-20T16:31:48.398Z</time></trkpt><trkpt lat="45.4086008" lon="9.2451954"><ele>96.8</ele><time>2026-04-20T16:31:50.399Z</time></trkpt><trkpt lat="45.4085141" lon="9.2451181"><ele>96.0</ele><time>2026-04-20T16:31:52.398Z</time></trkpt><trkpt lat="45.4084285" lon="9.2450459"><ele>96.0</ele><time>2026-04-20T16:31:54.396Z</time></trkpt><trkpt lat="45.4083484" lon="9.2449762"><ele>96.0</ele><time>2026-04-20T16:31:56.392Z</time></trkpt><trkpt lat="45.4082644" lon="9.2448991"><ele>96.0</ele><time>2026-04-20T16:31:58.394Z</time></trkpt><trkpt lat="45.4081829" lon="9.2448196"><ele>96.0</ele><time>2026-04-20T16:32:00.402Z</time></trkpt><trkpt lat="45.4081003" lon="9.2447501"><ele>96.0</ele><time>2026-04-20T16:32:02.387Z</time></trkpt><trkpt lat="45.408023" lon="9.2446674"><ele>96.8</ele><time>2026-04-20T16:32:04.4Z</time></trkpt><trkpt lat="45.4079369" lon="9.2445877"><ele>97.6</ele><time>2026-04-20T16:32:06.398Z</time></trkpt><trkpt lat="45.4078588" lon="9.2445098"><ele>98.4</ele><time>2026-04-20T16:32:08.398Z</time></trkpt><trkpt lat="45.4077747" lon="9.2444334"><ele>99.2</ele><time>2026-04-20T16:32:10.395Z</time></trkpt><trkpt lat="45.4076863" lon="9.2443622"><ele>100.0</ele><time>2026-04-20T16:32:12.4Z</time></trkpt><trkpt lat="45.407605" lon="9.2442804"><ele>100.0</ele><time>2026-04-20T16:32:14.395Z</time></trkpt><trkpt lat="45.4075263" lon="9.244201"><ele>100.0</ele><time>2026-04-20T16:32:16.4Z</time></trkpt><trkpt lat="45.4074401" lon="9.2441232"><ele>100.0</ele><time>2026-04-20T16:32:18.396Z</time></trkpt><trkpt lat="45.4073654" lon="9.2440391"><ele>100.0</ele><time>2026-04-20T16:32:20.391Z</time></trkpt><trkpt lat="45.4072835" lon="9.2439611"><ele>100.0</ele><time>2026-04-20T16:32:22.399Z</time></trkpt><trkpt lat="45.4072007" lon="9.243879"><ele>100.4</ele><time>2026-04-20T16:32:24.401Z</time></trkpt><trkpt lat="45.4071243" lon="9.2437994"><ele>100.8</ele><time>2026-04-20T16:32:26.393Z</time></trkpt><trkpt lat="45.4070484" lon="9.2437134"><ele>101.19999999999999</ele><time>2026-04-20T16:32:28.4Z</time></trkpt><trkpt lat="45.4069685" lon="9.2436306"><ele>101.6</ele><time>2026-04-20T16:32:30.388Z</time></trkpt><trkpt lat="45.4068783" lon="9.2435555"><ele>102.0</ele><time>2026-04-20T16:32:32.393Z</time></trkpt><trkpt lat="45.4067809" lon="9.2435703"><ele>102.0</ele><time>2026-04-20T16:32:34.404Z</time></trkpt><trkpt lat="45.4067181" lon="9.2436668"><ele>102.0</ele><time>2026-04-20T16:32:36.395Z</time></trkpt><trkpt lat="45.4066586" lon="9.2437797"><ele>102.0</ele><time>2026-04-20T16:32:38.399Z</time></trkpt><trkpt lat="45.4065737" lon="9.2438574"><ele>102.0</ele><time>2026-04-20T16:32:40.391Z</time></trkpt><trkpt lat="45.4064807" lon="9.2438844"><ele>102.0</ele><time>2026-04-20T16:32:42.397Z</time></trkpt><trkpt lat="45.4063882" lon="9.2438914"><ele>102.0</ele><time>2026-04-20T16:32:44.398Z</time></trkpt><trkpt lat="45.406291" lon="9.2439011"><ele>102.0</ele><time>2026-04-20T16:32:46.395Z</time></trkpt><trkpt lat="45.4061917" lon="9.2439313"><ele>102.0</ele><time>2026-04-20T16:32:48.395Z</time></trkpt><trkpt lat="45.4060893" lon="9.2439512"><ele>102.0</ele><time>2026-04-20T16:32:50.397Z</time></trkpt><trkpt lat="45.4059976" lon="9.2439871"><ele>102.0</ele><time>2026-04-20T16:32:52.393Z</time></trkpt><trkpt lat="45.4059202" lon="9.244061"><ele>101.8</ele><time>2026-04-20T16:32:54.401Z</time></trkpt><trkpt lat="45.4058534" lon="9.2441651"><ele>101.6</ele><time>2026-04-20T16:32:56.397Z</time></trkpt><trkpt lat="45.4057975" lon="9.2442773"><ele>101.39999999999999</ele><time>2026-04-20T16:32:58.398Z</time></trkpt><trkpt lat="45.4057416" lon="9.2443825"><ele>101.19999999999999</ele><time>2026-04-20T16:33:00.394Z</time></trkpt><trkpt lat="45.4056715" lon="9.2444928"><ele>101.0</ele><time>2026-04-20T16:33:02.39Z</time></trkpt><trkpt lat="45.4055889" lon="9.2445941"><ele>101.0</ele><time>2026-04-20T16:33:04.392Z</time></trkpt><trkpt lat="45.4055064" lon="9.2446881"><ele>101.0</ele><time>2026-04-20T16:33:06.399Z</time></trkpt><trkpt lat="45.40543" lon="9.244783"><ele>101.0</ele><time>2026-04-20T16:33:08.393Z</time></trkpt><trkpt lat="45.4053523" lon="9.2448735"><ele>101.0</ele><time>2026-04-20T16:33:10.4Z</time></trkpt><trkpt lat="45.4052685" lon="9.2449701"><ele>101.0</ele><time>2026-04-20T16:33:12.396Z</time></trkpt><trkpt lat="45.4051946" lon="9.245062"><ele>101.0</ele><time>2026-04-20T16:33:14.399Z</time></trkpt><trkpt lat="45.4051225" lon="9.2451566"><ele>101.0</ele><time>2026-04-20T16:33:16.401Z</time></trkpt><trkpt lat="45.4050449" lon="9.2452514"><ele>101.0</ele><time>2026-04-20T16:33:18.393Z</time></trkpt><trkpt lat="45.4049657" lon="9.2453486"><ele>101.0</ele><time>2026-04-20T16:33:20.396Z</time></trkpt><trkpt lat="45.4048908" lon="9.2454453"><ele>101.0</ele><time>2026-04-20T16:33:22.395Z</time></trkpt><trkpt lat="45.4048153" lon="9.245534"><ele>101.19999999999999</ele><time>2026-04-20T16:33:24.395Z</time></trkpt><trkpt lat="45.4047457" lon="9.2456316"><ele>101.39999999999999</ele><time>2026-04-20T16:33:26.39Z</time></trkpt><trkpt lat="45.4046784" lon="9.245731"><ele>101.6</ele><time>2026-04-20T16:33:28.396Z</time></trkpt><trkpt lat="45.4046116" lon="9.2458226"><ele>101.8</ele><time>2026-04-20T16:33:30.394Z</time></trkpt><trkpt lat="45.4045519" lon="9.2459191"><ele>102.0</ele><time>2026-04-20T16:33:32.398Z</time></trkpt><trkpt lat="45.4044802" lon="9.2460205"><ele>102.0</ele><time>2026-04-20T16:33:34.392Z</time></trkpt><trkpt lat="45.4044092" lon="9.2461236"><ele>102.0</ele><time>2026-04-20T16:33:36.396Z</time></trkpt><trkpt lat="45.4043248" lon="9.2461983"><ele>102.0</ele><time>2026-04-20T16:33:38.399Z</time></trkpt><trkpt lat="45.404259" lon="9.2461841"><ele>102.0</ele><time>2026-04-20T16:33:39.399Z</time></trkpt><trkpt lat="45.4042064" lon="9.2461307"><ele>102.0</ele><time>2026-04-20T16:33:40.39Z</time></trkpt><trkpt lat="45.4041361" lon="9.246017"><ele>102.0</ele><time>2026-04-20T16:33:42.394Z</time></trkpt><trkpt lat="45.4040617" lon="9.2459226"><ele>102.0</ele><time>2026-04-20T16:33:44.398Z</time></trkpt><trkpt lat="45.4039931" lon="9.2458077"><ele>102.0</ele><time>2026-04-20T16:33:46.403Z</time></trkpt><trkpt lat="45.403923" lon="9.2457026"><ele>102.0</ele><time>2026-04-20T16:33:48.389Z</time></trkpt><trkpt lat="45.4038524" lon="9.245606"><ele>102.0</ele><time>2026-04-20T16:33:50.399Z</time></trkpt><trkpt lat="45.403786" lon="9.2454948"><ele>102.0</ele><time>2026-04-20T16:33:52.395Z</time></trkpt><trkpt lat="45.4037165" lon="9.2453835"><ele>102.0</ele><time>2026-04-20T16:33:54.399Z</time></trkpt><trkpt lat="45.4036486" lon="9.2452712"><ele>102.0</ele><time>2026-04-20T16:33:56.399Z</time></trkpt><trkpt lat="45.4035644" lon="9.2451787"><ele>102.0</ele><time>2026-04-20T16:33:58.404Z</time></trkpt><trkpt lat="45.4034905" lon="9.2450819"><ele>102.0</ele><time>2026-04-20T16:34:00.4Z</time></trkpt><trkpt lat="45.4034193" lon="9.2449742"><ele>102.0</ele><time>2026-04-20T16:34:02.395Z</time></trkpt><trkpt lat="45.4033487" lon="9.2448711"><ele>101.6</ele><time>2026-04-20T16:34:04.395Z</time></trkpt><trkpt lat="45.4032817" lon="9.2447628"><ele>101.19999999999999</ele><time>2026-04-20T16:34:06.405Z</time></trkpt><trkpt lat="45.4032045" lon="9.2446657"><ele>100.8</ele><time>2026-04-20T16:34:08.392Z</time></trkpt><trkpt lat="45.4031403" lon="9.244552"><ele>100.4</ele><time>2026-04-20T16:34:10.4Z</time></trkpt><trkpt lat="45.4030681" lon="9.2444717"><ele>100.0</ele><time>2026-04-20T16:34:12.409Z</time></trkpt><trkpt lat="45.4029781" lon="9.244444"><ele>99.6</ele><time>2026-04-20T16:34:14.403Z</time></trkpt><trkpt lat="45.4028677" lon="9.2444639"><ele>99.2</ele><time>2026-04-20T16:34:16.407Z</time></trkpt><trkpt lat="45.4027713" lon="9.2444853"><ele>98.80000000000001</ele><time>2026-04-20T16:34:18.396Z</time></trkpt><trkpt lat="45.4026791" lon="9.2445224"><ele>98.4</ele><time>2026-04-20T16:34:20.402Z</time></trkpt><trkpt lat="45.4025873" lon="9.2445432"><ele>98.0</ele><time>2026-04-20T16:34:22.395Z</time></trkpt><trkpt lat="45.4024905" lon="9.2445589"><ele>98.0</ele><time>2026-04-20T16:34:24.393Z</time></trkpt><trkpt lat="45.4023971" lon="9.2445822"><ele>98.0</ele><time>2026-04-20T16:34:26.393Z</time></trkpt><trkpt lat="45.4023037" lon="9.2446121"><ele>98.0</ele><time>2026-04-20T16:34:28.397Z</time></trkpt><trkpt lat="45.4022054" lon="9.2446424"><ele>98.0</ele><time>2026-04-20T16:34:30.4Z</time></trkpt><trkpt lat="45.4021123" lon="9.2446578"><ele>98.0</ele><time>2026-04-20T16:34:32.4Z</time></trkpt><trkpt lat="45.4020183" lon="9.2446708"><ele>97.80000000000001</ele><time>2026-04-20T16:34:34.395Z</time></trkpt><trkpt lat="45.4019223" lon="9.2446942"><ele>97.6</ele><time>2026-04-20T16:34:36.397Z</time></trkpt><trkpt lat="45.401836" lon="9.2447131"><ele>97.4</ele><time>2026-04-20T16:34:38.393Z</time></trkpt><trkpt lat="45.4017442" lon="9.2447348"><ele>97.19999999999999</ele><time>2026-04-20T16:34:40.397Z</time></trkpt><trkpt lat="45.4016504" lon="9.2447569"><ele>97.0</ele><time>2026-04-20T16:34:42.396Z</time></trkpt><trkpt lat="45.4015437" lon="9.244769"><ele>97.00000000000001</ele><time>2026-04-20T16:34:44.397Z</time></trkpt><trkpt lat="45.4014566" lon="9.2447826"><ele>97.0</ele><time>2026-04-20T16:34:46.395Z</time></trkpt><trkpt lat="45.4013741" lon="9.2448093"><ele>97.0</ele><time>2026-04-20T16:34:48.395Z</time></trkpt><trkpt lat="45.4012873" lon="9.2448262"><ele>97.0</ele><time>2026-04-20T16:34:50.394Z</time></trkpt><trkpt lat="45.4011888" lon="9.2448504"><ele>97.00000000000001</ele><time>2026-04-20T16:34:52.392Z</time></trkpt><trkpt lat="45.4011016" lon="9.244874"><ele>97.0</ele><time>2026-04-20T16:34:54.402Z</time></trkpt><trkpt lat="45.4010117" lon="9.2449128"><ele>98.0</ele><time>2026-04-20T16:34:56.395Z</time></trkpt><trkpt lat="45.4009322" lon="9.2449826"><ele>99.0</ele><time>2026-04-20T16:34:58.394Z</time></trkpt><trkpt lat="45.4008504" lon="9.2450742"><ele>100.0</ele><time>2026-04-20T16:35:00.402Z</time></trkpt><trkpt lat="45.400779" lon="9.2451642"><ele>101.0</ele><time>2026-04-20T16:35:02.394Z</time></trkpt><trkpt lat="45.4007075" lon="9.2452535"><ele>102.0</ele><time>2026-04-20T16:35:04.398Z</time></trkpt><trkpt lat="45.4006362" lon="9.2453417"><ele>102.0</ele><time>2026-04-20T16:35:06.398Z</time></trkpt><trkpt lat="45.4005691" lon="9.2454422"><ele>102.0</ele><time>2026-04-20T16:35:08.394Z</time></trkpt><trkpt lat="45.4004963" lon="9.2455395"><ele>102.0</ele><time>2026-04-20T16:35:10.394Z</time></trkpt><trkpt lat="45.4004204" lon="9.2456357"><ele>102.0</ele><time>2026-04-20T16:35:12.396Z</time></trkpt><trkpt lat="45.4003377" lon="9.2457378"><ele>102.0</ele><time>2026-04-20T16:35:14.395Z</time></trkpt><trkpt lat="45.4002612" lon="9.2458431"><ele>101.8</ele><time>2026-04-20T16:35:16.401Z</time></trkpt><trkpt lat="45.4001777" lon="9.245949"><ele>101.6</ele><time>2026-04-20T16:35:18.406Z</time></trkpt><trkpt lat="45.4000874" lon="9.2460462"><ele>101.39999999999999</ele><time>2026-04-20T16:35:20.408Z</time></trkpt><trkpt lat="45.3999893" lon="9.2461055"><ele>101.19999999999999</ele><time>2026-04-20T16:35:22.403Z</time></trkpt><trkpt lat="45.3998859" lon="9.2461284"><ele>101.0</ele><time>2026-04-20T16:35:24.394Z</time></trkpt><trkpt lat="45.3997727" lon="9.2461191"><ele>101.0</ele><time>2026-04-20T16:35:26.391Z</time></trkpt><trkpt lat="45.3996638" lon="9.2460887"><ele>101.0</ele><time>2026-04-20T16:35:28.408Z</time></trkpt><trkpt lat="45.3995693" lon="9.246062"><ele>101.0</ele><time>2026-04-20T16:35:30.394Z</time></trkpt><trkpt lat="45.3994705" lon="9.2460508"><ele>101.0</ele><time>2026-04-20T16:35:32.399Z</time></trkpt><trkpt lat="45.3993826" lon="9.2460081"><ele>101.0</ele><time>2026-04-20T16:35:34.4Z</time></trkpt><trkpt lat="45.3992919" lon="9.2459579"><ele>101.0</ele><time>2026-04-20T16:35:36.399Z</time></trkpt><trkpt lat="45.3991902" lon="9.245931"><ele>101.0</ele><time>2026-04-20T16:35:38.394Z</time></trkpt><trkpt lat="45.3991022" lon="9.2459013"><ele>101.0</ele><time>2026-04-20T16:35:40.395Z</time></trkpt><trkpt lat="45.3989996" lon="9.2458678"><ele>101.0</ele><time>2026-04-20T16:35:42.395Z</time></trkpt><trkpt lat="45.3988955" lon="9.2458342"><ele>101.0</ele><time>2026-04-20T16:35:44.401Z</time></trkpt><trkpt lat="45.3987926" lon="9.2458087"><ele>101.0</ele><time>2026-04-20T16:35:46.41Z</time></trkpt><trkpt lat="45.398698" lon="9.2457904"><ele>101.0</ele><time>2026-04-20T16:35:48.395Z</time></trkpt><trkpt lat="45.3985991" lon="9.2457513"><ele>101.0</ele><time>2026-04-20T16:35:50.394Z</time></trkpt><trkpt lat="45.3985021" lon="9.2457115"><ele>101.0</ele><time>2026-04-20T16:35:52.393Z</time></trkpt><trkpt lat="45.3984118" lon="9.2456777"><ele>101.0</ele><time>2026-04-20T16:35:54.397Z</time></trkpt><trkpt lat="45.398318" lon="9.2456435"><ele>101.0</ele><time>2026-04-20T16:35:56.399Z</time></trkpt><trkpt lat="45.3982234" lon="9.2456144"><ele>101.0</ele><time>2026-04-20T16:35:58.393Z</time></trkpt><trkpt lat="45.3981329" lon="9.2455755"><ele>101.0</ele><time>2026-04-20T16:36:00.395Z</time></trkpt><trkpt lat="45.3980247" lon="9.2455528"><ele>101.0</ele><time>2026-04-20T16:36:02.404Z</time></trkpt><trkpt lat="45.3979339" lon="9.24552"><ele>101.0</ele><time>2026-04-20T16:36:04.395Z</time></trkpt><trkpt lat="45.3978347" lon="9.2454957"><ele>101.0</ele><time>2026-04-20T16:36:06.4Z</time></trkpt><trkpt lat="45.3977506" lon="9.2454515"><ele>101.0</ele><time>2026-04-20T16:36:08.399Z</time></trkpt><trkpt lat="45.3976551" lon="9.2454174"><ele>101.0</ele><time>2026-04-20T16:36:10.398Z</time></trkpt><trkpt lat="45.3975574" lon="9.2453931"><ele>101.0</ele><time>2026-04-20T16:36:12.396Z</time></trkpt><trkpt lat="45.3974596" lon="9.2453508"><ele>101.0</ele><time>2026-04-20T16:36:14.397Z</time></trkpt><trkpt lat="45.3973633" lon="9.2453197"><ele>101.0</ele><time>2026-04-20T16:36:16.399Z</time></trkpt><trkpt lat="45.397263" lon="9.2452917"><ele>101.0</ele><time>2026-04-20T16:36:18.4Z</time></trkpt><trkpt lat="45.3971738" lon="9.2452552"><ele>101.0</ele><time>2026-04-20T16:36:20.398Z</time></trkpt><trkpt lat="45.397081" lon="9.2452101"><ele>101.0</ele><time>2026-04-20T16:36:22.396Z</time></trkpt><trkpt lat="45.3969882" lon="9.2451599"><ele>101.0</ele><time>2026-04-20T16:36:24.399Z</time></trkpt><trkpt lat="45.3968949" lon="9.2451352"><ele>100.83333333333333</ele><time>2026-04-20T16:36:26.399Z</time></trkpt><trkpt lat="45.3968051" lon="9.2450877"><ele>100.66666666666666</ele><time>2026-04-20T16:36:28.398Z</time></trkpt><trkpt lat="45.3967716" lon="9.2449547"><ele>100.5</ele><time>2026-04-20T16:36:30.395Z</time></trkpt><trkpt lat="45.3967991" lon="9.2448274"><ele>100.33333333333334</ele><time>2026-04-20T16:36:32.395Z</time></trkpt><trkpt lat="45.3968163" lon="9.2447145"><ele>100.16666666666667</ele><time>2026-04-20T16:36:34.393Z</time></trkpt><trkpt lat="45.3968503" lon="9.2446201"><ele>100.0</ele><time>2026-04-20T16:36:36.4Z</time></trkpt><trkpt lat="45.3968764" lon="9.2445204"><ele>100.33333333333334</ele><time>2026-04-20T16:36:38.401Z</time></trkpt><trkpt lat="45.3969087" lon="9.2444194"><ele>100.66666666666667</ele><time>2026-04-20T16:36:40.398Z</time></trkpt><trkpt lat="45.3969257" lon="9.2443127"><ele>101.0</ele><time>2026-04-20T16:36:42.398Z</time></trkpt><trkpt lat="45.3969469" lon="9.2442096"><ele>101.33333333333334</ele><time>2026-04-20T16:36:44.404Z</time></trkpt><trkpt lat="45.3969726" lon="9.2440967"><ele>101.66666666666667</ele><time>2026-04-20T16:36:46.397Z</time></trkpt><trkpt lat="45.3970044" lon="9.2439848"><ele>102.0</ele><time>2026-04-20T16:36:48.402Z</time></trkpt><trkpt lat="45.397029" lon="9.2438797"><ele>102.16666666666667</ele><time>2026-04-20T16:36:50.397Z</time></trkpt><trkpt lat="45.3970574" lon="9.2437754"><ele>102.33333333333334</ele><time>2026-04-20T16:36:52.398Z</time></trkpt><trkpt lat="45.397086" lon="9.2436704"><ele>102.5</ele><time>2026-04-20T16:36:54.392Z</time></trkpt><trkpt lat="45.3971324" lon="9.2435842"><ele>102.66666666666667</ele><time>2026-04-20T16:36:56.395Z</time></trkpt><trkpt lat="45.3971717" lon="9.2435009"><ele>102.83333333333334</ele><time>2026-04-20T16:36:58.399Z</time></trkpt><trkpt lat="45.3971172" lon="9.2434223"><ele>103.0</ele><time>2026-04-20T16:37:02.394Z</time></trkpt><trkpt lat="45.3970702" lon="9.2433014"><ele>103.16666666666667</ele><time>2026-04-20T16:37:05.401Z</time></trkpt><trkpt lat="45.3970393" lon="9.243208"><ele>103.33333333333334</ele><time>2026-04-20T16:37:07.396Z</time></trkpt><trkpt lat="45.3970027" lon="9.2431171"><ele>103.5</ele><time>2026-04-20T16:37:09.399Z</time></trkpt><trkpt lat="45.3969697" lon="9.2430269"><ele>103.66666666666666</ele><time>2026-04-20T16:37:11.408Z</time></trkpt><trkpt lat="45.3969328" lon="9.2429265"><ele>103.83333333333333</ele><time>2026-04-20T16:37:13.396Z</time></trkpt><trkpt lat="45.3969018" lon="9.2428209"><ele>104.0</ele><time>2026-04-20T16:37:15.404Z</time></trkpt><trkpt lat="45.3968661" lon="9.2427275"><ele>103.99999999999999</ele><time>2026-04-20T16:37:17.399Z</time></trkpt><trkpt lat="45.3968367" lon="9.2426048"><ele>104.0</ele><time>2026-04-20T16:37:19.397Z</time></trkpt><trkpt lat="45.3968096" lon="9.2424898"><ele>104.0</ele><time>2026-04-20T16:37:21.396Z</time></trkpt><trkpt lat="45.3967757" lon="9.2423928"><ele>104.0</ele><time>2026-04-20T16:37:23.395Z</time></trkpt><trkpt lat="45.3967506" lon="9.2422858"><ele>103.99999999999999</ele><time>2026-04-20T16:37:25.397Z</time></trkpt><trkpt lat="45.3967152" lon="9.2421887"><ele>104.0</ele><time>2026-04-20T16:37:27.399Z</time></trkpt><trkpt lat="45.3966812" lon="9.242097"><ele>103.57142857142857</ele><time>2026-04-20T16:37:29.396Z</time></trkpt><trkpt lat="45.3966405" lon="9.2420012"><ele>103.14285714285715</ele><time>2026-04-20T16:37:31.397Z</time></trkpt><trkpt lat="45.3965847" lon="9.2419402"><ele>102.71428571428572</ele><time>2026-04-20T16:37:33.395Z</time></trkpt><trkpt lat="45.3965181" lon="9.2419294"><ele>102.28571428571428</ele><time>2026-04-20T16:37:35.401Z</time></trkpt><trkpt lat="45.3964363" lon="9.2419204"><ele>101.85714285714286</ele><time>2026-04-20T16:37:37.39Z</time></trkpt><trkpt lat="45.3963694" lon="9.2418859"><ele>101.42857142857143</ele><time>2026-04-20T16:37:39.391Z</time></trkpt><trkpt lat="45.3963034" lon="9.2418515"><ele>101.0</ele><time>2026-04-20T16:37:41.409Z</time></trkpt><trkpt lat="45.3962193" lon="9.241799"><ele>100.83333333333333</ele><time>2026-04-20T16:37:44.402Z</time></trkpt><trkpt lat="45.3961458" lon="9.2418151"><ele>100.66666666666666</ele><time>2026-04-20T16:37:46.397Z</time></trkpt><trkpt lat="45.3960834" lon="9.2418408"><ele>100.5</ele><time>2026-04-20T16:37:48.399Z</time></trkpt><trkpt lat="45.3960328" lon="9.2419295"><ele>100.33333333333334</ele><time>2026-04-20T16:37:50.394Z</time></trkpt><trkpt lat="45.3960099" lon="9.2420302"><ele>100.16666666666667</ele><time>2026-04-20T16:37:52.399Z</time></trkpt><trkpt lat="45.3959785" lon="9.2421304"><ele>100.0</ele><time>2026-04-20T16:37:54.395Z</time></trkpt><trkpt lat="45.3959391" lon="9.2422423"><ele>100.0</ele><time>2026-04-20T16:37:56.389Z</time></trkpt><trkpt lat="45.3958946" lon="9.2423521"><ele>100.0</ele><time>2026-04-20T16:37:58.398Z</time></trkpt><trkpt lat="45.3958494" lon="9.2424775"><ele>100.0</ele><time>2026-04-20T16:38:00.398Z</time></trkpt><trkpt lat="45.3958065" lon="9.2425962"><ele>100.0</ele><time>2026-04-20T16:38:02.398Z</time></trkpt><trkpt lat="45.3957456" lon="9.2426935"><ele>100.0</ele><time>2026-04-20T16:38:04.396Z</time></trkpt><trkpt lat="45.3956698" lon="9.2427974"><ele>100.0</ele><time>2026-04-20T16:38:06.392Z</time></trkpt><trkpt lat="45.3955984" lon="9.242905"><ele>100.0</ele><time>2026-04-20T16:38:08.398Z</time></trkpt><trkpt lat="45.3955081" lon="9.2429966"><ele>100.0</ele><time>2026-04-20T16:38:10.4Z</time></trkpt><trkpt lat="45.3954261" lon="9.2430839"><ele>100.0</ele><time>2026-04-20T16:38:12.396Z</time></trkpt><trkpt lat="45.3953522" lon="9.2431956"><ele>100.0</ele><time>2026-04-20T16:38:14.396Z</time></trkpt><trkpt lat="45.3952672" lon="9.2432858"><ele>99.8</ele><time>2026-04-20T16:38:16.396Z</time></trkpt><trkpt lat="45.3951863" lon="9.2433841"><ele>99.6</ele><time>2026-04-20T16:38:18.395Z</time></trkpt><trkpt lat="45.3951085" lon="9.2434712"><ele>99.4</ele><time>2026-04-20T16:38:20.405Z</time></trkpt><trkpt lat="45.3950241" lon="9.2435548"><ele>99.2</ele><time>2026-04-20T16:38:22.4Z</time></trkpt><trkpt lat="45.394954" lon="9.2436592"><ele>99.0</ele><time>2026-04-20T16:38:24.405Z</time></trkpt><trkpt lat="45.3948805" lon="9.2437414"><ele>99.0</ele><time>2026-04-20T16:38:26.39Z</time></trkpt><trkpt lat="45.394803" lon="9.2438365"><ele>99.0</ele><time>2026-04-20T16:38:28.404Z</time></trkpt><trkpt lat="45.3947301" lon="9.2439387"><ele>99.0</ele><time>2026-04-20T16:38:30.398Z</time></trkpt><trkpt lat="45.3946653" lon="9.2440433"><ele>99.0</ele><time>2026-04-20T16:38:32.398Z</time></trkpt><trkpt lat="45.3945915" lon="9.2441423"><ele>99.0</ele><time>2026-04-20T16:38:34.396Z</time></trkpt><trkpt lat="45.3945212" lon="9.2442421"><ele>99.4</ele><time>2026-04-20T16:38:36.392Z</time></trkpt><trkpt lat="45.3944555" lon="9.2443397"><ele>99.80000000000001</ele><time>2026-04-20T16:38:38.4Z</time></trkpt><trkpt lat="45.3943911" lon="9.244447"><ele>100.19999999999999</ele><time>2026-04-20T16:38:40.397Z</time></trkpt><trkpt lat="45.3943314" lon="9.2445596"><ele>100.6</ele><time>2026-04-20T16:38:42.4Z</time></trkpt><trkpt lat="45.3942575" lon="9.2446511"><ele>101.0</ele><time>2026-04-20T16:38:44.402Z</time></trkpt><trkpt lat="45.3941844" lon="9.2447138"><ele>100.99999999999999</ele><time>2026-04-20T16:38:46.398Z</time></trkpt><trkpt lat="45.3941089" lon="9.2447554"><ele>101.0</ele><time>2026-04-20T16:38:48.401Z</time></trkpt><trkpt lat="45.3940403" lon="9.2448017"><ele>101.0</ele><time>2026-04-20T16:38:50.409Z</time></trkpt><trkpt lat="45.3939491" lon="9.2447954"><ele>101.0</ele><time>2026-04-20T16:38:52.396Z</time></trkpt><trkpt lat="45.3938685" lon="9.2447852"><ele>100.99999999999999</ele><time>2026-04-20T16:38:54.406Z</time></trkpt><trkpt lat="45.393786" lon="9.2447682"><ele>101.0</ele><time>2026-04-20T16:38:56.392Z</time></trkpt><trkpt lat="45.3936975" lon="9.2447553"><ele>101.0</ele><time>2026-04-20T16:38:58.394Z</time></trkpt><trkpt lat="45.3936097" lon="9.2447251"><ele>101.0</ele><time>2026-04-20T16:39:00.396Z</time></trkpt><trkpt lat="45.3935179" lon="9.2446964"><ele>101.0</ele><time>2026-04-20T16:39:02.404Z</time></trkpt><trkpt lat="45.3934298" lon="9.2446406"><ele>101.0</ele><time>2026-04-20T16:39:04.4Z</time></trkpt><trkpt lat="45.3933726" lon="9.2445468"><ele>101.0</ele><time>2026-04-20T16:39:06.394Z</time></trkpt><trkpt lat="45.3933431" lon="9.2444309"><ele>101.0</ele><time>2026-04-20T16:39:08.397Z</time></trkpt><trkpt lat="45.3933316" lon="9.2442988"><ele>101.0</ele><time>2026-04-20T16:39:10.4Z</time></trkpt><trkpt lat="45.3933225" lon="9.2441635"><ele>101.0</ele><time>2026-04-20T16:39:12.395Z</time></trkpt><trkpt lat="45.3933096" lon="9.2440345"><ele>101.0</ele><time>2026-04-20T16:39:14.394Z</time></trkpt><trkpt lat="45.3933058" lon="9.2439212"><ele>101.0</ele><time>2026-04-20T16:39:16.412Z</time></trkpt><trkpt lat="45.393295" lon="9.2437915"><ele>100.8</ele><time>2026-04-20T16:39:18.392Z</time></trkpt><trkpt lat="45.3932751" lon="9.2436631"><ele>100.6</ele><time>2026-04-20T16:39:20.402Z</time></trkpt><trkpt lat="45.3932558" lon="9.2435397"><ele>100.4</ele><time>2026-04-20T16:39:22.395Z</time></trkpt><trkpt lat="45.3932363" lon="9.2434167"><ele>100.2</ele><time>2026-04-20T16:39:24.398Z</time></trkpt><trkpt lat="45.3932216" lon="9.2432325"><ele>100.0</ele><time>2026-04-20T16:39:27.397Z</time></trkpt><trkpt lat="45.3932087" lon="9.2431178"><ele>100.00000000000001</ele><time>2026-04-20T16:39:29.393Z</time></trkpt><trkpt lat="45.393197" lon="9.2429965"><ele>100.0</ele><time>2026-04-20T16:39:31.395Z</time></trkpt><trkpt lat="45.3931742" lon="9.2428762"><ele>100.0</ele><time>2026-04-20T16:39:33.391Z</time></trkpt><trkpt lat="45.393138" lon="9.2427659"><ele>100.0</ele><time>2026-04-20T16:39:35.393Z</time></trkpt><trkpt lat="45.3931068" lon="9.242653"><ele>100.00000000000001</ele><time>2026-04-20T16:39:37.392Z</time></trkpt><trkpt lat="45.3930763" lon="9.2425296"><ele>100.0</ele><time>2026-04-20T16:39:39.393Z</time></trkpt><trkpt lat="45.3930396" lon="9.2424031"><ele>99.50000000000001</ele><time>2026-04-20T16:39:41.398Z</time></trkpt><trkpt lat="45.3930044" lon="9.2422925"><ele>99.0</ele><time>2026-04-20T16:39:43.398Z</time></trkpt><trkpt lat="45.392967" lon="9.2421835"><ele>98.5</ele><time>2026-04-20T16:39:45.395Z</time></trkpt><trkpt lat="45.39293" lon="9.2420869"><ele>98.0</ele><time>2026-04-20T16:39:47.4Z</time></trkpt><trkpt lat="45.3928927" lon="9.2419869"><ele>97.50000000000001</ele><time>2026-04-20T16:39:49.395Z</time></trkpt><trkpt lat="45.392861" lon="9.2418844"><ele>97.0</ele><time>2026-04-20T16:39:51.395Z</time></trkpt><trkpt lat="45.392827" lon="9.2417735"><ele>97.00000000000001</ele><time>2026-04-20T16:39:53.407Z</time></trkpt><trkpt lat="45.3927972" lon="9.241674"><ele>97.0</ele><time>2026-04-20T16:39:55.398Z</time></trkpt><trkpt lat="45.3927732" lon="9.2415688"><ele>97.0</ele><time>2026-04-20T16:39:57.403Z</time></trkpt><trkpt lat="45.3927389" lon="9.2414583"><ele>97.0</ele><time>2026-04-20T16:39:59.399Z</time></trkpt><trkpt lat="45.3927038" lon="9.2413387"><ele>97.00000000000001</ele><time>2026-04-20T16:40:01.396Z</time></trkpt><trkpt lat="45.392668" lon="9.2412383"><ele>97.0</ele><time>2026-04-20T16:40:03.394Z</time></trkpt><trkpt lat="45.3926316" lon="9.2411264"><ele>97.16666666666667</ele><time>2026-04-20T16:40:05.399Z</time></trkpt><trkpt lat="45.3925945" lon="9.2410115"><ele>97.33333333333334</ele><time>2026-04-20T16:40:07.399Z</time></trkpt><trkpt lat="45.392562" lon="9.2408977"><ele>97.5</ele><time>2026-04-20T16:40:09.4Z</time></trkpt><trkpt lat="45.392531" lon="9.2407909"><ele>97.66666666666666</ele><time>2026-04-20T16:40:11.405Z</time></trkpt><trkpt lat="45.3924947" lon="9.240673"><ele>97.83333333333333</ele><time>2026-04-20T16:40:13.392Z</time></trkpt><trkpt lat="45.3924604" lon="9.2405525"><ele>98.0</ele><time>2026-04-20T16:40:15.395Z</time></trkpt><trkpt lat="45.3924227" lon="9.2404427"><ele>97.99999999999999</ele><time>2026-04-20T16:40:17.387Z</time></trkpt><trkpt lat="45.3923894" lon="9.2403349"><ele>98.0</ele><time>2026-04-20T16:40:19.405Z</time></trkpt><trkpt lat="45.3923567" lon="9.2402296"><ele>98.0</ele><time>2026-04-20T16:40:21.396Z</time></trkpt><trkpt lat="45.3923251" lon="9.2401231"><ele>98.0</ele><time>2026-04-20T16:40:23.399Z</time></trkpt><trkpt lat="45.3922944" lon="9.240019"><ele>97.99999999999999</ele><time>2026-04-20T16:40:25.402Z</time></trkpt><trkpt lat="45.392259" lon="9.2399124"><ele>98.0</ele><time>2026-04-20T16:40:27.391Z</time></trkpt><trkpt lat="45.3922257" lon="9.2398087"><ele>97.99999999999999</ele><time>2026-04-20T16:40:29.398Z</time></trkpt><trkpt lat="45.392191" lon="9.2397072"><ele>98.0</ele><time>2026-04-20T16:40:31.4Z</time></trkpt><trkpt lat="45.3921626" lon="9.2395989"><ele>98.0</ele><time>2026-04-20T16:40:33.401Z</time></trkpt><trkpt lat="45.3921375" lon="9.239506"><ele>98.0</ele><time>2026-04-20T16:40:35.395Z</time></trkpt><trkpt lat="45.3921069" lon="9.2393967"><ele>97.99999999999999</ele><time>2026-04-20T16:40:37.395Z</time></trkpt><trkpt lat="45.3920735" lon="9.2392821"><ele>98.0</ele><time>2026-04-20T16:40:39.399Z</time></trkpt><trkpt lat="45.3920379" lon="9.239179"><ele>97.99999999999999</ele><time>2026-04-20T16:40:41.399Z</time></trkpt><trkpt lat="45.3920062" lon="9.2390747"><ele>98.0</ele><time>2026-04-20T16:40:43.402Z</time></trkpt><trkpt lat="45.3919748" lon="9.2389693"><ele>98.0</ele><time>2026-04-20T16:40:45.396Z</time></trkpt><trkpt lat="45.3919365" lon="9.2388565"><ele>98.0</ele><time>2026-04-20T16:40:47.402Z</time></trkpt><trkpt lat="45.3919005" lon="9.2387482"><ele>97.99999999999999</ele><time>2026-04-20T16:40:49.402Z</time></trkpt><trkpt lat="45.391873" lon="9.2386333"><ele>98.0</ele><time>2026-04-20T16:40:51.393Z</time></trkpt><trkpt lat="45.3918368" lon="9.2385211"><ele>97.99999999999999</ele><time>2026-04-20T16:40:53.401Z</time></trkpt><trkpt lat="45.3917984" lon="9.238419"><ele>98.0</ele><time>2026-04-20T16:40:55.398Z</time></trkpt><trkpt lat="45.3917618" lon="9.2383097"><ele>98.0</ele><time>2026-04-20T16:40:57.4Z</time></trkpt><trkpt lat="45.3917285" lon="9.2382051"><ele>98.0</ele><time>2026-04-20T16:40:59.401Z</time></trkpt><trkpt lat="45.3916985" lon="9.2380971"><ele>97.99999999999999</ele><time>2026-04-20T16:41:01.393Z</time></trkpt><trkpt lat="45.3916669" lon="9.237984"><ele>98.0</ele><time>2026-04-20T16:41:03.393Z</time></trkpt><trkpt lat="45.3916211" lon="9.2378822"><ele>97.83333333333333</ele><time>2026-04-20T16:41:05.393Z</time></trkpt><trkpt lat="45.3915766" lon="9.2377886"><ele>97.66666666666666</ele><time>2026-04-20T16:41:07.398Z</time></trkpt><trkpt lat="45.3915206" lon="9.2377057"><ele>97.5</ele><time>2026-04-20T16:41:09.388Z</time></trkpt><trkpt lat="45.3914667" lon="9.2376399"><ele>97.33333333333334</ele><time>2026-04-20T16:41:11.399Z</time></trkpt><trkpt lat="45.391396" lon="9.2375753"><ele>97.16666666666667</ele><time>2026-04-20T16:41:13.396Z</time></trkpt><trkpt lat="45.3913312" lon="9.237505"><ele>97.0</ele><time>2026-04-20T16:41:15.393Z</time></trkpt><trkpt lat="45.3912644" lon="9.2374312"><ele>96.83333333333334</ele><time>2026-04-20T16:41:17.399Z</time></trkpt><trkpt lat="45.3912005" lon="9.2373524"><ele>96.66666666666667</ele><time>2026-04-20T16:41:19.398Z</time></trkpt><trkpt lat="45.3911398" lon="9.2372859"><ele>96.5</ele><time>2026-04-20T16:41:21.396Z</time></trkpt><trkpt lat="45.3910842" lon="9.237203"><ele>96.33333333333334</ele><time>2026-04-20T16:41:23.396Z</time></trkpt><trkpt lat="45.3910267" lon="9.2371222"><ele>96.16666666666667</ele><time>2026-04-20T16:41:25.398Z</time></trkpt><trkpt lat="45.3909717" lon="9.2370346"><ele>96.0</ele><time>2026-04-20T16:41:27.393Z</time></trkpt><trkpt lat="45.390917" lon="9.2369462"><ele>96.33333333333333</ele><time>2026-04-20T16:41:29.407Z</time></trkpt><trkpt lat="45.3908668" lon="9.2368552"><ele>96.66666666666666</ele><time>2026-04-20T16:41:31.399Z</time></trkpt><trkpt lat="45.3908177" lon="9.2367653"><ele>97.0</ele><time>2026-04-20T16:41:33.397Z</time></trkpt><trkpt lat="45.3907756" lon="9.2366785"><ele>97.33333333333333</ele><time>2026-04-20T16:41:35.404Z</time></trkpt><trkpt lat="45.3907265" lon="9.2366054"><ele>97.66666666666666</ele><time>2026-04-20T16:41:37.399Z</time></trkpt><trkpt lat="45.3906769" lon="9.2365252"><ele>98.0</ele><time>2026-04-20T16:41:39.401Z</time></trkpt><trkpt lat="45.3906223" lon="9.2364424"><ele>98.0</ele><time>2026-04-20T16:41:41.404Z</time></trkpt><trkpt lat="45.3905733" lon="9.2363628"><ele>98.0</ele><time>2026-04-20T16:41:43.397Z</time></trkpt><trkpt lat="45.390526" lon="9.2362829"><ele>98.0</ele><time>2026-04-20T16:41:45.396Z</time></trkpt><trkpt lat="45.3904685" lon="9.2362242"><ele>98.0</ele><time>2026-04-20T16:41:47.4Z</time></trkpt><trkpt lat="45.3904041" lon="9.2361846"><ele>98.0</ele><time>2026-04-20T16:41:49.393Z</time></trkpt><trkpt lat="45.3903219" lon="9.2361771"><ele>98.0</ele><time>2026-04-20T16:41:51.396Z</time></trkpt><trkpt lat="45.3902471" lon="9.236195"><ele>98.0</ele><time>2026-04-20T16:41:53.403Z</time></trkpt><trkpt lat="45.3901776" lon="9.236207"><ele>97.99999999999999</ele><time>2026-04-20T16:41:55.403Z</time></trkpt><trkpt lat="45.3901024" lon="9.2362181"><ele>98.0</ele><time>2026-04-20T16:41:57.402Z</time></trkpt><trkpt lat="45.3900167" lon="9.236229"><ele>98.0</ele><time>2026-04-20T16:41:59.397Z</time></trkpt><trkpt lat="45.3899369" lon="9.2362122"><ele>98.0</ele><time>2026-04-20T16:42:01.397Z</time></trkpt><trkpt lat="45.3898667" lon="9.2361653"><ele>97.99999999999999</ele><time>2026-04-20T16:42:03.404Z</time></trkpt><trkpt lat="45.3898038" lon="9.2360964"><ele>98.0</ele><time>2026-04-20T16:42:05.394Z</time></trkpt><trkpt lat="45.3897411" lon="9.2360168"><ele>97.99999999999999</ele><time>2026-04-20T16:42:07.396Z</time></trkpt><trkpt lat="45.3896891" lon="9.2359303"><ele>98.0</ele><time>2026-04-20T16:42:09.398Z</time></trkpt><trkpt lat="45.3896389" lon="9.235842"><ele>98.0</ele><time>2026-04-20T16:42:11.392Z</time></trkpt><trkpt lat="45.3895896" lon="9.2357474"><ele>98.0</ele><time>2026-04-20T16:42:13.396Z</time></trkpt><trkpt lat="45.3895368" lon="9.2356481"><ele>97.99999999999999</ele><time>2026-04-20T16:42:15.404Z</time></trkpt><trkpt lat="45.3894982" lon="9.2355495"><ele>98.0</ele><time>2026-04-20T16:42:17.398Z</time></trkpt><trkpt lat="45.3894522" lon="9.2354516"><ele>97.83333333333333</ele><time>2026-04-20T16:42:19.401Z</time></trkpt><trkpt lat="45.3893988" lon="9.2353603"><ele>97.66666666666666</ele><time>2026-04-20T16:42:21.398Z</time></trkpt><trkpt lat="45.3893526" lon="9.2352659"><ele>97.5</ele><time>2026-04-20T16:42:23.398Z</time></trkpt><trkpt lat="45.3893118" lon="9.2351647"><ele>97.33333333333334</ele><time>2026-04-20T16:42:25.388Z</time></trkpt><trkpt lat="45.3892696" lon="9.2350709"><ele>97.16666666666667</ele><time>2026-04-20T16:42:27.4Z</time></trkpt><trkpt lat="45.3892207" lon="9.2349711"><ele>97.0</ele><time>2026-04-20T16:42:29.404Z</time></trkpt><trkpt lat="45.3891696" lon="9.2348803"><ele>96.85714285714285</ele><time>2026-04-20T16:42:31.401Z</time></trkpt><trkpt lat="45.3891216" lon="9.2347946"><ele>96.71428571428572</ele><time>2026-04-20T16:42:33.39Z</time></trkpt><trkpt lat="45.3890721" lon="9.2347032"><ele>96.57142857142857</ele><time>2026-04-20T16:42:35.404Z</time></trkpt><trkpt lat="45.3890365" lon="9.234606"><ele>96.42857142857142</ele><time>2026-04-20T16:42:37.397Z</time></trkpt><trkpt lat="45.3889958" lon="9.2345207"><ele>96.28571428571428</ele><time>2026-04-20T16:42:39.401Z</time></trkpt><trkpt lat="45.3889326" lon="9.23448"><ele>96.14285714285714</ele><time>2026-04-20T16:42:41.401Z</time></trkpt><trkpt lat="45.3888665" lon="9.2344897"><ele>96.0</ele><time>2026-04-20T16:42:43.401Z</time></trkpt><trkpt lat="45.388798" lon="9.2345267"><ele>96.5</ele><time>2026-04-20T16:42:45.398Z</time></trkpt><trkpt lat="45.3887321" lon="9.2345664"><ele>97.0</ele><time>2026-04-20T16:42:47.402Z</time></trkpt><trkpt lat="45.3886617" lon="9.2345947"><ele>97.5</ele><time>2026-04-20T16:42:49.401Z</time></trkpt><trkpt lat="45.3885802" lon="9.2346334"><ele>98.0</ele><time>2026-04-20T16:42:51.349Z</time></trkpt><trkpt lat="45.3885043" lon="9.2346854"><ele>98.5</ele><time>2026-04-20T16:42:53.395Z</time></trkpt><trkpt lat="45.3884292" lon="9.2347426"><ele>99.0</ele><time>2026-04-20T16:42:55.393Z</time></trkpt><trkpt lat="45.3883689" lon="9.2347987"><ele>99.0</ele><time>2026-04-20T16:42:57.403Z</time></trkpt><trkpt lat="45.3883089" lon="9.2348448"><ele>99.0</ele><time>2026-04-20T16:42:58.963Z</time></trkpt><trkpt lat="45.3882147" lon="9.2349084"><ele>99.0</ele><time>2026-04-20T16:43:01.397Z</time></trkpt><trkpt lat="45.3881425" lon="9.2349633"><ele>99.0</ele><time>2026-04-20T16:43:03.309Z</time></trkpt><trkpt lat="45.3880666" lon="9.235007"><ele>99.0</ele><time>2026-04-20T16:43:05.229Z</time></trkpt><trkpt lat="45.3879818" lon="9.2350539"><ele>99.0</ele><time>2026-04-20T16:43:07.349Z</time></trkpt><trkpt lat="45.3878947" lon="9.235092"><ele>98.66666666666667</ele><time>2026-04-20T16:43:09.393Z</time></trkpt><trkpt lat="45.3878034" lon="9.2351237"><ele>98.33333333333334</ele><time>2026-04-20T16:43:11.401Z</time></trkpt><trkpt lat="45.3877172" lon="9.2351598"><ele>98.0</ele><time>2026-04-20T16:43:13.393Z</time></trkpt><trkpt lat="45.3876362" lon="9.2351802"><ele>97.66666666666667</ele><time>2026-04-20T16:43:15.391Z</time></trkpt><trkpt lat="45.3875539" lon="9.2352093"><ele>97.33333333333334</ele><time>2026-04-20T16:43:17.4Z</time></trkpt><trkpt lat="45.3874736" lon="9.2352348"><ele>97.0</ele><time>2026-04-20T16:43:19.405Z</time></trkpt><trkpt lat="45.3874017" lon="9.2352861"><ele>97.00000000000001</ele><time>2026-04-20T16:43:21.388Z</time></trkpt><trkpt lat="45.3873177" lon="9.2353126"><ele>97.0</ele><time>2026-04-20T16:43:23.391Z</time></trkpt><trkpt lat="45.3872342" lon="9.2353506"><ele>97.0</ele><time>2026-04-20T16:43:25.393Z</time></trkpt><trkpt lat="45.3871491" lon="9.2353844"><ele>97.0</ele><time>2026-04-20T16:43:27.398Z</time></trkpt><trkpt lat="45.3870647" lon="9.23542"><ele>97.00000000000001</ele><time>2026-04-20T16:43:29.399Z</time></trkpt><trkpt lat="45.3869752" lon="9.2354563"><ele>97.0</ele><time>2026-04-20T16:43:31.397Z</time></trkpt><trkpt lat="45.3868892" lon="9.2354897"><ele>97.16666666666667</ele><time>2026-04-20T16:43:33.394Z</time></trkpt><trkpt lat="45.3868074" lon="9.2355331"><ele>97.33333333333334</ele><time>2026-04-20T16:43:35.406Z</time></trkpt><trkpt lat="45.3867178" lon="9.2355721"><ele>97.5</ele><time>2026-04-20T16:43:37.399Z</time></trkpt><trkpt lat="45.3866376" lon="9.2356141"><ele>97.66666666666666</ele><time>2026-04-20T16:43:39.404Z</time></trkpt><trkpt lat="45.3865579" lon="9.2356578"><ele>97.83333333333333</ele><time>2026-04-20T16:43:41.406Z</time></trkpt><trkpt lat="45.3864805" lon="9.2357039"><ele>98.0</ele><time>2026-04-20T16:43:43.398Z</time></trkpt><trkpt lat="45.3864036" lon="9.2357491"><ele>98.33333333333333</ele><time>2026-04-20T16:43:45.397Z</time></trkpt><trkpt lat="45.3863223" lon="9.2358075"><ele>98.66666666666666</ele><time>2026-04-20T16:43:47.401Z</time></trkpt><trkpt lat="45.3862473" lon="9.2358572"><ele>99.0</ele><time>2026-04-20T16:43:49.396Z</time></trkpt><trkpt lat="45.3861732" lon="9.235899"><ele>99.33333333333334</ele><time>2026-04-20T16:43:51.394Z</time></trkpt><trkpt lat="45.3860902" lon="9.2359546"><ele>99.66666666666667</ele><time>2026-04-20T16:43:53.4Z</time></trkpt><trkpt lat="45.3860122" lon="9.2359966"><ele>100.0</ele><time>2026-04-20T16:43:55.393Z</time></trkpt><trkpt lat="45.3859334" lon="9.2360466"><ele>100.00000000000001</ele><time>2026-04-20T16:43:57.398Z</time></trkpt><trkpt lat="45.3858483" lon="9.23605"><ele>100.0</ele><time>2026-04-20T16:43:59.398Z</time></trkpt><trkpt lat="45.3857779" lon="9.2359977"><ele>100.0</ele><time>2026-04-20T16:44:01.405Z</time></trkpt><trkpt lat="45.3857252" lon="9.2359173"><ele>100.0</ele><time>2026-04-20T16:44:03.402Z</time></trkpt><trkpt lat="45.3856778" lon="9.2358434"><ele>100.00000000000001</ele><time>2026-04-20T16:44:05.392Z</time></trkpt><trkpt lat="45.3856301" lon="9.2357703"><ele>100.0</ele><time>2026-04-20T16:44:07.396Z</time></trkpt><trkpt lat="45.3855715" lon="9.2356765"><ele>100.00000000000001</ele><time>2026-04-20T16:44:09.392Z</time></trkpt><trkpt lat="45.3855146" lon="9.2355991"><ele>100.0</ele><time>2026-04-20T16:44:11.395Z</time></trkpt><trkpt lat="45.3854531" lon="9.2355138"><ele>100.0</ele><time>2026-04-20T16:44:13.397Z</time></trkpt><trkpt lat="45.3853915" lon="9.2354422"><ele>100.0</ele><time>2026-04-20T16:44:15.389Z</time></trkpt><trkpt lat="45.385337" lon="9.2353737"><ele>100.00000000000001</ele><time>2026-04-20T16:44:17.401Z</time></trkpt><trkpt lat="45.3852616" lon="9.2353097"><ele>100.0</ele><time>2026-04-20T16:44:20.401Z</time></trkpt><trkpt lat="45.3851874" lon="9.2352641"><ele>100.00000000000001</ele><time>2026-04-20T16:44:23.398Z</time></trkpt><trkpt lat="45.3851195" lon="9.2352318"><ele>100.0</ele><time>2026-04-20T16:44:26.391Z</time></trkpt><trkpt lat="45.3850543" lon="9.2352153"><ele>100.0</ele><time>2026-04-20T16:44:29.387Z</time></trkpt><trkpt lat="45.3849875" lon="9.2352295"><ele>100.0</ele><time>2026-04-20T16:44:39.39Z</time></trkpt><trkpt lat="45.38505" lon="9.2352747"><ele>100.0</ele><time>2026-04-20T16:44:46.397Z</time></trkpt><trkpt lat="45.3851341" lon="9.2352597"><ele>100.00000000000001</ele><time>2026-04-20T16:44:48.388Z</time></trkpt><trkpt lat="45.3852152" lon="9.2352857"><ele>100.0</ele><time>2026-04-20T16:44:50.396Z</time></trkpt><trkpt lat="45.3852841" lon="9.2353337"><ele>100.00000000000001</ele><time>2026-04-20T16:44:52.395Z</time></trkpt><trkpt lat="45.3853402" lon="9.2353867"><ele>100.0</ele><time>2026-04-20T16:44:54.398Z</time></trkpt><trkpt lat="45.385395" lon="9.2354529"><ele>100.0</ele><time>2026-04-20T16:44:56.398Z</time></trkpt><trkpt lat="45.3854584" lon="9.2355377"><ele>100.0</ele><time>2026-04-20T16:44:58.391Z</time></trkpt><trkpt lat="45.3855159" lon="9.2356192"><ele>100.00000000000001</ele><time>2026-04-20T16:45:00.397Z</time></trkpt><trkpt lat="45.3855717" lon="9.2356949"><ele>100.0</ele><time>2026-04-20T16:45:02.397Z</time></trkpt><trkpt lat="45.385629" lon="9.2357795"><ele>100.00000000000001</ele><time>2026-04-20T16:45:04.4Z</time></trkpt><trkpt lat="45.3856872" lon="9.2358703"><ele>100.0</ele><time>2026-04-20T16:45:06.393Z</time></trkpt><trkpt lat="45.3857444" lon="9.2359531"><ele>100.0</ele><time>2026-04-20T16:45:08.397Z</time></trkpt><trkpt lat="45.3858072" lon="9.2360339"><ele>100.0</ele><time>2026-04-20T16:45:10.393Z</time></trkpt><trkpt lat="45.3858881" lon="9.2360591"><ele>100.00000000000001</ele><time>2026-04-20T16:45:12.396Z</time></trkpt><trkpt lat="45.3859742" lon="9.2360293"><ele>100.0</ele><time>2026-04-20T16:45:14.398Z</time></trkpt><trkpt lat="45.3860477" lon="9.2359797"><ele>100.00000000000001</ele><time>2026-04-20T16:45:16.394Z</time></trkpt><trkpt lat="45.3861305" lon="9.2359562"><ele>100.0</ele><time>2026-04-20T16:45:18.397Z</time></trkpt><trkpt lat="45.3862094" lon="9.2358955"><ele>100.0</ele><time>2026-04-20T16:45:20.397Z</time></trkpt><trkpt lat="45.386292" lon="9.2358402"><ele>100.0</ele><time>2026-04-20T16:45:22.401Z</time></trkpt><trkpt lat="45.3863752" lon="9.2357957"><ele>100.00000000000001</ele><time>2026-04-20T16:45:24.393Z</time></trkpt><trkpt lat="45.3864564" lon="9.2357449"><ele>100.0</ele><time>2026-04-20T16:45:26.391Z</time></trkpt><trkpt lat="45.3865343" lon="9.2356946"><ele>100.00000000000001</ele><time>2026-04-20T16:45:28.397Z</time></trkpt><trkpt lat="45.3866123" lon="9.2356463"><ele>100.0</ele><time>2026-04-20T16:45:30.401Z</time></trkpt><trkpt lat="45.3866952" lon="9.2355972"><ele>100.0</ele><time>2026-04-20T16:45:32.395Z</time></trkpt><trkpt lat="45.3867761" lon="9.2355496"><ele>100.0</ele><time>2026-04-20T16:45:34.392Z</time></trkpt><trkpt lat="45.3868595" lon="9.2355099"><ele>100.00000000000001</ele><time>2026-04-20T16:45:36.402Z</time></trkpt><trkpt lat="45.3869431" lon="9.2354738"><ele>100.0</ele><time>2026-04-20T16:45:38.404Z</time></trkpt><trkpt lat="45.3870252" lon="9.2354372"><ele>99.66666666666667</ele><time>2026-04-20T16:45:40.399Z</time></trkpt><trkpt lat="45.3871038" lon="9.2353993"><ele>99.33333333333334</ele><time>2026-04-20T16:45:42.397Z</time></trkpt><trkpt lat="45.3871833" lon="9.235374"><ele>99.0</ele><time>2026-04-20T16:45:44.392Z</time></trkpt><trkpt lat="45.3872612" lon="9.2353459"><ele>98.66666666666666</ele><time>2026-04-20T16:45:46.404Z</time></trkpt><trkpt lat="45.3873405" lon="9.2353152"><ele>98.33333333333333</ele><time>2026-04-20T16:45:48.391Z</time></trkpt><trkpt lat="45.3874241" lon="9.2352817"><ele>98.0</ele><time>2026-04-20T16:45:50.4Z</time></trkpt><trkpt lat="45.3875026" lon="9.2352446"><ele>97.83333333333333</ele><time>2026-04-20T16:45:52.391Z</time></trkpt><trkpt lat="45.3875833" lon="9.2352196"><ele>97.66666666666666</ele><time>2026-04-20T16:45:54.392Z</time></trkpt><trkpt lat="45.3876648" lon="9.2351866"><ele>97.5</ele><time>2026-04-20T16:45:56.398Z</time></trkpt><trkpt lat="45.3877438" lon="9.2351628"><ele>97.33333333333334</ele><time>2026-04-20T16:45:58.399Z</time></trkpt><trkpt lat="45.3878194" lon="9.2351301"><ele>97.16666666666667</ele><time>2026-04-20T16:46:00.395Z</time></trkpt><trkpt lat="45.387896" lon="9.2350872"><ele>97.0</ele><time>2026-04-20T16:46:02.389Z</time></trkpt><trkpt lat="45.3879696" lon="9.2350601"><ele>97.33333333333334</ele><time>2026-04-20T16:46:04.39Z</time></trkpt><trkpt lat="45.3880303" lon="9.2350223"><ele>97.66666666666667</ele><time>2026-04-20T16:46:06.396Z</time></trkpt><trkpt lat="45.3880917" lon="9.2349885"><ele>98.0</ele><time>2026-04-20T16:46:08.396Z</time></trkpt><trkpt lat="45.3881666" lon="9.2349396"><ele>98.33333333333334</ele><time>2026-04-20T16:46:10.395Z</time></trkpt><trkpt lat="45.3882404" lon="9.2348889"><ele>98.66666666666667</ele><time>2026-04-20T16:46:12.391Z</time></trkpt><trkpt lat="45.3883124" lon="9.2348386"><ele>99.0</ele><time>2026-04-20T16:46:14.395Z</time></trkpt><trkpt lat="45.3883861" lon="9.2347868"><ele>99.0</ele><time>2026-04-20T16:46:16.393Z</time></trkpt><trkpt lat="45.388457" lon="9.2347404"><ele>99.0</ele><time>2026-04-20T16:46:18.39Z</time></trkpt><trkpt lat="45.3885292" lon="9.234691"><ele>99.0</ele><time>2026-04-20T16:46:20.391Z</time></trkpt><trkpt lat="45.3886088" lon="9.2346446"><ele>99.0</ele><time>2026-04-20T16:46:22.397Z</time></trkpt><trkpt lat="45.3886874" lon="9.2346029"><ele>99.0</ele><time>2026-04-20T16:46:24.395Z</time></trkpt><trkpt lat="45.3887584" lon="9.2345633"><ele>99.0</ele><time>2026-04-20T16:46:26.391Z</time></trkpt><trkpt lat="45.3888298" lon="9.2345292"><ele>98.66666666666667</ele><time>2026-04-20T16:46:28.395Z</time></trkpt><trkpt lat="45.3889105" lon="9.234511"><ele>98.33333333333334</ele><time>2026-04-20T16:46:30.39Z</time></trkpt><trkpt lat="45.3889712" lon="9.2345516"><ele>98.0</ele><time>2026-04-20T16:46:32.391Z</time></trkpt><trkpt lat="45.3890185" lon="9.2346129"><ele>97.66666666666667</ele><time>2026-04-20T16:46:35.397Z</time></trkpt><trkpt lat="45.3890602" lon="9.2346963"><ele>97.33333333333334</ele><time>2026-04-20T16:46:40.398Z</time></trkpt><trkpt lat="45.3891106" lon="9.2347948"><ele>97.0</ele><time>2026-04-20T16:46:43.398Z</time></trkpt><trkpt lat="45.3891675" lon="9.2349051"><ele>97.00000000000001</ele><time>2026-04-20T16:46:46.4Z</time></trkpt><trkpt lat="45.3892158" lon="9.2350072"><ele>97.0</ele><time>2026-04-20T16:46:48.388Z</time></trkpt><trkpt lat="45.3892672" lon="9.2350995"><ele>97.0</ele><time>2026-04-20T16:46:50.392Z</time></trkpt><trkpt lat="45.3893089" lon="9.2351895"><ele>97.0</ele><time>2026-04-20T16:46:52.392Z</time></trkpt><trkpt lat="45.3893596" lon="9.2352815"><ele>97.00000000000001</ele><time>2026-04-20T16:46:54.395Z</time></trkpt><trkpt lat="45.3894083" lon="9.2353629"><ele>97.0</ele><time>2026-04-20T16:46:56.393Z</time></trkpt><trkpt lat="45.3894608" lon="9.2354413"><ele>97.00000000000001</ele><time>2026-04-20T16:46:58.394Z</time></trkpt><trkpt lat="45.3895051" lon="9.235534"><ele>97.0</ele><time>2026-04-20T16:47:00.395Z</time></trkpt><trkpt lat="45.3895473" lon="9.2356263"><ele>97.0</ele><time>2026-04-20T16:47:02.397Z</time></trkpt><trkpt lat="45.3895775" lon="9.2357309"><ele>97.0</ele><time>2026-04-20T16:47:04.392Z</time></trkpt><trkpt lat="45.3896219" lon="9.2358329"><ele>97.00000000000001</ele><time>2026-04-20T16:47:06.393Z</time></trkpt><trkpt lat="45.389671" lon="9.2359276"><ele>97.0</ele><time>2026-04-20T16:47:08.397Z</time></trkpt><trkpt lat="45.3897176" lon="9.236007"><ele>97.16666666666667</ele><time>2026-04-20T16:47:10.391Z</time></trkpt><trkpt lat="45.3897733" lon="9.2360944"><ele>97.33333333333334</ele><time>2026-04-20T16:47:12.395Z</time></trkpt><trkpt lat="45.3898388" lon="9.2361665"><ele>97.5</ele><time>2026-04-20T16:47:14.387Z</time></trkpt><trkpt lat="45.3899072" lon="9.2362216"><ele>97.66666666666666</ele><time>2026-04-20T16:47:16.395Z</time></trkpt><trkpt lat="45.3899866" lon="9.2362416"><ele>97.83333333333333</ele><time>2026-04-20T16:47:18.389Z</time></trkpt><trkpt lat="45.3900596" lon="9.2362464"><ele>98.0</ele><time>2026-04-20T16:47:20.391Z</time></trkpt><trkpt lat="45.3901369" lon="9.2362364"><ele>98.0</ele><time>2026-04-20T16:47:22.392Z</time></trkpt><trkpt lat="45.390204" lon="9.2362162"><ele>98.0</ele><time>2026-04-20T16:47:24.392Z</time></trkpt><trkpt lat="45.3902921" lon="9.2361956"><ele>98.0</ele><time>2026-04-20T16:47:27.393Z</time></trkpt><trkpt lat="45.3903775" lon="9.2361976"><ele>98.0</ele><time>2026-04-20T16:47:30.39Z</time></trkpt><trkpt lat="45.390439" lon="9.2361761"><ele>98.0</ele><time>2026-04-20T16:47:33.394Z</time></trkpt><trkpt lat="45.3904955" lon="9.236229"><ele>98.0</ele><time>2026-04-20T16:48:24.394Z</time></trkpt><trkpt lat="45.3905309" lon="9.236304"><ele>98.0</ele><time>2026-04-20T16:48:26.396Z</time></trkpt><trkpt lat="45.3905772" lon="9.2363666"><ele>97.99999999999999</ele><time>2026-04-20T16:48:28.399Z</time></trkpt><trkpt lat="45.3906293" lon="9.2364465"><ele>98.0</ele><time>2026-04-20T16:48:30.399Z</time></trkpt><trkpt lat="45.3906826" lon="9.2365246"><ele>98.0</ele><time>2026-04-20T16:48:32.4Z</time></trkpt><trkpt lat="45.3907321" lon="9.2366073"><ele>98.0</ele><time>2026-04-20T16:48:34.392Z</time></trkpt><trkpt lat="45.3907782" lon="9.2366966"><ele>97.99999999999999</ele><time>2026-04-20T16:48:36.388Z</time></trkpt><trkpt lat="45.3908238" lon="9.2367833"><ele>98.0</ele><time>2026-04-20T16:48:38.395Z</time></trkpt><trkpt lat="45.3908817" lon="9.236872"><ele>97.99999999999999</ele><time>2026-04-20T16:48:40.396Z</time></trkpt><trkpt lat="45.390934" lon="9.2369735"><ele>98.0</ele><time>2026-04-20T16:48:42.403Z</time></trkpt><trkpt lat="45.3909897" lon="9.2370611"><ele>98.0</ele><time>2026-04-20T16:48:44.388Z</time></trkpt><trkpt lat="45.3910497" lon="9.2371493"><ele>98.0</ele><time>2026-04-20T16:48:46.393Z</time></trkpt><trkpt lat="45.3911131" lon="9.237239"><ele>97.99999999999999</ele><time>2026-04-20T16:48:48.394Z</time></trkpt><trkpt lat="45.3911765" lon="9.2373284"><ele>98.0</ele><time>2026-04-20T16:48:50.389Z</time></trkpt><trkpt lat="45.3912425" lon="9.2374061"><ele>97.83333333333333</ele><time>2026-04-20T16:48:52.389Z</time></trkpt><trkpt lat="45.3913088" lon="9.237481"><ele>97.66666666666666</ele><time>2026-04-20T16:48:54.395Z</time></trkpt><trkpt lat="45.3913858" lon="9.2375417"><ele>97.5</ele><time>2026-04-20T16:48:56.398Z</time></trkpt><trkpt lat="45.3914543" lon="9.2376176"><ele>97.33333333333334</ele><time>2026-04-20T16:48:58.397Z</time></trkpt><trkpt lat="45.391519" lon="9.2376931"><ele>97.16666666666667</ele><time>2026-04-20T16:49:00.395Z</time></trkpt><trkpt lat="45.3915829" lon="9.2377747"><ele>97.0</ele><time>2026-04-20T16:49:02.394Z</time></trkpt><trkpt lat="45.3916288" lon="9.2378915"><ele>97.00000000000001</ele><time>2026-04-20T16:49:04.397Z</time></trkpt><trkpt lat="45.3916695" lon="9.2380001"><ele>97.0</ele><time>2026-04-20T16:49:06.394Z</time></trkpt><trkpt lat="45.3917039" lon="9.2381221"><ele>97.0</ele><time>2026-04-20T16:49:08.401Z</time></trkpt><trkpt lat="45.3917339" lon="9.2382422"><ele>97.0</ele><time>2026-04-20T16:49:10.402Z</time></trkpt><trkpt lat="45.3917751" lon="9.2383475"><ele>97.00000000000001</ele><time>2026-04-20T16:49:12.402Z</time></trkpt><trkpt lat="45.3918219" lon="9.2384566"><ele>97.0</ele><time>2026-04-20T16:49:14.316Z</time></trkpt><trkpt lat="45.3918522" lon="9.2385801"><ele>97.16666666666667</ele><time>2026-04-20T16:49:16.395Z</time></trkpt><trkpt lat="45.3918725" lon="9.2387035"><ele>97.33333333333334</ele><time>2026-04-20T16:49:18.394Z</time></trkpt><trkpt lat="45.3919052" lon="9.2388175"><ele>97.5</ele><time>2026-04-20T16:49:20.39Z</time></trkpt><trkpt lat="45.3919379" lon="9.2389379"><ele>97.66666666666666</ele><time>2026-04-20T16:49:22.394Z</time></trkpt><trkpt lat="45.3919784" lon="9.2390574"><ele>97.83333333333333</ele><time>2026-04-20T16:49:24.406Z</time></trkpt><trkpt lat="45.3920164" lon="9.2391708"><ele>98.0</ele><time>2026-04-20T16:49:26.402Z</time></trkpt><trkpt lat="45.3920474" lon="9.2392817"><ele>97.99999999999999</ele><time>2026-04-20T16:49:28.395Z</time></trkpt><trkpt lat="45.3920832" lon="9.2393922"><ele>98.0</ele><time>2026-04-20T16:49:30.392Z</time></trkpt><trkpt lat="45.3921089" lon="9.239506"><ele>98.0</ele><time>2026-04-20T16:49:32.394Z</time></trkpt><trkpt lat="45.3921402" lon="9.2396089"><ele>98.0</ele><time>2026-04-20T16:49:34.398Z</time></trkpt><trkpt lat="45.3921761" lon="9.2397173"><ele>97.99999999999999</ele><time>2026-04-20T16:49:36.392Z</time></trkpt><trkpt lat="45.3922072" lon="9.2398185"><ele>98.0</ele><time>2026-04-20T16:49:38.391Z</time></trkpt><trkpt lat="45.3922394" lon="9.2399261"><ele>97.99999999999999</ele><time>2026-04-20T16:49:40.394Z</time></trkpt><trkpt lat="45.3922719" lon="9.2400366"><ele>98.0</ele><time>2026-04-20T16:49:42.391Z</time></trkpt><trkpt lat="45.3923104" lon="9.2401475"><ele>98.0</ele><time>2026-04-20T16:49:44.402Z</time></trkpt><trkpt lat="45.3923451" lon="9.2402495"><ele>98.0</ele><time>2026-04-20T16:49:46.399Z</time></trkpt><trkpt lat="45.3923849" lon="9.2403589"><ele>97.99999999999999</ele><time>2026-04-20T16:49:48.392Z</time></trkpt><trkpt lat="45.3924229" lon="9.2404661"><ele>98.0</ele><time>2026-04-20T16:49:50.395Z</time></trkpt><trkpt lat="45.3924519" lon="9.2405698"><ele>97.99999999999999</ele><time>2026-04-20T16:49:52.406Z</time></trkpt><trkpt lat="45.3924798" lon="9.2406763"><ele>98.0</ele><time>2026-04-20T16:49:54.397Z</time></trkpt><trkpt lat="45.3925105" lon="9.2407912"><ele>98.0</ele><time>2026-04-20T16:49:56.385Z</time></trkpt><trkpt lat="45.3925459" lon="9.2409019"><ele>98.0</ele><time>2026-04-20T16:49:58.39Z</time></trkpt><trkpt lat="45.3925782" lon="9.2410026"><ele>97.99999999999999</ele><time>2026-04-20T16:50:00.39Z</time></trkpt><trkpt lat="45.3926064" lon="9.241104"><ele>98.0</ele><time>2026-04-20T16:50:02.399Z</time></trkpt><trkpt lat="45.3926367" lon="9.2412093"><ele>97.99999999999999</ele><time>2026-04-20T16:50:04.395Z</time></trkpt><trkpt lat="45.392666" lon="9.2413165"><ele>98.0</ele><time>2026-04-20T16:50:06.393Z</time></trkpt><trkpt lat="45.3927043" lon="9.2414305"><ele>98.0</ele><time>2026-04-20T16:50:08.395Z</time></trkpt><trkpt lat="45.3927365" lon="9.2415369"><ele>98.0</ele><time>2026-04-20T16:50:10.4Z</time></trkpt><trkpt lat="45.3927662" lon="9.2416287"><ele>97.99999999999999</ele><time>2026-04-20T16:50:12.401Z</time></trkpt><trkpt lat="45.392797" lon="9.2417217"><ele>98.0</ele><time>2026-04-20T16:50:14.4Z</time></trkpt><trkpt lat="45.3928236" lon="9.2418096"><ele>97.99999999999999</ele><time>2026-04-20T16:50:16.375Z</time></trkpt><trkpt lat="45.3928542" lon="9.2419082"><ele>98.0</ele><time>2026-04-20T16:50:18.391Z</time></trkpt><trkpt lat="45.3928953" lon="9.2420042"><ele>98.0</ele><time>2026-04-20T16:50:20.393Z</time></trkpt><trkpt lat="45.3929247" lon="9.2421043"><ele>98.0</ele><time>2026-04-20T16:50:22.398Z</time></trkpt><trkpt lat="45.3929524" lon="9.2421898"><ele>97.99999999999999</ele><time>2026-04-20T16:50:24.403Z</time></trkpt><trkpt lat="45.3930297" lon="9.2422222"><ele>98.0</ele><time>2026-04-20T16:50:27.372Z</time></trkpt><trkpt lat="45.3930328" lon="9.2421128"><ele>98.0</ele><time>2026-04-20T16:50:29.387Z</time></trkpt><trkpt lat="45.3929894" lon="9.2420238"><ele>98.0</ele><time>2026-04-20T16:50:31.39Z</time></trkpt><trkpt lat="45.3929508" lon="9.241944"><ele>98.0</ele><time>2026-04-20T16:50:33.387Z</time></trkpt><trkpt lat="45.3929306" lon="9.2418536"><ele>98.0</ele><time>2026-04-20T16:50:35.385Z</time></trkpt><trkpt lat="45.3929039" lon="9.2417667"><ele>98.0</ele><time>2026-04-20T16:50:37.393Z</time></trkpt><trkpt lat="45.3928897" lon="9.2416666"><ele>98.0</ele><time>2026-04-20T16:50:39.4Z</time></trkpt><trkpt lat="45.3929364" lon="9.2415688"><ele>98.0</ele><time>2026-04-20T16:50:41.394Z</time></trkpt><trkpt lat="45.3930267" lon="9.2415429"><ele>97.99999999999999</ele><time>2026-04-20T16:50:43.393Z</time></trkpt><trkpt lat="45.3931069" lon="9.2415228"><ele>98.0</ele><time>2026-04-20T16:50:45.393Z</time></trkpt><trkpt lat="45.3931674" lon="9.2414502"><ele>98.0</ele><time>2026-04-20T16:50:47.389Z</time></trkpt><trkpt lat="45.3932489" lon="9.2414095"><ele>98.0</ele><time>2026-04-20T16:50:49.399Z</time></trkpt><trkpt lat="45.3933286" lon="9.2413676"><ele>97.99999999999999</ele><time>2026-04-20T16:50:51.391Z</time></trkpt><trkpt lat="45.3934006" lon="9.2413233"><ele>98.0</ele><time>2026-04-20T16:50:53.392Z</time></trkpt><trkpt lat="45.3934732" lon="9.2412729"><ele>98.16666666666666</ele><time>2026-04-20T16:50:55.396Z</time></trkpt><trkpt lat="45.3935452" lon="9.2412341"><ele>98.33333333333333</ele><time>2026-04-20T16:50:57.396Z</time></trkpt><trkpt lat="45.3936209" lon="9.2412043"><ele>98.5</ele><time>2026-04-20T16:50:59.388Z</time></trkpt><trkpt lat="45.3936903" lon="9.241199"><ele>98.66666666666666</ele><time>2026-04-20T16:51:01.399Z</time></trkpt><trkpt lat="45.3937564" lon="9.2411439"><ele>98.83333333333333</ele><time>2026-04-20T16:51:04.393Z</time></trkpt><trkpt lat="45.3937212" lon="9.2410419"><ele>99.0</ele><time>2026-04-20T16:51:07.406Z</time></trkpt><trkpt lat="45.3937446" lon="9.2409472"><ele>99.0</ele><time>2026-04-20T16:51:09.405Z</time></trkpt><trkpt lat="45.3938086" lon="9.2408977"><ele>99.0</ele><time>2026-04-20T16:51:11.385Z</time></trkpt><trkpt lat="45.3938868" lon="9.2408682"><ele>99.0</ele><time>2026-04-20T16:51:13.387Z</time></trkpt><trkpt lat="45.3939676" lon="9.2408395"><ele>99.0</ele><time>2026-04-20T16:51:15.396Z</time></trkpt><trkpt lat="45.3940449" lon="9.2407973"><ele>99.0</ele><time>2026-04-20T16:51:17.392Z</time></trkpt><trkpt lat="45.3941118" lon="9.2407705"><ele>99.0</ele><time>2026-04-20T16:51:19.398Z</time></trkpt><trkpt lat="45.394182" lon="9.2407354"><ele>98.71428571428572</ele><time>2026-04-20T16:51:21.396Z</time></trkpt><trkpt lat="45.3942499" lon="9.2407017"><ele>98.42857142857142</ele><time>2026-04-20T16:51:23.4Z</time></trkpt><trkpt lat="45.3943167" lon="9.2406732"><ele>98.14285714285714</ele><time>2026-04-20T16:51:25.402Z</time></trkpt><trkpt lat="45.394383" lon="9.2406313"><ele>97.85714285714286</ele><time>2026-04-20T16:51:27.394Z</time></trkpt><trkpt lat="45.3944476" lon="9.2405898"><ele>97.57142857142858</ele><time>2026-04-20T16:51:29.396Z</time></trkpt><trkpt lat="45.3945162" lon="9.2405509"><ele>97.28571428571428</ele><time>2026-04-20T16:51:31.397Z</time></trkpt><trkpt lat="45.3945926" lon="9.2405147"><ele>97.0</ele><time>2026-04-20T16:51:33.39Z</time></trkpt><trkpt lat="45.3946649" lon="9.2404798"><ele>96.83333333333334</ele><time>2026-04-20T16:51:35.402Z</time></trkpt><trkpt lat="45.3947347" lon="9.2404469"><ele>96.66666666666667</ele><time>2026-04-20T16:51:37.395Z</time></trkpt><trkpt lat="45.3948025" lon="9.2404146"><ele>96.5</ele><time>2026-04-20T16:51:39.401Z</time></trkpt><trkpt lat="45.394867" lon="9.2403702"><ele>96.33333333333334</ele><time>2026-04-20T16:51:41.409Z</time></trkpt><trkpt lat="45.3949358" lon="9.2403328"><ele>96.16666666666667</ele><time>2026-04-20T16:51:43.401Z</time></trkpt><trkpt lat="45.3950147" lon="9.2402871"><ele>96.0</ele><time>2026-04-20T16:51:45.393Z</time></trkpt><trkpt lat="45.3950903" lon="9.2402563"><ele>96.0</ele><time>2026-04-20T16:51:47.395Z</time></trkpt><trkpt lat="45.3951668" lon="9.2402277"><ele>96.0</ele><time>2026-04-20T16:51:49.396Z</time></trkpt><trkpt lat="45.3952442" lon="9.2401848"><ele>96.0</ele><time>2026-04-20T16:51:51.391Z</time></trkpt><trkpt lat="45.3953123" lon="9.2401525"><ele>96.0</ele><time>2026-04-20T16:51:53.399Z</time></trkpt><trkpt lat="45.3953769" lon="9.2401122"><ele>96.0</ele><time>2026-04-20T16:51:56.392Z</time></trkpt><trkpt lat="45.3954534" lon="9.2400971"><ele>96.0</ele><time>2026-04-20T16:51:59.392Z</time></trkpt><trkpt lat="45.3955376" lon="9.2400601"><ele>96.16666666666667</ele><time>2026-04-20T16:52:02.397Z</time></trkpt><trkpt lat="45.3955953" lon="9.2400206"><ele>96.33333333333334</ele><time>2026-04-20T16:52:04.404Z</time></trkpt><trkpt lat="45.3956796" lon="9.2400064"><ele>96.5</ele><time>2026-04-20T16:52:07.4Z</time></trkpt><trkpt lat="45.395745" lon="9.2400055"><ele>96.66666666666667</ele><time>2026-04-20T16:52:09.399Z</time></trkpt><trkpt lat="45.3958362" lon="9.2400144"><ele>96.83333333333334</ele><time>2026-04-20T16:52:12.389Z</time></trkpt><trkpt lat="45.3959389" lon="9.2400448"><ele>97.0</ele><time>2026-04-20T16:52:16.395Z</time></trkpt><trkpt lat="45.3960037" lon="9.2400772"><ele>97.00000000000001</ele><time>2026-04-20T16:52:19.391Z</time></trkpt><trkpt lat="45.3960775" lon="9.240122"><ele>97.0</ele><time>2026-04-20T16:52:22.398Z</time></trkpt><trkpt lat="45.3961632" lon="9.2401546"><ele>97.0</ele><time>2026-04-20T16:52:25.397Z</time></trkpt><trkpt lat="45.3962491" lon="9.2401942"><ele>97.0</ele><time>2026-04-20T16:52:28.392Z</time></trkpt><trkpt lat="45.3963337" lon="9.2402263"><ele>97.00000000000001</ele><time>2026-04-20T16:52:31.403Z</time></trkpt><trkpt lat="45.3964111" lon="9.2402585"><ele>97.0</ele><time>2026-04-20T16:52:34.405Z</time></trkpt><trkpt lat="45.3964784" lon="9.2402679"><ele>97.16666666666667</ele><time>2026-04-20T16:52:37.394Z</time></trkpt><trkpt lat="45.3965125" lon="9.2401514"><ele>97.33333333333334</ele><time>2026-04-20T16:52:40.391Z</time></trkpt><trkpt lat="45.3965224" lon="9.2400206"><ele>97.5</ele><time>2026-04-20T16:52:43.395Z</time></trkpt><trkpt lat="45.3965315" lon="9.2399278"><ele>97.66666666666666</ele><time>2026-04-20T16:52:45.395Z</time></trkpt><trkpt lat="45.3965442" lon="9.2398319"><ele>97.83333333333333</ele><time>2026-04-20T16:52:47.395Z</time></trkpt><trkpt lat="45.3965815" lon="9.2396853"><ele>98.0</ele><time>2026-04-20T16:52:50.391Z</time></trkpt><trkpt lat="45.3965959" lon="9.2395795"><ele>97.83333333333333</ele><time>2026-04-20T16:52:52.389Z</time></trkpt><trkpt lat="45.3966128" lon="9.2394761"><ele>97.66666666666666</ele><time>2026-04-20T16:52:54.392Z</time></trkpt><trkpt lat="45.3966307" lon="9.2393601"><ele>97.5</ele><time>2026-04-20T16:52:56.397Z</time></trkpt><trkpt lat="45.396658" lon="9.2392563"><ele>97.33333333333334</ele><time>2026-04-20T16:52:58.396Z</time></trkpt><trkpt lat="45.3966801" lon="9.2391491"><ele>97.16666666666667</ele><time>2026-04-20T16:53:00.392Z</time></trkpt><trkpt lat="45.3967023" lon="9.239032"><ele>97.0</ele><time>2026-04-20T16:53:02.402Z</time></trkpt><trkpt lat="45.3967222" lon="9.2389294"><ele>97.00000000000001</ele><time>2026-04-20T16:53:04.39Z</time></trkpt><trkpt lat="45.3967513" lon="9.2388252"><ele>97.0</ele><time>2026-04-20T16:53:06.4Z</time></trkpt><trkpt lat="45.3967746" lon="9.2387105"><ele>97.0</ele><time>2026-04-20T16:53:08.396Z</time></trkpt><trkpt lat="45.39679" lon="9.2385999"><ele>97.0</ele><time>2026-04-20T16:53:10.402Z</time></trkpt><trkpt lat="45.3968199" lon="9.238445"><ele>97.00000000000001</ele><time>2026-04-20T16:53:13.394Z</time></trkpt><trkpt lat="45.3968509" lon="9.2383311"><ele>97.0</ele><time>2026-04-20T16:53:15.388Z</time></trkpt><trkpt lat="45.3968803" lon="9.2382351"><ele>97.00000000000001</ele><time>2026-04-20T16:53:17.388Z</time></trkpt><trkpt lat="45.3969019" lon="9.2381422"><ele>97.0</ele><time>2026-04-20T16:53:19.399Z</time></trkpt><trkpt lat="45.396932" lon="9.2380367"><ele>97.0</ele><time>2026-04-20T16:53:21.392Z</time></trkpt><trkpt lat="45.396965" lon="9.2379238"><ele>97.0</ele><time>2026-04-20T16:53:23.391Z</time></trkpt><trkpt lat="45.3969992" lon="9.2378216"><ele>97.00000000000001</ele><time>2026-04-20T16:53:25.394Z</time></trkpt><trkpt lat="45.3970251" lon="9.2377173"><ele>97.0</ele><time>2026-04-20T16:53:27.386Z</time></trkpt><trkpt lat="45.3970528" lon="9.2376167"><ele>97.50000000000001</ele><time>2026-04-20T16:53:29.391Z</time></trkpt><trkpt lat="45.3970686" lon="9.2375082"><ele>98.0</ele><time>2026-04-20T16:53:31.389Z</time></trkpt><trkpt lat="45.3970949" lon="9.2373948"><ele>98.5</ele><time>2026-04-20T16:53:33.393Z</time></trkpt><trkpt lat="45.3971299" lon="9.2372847"><ele>99.0</ele><time>2026-04-20T16:53:35.391Z</time></trkpt><trkpt lat="45.3971565" lon="9.2371751"><ele>99.50000000000001</ele><time>2026-04-20T16:53:37.392Z</time></trkpt><trkpt lat="45.3971816" lon="9.2370608"><ele>100.0</ele><time>2026-04-20T16:53:39.398Z</time></trkpt><trkpt lat="45.3972038" lon="9.2369504"><ele>100.00000000000001</ele><time>2026-04-20T16:53:41.391Z</time></trkpt><trkpt lat="45.3972295" lon="9.2368379"><ele>100.0</ele><time>2026-04-20T16:53:43.395Z</time></trkpt><trkpt lat="45.3972561" lon="9.2367319"><ele>100.0</ele><time>2026-04-20T16:53:45.39Z</time></trkpt><trkpt lat="45.3972913" lon="9.2366247"><ele>100.0</ele><time>2026-04-20T16:53:47.39Z</time></trkpt><trkpt lat="45.39733" lon="9.2365167"><ele>100.00000000000001</ele><time>2026-04-20T16:53:49.389Z</time></trkpt><trkpt lat="45.397372" lon="9.236418"><ele>100.0</ele><time>2026-04-20T16:53:51.395Z</time></trkpt><trkpt lat="45.3974165" lon="9.2363133"><ele>100.50000000000001</ele><time>2026-04-20T16:53:53.396Z</time></trkpt><trkpt lat="45.3974653" lon="9.2362214"><ele>101.0</ele><time>2026-04-20T16:53:55.396Z</time></trkpt><trkpt lat="45.3975163" lon="9.23613"><ele>101.5</ele><time>2026-04-20T16:53:57.387Z</time></trkpt><trkpt lat="45.3975676" lon="9.2360405"><ele>102.0</ele><time>2026-04-20T16:53:59.39Z</time></trkpt><trkpt lat="45.3976258" lon="9.235955"><ele>102.50000000000001</ele><time>2026-04-20T16:54:01.4Z</time></trkpt><trkpt lat="45.3976824" lon="9.2358587"><ele>103.0</ele><time>2026-04-20T16:54:03.394Z</time></trkpt><trkpt lat="45.3977321" lon="9.2357596"><ele>103.00000000000001</ele><time>2026-04-20T16:54:05.408Z</time></trkpt><trkpt lat="45.3977963" lon="9.2356625"><ele>103.0</ele><time>2026-04-20T16:54:07.392Z</time></trkpt><trkpt lat="45.3978519" lon="9.2355773"><ele>103.0</ele><time>2026-04-20T16:54:09.391Z</time></trkpt><trkpt lat="45.3979017" lon="9.2354809"><ele>103.0</ele><time>2026-04-20T16:54:11.396Z</time></trkpt><trkpt lat="45.3979591" lon="9.2353956"><ele>103.00000000000001</ele><time>2026-04-20T16:54:13.389Z</time></trkpt><trkpt lat="45.3980105" lon="9.2353071"><ele>103.0</ele><time>2026-04-20T16:54:15.391Z</time></trkpt><trkpt lat="45.3980593" lon="9.2352151"><ele>103.00000000000001</ele><time>2026-04-20T16:54:17.385Z</time></trkpt><trkpt lat="45.398111" lon="9.2351266"><ele>103.0</ele><time>2026-04-20T16:54:19.399Z</time></trkpt><trkpt lat="45.3981657" lon="9.2350412"><ele>103.0</ele><time>2026-04-20T16:54:21.395Z</time></trkpt><trkpt lat="45.3982114" lon="9.2349543"><ele>103.0</ele><time>2026-04-20T16:54:23.392Z</time></trkpt><trkpt lat="45.3982579" lon="9.2348625"><ele>103.00000000000001</ele><time>2026-04-20T16:54:25.397Z</time></trkpt><trkpt lat="45.3983015" lon="9.2347865"><ele>103.0</ele><time>2026-04-20T16:54:27.399Z</time></trkpt><trkpt lat="45.3983128" lon="9.2346811"><ele>102.99999999999999</ele><time>2026-04-20T16:54:30.39Z</time></trkpt><trkpt lat="45.3983521" lon="9.2346079"><ele>103.0</ele><time>2026-04-20T16:54:34.394Z</time></trkpt><trkpt lat="45.3984035" lon="9.2345475"><ele>103.0</ele><time>2026-04-20T16:54:37.398Z</time></trkpt><trkpt lat="45.3983386" lon="9.23462"><ele>103.0</ele><time>2026-04-20T16:54:43.397Z</time></trkpt><trkpt lat="45.3982854" lon="9.2346818"><ele>103.0</ele><time>2026-04-20T16:54:46.396Z</time></trkpt><trkpt lat="45.3983329" lon="9.2345806"><ele>102.99999999999999</ele><time>2026-04-20T16:54:50.397Z</time></trkpt><trkpt lat="45.3983706" lon="9.2344964"><ele>103.0</ele><time>2026-04-20T16:54:53.389Z</time></trkpt><trkpt lat="45.398725" lon="9.23387"><ele>103.0</ele><time>2026-04-20T16:55:03.387Z</time></trkpt><trkpt lat="45.3986844" lon="9.2337833"><ele>103.0</ele><time>2026-04-20T16:55:04.39Z</time></trkpt><trkpt lat="45.3986841" lon="9.2336436"><ele>103.0</ele><time>2026-04-20T16:55:05.379Z</time></trkpt><trkpt lat="45.3987188" lon="9.2334889"><ele>103.0</ele><time>2026-04-20T16:55:06.382Z</time></trkpt><trkpt lat="45.3987624" lon="9.2333262"><ele>103.0</ele><time>2026-04-20T16:55:07.384Z</time></trkpt><trkpt lat="45.3988001" lon="9.2331729"><ele>103.0</ele><time>2026-04-20T16:55:08.378Z</time></trkpt><trkpt lat="45.3988472" lon="9.2330147"><ele>103.0</ele><time>2026-04-20T16:55:09.382Z</time></trkpt><trkpt lat="45.3986733" lon="9.2329305"><ele>103.0</ele><time>2026-04-20T16:55:12.381Z</time></trkpt><trkpt lat="45.3986437" lon="9.2331992"><ele>103.0</ele><time>2026-04-20T16:55:13.393Z</time></trkpt><trkpt lat="45.3984499" lon="9.2334764"><ele>103.0</ele><time>2026-04-20T16:55:14.39Z</time></trkpt><trkpt lat="45.3985245" lon="9.233552"><ele>103.0</ele><time>2026-04-20T16:55:18.388Z</time></trkpt><trkpt lat="45.398587" lon="9.2335796"><ele>103.0</ele><time>2026-04-20T16:55:20.389Z</time></trkpt><trkpt lat="45.3986445" lon="9.2336199"><ele>103.00000000000001</ele><time>2026-04-20T16:55:22.389Z</time></trkpt><trkpt lat="45.3985617" lon="9.2336111"><ele>103.0</ele><time>2026-04-20T16:55:29.393Z</time></trkpt><trkpt lat="45.3984994" lon="9.2335935"><ele>103.0</ele><time>2026-04-20T16:55:31.396Z</time></trkpt><trkpt lat="45.3985708" lon="9.2336639"><ele>103.0</ele><time>2026-04-20T16:55:40.39Z</time></trkpt><trkpt lat="45.3986001" lon="9.2337479"><ele>103.00000000000001</ele><time>2026-04-20T16:55:43.384Z</time></trkpt><trkpt lat="45.3986808" lon="9.2337853"><ele>103.0</ele><time>2026-04-20T16:55:46.398Z</time></trkpt><trkpt lat="45.3987593" lon="9.2338112"><ele>102.83333333333334</ele><time>2026-04-20T16:55:49.388Z</time></trkpt><trkpt lat="45.3988496" lon="9.2338395"><ele>102.66666666666667</ele><time>2026-04-20T16:55:52.402Z</time></trkpt><trkpt lat="45.3989255" lon="9.2338614"><ele>102.5</ele><time>2026-04-20T16:55:55.393Z</time></trkpt><trkpt lat="45.3989943" lon="9.2337984"><ele>102.33333333333334</ele><time>2026-04-20T16:55:59.393Z</time></trkpt><trkpt lat="45.3990399" lon="9.2337212"><ele>102.16666666666667</ele><time>2026-04-20T16:56:01.394Z</time></trkpt><trkpt lat="45.3990881" lon="9.2336427"><ele>102.0</ele><time>2026-04-20T16:56:03.389Z</time></trkpt><trkpt lat="45.3991396" lon="9.2335558"><ele>102.0</ele><time>2026-04-20T16:56:05.392Z</time></trkpt><trkpt lat="45.3991911" lon="9.2334801"><ele>102.0</ele><time>2026-04-20T16:56:07.398Z</time></trkpt><trkpt lat="45.3992391" lon="9.2334044"><ele>102.0</ele><time>2026-04-20T16:56:09.398Z</time></trkpt><trkpt lat="45.3992792" lon="9.2333187"><ele>102.0</ele><time>2026-04-20T16:56:11.402Z</time></trkpt><trkpt lat="45.3993333" lon="9.2332386"><ele>102.0</ele><time>2026-04-20T16:56:13.395Z</time></trkpt><trkpt lat="45.3993987" lon="9.2331719"><ele>102.0</ele><time>2026-04-20T16:56:15.386Z</time></trkpt><trkpt lat="45.3994643" lon="9.2331101"><ele>102.0</ele><time>2026-04-20T16:56:17.396Z</time></trkpt><trkpt lat="45.3995129" lon="9.2330207"><ele>102.0</ele><time>2026-04-20T16:56:19.392Z</time></trkpt><trkpt lat="45.3995595" lon="9.2329088"><ele>102.0</ele><time>2026-04-20T16:56:21.393Z</time></trkpt><trkpt lat="45.3996024" lon="9.2328247"><ele>102.0</ele><time>2026-04-20T16:56:23.394Z</time></trkpt><trkpt lat="45.3996472" lon="9.2327558"><ele>102.0</ele><time>2026-04-20T16:56:25.394Z</time></trkpt><trkpt lat="45.3996985" lon="9.2326727"><ele>102.0</ele><time>2026-04-20T16:56:27.393Z</time></trkpt><trkpt lat="45.3997481" lon="9.2325967"><ele>102.16666666666667</ele><time>2026-04-20T16:56:29.401Z</time></trkpt><trkpt lat="45.3997981" lon="9.23251"><ele>102.33333333333334</ele><time>2026-04-20T16:56:31.394Z</time></trkpt><trkpt lat="45.399842" lon="9.2324247"><ele>102.5</ele><time>2026-04-20T16:56:33.386Z</time></trkpt><trkpt lat="45.3998949" lon="9.2323698"><ele>102.66666666666667</ele><time>2026-04-20T16:56:35.391Z</time></trkpt><trkpt lat="45.3999466" lon="9.2322722"><ele>102.83333333333334</ele><time>2026-04-20T16:56:38.394Z</time></trkpt><trkpt lat="45.4000037" lon="9.232188"><ele>103.0</ele><time>2026-04-20T16:56:41.394Z</time></trkpt><trkpt lat="45.4000739" lon="9.2321059"><ele>103.16666666666667</ele><time>2026-04-20T16:56:44.403Z</time></trkpt><trkpt lat="45.4001456" lon="9.2320224"><ele>103.33333333333334</ele><time>2026-04-20T16:56:47.392Z</time></trkpt><trkpt lat="45.4002071" lon="9.2319431"><ele>103.5</ele><time>2026-04-20T16:56:50.389Z</time></trkpt><trkpt lat="45.4001862" lon="9.2318519"><ele>103.66666666666666</ele><time>2026-04-20T16:56:52.392Z</time></trkpt><trkpt lat="45.4001696" lon="9.2317645"><ele>103.83333333333333</ele><time>2026-04-20T16:56:54.398Z</time></trkpt><trkpt lat="45.4001433" lon="9.231644"><ele>104.0</ele><time>2026-04-20T16:56:57.399Z</time></trkpt><trkpt lat="45.4001381" lon="9.231508"><ele>104.0</ele><time>2026-04-20T16:57:00.41Z</time></trkpt><trkpt lat="45.4001231" lon="9.2314164"><ele>104.0</ele><time>2026-04-20T16:57:02.4Z</time></trkpt><trkpt lat="45.4001087" lon="9.2313209"><ele>104.0</ele><time>2026-04-20T16:57:04.394Z</time></trkpt><trkpt lat="45.4001086" lon="9.2312169"><ele>104.0</ele><time>2026-04-20T16:57:06.393Z</time></trkpt><trkpt lat="45.4001057" lon="9.231119"><ele>104.0</ele><time>2026-04-20T16:57:08.399Z</time></trkpt><trkpt lat="45.4000894" lon="9.2310278"><ele>104.0</ele><time>2026-04-20T16:57:10.399Z</time></trkpt><trkpt lat="45.4000647" lon="9.2309276"><ele>104.0</ele><time>2026-04-20T16:57:12.388Z</time></trkpt><trkpt lat="45.4000342" lon="9.2308345"><ele>104.0</ele><time>2026-04-20T16:57:14.387Z</time></trkpt><trkpt lat="45.4000187" lon="9.2307238"><ele>104.0</ele><time>2026-04-20T16:57:16.39Z</time></trkpt><trkpt lat="45.399983" lon="9.2306224"><ele>104.0</ele><time>2026-04-20T16:57:18.387Z</time></trkpt><trkpt lat="45.3999573" lon="9.2305351"><ele>104.0</ele><time>2026-04-20T16:57:20.392Z</time></trkpt><trkpt lat="45.3999494" lon="9.2304321"><ele>104.0</ele><time>2026-04-20T16:57:22.399Z</time></trkpt><trkpt lat="45.3999301" lon="9.2303348"><ele>104.0</ele><time>2026-04-20T16:57:24.397Z</time></trkpt><trkpt lat="45.3999133" lon="9.2302356"><ele>104.0</ele><time>2026-04-20T16:57:26.394Z</time></trkpt><trkpt lat="45.3998975" lon="9.2301297"><ele>104.0</ele><time>2026-04-20T16:57:28.398Z</time></trkpt><trkpt lat="45.3998716" lon="9.23003"><ele>104.0</ele><time>2026-04-20T16:57:30.395Z</time></trkpt><trkpt lat="45.3998382" lon="9.2299368"><ele>104.0</ele><time>2026-04-20T16:57:32.394Z</time></trkpt><trkpt lat="45.3998096" lon="9.2298436"><ele>104.0</ele><time>2026-04-20T16:57:34.401Z</time></trkpt><trkpt lat="45.3997816" lon="9.2297608"><ele>104.0</ele><time>2026-04-20T16:57:36.398Z</time></trkpt><trkpt lat="45.3997314" lon="9.2296893"><ele>104.0</ele><time>2026-04-20T16:57:38.397Z</time></trkpt><trkpt lat="45.3996672" lon="9.2296723"><ele>104.0</ele><time>2026-04-20T16:57:40.402Z</time></trkpt><trkpt lat="45.3995823" lon="9.2296896"><ele>103.99999999999999</ele><time>2026-04-20T16:57:43.389Z</time></trkpt><trkpt lat="45.3995029" lon="9.2297314"><ele>104.0</ele><time>2026-04-20T16:57:46.39Z</time></trkpt><trkpt lat="45.3994293" lon="9.2297732"><ele>104.0</ele><time>2026-04-20T16:57:49.395Z</time></trkpt><trkpt lat="45.3993548" lon="9.2298129"><ele>104.0</ele><time>2026-04-20T16:57:53.388Z</time></trkpt><trkpt lat="45.3992841" lon="9.229845"><ele>103.99999999999999</ele><time>2026-04-20T16:57:58.391Z</time></trkpt><trkpt lat="45.3992215" lon="9.2298712"><ele>104.0</ele><time>2026-04-20T16:59:21.391Z</time></trkpt><trkpt lat="45.3991522" lon="9.2298648"><ele>104.0</ele><time>2026-04-20T16:59:25.394Z</time></trkpt><trkpt lat="45.3990708" lon="9.2299074"><ele>104.0</ele><time>2026-04-20T16:59:28.387Z</time></trkpt><trkpt lat="45.3989965" lon="9.2299267"><ele>104.0</ele><time>2026-04-20T16:59:30.398Z</time></trkpt><trkpt lat="45.3989239" lon="9.2299417"><ele>104.0</ele><time>2026-04-20T16:59:32.391Z</time></trkpt><trkpt lat="45.3988613" lon="9.2299629"><ele>104.0</ele><time>2026-04-20T16:59:34.393Z</time></trkpt><trkpt lat="45.3987981" lon="9.2299935"><ele>104.0</ele><time>2026-04-20T16:59:36.392Z</time></trkpt><trkpt lat="45.3987345" lon="9.2300219"><ele>104.0</ele><time>2026-04-20T16:59:38.395Z</time></trkpt><trkpt lat="45.3986728" lon="9.2300556"><ele>103.57142857142857</ele><time>2026-04-20T16:59:40.401Z</time></trkpt><trkpt lat="45.3986113" lon="9.2300845"><ele>103.14285714285715</ele><time>2026-04-20T16:59:42.391Z</time></trkpt><trkpt lat="45.3985463" lon="9.2301199"><ele>102.71428571428572</ele><time>2026-04-20T16:59:44.392Z</time></trkpt><trkpt lat="45.3984768" lon="9.2301464"><ele>102.28571428571428</ele><time>2026-04-20T16:59:46.394Z</time></trkpt><trkpt lat="45.3984039" lon="9.2301551"><ele>101.85714285714286</ele><time>2026-04-20T16:59:48.389Z</time></trkpt><trkpt lat="45.3983335" lon="9.2301358"><ele>101.42857142857143</ele><time>2026-04-20T16:59:50.392Z</time></trkpt><trkpt lat="45.3982841" lon="9.2300731"><ele>101.0</ele><time>2026-04-20T16:59:52.391Z</time></trkpt><trkpt lat="45.3982451" lon="9.2299897"><ele>101.0</ele><time>2026-04-20T16:59:55.394Z</time></trkpt><trkpt lat="45.3982148" lon="9.2298961"><ele>101.0</ele><time>2026-04-20T16:59:59.409Z</time></trkpt><trkpt lat="45.3981829" lon="9.2298186"><ele>101.0</ele><time>2026-04-20T17:00:03.392Z</time></trkpt><trkpt lat="45.3981513" lon="9.2297245"><ele>101.0</ele><time>2026-04-20T17:00:06.394Z</time></trkpt><trkpt lat="45.3981266" lon="9.2296353"><ele>101.0</ele><time>2026-04-20T17:00:09.391Z</time></trkpt><trkpt lat="45.3981075" lon="9.2295412"><ele>101.0</ele><time>2026-04-20T17:00:12.397Z</time></trkpt><trkpt lat="45.3980751" lon="9.2294476"><ele>101.0</ele><time>2026-04-20T17:00:16.389Z</time></trkpt><trkpt lat="45.398043" lon="9.2293695"><ele>101.16666666666666</ele><time>2026-04-20T17:00:21.397Z</time></trkpt><trkpt lat="45.3980145" lon="9.229271"><ele>101.33333333333333</ele><time>2026-04-20T17:00:26.393Z</time></trkpt><trkpt lat="45.3979855" lon="9.2291792"><ele>101.5</ele><time>2026-04-20T17:00:33.391Z</time></trkpt><trkpt lat="45.3979635" lon="9.2290802"><ele>101.66666666666666</ele><time>2026-04-20T17:00:40.39Z</time></trkpt><trkpt lat="45.397935" lon="9.2289978"><ele>101.83333333333333</ele><time>2026-04-20T17:02:46.399Z</time></trkpt><trkpt lat="45.3978845" lon="9.2288295"><ele>102.0</ele><time>2026-04-20T17:02:50.39Z</time></trkpt><trkpt lat="45.3978502" lon="9.2287265"><ele>102.0</ele><time>2026-04-20T17:02:52.401Z</time></trkpt><trkpt lat="45.3978081" lon="9.2286175"><ele>102.0</ele><time>2026-04-20T17:02:54.39Z</time></trkpt><trkpt lat="45.3977718" lon="9.2285077"><ele>102.0</ele><time>2026-04-20T17:02:56.397Z</time></trkpt><trkpt lat="45.3977424" lon="9.2284001"><ele>102.0</ele><time>2026-04-20T17:02:58.397Z</time></trkpt><trkpt lat="45.3977057" lon="9.2282917"><ele>102.0</ele><time>2026-04-20T17:03:00.393Z</time></trkpt><trkpt lat="45.3976677" lon="9.228179"><ele>102.0</ele><time>2026-04-20T17:03:02.391Z</time></trkpt><trkpt lat="45.3976293" lon="9.228071"><ele>101.66666666666667</ele><time>2026-04-20T17:03:04.393Z</time></trkpt><trkpt lat="45.3975964" lon="9.2279632"><ele>101.33333333333334</ele><time>2026-04-20T17:03:06.394Z</time></trkpt><trkpt lat="45.3975678" lon="9.2278643"><ele>101.0</ele><time>2026-04-20T17:03:08.394Z</time></trkpt><trkpt lat="45.3975368" lon="9.2277543"><ele>100.66666666666667</ele><time>2026-04-20T17:03:10.395Z</time></trkpt><trkpt lat="45.3974981" lon="9.2276509"><ele>100.33333333333334</ele><time>2026-04-20T17:03:12.385Z</time></trkpt><trkpt lat="45.3974578" lon="9.2275447"><ele>100.0</ele><time>2026-04-20T17:03:14.398Z</time></trkpt><trkpt lat="45.3974397" lon="9.2274322"><ele>100.00000000000001</ele><time>2026-04-20T17:03:16.393Z</time></trkpt><trkpt lat="45.397405" lon="9.2273209"><ele>100.0</ele><time>2026-04-20T17:03:18.389Z</time></trkpt><trkpt lat="45.3973683" lon="9.227219"><ele>100.0</ele><time>2026-04-20T17:03:20.395Z</time></trkpt><trkpt lat="45.3973396" lon="9.2271016"><ele>100.0</ele><time>2026-04-20T17:03:22.394Z</time></trkpt><trkpt lat="45.3973015" lon="9.2269974"><ele>100.00000000000001</ele><time>2026-04-20T17:03:24.395Z</time></trkpt><trkpt lat="45.3972691" lon="9.2268854"><ele>100.0</ele><time>2026-04-20T17:03:26.388Z</time></trkpt><trkpt lat="45.3972443" lon="9.2267838"><ele>99.66666666666667</ele><time>2026-04-20T17:03:28.394Z</time></trkpt><trkpt lat="45.3972091" lon="9.2266854"><ele>99.33333333333334</ele><time>2026-04-20T17:03:30.391Z</time></trkpt><trkpt lat="45.3971743" lon="9.2265813"><ele>99.0</ele><time>2026-04-20T17:03:32.389Z</time></trkpt><trkpt lat="45.3971395" lon="9.2264797"><ele>98.66666666666666</ele><time>2026-04-20T17:03:34.397Z</time></trkpt><trkpt lat="45.3971096" lon="9.2263747"><ele>98.33333333333333</ele><time>2026-04-20T17:03:36.394Z</time></trkpt><trkpt lat="45.3970852" lon="9.2262725"><ele>98.0</ele><time>2026-04-20T17:03:38.394Z</time></trkpt><trkpt lat="45.3970483" lon="9.2261622"><ele>97.99999999999999</ele><time>2026-04-20T17:03:40.396Z</time></trkpt><trkpt lat="45.3970185" lon="9.226057"><ele>98.0</ele><time>2026-04-20T17:03:42.394Z</time></trkpt><trkpt lat="45.3969909" lon="9.2259565"><ele>98.0</ele><time>2026-04-20T17:03:44.394Z</time></trkpt><trkpt lat="45.3969602" lon="9.2258591"><ele>98.0</ele><time>2026-04-20T17:03:46.391Z</time></trkpt><trkpt lat="45.3969237" lon="9.2257659"><ele>97.99999999999999</ele><time>2026-04-20T17:03:48.385Z</time></trkpt><trkpt lat="45.3968904" lon="9.2256717"><ele>98.0</ele><time>2026-04-20T17:03:50.394Z</time></trkpt><trkpt lat="45.3968617" lon="9.2255777"><ele>98.33333333333333</ele><time>2026-04-20T17:03:52.392Z</time></trkpt><trkpt lat="45.3968338" lon="9.22548"><ele>98.66666666666666</ele><time>2026-04-20T17:03:54.394Z</time></trkpt><trkpt lat="45.3968103" lon="9.2253901"><ele>99.0</ele><time>2026-04-20T17:03:56.392Z</time></trkpt><trkpt lat="45.3967727" lon="9.2252988"><ele>99.33333333333334</ele><time>2026-04-20T17:03:58.393Z</time></trkpt><trkpt lat="45.3967474" lon="9.2251894"><ele>99.66666666666667</ele><time>2026-04-20T17:04:00.389Z</time></trkpt><trkpt lat="45.3967014" lon="9.2250886"><ele>100.0</ele><time>2026-04-20T17:04:02.393Z</time></trkpt><trkpt lat="45.3966672" lon="9.2249946"><ele>100.00000000000001</ele><time>2026-04-20T17:04:04.39Z</time></trkpt><trkpt lat="45.3966339" lon="9.2248889"><ele>100.0</ele><time>2026-04-20T17:04:06.395Z</time></trkpt><trkpt lat="45.3966137" lon="9.224778"><ele>100.0</ele><time>2026-04-20T17:04:08.4Z</time></trkpt><trkpt lat="45.3965844" lon="9.22468"><ele>100.0</ele><time>2026-04-20T17:04:10.394Z</time></trkpt><trkpt lat="45.3965535" lon="9.2245906"><ele>100.0</ele><time>2026-04-20T17:04:12.393Z</time></trkpt><trkpt lat="45.3965252" lon="9.2244949"><ele>100.00000000000001</ele><time>2026-04-20T17:04:14.387Z</time></trkpt><trkpt lat="45.3965148" lon="9.2243981"><ele>100.0</ele><time>2026-04-20T17:04:16.388Z</time></trkpt><trkpt lat="45.3964712" lon="9.2243108"><ele>100.00000000000001</ele><time>2026-04-20T17:04:18.39Z</time></trkpt><trkpt lat="45.396431" lon="9.2242241"><ele>100.0</ele><time>2026-04-20T17:04:20.389Z</time></trkpt><trkpt lat="45.3963986" lon="9.2241275"><ele>100.0</ele><time>2026-04-20T17:04:22.393Z</time></trkpt><trkpt lat="45.3963625" lon="9.2240055"><ele>100.0</ele><time>2026-04-20T17:04:25.393Z</time></trkpt><trkpt lat="45.3963237" lon="9.2238891"><ele>100.00000000000001</ele><time>2026-04-20T17:04:28.39Z</time></trkpt><trkpt lat="45.3962361" lon="9.223911"><ele>100.0</ele><time>2026-04-20T17:04:31.389Z</time></trkpt><trkpt lat="45.3961715" lon="9.2239619"><ele>99.85714285714286</ele><time>2026-04-20T17:04:33.392Z</time></trkpt><trkpt lat="45.3961068" lon="9.2240087"><ele>99.71428571428572</ele><time>2026-04-20T17:04:35.393Z</time></trkpt><trkpt lat="45.3960419" lon="9.2240451"><ele>99.57142857142858</ele><time>2026-04-20T17:04:37.392Z</time></trkpt><trkpt lat="45.3959706" lon="9.2240892"><ele>99.42857142857143</ele><time>2026-04-20T17:04:39.387Z</time></trkpt><trkpt lat="45.3959099" lon="9.2241382"><ele>99.28571428571428</ele><time>2026-04-20T17:04:41.389Z</time></trkpt><trkpt lat="45.3958391" lon="9.224174"><ele>99.14285714285715</ele><time>2026-04-20T17:04:43.39Z</time></trkpt><trkpt lat="45.395771" lon="9.2242177"><ele>99.0</ele><time>2026-04-20T17:04:45.388Z</time></trkpt><trkpt lat="45.3957011" lon="9.2242604"><ele>99.0</ele><time>2026-04-20T17:04:47.394Z</time></trkpt><trkpt lat="45.3956347" lon="9.2243047"><ele>99.0</ele><time>2026-04-20T17:04:49.39Z</time></trkpt><trkpt lat="45.3955662" lon="9.2243492"><ele>99.0</ele><time>2026-04-20T17:04:51.395Z</time></trkpt><trkpt lat="45.3955022" lon="9.224389"><ele>99.0</ele><time>2026-04-20T17:04:53.389Z</time></trkpt><trkpt lat="45.3954386" lon="9.2244337"><ele>99.0</ele><time>2026-04-20T17:04:55.391Z</time></trkpt><trkpt lat="45.3953761" lon="9.2244811"><ele>99.0</ele><time>2026-04-20T17:04:57.387Z</time></trkpt><trkpt lat="45.3953126" lon="9.2245261"><ele>99.0</ele><time>2026-04-20T17:04:59.394Z</time></trkpt><trkpt lat="45.3952454" lon="9.2245752"><ele>99.0</ele><time>2026-04-20T17:05:01.389Z</time></trkpt><trkpt lat="45.3951874" lon="9.2246137"><ele>99.0</ele><time>2026-04-20T17:05:03.404Z</time></trkpt><trkpt lat="45.3951298" lon="9.2246594"><ele>99.0</ele><time>2026-04-20T17:05:05.393Z</time></trkpt><trkpt lat="45.39506" lon="9.2247119"><ele>99.0</ele><time>2026-04-20T17:05:07.389Z</time></trkpt><trkpt lat="45.3949933" lon="9.2247601"><ele>99.0</ele><time>2026-04-20T17:05:09.388Z</time></trkpt><trkpt lat="45.394931" lon="9.2248041"><ele>99.0</ele><time>2026-04-20T17:05:11.292Z</time></trkpt><trkpt lat="45.3948648" lon="9.2248579"><ele>99.0</ele><time>2026-04-20T17:05:13.437Z</time></trkpt><trkpt lat="45.3947779" lon="9.2249172"><ele>99.0</ele><time>2026-04-20T17:05:16.349Z</time></trkpt><trkpt lat="45.3947146" lon="9.2249541"><ele>99.0</ele><time>2026-04-20T17:05:18.391Z</time></trkpt><trkpt lat="45.3946488" lon="9.2249954"><ele>99.0</ele><time>2026-04-20T17:05:20.384Z</time></trkpt><trkpt lat="45.3945839" lon="9.2250361"><ele>99.0</ele><time>2026-04-20T17:05:22.394Z</time></trkpt><trkpt lat="45.3945036" lon="9.2250809"><ele>99.0</ele><time>2026-04-20T17:05:25.391Z</time></trkpt><trkpt lat="45.394443" lon="9.2251214"><ele>99.0</ele><time>2026-04-20T17:05:28.387Z</time></trkpt><trkpt lat="45.3943753" lon="9.2251609"><ele>99.0</ele><time>2026-04-20T17:05:40.395Z</time></trkpt><trkpt lat="45.3943133" lon="9.2252105"><ele>99.0</ele><time>2026-04-20T17:05:47.388Z</time></trkpt><trkpt lat="45.394239" lon="9.225266"><ele>99.0</ele><time>2026-04-20T17:05:52.386Z</time></trkpt><trkpt lat="45.3941598" lon="9.225325"><ele>99.0</ele><time>2026-04-20T17:05:55.389Z</time></trkpt><trkpt lat="45.3941027" lon="9.2253675"><ele>99.0</ele><time>2026-04-20T17:05:57.387Z</time></trkpt><trkpt lat="45.3940416" lon="9.2254024"><ele>99.0</ele><time>2026-04-20T17:05:59.396Z</time></trkpt><trkpt lat="45.3939833" lon="9.2254414"><ele>99.0</ele><time>2026-04-20T17:06:01.393Z</time></trkpt><trkpt lat="45.3939206" lon="9.2254839"><ele>99.0</ele><time>2026-04-20T17:06:03.387Z</time></trkpt><trkpt lat="45.3938602" lon="9.225524"><ele>99.0</ele><time>2026-04-20T17:06:05.389Z</time></trkpt><trkpt lat="45.3937832" lon="9.2255785"><ele>99.0</ele><time>2026-04-20T17:06:07.388Z</time></trkpt><trkpt lat="45.3937075" lon="9.225628"><ele>99.0</ele><time>2026-04-20T17:06:09.386Z</time></trkpt><trkpt lat="45.3936389" lon="9.2256756"><ele>99.0</ele><time>2026-04-20T17:06:11.398Z</time></trkpt><trkpt lat="45.3935648" lon="9.2257255"><ele>99.0</ele><time>2026-04-20T17:06:13.396Z</time></trkpt><trkpt lat="45.3934923" lon="9.2257787"><ele>99.0</ele><time>2026-04-20T17:06:15.39Z</time></trkpt><trkpt lat="45.3934161" lon="9.2258318"><ele>99.0</ele><time>2026-04-20T17:06:17.386Z</time></trkpt><trkpt lat="45.3933473" lon="9.2258768"><ele>99.0</ele><time>2026-04-20T17:06:19.398Z</time></trkpt><trkpt lat="45.3932818" lon="9.2259205"><ele>99.0</ele><time>2026-04-20T17:06:21.385Z</time></trkpt><trkpt lat="45.3932137" lon="9.2259669"><ele>99.0</ele><time>2026-04-20T17:06:23.387Z</time></trkpt><trkpt lat="45.3931508" lon="9.2260219"><ele>99.0</ele><time>2026-04-20T17:06:25.388Z</time></trkpt><trkpt lat="45.3930782" lon="9.2260752"><ele>99.0</ele><time>2026-04-20T17:06:27.384Z</time></trkpt><trkpt lat="45.3930097" lon="9.2261219"><ele>99.0</ele><time>2026-04-20T17:06:29.389Z</time></trkpt><trkpt lat="45.3929321" lon="9.226157"><ele>99.0</ele><time>2026-04-20T17:06:31.388Z</time></trkpt><trkpt lat="45.3928798" lon="9.2261023"><ele>99.0</ele><time>2026-04-20T17:06:33.399Z</time></trkpt><trkpt lat="45.3928365" lon="9.2260132"><ele>99.0</ele><time>2026-04-20T17:06:35.392Z</time></trkpt><trkpt lat="45.3927984" lon="9.2259285"><ele>99.0</ele><time>2026-04-20T17:06:37.397Z</time></trkpt><trkpt lat="45.3927539" lon="9.2258355"><ele>99.0</ele><time>2026-04-20T17:06:39.392Z</time></trkpt><trkpt lat="45.3927264" lon="9.2257353"><ele>99.0</ele><time>2026-04-20T17:06:41.39Z</time></trkpt><trkpt lat="45.392686" lon="9.2256461"><ele>99.0</ele><time>2026-04-20T17:06:43.394Z</time></trkpt><trkpt lat="45.3926477" lon="9.2255559"><ele>99.0</ele><time>2026-04-20T17:06:45.391Z</time></trkpt><trkpt lat="45.3926051" lon="9.2254758"><ele>99.0</ele><time>2026-04-20T17:06:47.392Z</time></trkpt><trkpt lat="45.3925684" lon="9.2253912"><ele>99.0</ele><time>2026-04-20T17:06:49.393Z</time></trkpt><trkpt lat="45.3925294" lon="9.2253028"><ele>99.0</ele><time>2026-04-20T17:06:51.389Z</time></trkpt><trkpt lat="45.392487" lon="9.2252142"><ele>99.0</ele><time>2026-04-20T17:06:53.392Z</time></trkpt><trkpt lat="45.3924443" lon="9.2251234"><ele>99.0</ele><time>2026-04-20T17:06:55.39Z</time></trkpt><trkpt lat="45.3924056" lon="9.2250321"><ele>99.0</ele><time>2026-04-20T17:06:57.387Z</time></trkpt><trkpt lat="45.3923694" lon="9.2249506"><ele>99.0</ele><time>2026-04-20T17:06:59.392Z</time></trkpt><trkpt lat="45.392329" lon="9.2248609"><ele>99.0</ele><time>2026-04-20T17:07:01.39Z</time></trkpt><trkpt lat="45.3922905" lon="9.2247661"><ele>99.0</ele><time>2026-04-20T17:07:03.391Z</time></trkpt><trkpt lat="45.3922454" lon="9.2246732"><ele>99.0</ele><time>2026-04-20T17:07:05.387Z</time></trkpt><trkpt lat="45.3922079" lon="9.2245801"><ele>99.0</ele><time>2026-04-20T17:07:07.389Z</time></trkpt><trkpt lat="45.3921771" lon="9.224477"><ele>99.33333333333333</ele><time>2026-04-20T17:07:09.391Z</time></trkpt><trkpt lat="45.3921362" lon="9.2243855"><ele>99.66666666666666</ele><time>2026-04-20T17:07:11.386Z</time></trkpt><trkpt lat="45.3920934" lon="9.2242955"><ele>100.0</ele><time>2026-04-20T17:07:13.391Z</time></trkpt><trkpt lat="45.3920548" lon="9.2241995"><ele>100.33333333333333</ele><time>2026-04-20T17:07:15.389Z</time></trkpt><trkpt lat="45.3920192" lon="9.2241027"><ele>100.66666666666666</ele><time>2026-04-20T17:07:17.39Z</time></trkpt><trkpt lat="45.3919926" lon="9.224"><ele>101.0</ele><time>2026-04-20T17:07:19.388Z</time></trkpt><trkpt lat="45.391973" lon="9.223898"><ele>100.99999999999999</ele><time>2026-04-20T17:07:21.392Z</time></trkpt><trkpt lat="45.3919578" lon="9.223781"><ele>101.0</ele><time>2026-04-20T17:07:23.392Z</time></trkpt><trkpt lat="45.3919429" lon="9.2236735"><ele>101.0</ele><time>2026-04-20T17:07:25.401Z</time></trkpt><trkpt lat="45.3919296" lon="9.2235682"><ele>101.0</ele><time>2026-04-20T17:07:27.39Z</time></trkpt><trkpt lat="45.3919119" lon="9.2234566"><ele>100.99999999999999</ele><time>2026-04-20T17:07:29.39Z</time></trkpt><trkpt lat="45.3918943" lon="9.223348"><ele>101.0</ele><time>2026-04-20T17:07:31.392Z</time></trkpt><trkpt lat="45.3918754" lon="9.2232369"><ele>100.99999999999999</ele><time>2026-04-20T17:07:33.392Z</time></trkpt><trkpt lat="45.3918603" lon="9.2231169"><ele>101.0</ele><time>2026-04-20T17:07:35.395Z</time></trkpt><trkpt lat="45.3918419" lon="9.2229982"><ele>101.0</ele><time>2026-04-20T17:07:37.39Z</time></trkpt><trkpt lat="45.3918283" lon="9.2228882"><ele>101.0</ele><time>2026-04-20T17:07:39.393Z</time></trkpt><trkpt lat="45.3918142" lon="9.2227812"><ele>100.99999999999999</ele><time>2026-04-20T17:07:41.392Z</time></trkpt><trkpt lat="45.391795" lon="9.2226754"><ele>101.0</ele><time>2026-04-20T17:07:43.39Z</time></trkpt><trkpt lat="45.3917827" lon="9.2225673"><ele>100.99999999999999</ele><time>2026-04-20T17:07:45.385Z</time></trkpt><trkpt lat="45.3917632" lon="9.2224594"><ele>101.0</ele><time>2026-04-20T17:07:47.394Z</time></trkpt><trkpt lat="45.3917507" lon="9.2223472"><ele>101.0</ele><time>2026-04-20T17:07:49.389Z</time></trkpt><trkpt lat="45.3917325" lon="9.2222409"><ele>101.0</ele><time>2026-04-20T17:07:51.391Z</time></trkpt><trkpt lat="45.3917162" lon="9.2221359"><ele>100.99999999999999</ele><time>2026-04-20T17:07:53.388Z</time></trkpt><trkpt lat="45.3916975" lon="9.2220264"><ele>101.0</ele><time>2026-04-20T17:07:55.392Z</time></trkpt><trkpt lat="45.3916783" lon="9.2219233"><ele>101.33333333333333</ele><time>2026-04-20T17:07:57.393Z</time></trkpt><trkpt lat="45.3916598" lon="9.2218133"><ele>101.66666666666666</ele><time>2026-04-20T17:07:59.398Z</time></trkpt><trkpt lat="45.3916119" lon="9.2217373"><ele>102.0</ele><time>2026-04-20T17:08:01.389Z</time></trkpt><trkpt lat="45.3915406" lon="9.2217797"><ele>102.33333333333334</ele><time>2026-04-20T17:08:03.392Z</time></trkpt><trkpt lat="45.3914636" lon="9.2218171"><ele>102.66666666666667</ele><time>2026-04-20T17:08:05.391Z</time></trkpt><trkpt lat="45.3913882" lon="9.221849"><ele>103.0</ele><time>2026-04-20T17:08:07.399Z</time></trkpt><trkpt lat="45.3913095" lon="9.2218793"><ele>103.00000000000001</ele><time>2026-04-20T17:08:09.387Z</time></trkpt><trkpt lat="45.3912251" lon="9.2219141"><ele>103.0</ele><time>2026-04-20T17:08:11.396Z</time></trkpt><trkpt lat="45.3911471" lon="9.2219573"><ele>103.0</ele><time>2026-04-20T17:08:13.387Z</time></trkpt><trkpt lat="45.3910685" lon="9.2220278"><ele>103.0</ele><time>2026-04-20T17:08:15.395Z</time></trkpt><trkpt lat="45.3909953" lon="9.2220894"><ele>103.00000000000001</ele><time>2026-04-20T17:08:17.394Z</time></trkpt><trkpt lat="45.3909325" lon="9.2221611"><ele>103.0</ele><time>2026-04-20T17:08:19.39Z</time></trkpt><trkpt lat="45.3908699" lon="9.2222424"><ele>102.66666666666667</ele><time>2026-04-20T17:08:21.396Z</time></trkpt><trkpt lat="45.3908179" lon="9.222331"><ele>102.33333333333334</ele><time>2026-04-20T17:08:23.388Z</time></trkpt><trkpt lat="45.3907586" lon="9.222424"><ele>102.0</ele><time>2026-04-20T17:08:25.391Z</time></trkpt><trkpt lat="45.3906888" lon="9.2225033"><ele>101.66666666666666</ele><time>2026-04-20T17:08:27.394Z</time></trkpt><trkpt lat="45.3906319" lon="9.2225766"><ele>101.33333333333333</ele><time>2026-04-20T17:08:29.391Z</time></trkpt><trkpt lat="45.3905739" lon="9.2226521"><ele>101.0</ele><time>2026-04-20T17:08:31.387Z</time></trkpt><trkpt lat="45.3905106" lon="9.222726"><ele>100.99999999999999</ele><time>2026-04-20T17:08:33.388Z</time></trkpt><trkpt lat="45.3904475" lon="9.222788"><ele>101.0</ele><time>2026-04-20T17:08:35.389Z</time></trkpt><trkpt lat="45.3903905" lon="9.2228589"><ele>101.0</ele><time>2026-04-20T17:08:37.389Z</time></trkpt><trkpt lat="45.3903287" lon="9.2229281"><ele>101.0</ele><time>2026-04-20T17:08:39.39Z</time></trkpt><trkpt lat="45.3902729" lon="9.2229984"><ele>100.99999999999999</ele><time>2026-04-20T17:08:41.39Z</time></trkpt><trkpt lat="45.39022" lon="9.223065"><ele>101.0</ele><time>2026-04-20T17:08:43.392Z</time></trkpt><trkpt lat="45.3901575" lon="9.2231334"><ele>100.83333333333333</ele><time>2026-04-20T17:08:45.393Z</time></trkpt><trkpt lat="45.3900945" lon="9.2232106"><ele>100.66666666666666</ele><time>2026-04-20T17:08:47.391Z</time></trkpt><trkpt lat="45.3900299" lon="9.2232905"><ele>100.5</ele><time>2026-04-20T17:08:49.387Z</time></trkpt><trkpt lat="45.3899677" lon="9.2233691"><ele>100.33333333333334</ele><time>2026-04-20T17:08:51.392Z</time></trkpt><trkpt lat="45.3899117" lon="9.2234553"><ele>100.16666666666667</ele><time>2026-04-20T17:08:53.391Z</time></trkpt><trkpt lat="45.3898562" lon="9.2235048"><ele>100.0</ele><time>2026-04-20T17:08:55.394Z</time></trkpt><trkpt lat="45.3897644" lon="9.2234787"><ele>100.00000000000001</ele><time>2026-04-20T17:08:58.392Z</time></trkpt><trkpt lat="45.3897167" lon="9.2234157"><ele>100.0</ele><time>2026-04-20T17:09:01.392Z</time></trkpt><trkpt lat="45.3896811" lon="9.223337"><ele>100.0</ele><time>2026-04-20T17:09:09.391Z</time></trkpt><trkpt lat="45.3896495" lon="9.2232251"><ele>100.0</ele><time>2026-04-20T17:09:12.391Z</time></trkpt><trkpt lat="45.3896291" lon="9.223134"><ele>100.0</ele><time>2026-04-20T17:09:14.391Z</time></trkpt><trkpt lat="45.3895999" lon="9.2230444"><ele>100.00000000000001</ele><time>2026-04-20T17:09:16.394Z</time></trkpt><trkpt lat="45.3895541" lon="9.2229547"><ele>100.0</ele><time>2026-04-20T17:09:18.388Z</time></trkpt><trkpt lat="45.3895132" lon="9.222876"><ele>100.00000000000001</ele><time>2026-04-20T17:09:20.393Z</time></trkpt><trkpt lat="45.3894672" lon="9.2227908"><ele>100.0</ele><time>2026-04-20T17:09:22.388Z</time></trkpt><trkpt lat="45.3894174" lon="9.222709"><ele>100.0</ele><time>2026-04-20T17:09:24.39Z</time></trkpt><trkpt lat="45.3893648" lon="9.2226235"><ele>100.0</ele><time>2026-04-20T17:09:26.39Z</time></trkpt><trkpt lat="45.3893112" lon="9.2225345"><ele>100.00000000000001</ele><time>2026-04-20T17:09:28.39Z</time></trkpt><trkpt lat="45.3892596" lon="9.2224397"><ele>100.0</ele><time>2026-04-20T17:09:30.396Z</time></trkpt><trkpt lat="45.3892121" lon="9.2223703"><ele>100.00000000000001</ele><time>2026-04-20T17:09:32.382Z</time></trkpt><trkpt lat="45.3891685" lon="9.2222884"><ele>100.0</ele><time>2026-04-20T17:09:36.393Z</time></trkpt><trkpt lat="45.3891104" lon="9.2221961"><ele>100.0</ele><time>2026-04-20T17:09:39.39Z</time></trkpt><trkpt lat="45.389055" lon="9.2220853"><ele>100.0</ele><time>2026-04-20T17:09:42.397Z</time></trkpt><trkpt lat="45.3890182" lon="9.2219874"><ele>100.00000000000001</ele><time>2026-04-20T17:09:44.392Z</time></trkpt><trkpt lat="45.3889828" lon="9.221913"><ele>100.0</ele><time>2026-04-20T17:09:46.39Z</time></trkpt><trkpt lat="45.388945" lon="9.2218296"><ele>100.00000000000001</ele><time>2026-04-20T17:09:48.389Z</time></trkpt><trkpt lat="45.3889089" lon="9.2217358"><ele>100.0</ele><time>2026-04-20T17:09:50.393Z</time></trkpt><trkpt lat="45.388871" lon="9.2216458"><ele>100.0</ele><time>2026-04-20T17:09:52.392Z</time></trkpt><trkpt lat="45.3888335" lon="9.2215615"><ele>100.0</ele><time>2026-04-20T17:09:54.394Z</time></trkpt><trkpt lat="45.3887943" lon="9.2214793"><ele>100.00000000000001</ele><time>2026-04-20T17:09:56.389Z</time></trkpt><trkpt lat="45.3887395" lon="9.2213673"><ele>100.0</ele><time>2026-04-20T17:09:59.389Z</time></trkpt><trkpt lat="45.3886943" lon="9.2212649"><ele>100.16666666666667</ele><time>2026-04-20T17:10:02.387Z</time></trkpt><trkpt lat="45.3886697" lon="9.2211604"><ele>100.33333333333334</ele><time>2026-04-20T17:10:05.387Z</time></trkpt><trkpt lat="45.388683" lon="9.2210707"><ele>100.5</ele><time>2026-04-20T17:10:07.394Z</time></trkpt><trkpt lat="45.3887104" lon="9.2209748"><ele>100.66666666666666</ele><time>2026-04-20T17:10:09.392Z</time></trkpt><trkpt lat="45.3887431" lon="9.2208719"><ele>100.83333333333333</ele><time>2026-04-20T17:10:11.39Z</time></trkpt><trkpt lat="45.3887782" lon="9.2207653"><ele>101.0</ele><time>2026-04-20T17:10:13.394Z</time></trkpt><trkpt lat="45.3888025" lon="9.2206556"><ele>100.83333333333333</ele><time>2026-04-20T17:10:15.388Z</time></trkpt><trkpt lat="45.3888345" lon="9.2205398"><ele>100.66666666666666</ele><time>2026-04-20T17:10:17.394Z</time></trkpt><trkpt lat="45.3888687" lon="9.2204309"><ele>100.5</ele><time>2026-04-20T17:10:19.385Z</time></trkpt><trkpt lat="45.3888913" lon="9.2203149"><ele>100.33333333333334</ele><time>2026-04-20T17:10:21.391Z</time></trkpt><trkpt lat="45.3889244" lon="9.2202008"><ele>100.16666666666667</ele><time>2026-04-20T17:10:23.392Z</time></trkpt><trkpt lat="45.3889492" lon="9.2200794"><ele>100.0</ele><time>2026-04-20T17:10:25.388Z</time></trkpt><trkpt lat="45.3889798" lon="9.2199726"><ele>100.33333333333334</ele><time>2026-04-20T17:10:27.389Z</time></trkpt><trkpt lat="45.3890173" lon="9.2198642"><ele>100.66666666666667</ele><time>2026-04-20T17:10:29.389Z</time></trkpt><trkpt lat="45.3890465" lon="9.2197458"><ele>101.0</ele><time>2026-04-20T17:10:31.393Z</time></trkpt><trkpt lat="45.3890816" lon="9.2196365"><ele>101.33333333333334</ele><time>2026-04-20T17:10:33.393Z</time></trkpt><trkpt lat="45.3891244" lon="9.2195204"><ele>101.66666666666667</ele><time>2026-04-20T17:10:35.388Z</time></trkpt><trkpt lat="45.3891658" lon="9.2194169"><ele>102.0</ele><time>2026-04-20T17:10:37.389Z</time></trkpt><trkpt lat="45.3891848" lon="9.2193159"><ele>102.0</ele><time>2026-04-20T17:10:39.391Z</time></trkpt><trkpt lat="45.3891999" lon="9.2191927"><ele>102.0</ele><time>2026-04-20T17:10:41.394Z</time></trkpt><trkpt lat="45.3892183" lon="9.2190636"><ele>102.0</ele><time>2026-04-20T17:10:43.39Z</time></trkpt><trkpt lat="45.389245" lon="9.2189276"><ele>102.0</ele><time>2026-04-20T17:10:45.389Z</time></trkpt><trkpt lat="45.3892752" lon="9.218793"><ele>102.0</ele><time>2026-04-20T17:10:47.394Z</time></trkpt><trkpt lat="45.389306" lon="9.2186712"><ele>102.0</ele><time>2026-04-20T17:10:49.387Z</time></trkpt><trkpt lat="45.3893461" lon="9.2185536"><ele>102.0</ele><time>2026-04-20T17:10:51.388Z</time></trkpt><trkpt lat="45.3893848" lon="9.2184319"><ele>102.0</ele><time>2026-04-20T17:10:53.389Z</time></trkpt><trkpt lat="45.3894195" lon="9.218307"><ele>102.0</ele><time>2026-04-20T17:10:55.39Z</time></trkpt><trkpt lat="45.3894553" lon="9.2181832"><ele>102.0</ele><time>2026-04-20T17:10:57.388Z</time></trkpt><trkpt lat="45.3894886" lon="9.2180686"><ele>102.0</ele><time>2026-04-20T17:10:59.392Z</time></trkpt><trkpt lat="45.3895236" lon="9.2179523"><ele>102.0</ele><time>2026-04-20T17:11:01.396Z</time></trkpt><trkpt lat="45.3895614" lon="9.2178246"><ele>102.0</ele><time>2026-04-20T17:11:03.389Z</time></trkpt><trkpt lat="45.3896036" lon="9.2177037"><ele>102.0</ele><time>2026-04-20T17:11:05.387Z</time></trkpt><trkpt lat="45.3896381" lon="9.217579"><ele>102.0</ele><time>2026-04-20T17:11:07.39Z</time></trkpt><trkpt lat="45.3896742" lon="9.2174528"><ele>102.16666666666667</ele><time>2026-04-20T17:11:09.392Z</time></trkpt><trkpt lat="45.3897118" lon="9.2173332"><ele>102.33333333333334</ele><time>2026-04-20T17:11:11.39Z</time></trkpt><trkpt lat="45.3897467" lon="9.2172148"><ele>102.5</ele><time>2026-04-20T17:11:13.388Z</time></trkpt><trkpt lat="45.3897777" lon="9.2171036"><ele>102.66666666666667</ele><time>2026-04-20T17:11:15.393Z</time></trkpt><trkpt lat="45.3898047" lon="9.2169865"><ele>102.83333333333334</ele><time>2026-04-20T17:11:17.391Z</time></trkpt><trkpt lat="45.3898305" lon="9.216873"><ele>103.0</ele><time>2026-04-20T17:11:19.391Z</time></trkpt><trkpt lat="45.3898582" lon="9.2167476"><ele>103.00000000000001</ele><time>2026-04-20T17:11:21.389Z</time></trkpt><trkpt lat="45.3898787" lon="9.2166413"><ele>103.0</ele><time>2026-04-20T17:11:23.393Z</time></trkpt><trkpt lat="45.3899093" lon="9.2165237"><ele>103.0</ele><time>2026-04-20T17:11:25.391Z</time></trkpt><trkpt lat="45.38994" lon="9.2164053"><ele>103.0</ele><time>2026-04-20T17:11:27.39Z</time></trkpt><trkpt lat="45.3899807" lon="9.2162975"><ele>103.00000000000001</ele><time>2026-04-20T17:11:29.386Z</time></trkpt><trkpt lat="45.3899964" lon="9.2161826"><ele>103.0</ele><time>2026-04-20T17:11:31.39Z</time></trkpt><trkpt lat="45.390017" lon="9.2160775"><ele>103.00000000000001</ele><time>2026-04-20T17:11:33.387Z</time></trkpt><trkpt lat="45.3900423" lon="9.2159603"><ele>103.0</ele><time>2026-04-20T17:11:35.382Z</time></trkpt><trkpt lat="45.3900436" lon="9.2158316"><ele>103.0</ele><time>2026-04-20T17:11:37.39Z</time></trkpt><trkpt lat="45.389987" lon="9.2157513"><ele>103.0</ele><time>2026-04-20T17:11:39.388Z</time></trkpt><trkpt lat="45.3899311" lon="9.215701"><ele>103.00000000000001</ele><time>2026-04-20T17:11:41.39Z</time></trkpt><trkpt lat="45.3898627" lon="9.2156633"><ele>103.0</ele><time>2026-04-20T17:11:43.387Z</time></trkpt><trkpt lat="45.3894192" lon="9.2153881"><ele>102.50000000000001</ele><time>2026-04-20T17:11:51.382Z</time></trkpt><trkpt lat="45.38942" lon="9.2154906"><ele>102.0</ele><time>2026-04-20T17:11:52.389Z</time></trkpt><trkpt lat="45.3893612" lon="9.2155641"><ele>101.5</ele><time>2026-04-20T17:11:55.39Z</time></trkpt><trkpt lat="45.389331" lon="9.2156804"><ele>101.0</ele><time>2026-04-20T17:11:57.391Z</time></trkpt><trkpt lat="45.3893231" lon="9.2158046"><ele>100.50000000000001</ele><time>2026-04-20T17:11:59.385Z</time></trkpt><trkpt lat="45.3893063" lon="9.2159045"><ele>100.0</ele><time>2026-04-20T17:12:01.392Z</time></trkpt><trkpt lat="45.38929" lon="9.2160172"><ele>99.83333333333334</ele><time>2026-04-20T17:12:03.39Z</time></trkpt><trkpt lat="45.3892646" lon="9.2161334"><ele>99.66666666666667</ele><time>2026-04-20T17:12:05.401Z</time></trkpt><trkpt lat="45.3892317" lon="9.2162464"><ele>99.5</ele><time>2026-04-20T17:12:07.387Z</time></trkpt><trkpt lat="45.3892094" lon="9.216366"><ele>99.33333333333334</ele><time>2026-04-20T17:12:09.391Z</time></trkpt><trkpt lat="45.3891933" lon="9.2164864"><ele>99.16666666666667</ele><time>2026-04-20T17:12:11.393Z</time></trkpt><trkpt lat="45.3891736" lon="9.2166018"><ele>99.0</ele><time>2026-04-20T17:12:13.389Z</time></trkpt><trkpt lat="45.389156" lon="9.216719"><ele>99.0</ele><time>2026-04-20T17:12:15.386Z</time></trkpt><trkpt lat="45.3891369" lon="9.2168384"><ele>99.0</ele><time>2026-04-20T17:12:17.388Z</time></trkpt><trkpt lat="45.3891151" lon="9.2169558"><ele>99.0</ele><time>2026-04-20T17:12:19.385Z</time></trkpt><trkpt lat="45.389095" lon="9.2170821"><ele>99.0</ele><time>2026-04-20T17:12:21.387Z</time></trkpt><trkpt lat="45.3890759" lon="9.2172132"><ele>99.0</ele><time>2026-04-20T17:12:23.39Z</time></trkpt><trkpt lat="45.3890598" lon="9.2173429"><ele>99.0</ele><time>2026-04-20T17:12:25.393Z</time></trkpt><trkpt lat="45.3890397" lon="9.2174788"><ele>99.5</ele><time>2026-04-20T17:12:27.39Z</time></trkpt><trkpt lat="45.3890172" lon="9.2176033"><ele>100.0</ele><time>2026-04-20T17:12:29.388Z</time></trkpt><trkpt lat="45.3889939" lon="9.2177241"><ele>100.5</ele><time>2026-04-20T17:12:31.389Z</time></trkpt><trkpt lat="45.3889688" lon="9.2178451"><ele>101.0</ele><time>2026-04-20T17:12:33.402Z</time></trkpt><trkpt lat="45.3889439" lon="9.2179627"><ele>101.5</ele><time>2026-04-20T17:12:35.386Z</time></trkpt><trkpt lat="45.388918" lon="9.2180828"><ele>102.0</ele><time>2026-04-20T17:12:37.387Z</time></trkpt><trkpt lat="45.3888856" lon="9.2182081"><ele>102.0</ele><time>2026-04-20T17:12:39.39Z</time></trkpt><trkpt lat="45.3888592" lon="9.2183348"><ele>102.0</ele><time>2026-04-20T17:12:41.394Z</time></trkpt><trkpt lat="45.38884" lon="9.2184651"><ele>102.0</ele><time>2026-04-20T17:12:43.391Z</time></trkpt><trkpt lat="45.3888191" lon="9.2185972"><ele>102.0</ele><time>2026-04-20T17:12:45.386Z</time></trkpt><trkpt lat="45.3887906" lon="9.218723"><ele>102.0</ele><time>2026-04-20T17:12:47.386Z</time></trkpt><trkpt lat="45.3887641" lon="9.2188533"><ele>101.83333333333333</ele><time>2026-04-20T17:12:49.387Z</time></trkpt><trkpt lat="45.388729" lon="9.2189711"><ele>101.66666666666666</ele><time>2026-04-20T17:12:51.389Z</time></trkpt><trkpt lat="45.3886892" lon="9.2190862"><ele>101.5</ele><time>2026-04-20T17:12:53.388Z</time></trkpt><trkpt lat="45.3886616" lon="9.2191947"><ele>101.33333333333333</ele><time>2026-04-20T17:12:55.397Z</time></trkpt><trkpt lat="45.388629" lon="9.2192865"><ele>101.16666666666666</ele><time>2026-04-20T17:12:57.393Z</time></trkpt><trkpt lat="45.3885953" lon="9.2194167"><ele>101.0</ele><time>2026-04-20T17:12:59.386Z</time></trkpt><trkpt lat="45.388561" lon="9.219545"><ele>101.0</ele><time>2026-04-20T17:13:01.388Z</time></trkpt><trkpt lat="45.3885234" lon="9.2196867"><ele>101.0</ele><time>2026-04-20T17:13:03.383Z</time></trkpt><trkpt lat="45.3884913" lon="9.2198253"><ele>101.0</ele><time>2026-04-20T17:13:05.382Z</time></trkpt><trkpt lat="45.3884596" lon="9.2199527"><ele>101.0</ele><time>2026-04-20T17:13:07.384Z</time></trkpt><trkpt lat="45.3884257" lon="9.2200695"><ele>101.0</ele><time>2026-04-20T17:13:09.387Z</time></trkpt><trkpt lat="45.388394" lon="9.2201856"><ele>100.99999999999999</ele><time>2026-04-20T17:13:11.384Z</time></trkpt><trkpt lat="45.3883676" lon="9.2203093"><ele>101.0</ele><time>2026-04-20T17:13:13.385Z</time></trkpt><trkpt lat="45.3883397" lon="9.2204256"><ele>101.0</ele><time>2026-04-20T17:13:15.385Z</time></trkpt><trkpt lat="45.3883033" lon="9.2205397"><ele>101.0</ele><time>2026-04-20T17:13:17.386Z</time></trkpt><trkpt lat="45.3882753" lon="9.2206642"><ele>100.99999999999999</ele><time>2026-04-20T17:13:19.389Z</time></trkpt><trkpt lat="45.3882467" lon="9.2207839"><ele>101.0</ele><time>2026-04-20T17:13:21.389Z</time></trkpt><trkpt lat="45.3882204" lon="9.2208955"><ele>101.0</ele><time>2026-04-20T17:13:23.389Z</time></trkpt><trkpt lat="45.388189" lon="9.2210193"><ele>101.0</ele><time>2026-04-20T17:13:25.397Z</time></trkpt><trkpt lat="45.3881462" lon="9.2211398"><ele>101.0</ele><time>2026-04-20T17:13:27.399Z</time></trkpt><trkpt lat="45.3881139" lon="9.2212657"><ele>101.0</ele><time>2026-04-20T17:13:29.385Z</time></trkpt><trkpt lat="45.3880693" lon="9.2213835"><ele>101.0</ele><time>2026-04-20T17:13:31.392Z</time></trkpt><trkpt lat="45.3880077" lon="9.2214831"><ele>100.66666666666666</ele><time>2026-04-20T17:13:33.385Z</time></trkpt><trkpt lat="45.3879212" lon="9.2215405"><ele>100.33333333333333</ele><time>2026-04-20T17:13:35.397Z</time></trkpt><trkpt lat="45.3878426" lon="9.2215923"><ele>100.0</ele><time>2026-04-20T17:13:37.39Z</time></trkpt><trkpt lat="45.3877691" lon="9.2216478"><ele>99.66666666666666</ele><time>2026-04-20T17:13:39.387Z</time></trkpt><trkpt lat="45.3876844" lon="9.221712"><ele>99.33333333333333</ele><time>2026-04-20T17:13:41.389Z</time></trkpt><trkpt lat="45.3876077" lon="9.2217683"><ele>99.0</ele><time>2026-04-20T17:13:43.392Z</time></trkpt><trkpt lat="45.3875365" lon="9.2218404"><ele>99.0</ele><time>2026-04-20T17:13:45.389Z</time></trkpt><trkpt lat="45.3874586" lon="9.2219192"><ele>99.0</ele><time>2026-04-20T17:13:47.386Z</time></trkpt><trkpt lat="45.3873857" lon="9.2219847"><ele>99.0</ele><time>2026-04-20T17:13:49.383Z</time></trkpt><trkpt lat="45.3873047" lon="9.2220391"><ele>99.0</ele><time>2026-04-20T17:13:51.384Z</time></trkpt><trkpt lat="45.3872341" lon="9.2220932"><ele>99.0</ele><time>2026-04-20T17:13:53.385Z</time></trkpt><trkpt lat="45.3871533" lon="9.2221599"><ele>99.0</ele><time>2026-04-20T17:13:55.392Z</time></trkpt><trkpt lat="45.3870736" lon="9.2222279"><ele>99.0</ele><time>2026-04-20T17:13:57.389Z</time></trkpt><trkpt lat="45.3869946" lon="9.2222961"><ele>99.0</ele><time>2026-04-20T17:13:59.392Z</time></trkpt><trkpt lat="45.3869145" lon="9.2223618"><ele>99.0</ele><time>2026-04-20T17:14:01.387Z</time></trkpt><trkpt lat="45.3868353" lon="9.2224248"><ele>99.0</ele><time>2026-04-20T17:14:03.394Z</time></trkpt><trkpt lat="45.3867597" lon="9.2224839"><ele>99.0</ele><time>2026-04-20T17:14:05.385Z</time></trkpt><trkpt lat="45.3866761" lon="9.2225498"><ele>99.0</ele><time>2026-04-20T17:14:07.388Z</time></trkpt><trkpt lat="45.3865971" lon="9.2226203"><ele>99.0</ele><time>2026-04-20T17:14:09.394Z</time></trkpt><trkpt lat="45.3865279" lon="9.2226831"><ele>99.0</ele><time>2026-04-20T17:14:11.389Z</time></trkpt><trkpt lat="45.3864575" lon="9.2227448"><ele>99.0</ele><time>2026-04-20T17:14:13.386Z</time></trkpt><trkpt lat="45.3863779" lon="9.2228086"><ele>99.0</ele><time>2026-04-20T17:14:15.4Z</time></trkpt><trkpt lat="45.3863028" lon="9.222862"><ele>99.0</ele><time>2026-04-20T17:14:17.388Z</time></trkpt><trkpt lat="45.3862278" lon="9.2229315"><ele>98.83333333333333</ele><time>2026-04-20T17:14:19.384Z</time></trkpt><trkpt lat="45.386156" lon="9.2230012"><ele>98.66666666666666</ele><time>2026-04-20T17:14:21.385Z</time></trkpt><trkpt lat="45.3860796" lon="9.2230578"><ele>98.5</ele><time>2026-04-20T17:14:23.388Z</time></trkpt><trkpt lat="45.3860006" lon="9.2231194"><ele>98.33333333333333</ele><time>2026-04-20T17:14:25.39Z</time></trkpt><trkpt lat="45.3859232" lon="9.2231805"><ele>98.16666666666666</ele><time>2026-04-20T17:14:27.392Z</time></trkpt><trkpt lat="45.3858459" lon="9.22324"><ele>98.0</ele><time>2026-04-20T17:14:29.387Z</time></trkpt><trkpt lat="45.3857659" lon="9.2233143"><ele>98.0</ele><time>2026-04-20T17:14:31.393Z</time></trkpt><trkpt lat="45.3856861" lon="9.2233868"><ele>98.0</ele><time>2026-04-20T17:14:33.39Z</time></trkpt><trkpt lat="45.3856003" lon="9.2234618"><ele>98.0</ele><time>2026-04-20T17:14:35.389Z</time></trkpt><trkpt lat="45.3855149" lon="9.2235391"><ele>98.0</ele><time>2026-04-20T17:14:37.392Z</time></trkpt><trkpt lat="45.3854287" lon="9.2236141"><ele>98.0</ele><time>2026-04-20T17:14:39.396Z</time></trkpt><trkpt lat="45.385338" lon="9.2236899"><ele>97.80000000000001</ele><time>2026-04-20T17:14:41.389Z</time></trkpt><trkpt lat="45.3852492" lon="9.2237623"><ele>97.6</ele><time>2026-04-20T17:14:43.392Z</time></trkpt><trkpt lat="45.3851587" lon="9.2238407"><ele>97.4</ele><time>2026-04-20T17:14:45.385Z</time></trkpt><trkpt lat="45.3850689" lon="9.2239226"><ele>97.19999999999999</ele><time>2026-04-20T17:14:47.387Z</time></trkpt><trkpt lat="45.3849773" lon="9.2239984"><ele>97.0</ele><time>2026-04-20T17:14:49.391Z</time></trkpt><trkpt lat="45.38489" lon="9.2240743"><ele>97.0</ele><time>2026-04-20T17:14:51.392Z</time></trkpt><trkpt lat="45.3848041" lon="9.2241498"><ele>97.0</ele><time>2026-04-20T17:14:53.392Z</time></trkpt><trkpt lat="45.3847176" lon="9.2242253"><ele>97.0</ele><time>2026-04-20T17:14:55.389Z</time></trkpt><trkpt lat="45.3846258" lon="9.2243088"><ele>97.0</ele><time>2026-04-20T17:14:57.402Z</time></trkpt><trkpt lat="45.3845464" lon="9.2243777"><ele>97.0</ele><time>2026-04-20T17:14:59.388Z</time></trkpt><trkpt lat="45.3844559" lon="9.2244502"><ele>97.0</ele><time>2026-04-20T17:15:01.387Z</time></trkpt><trkpt lat="45.3843706" lon="9.2245284"><ele>97.0</ele><time>2026-04-20T17:15:03.387Z</time></trkpt><trkpt lat="45.3842794" lon="9.2246006"><ele>97.0</ele><time>2026-04-20T17:15:05.393Z</time></trkpt><trkpt lat="45.384191" lon="9.2246734"><ele>97.0</ele><time>2026-04-20T17:15:07.394Z</time></trkpt><trkpt lat="45.3841076" lon="9.2247383"><ele>97.0</ele><time>2026-04-20T17:15:09.389Z</time></trkpt><trkpt lat="45.3840157" lon="9.2248092"><ele>97.39999999999999</ele><time>2026-04-20T17:15:11.392Z</time></trkpt><trkpt lat="45.3839175" lon="9.2248567"><ele>97.8</ele><time>2026-04-20T17:15:13.39Z</time></trkpt><trkpt lat="45.3838253" lon="9.2249109"><ele>98.2</ele><time>2026-04-20T17:15:15.39Z</time></trkpt><trkpt lat="45.3837285" lon="9.2249544"><ele>98.6</ele><time>2026-04-20T17:15:17.394Z</time></trkpt><trkpt lat="45.3836355" lon="9.2250024"><ele>99.0</ele><time>2026-04-20T17:15:19.384Z</time></trkpt><trkpt lat="45.3835449" lon="9.2250562"><ele>99.0</ele><time>2026-04-20T17:15:21.392Z</time></trkpt><trkpt lat="45.3834507" lon="9.2250988"><ele>99.0</ele><time>2026-04-20T17:15:23.386Z</time></trkpt><trkpt lat="45.3833555" lon="9.2251335"><ele>99.0</ele><time>2026-04-20T17:15:25.391Z</time></trkpt><trkpt lat="45.3832572" lon="9.2251761"><ele>99.0</ele><time>2026-04-20T17:15:27.395Z</time></trkpt><trkpt lat="45.3831681" lon="9.225212"><ele>99.0</ele><time>2026-04-20T17:15:29.389Z</time></trkpt><trkpt lat="45.3830739" lon="9.2252463"><ele>98.80000000000001</ele><time>2026-04-20T17:15:31.389Z</time></trkpt><trkpt lat="45.382979" lon="9.2252815"><ele>98.60000000000001</ele><time>2026-04-20T17:15:33.386Z</time></trkpt><trkpt lat="45.3828869" lon="9.2253232"><ele>98.4</ele><time>2026-04-20T17:15:35.388Z</time></trkpt><trkpt lat="45.3827975" lon="9.2253684"><ele>98.2</ele><time>2026-04-20T17:15:37.388Z</time></trkpt><trkpt lat="45.3827143" lon="9.2254154"><ele>98.0</ele><time>2026-04-20T17:15:39.388Z</time></trkpt><trkpt lat="45.3826276" lon="9.2254558"><ele>98.0</ele><time>2026-04-20T17:15:41.393Z</time></trkpt><trkpt lat="45.3825428" lon="9.2254915"><ele>98.0</ele><time>2026-04-20T17:15:43.39Z</time></trkpt><trkpt lat="45.3824509" lon="9.2255188"><ele>98.0</ele><time>2026-04-20T17:15:45.387Z</time></trkpt><trkpt lat="45.3823483" lon="9.2255146"><ele>98.0</ele><time>2026-04-20T17:15:47.384Z</time></trkpt><trkpt lat="45.3822618" lon="9.2255154"><ele>98.0</ele><time>2026-04-20T17:15:49.383Z</time></trkpt><trkpt lat="45.3821725" lon="9.2255215"><ele>97.99999999999999</ele><time>2026-04-20T17:15:51.393Z</time></trkpt><trkpt lat="45.3820764" lon="9.2255177"><ele>98.0</ele><time>2026-04-20T17:15:53.383Z</time></trkpt><trkpt lat="45.3819887" lon="9.2255212"><ele>98.0</ele><time>2026-04-20T17:15:55.393Z</time></trkpt><trkpt lat="45.3819083" lon="9.2255171"><ele>98.0</ele><time>2026-04-20T17:15:57.391Z</time></trkpt><trkpt lat="45.3818361" lon="9.2255246"><ele>97.99999999999999</ele><time>2026-04-20T17:15:59.391Z</time></trkpt><trkpt lat="45.3817811" lon="9.2255958"><ele>98.0</ele><time>2026-04-20T17:16:01.385Z</time></trkpt><trkpt lat="45.3816989" lon="9.2256435"><ele>98.0</ele><time>2026-04-20T17:16:03.395Z</time></trkpt><trkpt lat="45.3816118" lon="9.225658"><ele>98.0</ele><time>2026-04-20T17:16:05.387Z</time></trkpt><trkpt lat="45.3815246" lon="9.2256894"><ele>98.0</ele><time>2026-04-20T17:16:07.386Z</time></trkpt><trkpt lat="45.3814299" lon="9.2257299"><ele>98.0</ele><time>2026-04-20T17:16:09.393Z</time></trkpt><trkpt lat="45.3813312" lon="9.2257679"><ele>98.0</ele><time>2026-04-20T17:16:11.397Z</time></trkpt><trkpt lat="45.3812406" lon="9.2258078"><ele>98.0</ele><time>2026-04-20T17:16:13.397Z</time></trkpt><trkpt lat="45.3811485" lon="9.2258483"><ele>98.0</ele><time>2026-04-20T17:16:15.388Z</time></trkpt><trkpt lat="45.3810637" lon="9.2258798"><ele>98.0</ele><time>2026-04-20T17:16:17.391Z</time></trkpt><trkpt lat="45.3809787" lon="9.2259258"><ele>98.0</ele><time>2026-04-20T17:16:19.385Z</time></trkpt><trkpt lat="45.3808831" lon="9.2259677"><ele>98.0</ele><time>2026-04-20T17:16:21.392Z</time></trkpt><trkpt lat="45.380792" lon="9.2259982"><ele>97.99999999999999</ele><time>2026-04-20T17:16:23.387Z</time></trkpt><trkpt lat="45.380705" lon="9.2260393"><ele>98.0</ele><time>2026-04-20T17:16:25.384Z</time></trkpt><trkpt lat="45.3806259" lon="9.2260851"><ele>98.0</ele><time>2026-04-20T17:16:27.392Z</time></trkpt><trkpt lat="45.3805426" lon="9.2261096"><ele>98.0</ele><time>2026-04-20T17:16:29.384Z</time></trkpt><trkpt lat="45.3804597" lon="9.2261425"><ele>97.99999999999999</ele><time>2026-04-20T17:16:31.385Z</time></trkpt><trkpt lat="45.380382" lon="9.2261654"><ele>98.0</ele><time>2026-04-20T17:16:33.386Z</time></trkpt><trkpt lat="45.3802997" lon="9.226197"><ele>98.16666666666666</ele><time>2026-04-20T17:16:35.397Z</time></trkpt><trkpt lat="45.3802244" lon="9.2262243"><ele>98.33333333333333</ele><time>2026-04-20T17:16:37.387Z</time></trkpt><trkpt lat="45.3801467" lon="9.226256"><ele>98.5</ele><time>2026-04-20T17:16:39.392Z</time></trkpt><trkpt lat="45.3800675" lon="9.2262802"><ele>98.66666666666666</ele><time>2026-04-20T17:16:41.391Z</time></trkpt><trkpt lat="45.3799823" lon="9.2263194"><ele>98.83333333333333</ele><time>2026-04-20T17:16:43.391Z</time></trkpt><trkpt lat="45.3799001" lon="9.2263554"><ele>99.0</ele><time>2026-04-20T17:16:45.386Z</time></trkpt><trkpt lat="45.3798186" lon="9.2263868"><ele>99.0</ele><time>2026-04-20T17:16:47.388Z</time></trkpt><trkpt lat="45.3797332" lon="9.2264068"><ele>99.0</ele><time>2026-04-20T17:16:49.388Z</time></trkpt><trkpt lat="45.3796455" lon="9.226406"><ele>99.0</ele><time>2026-04-20T17:16:51.386Z</time></trkpt><trkpt lat="45.3795552" lon="9.2264005"><ele>99.0</ele><time>2026-04-20T17:16:53.388Z</time></trkpt><trkpt lat="45.3794677" lon="9.2264093"><ele>99.0</ele><time>2026-04-20T17:16:55.39Z</time></trkpt><trkpt lat="45.3793809" lon="9.2264166"><ele>99.0</ele><time>2026-04-20T17:16:57.391Z</time></trkpt><trkpt lat="45.379288" lon="9.2264283"><ele>99.0</ele><time>2026-04-20T17:16:59.393Z</time></trkpt><trkpt lat="45.3791922" lon="9.2264406"><ele>99.0</ele><time>2026-04-20T17:17:01.392Z</time></trkpt><trkpt lat="45.3791129" lon="9.2264421"><ele>99.0</ele><time>2026-04-20T17:17:03.389Z</time></trkpt><trkpt lat="45.3790292" lon="9.2264625"><ele>99.0</ele><time>2026-04-20T17:17:05.39Z</time></trkpt><trkpt lat="45.3789561" lon="9.2264766"><ele>99.0</ele><time>2026-04-20T17:17:07.388Z</time></trkpt><trkpt lat="45.3788846" lon="9.2265237"><ele>99.0</ele><time>2026-04-20T17:17:09.403Z</time></trkpt><trkpt lat="45.3788098" lon="9.2265749"><ele>98.6</ele><time>2026-04-20T17:17:11.386Z</time></trkpt><trkpt lat="45.3787281" lon="9.2266413"><ele>98.2</ele><time>2026-04-20T17:17:13.388Z</time></trkpt><trkpt lat="45.3786399" lon="9.226701"><ele>97.8</ele><time>2026-04-20T17:17:15.391Z</time></trkpt><trkpt lat="45.3785581" lon="9.2267543"><ele>97.39999999999999</ele><time>2026-04-20T17:17:17.392Z</time></trkpt><trkpt lat="45.3784758" lon="9.2268103"><ele>97.0</ele><time>2026-04-20T17:17:19.387Z</time></trkpt><trkpt lat="45.3783958" lon="9.2268677"><ele>97.00000000000001</ele><time>2026-04-20T17:17:21.385Z</time></trkpt><trkpt lat="45.3783162" lon="9.2269154"><ele>97.0</ele><time>2026-04-20T17:17:23.387Z</time></trkpt><trkpt lat="45.3782363" lon="9.2269621"><ele>97.0</ele><time>2026-04-20T17:17:25.391Z</time></trkpt><trkpt lat="45.3781705" lon="9.227009"><ele>97.0</ele><time>2026-04-20T17:17:27.387Z</time></trkpt><trkpt lat="45.3780784" lon="9.227066"><ele>97.00000000000001</ele><time>2026-04-20T17:17:29.384Z</time></trkpt><trkpt lat="45.3779924" lon="9.2271042"><ele>97.0</ele><time>2026-04-20T17:17:31.398Z</time></trkpt><trkpt lat="45.3779081" lon="9.2271319"><ele>97.00000000000001</ele><time>2026-04-20T17:17:33.385Z</time></trkpt><trkpt lat="45.3778274" lon="9.2271684"><ele>97.0</ele><time>2026-04-20T17:17:35.39Z</time></trkpt><trkpt lat="45.3777496" lon="9.2272083"><ele>97.0</ele><time>2026-04-20T17:17:37.39Z</time></trkpt><trkpt lat="45.3776732" lon="9.2272428"><ele>97.0</ele><time>2026-04-20T17:17:39.393Z</time></trkpt><trkpt lat="45.3775926" lon="9.2272697"><ele>97.00000000000001</ele><time>2026-04-20T17:17:41.395Z</time></trkpt><trkpt lat="45.3775116" lon="9.2273028"><ele>97.0</ele><time>2026-04-20T17:17:43.398Z</time></trkpt><trkpt lat="45.3774316" lon="9.2273246"><ele>97.00000000000001</ele><time>2026-04-20T17:17:45.398Z</time></trkpt><trkpt lat="45.377356" lon="9.2273566"><ele>97.0</ele><time>2026-04-20T17:17:47.389Z</time></trkpt><trkpt lat="45.3772767" lon="9.2273833"><ele>97.0</ele><time>2026-04-20T17:17:49.387Z</time></trkpt><trkpt lat="45.3771949" lon="9.227406"><ele>97.0</ele><time>2026-04-20T17:17:51.401Z</time></trkpt><trkpt lat="45.3771207" lon="9.2274246"><ele>97.00000000000001</ele><time>2026-04-20T17:17:53.384Z</time></trkpt><trkpt lat="45.3770398" lon="9.2274276"><ele>97.0</ele><time>2026-04-20T17:17:55.397Z</time></trkpt><trkpt lat="45.3769673" lon="9.2273734"><ele>97.42857142857143</ele><time>2026-04-20T17:17:57.392Z</time></trkpt><trkpt lat="45.3769351" lon="9.2272871"><ele>97.85714285714286</ele><time>2026-04-20T17:17:59.391Z</time></trkpt><trkpt lat="45.3769309" lon="9.2271772"><ele>98.28571428571429</ele><time>2026-04-20T17:18:02.388Z</time></trkpt><trkpt lat="45.3769431" lon="9.227049"><ele>98.71428571428572</ele><time>2026-04-20T17:18:05.382Z</time></trkpt><trkpt lat="45.376939" lon="9.2269528"><ele>99.14285714285714</ele><time>2026-04-20T17:18:07.395Z</time></trkpt><trkpt lat="45.3769311" lon="9.2268583"><ele>99.57142857142858</ele><time>2026-04-20T17:18:09.391Z</time></trkpt><trkpt lat="45.3769237" lon="9.2267528"><ele>100.0</ele><time>2026-04-20T17:18:11.343Z</time></trkpt><trkpt lat="45.3768859" lon="9.226648"><ele>100.00000000000001</ele><time>2026-04-20T17:18:13.388Z</time></trkpt><trkpt lat="45.3768821" lon="9.226558"><ele>100.0</ele><time>2026-04-20T17:18:15.395Z</time></trkpt><trkpt lat="45.3768828" lon="9.2264347"><ele>100.0</ele><time>2026-04-20T17:18:18.393Z</time></trkpt><trkpt lat="45.376871" lon="9.2263093"><ele>100.0</ele><time>2026-04-20T17:18:21.388Z</time></trkpt><trkpt lat="45.376867" lon="9.226218"><ele>100.00000000000001</ele><time>2026-04-20T17:18:23.391Z</time></trkpt><trkpt lat="45.3768582" lon="9.2260807"><ele>100.0</ele><time>2026-04-20T17:18:26.387Z</time></trkpt><trkpt lat="45.3768496" lon="9.2259826"><ele>100.00000000000001</ele><time>2026-04-20T17:18:28.392Z</time></trkpt><trkpt lat="45.3768509" lon="9.2258736"><ele>100.0</ele><time>2026-04-20T17:18:30.387Z</time></trkpt><trkpt lat="45.3768467" lon="9.2257702"><ele>100.0</ele><time>2026-04-20T17:18:32.392Z</time></trkpt><trkpt lat="45.3768362" lon="9.225609"><ele>100.0</ele><time>2026-04-20T17:18:35.387Z</time></trkpt><trkpt lat="45.3768309" lon="9.2255066"><ele>100.00000000000001</ele><time>2026-04-20T17:18:37.395Z</time></trkpt><trkpt lat="45.3768251" lon="9.2254116"><ele>100.0</ele><time>2026-04-20T17:18:39.397Z</time></trkpt><trkpt lat="45.3768163" lon="9.225316"><ele>99.71428571428572</ele><time>2026-04-20T17:18:41.382Z</time></trkpt><trkpt lat="45.3768042" lon="9.22521"><ele>99.42857142857143</ele><time>2026-04-20T17:18:43.386Z</time></trkpt><trkpt lat="45.3767989" lon="9.2251127"><ele>99.14285714285714</ele><time>2026-04-20T17:18:45.397Z</time></trkpt><trkpt lat="45.3767931" lon="9.2250179"><ele>98.85714285714286</ele><time>2026-04-20T17:18:47.393Z</time></trkpt><trkpt lat="45.3767882" lon="9.2249028"><ele>98.57142857142857</ele><time>2026-04-20T17:18:50.393Z</time></trkpt><trkpt lat="45.3767859" lon="9.2247837"><ele>98.28571428571429</ele><time>2026-04-20T17:18:53.394Z</time></trkpt><trkpt lat="45.3767744" lon="9.2246909"><ele>98.0</ele><time>2026-04-20T17:18:56.392Z</time></trkpt><trkpt lat="45.3767715" lon="9.2245801"><ele>97.99999999999999</ele><time>2026-04-20T17:19:00.386Z</time></trkpt><trkpt lat="45.3767645" lon="9.2244897"><ele>98.0</ele><time>2026-04-20T17:19:04.386Z</time></trkpt><trkpt lat="45.3767675" lon="9.2243693"><ele>98.0</ele><time>2026-04-20T17:19:08.385Z</time></trkpt><trkpt lat="45.3767684" lon="9.2242782"><ele>98.0</ele><time>2026-04-20T17:19:10.392Z</time></trkpt><trkpt lat="45.3767617" lon="9.2241736"><ele>97.99999999999999</ele><time>2026-04-20T17:19:12.381Z</time></trkpt><trkpt lat="45.3767614" lon="9.2240534"><ele>98.0</ele><time>2026-04-20T17:19:14.389Z</time></trkpt><trkpt lat="45.3767529" lon="9.2239398"><ele>98.16666666666666</ele><time>2026-04-20T17:19:16.392Z</time></trkpt><trkpt lat="45.3767316" lon="9.2238317"><ele>98.33333333333333</ele><time>2026-04-20T17:19:18.392Z</time></trkpt><trkpt lat="45.3767179" lon="9.2237197"><ele>98.5</ele><time>2026-04-20T17:19:20.393Z</time></trkpt><trkpt lat="45.3767156" lon="9.2236024"><ele>98.66666666666666</ele><time>2026-04-20T17:19:22.392Z</time></trkpt><trkpt lat="45.3767132" lon="9.2234742"><ele>98.83333333333333</ele><time>2026-04-20T17:19:24.39Z</time></trkpt><trkpt lat="45.3766966" lon="9.2233662"><ele>99.0</ele><time>2026-04-20T17:19:26.384Z</time></trkpt><trkpt lat="45.3766874" lon="9.2232438"><ele>99.16666666666667</ele><time>2026-04-20T17:19:28.385Z</time></trkpt><trkpt lat="45.3766722" lon="9.2231211"><ele>99.33333333333334</ele><time>2026-04-20T17:19:30.39Z</time></trkpt><trkpt lat="45.3766578" lon="9.223022"><ele>99.5</ele><time>2026-04-20T17:19:32.391Z</time></trkpt><trkpt lat="45.3766508" lon="9.2229182"><ele>99.66666666666667</ele><time>2026-04-20T17:19:34.393Z</time></trkpt><trkpt lat="45.3766434" lon="9.2228088"><ele>99.83333333333334</ele><time>2026-04-20T17:19:36.393Z</time></trkpt><trkpt lat="45.3766446" lon="9.2226933"><ele>100.0</ele><time>2026-04-20T17:19:38.388Z</time></trkpt><trkpt lat="45.3766386" lon="9.2225665"><ele>100.00000000000001</ele><time>2026-04-20T17:19:40.387Z</time></trkpt><trkpt lat="45.376638" lon="9.2224529"><ele>100.0</ele><time>2026-04-20T17:19:42.394Z</time></trkpt><trkpt lat="45.3766377" lon="9.2223468"><ele>100.0</ele><time>2026-04-20T17:19:44.392Z</time></trkpt><trkpt lat="45.37663" lon="9.2222434"><ele>100.0</ele><time>2026-04-20T17:19:46.39Z</time></trkpt><trkpt lat="45.376633" lon="9.2221221"><ele>100.00000000000001</ele><time>2026-04-20T17:19:48.394Z</time></trkpt><trkpt lat="45.3766281" lon="9.222005"><ele>100.0</ele><time>2026-04-20T17:19:50.388Z</time></trkpt><trkpt lat="45.3766204" lon="9.2218943"><ele>100.00000000000001</ele><time>2026-04-20T17:19:52.387Z</time></trkpt><trkpt lat="45.3766119" lon="9.2217897"><ele>100.0</ele><time>2026-04-20T17:19:54.387Z</time></trkpt><trkpt lat="45.3766003" lon="9.2216856"><ele>100.0</ele><time>2026-04-20T17:19:56.391Z</time></trkpt><trkpt lat="45.3765956" lon="9.2215586"><ele>100.0</ele><time>2026-04-20T17:19:58.389Z</time></trkpt><trkpt lat="45.3765907" lon="9.2214472"><ele>100.00000000000001</ele><time>2026-04-20T17:20:00.392Z</time></trkpt><trkpt lat="45.3765935" lon="9.2213239"><ele>100.0</ele><time>2026-04-20T17:20:02.395Z</time></trkpt><trkpt lat="45.3765847" lon="9.2212173"><ele>100.00000000000001</ele><time>2026-04-20T17:20:04.386Z</time></trkpt><trkpt lat="45.376577" lon="9.2211122"><ele>100.0</ele><time>2026-04-20T17:20:06.388Z</time></trkpt><trkpt lat="45.3765641" lon="9.2210097"><ele>100.0</ele><time>2026-04-20T17:20:08.393Z</time></trkpt><trkpt lat="45.3765604" lon="9.220915"><ele>100.0</ele><time>2026-04-20T17:20:10.39Z</time></trkpt><trkpt lat="45.3765482" lon="9.2208075"><ele>100.0</ele><time>2026-04-20T17:20:12.389Z</time></trkpt><trkpt lat="45.3765378" lon="9.2207001"><ele>100.00000000000001</ele><time>2026-04-20T17:20:14.383Z</time></trkpt><trkpt lat="45.376535" lon="9.2205964"><ele>100.0</ele><time>2026-04-20T17:20:16.383Z</time></trkpt><trkpt lat="45.3765224" lon="9.2204997"><ele>99.85714285714286</ele><time>2026-04-20T17:20:18.389Z</time></trkpt><trkpt lat="45.3765051" lon="9.2204071"><ele>99.71428571428572</ele><time>2026-04-20T17:20:20.392Z</time></trkpt><trkpt lat="45.3764943" lon="9.2203081"><ele>99.57142857142858</ele><time>2026-04-20T17:20:22.385Z</time></trkpt><trkpt lat="45.3764562" lon="9.2202029"><ele>99.42857142857143</ele><time>2026-04-20T17:20:25.397Z</time></trkpt><trkpt lat="45.3763829" lon="9.2201716"><ele>99.28571428571428</ele><time>2026-04-20T17:20:27.381Z</time></trkpt><trkpt lat="45.3763108" lon="9.2201915"><ele>99.14285714285715</ele><time>2026-04-20T17:20:29.383Z</time></trkpt><trkpt lat="45.3762366" lon="9.2202274"><ele>99.0</ele><time>2026-04-20T17:20:31.398Z</time></trkpt><trkpt lat="45.3761602" lon="9.2202442"><ele>98.66666666666667</ele><time>2026-04-20T17:20:33.386Z</time></trkpt><trkpt lat="45.3760766" lon="9.2202602"><ele>98.33333333333334</ele><time>2026-04-20T17:20:36.394Z</time></trkpt><trkpt lat="45.3760087" lon="9.2202776"><ele>98.0</ele><time>2026-04-20T17:20:39.396Z</time></trkpt><trkpt lat="45.3759205" lon="9.220304"><ele>97.66666666666667</ele><time>2026-04-20T17:20:42.383Z</time></trkpt><trkpt lat="45.3758313" lon="9.2203472"><ele>97.33333333333334</ele><time>2026-04-20T17:20:45.39Z</time></trkpt><trkpt lat="45.3757649" lon="9.2203721"><ele>97.0</ele><time>2026-04-20T17:20:48.393Z</time></trkpt><trkpt lat="45.3757005" lon="9.2203801"><ele>97.0</ele><time>2026-04-20T17:20:51.39Z</time></trkpt><trkpt lat="45.3756389" lon="9.2203996"><ele>97.0</ele><time>2026-04-20T17:20:54.392Z</time></trkpt><trkpt lat="45.3755569" lon="9.2204154"><ele>97.0</ele><time>2026-04-20T17:20:58.386Z</time></trkpt><trkpt lat="45.375478" lon="9.2204069"><ele>97.0</ele><time>2026-04-20T17:21:01.394Z</time></trkpt><trkpt lat="45.3754133" lon="9.2204314"><ele>97.0</ele><time>2026-04-20T17:21:03.384Z</time></trkpt><trkpt lat="45.3753492" lon="9.2204549"><ele>97.0</ele><time>2026-04-20T17:21:05.387Z</time></trkpt><trkpt lat="45.3752731" lon="9.2204667"><ele>97.0</ele><time>2026-04-20T17:21:07.394Z</time></trkpt><trkpt lat="45.3751898" lon="9.2204808"><ele>97.33333333333334</ele><time>2026-04-20T17:21:09.388Z</time></trkpt><trkpt lat="45.3751105" lon="9.220499"><ele>97.66666666666667</ele><time>2026-04-20T17:21:11.393Z</time></trkpt><trkpt lat="45.3750305" lon="9.2205171"><ele>98.0</ele><time>2026-04-20T17:21:13.39Z</time></trkpt><trkpt lat="45.374957" lon="9.2205313"><ele>98.33333333333334</ele><time>2026-04-20T17:21:15.39Z</time></trkpt><trkpt lat="45.3748732" lon="9.2205576"><ele>98.66666666666667</ele><time>2026-04-20T17:21:17.389Z</time></trkpt><trkpt lat="45.3747901" lon="9.2205906"><ele>99.0</ele><time>2026-04-20T17:21:19.389Z</time></trkpt><trkpt lat="45.374708" lon="9.2206282"><ele>98.83333333333333</ele><time>2026-04-20T17:21:21.386Z</time></trkpt><trkpt lat="45.3746284" lon="9.2206694"><ele>98.66666666666666</ele><time>2026-04-20T17:21:23.392Z</time></trkpt><trkpt lat="45.3745496" lon="9.2206988"><ele>98.5</ele><time>2026-04-20T17:21:25.36Z</time></trkpt><trkpt lat="45.3744719" lon="9.2206922"><ele>98.33333333333333</ele><time>2026-04-20T17:21:28.388Z</time></trkpt><trkpt lat="45.3745431" lon="9.2206853"><ele>98.16666666666666</ele><time>2026-04-20T17:21:41.388Z</time></trkpt><trkpt lat="45.3746103" lon="9.2206762"><ele>98.0</ele><time>2026-04-20T17:21:44.388Z</time></trkpt><trkpt lat="45.3746853" lon="9.2206476"><ele>98.16666666666666</ele><time>2026-04-20T17:21:47.396Z</time></trkpt><trkpt lat="45.3747705" lon="9.2205963"><ele>98.33333333333333</ele><time>2026-04-20T17:21:50.393Z</time></trkpt><trkpt lat="45.3748368" lon="9.2205775"><ele>98.5</ele><time>2026-04-20T17:21:52.391Z</time></trkpt><trkpt lat="45.374905" lon="9.2205572"><ele>98.66666666666666</ele><time>2026-04-20T17:21:54.39Z</time></trkpt><trkpt lat="45.3749962" lon="9.2205283"><ele>98.83333333333333</ele><time>2026-04-20T17:21:57.388Z</time></trkpt><trkpt lat="45.3750642" lon="9.2205098"><ele>99.0</ele><time>2026-04-20T17:21:59.385Z</time></trkpt><trkpt lat="45.3751333" lon="9.2204933"><ele>99.0</ele><time>2026-04-20T17:22:01.39Z</time></trkpt><trkpt lat="45.3752024" lon="9.2204836"><ele>99.0</ele><time>2026-04-20T17:22:03.392Z</time></trkpt><trkpt lat="45.375269" lon="9.2204708"><ele>99.0</ele><time>2026-04-20T17:22:05.385Z</time></trkpt><trkpt lat="45.375335" lon="9.2204496"><ele>99.0</ele><time>2026-04-20T17:22:07.394Z</time></trkpt><trkpt lat="45.3753981" lon="9.2204415"><ele>99.0</ele><time>2026-04-20T17:22:09.392Z</time></trkpt><trkpt lat="45.3754871" lon="9.2204205"><ele>99.0</ele><time>2026-04-20T17:22:12.391Z</time></trkpt><trkpt lat="45.3755749" lon="9.2204209"><ele>99.0</ele><time>2026-04-20T17:22:15.39Z</time></trkpt><trkpt lat="45.3756433" lon="9.2204147"><ele>98.71428571428572</ele><time>2026-04-20T17:22:19.395Z</time></trkpt><trkpt lat="45.3757111" lon="9.2203569"><ele>98.42857142857142</ele><time>2026-04-20T17:23:10.388Z</time></trkpt><trkpt lat="45.3757845" lon="9.2203253"><ele>98.14285714285714</ele><time>2026-04-20T17:23:13.394Z</time></trkpt><trkpt lat="45.3758514" lon="9.2203045"><ele>97.85714285714286</ele><time>2026-04-20T17:23:16.387Z</time></trkpt><trkpt lat="45.3759211" lon="9.2202824"><ele>97.57142857142858</ele><time>2026-04-20T17:23:20.392Z</time></trkpt><trkpt lat="45.3759901" lon="9.2202785"><ele>97.28571428571428</ele><time>2026-04-20T17:23:23.394Z</time></trkpt><trkpt lat="45.3760624" lon="9.2202667"><ele>97.0</ele><time>2026-04-20T17:23:26.391Z</time></trkpt><trkpt lat="45.3761332" lon="9.2202452"><ele>97.00000000000001</ele><time>2026-04-20T17:23:30.39Z</time></trkpt><trkpt lat="45.3761796" lon="9.2201836"><ele>97.0</ele><time>2026-04-20T17:24:11.392Z</time></trkpt><trkpt lat="45.3761475" lon="9.2200867"><ele>97.0</ele><time>2026-04-20T17:24:14.389Z</time></trkpt><trkpt lat="45.376132" lon="9.2199583"><ele>97.0</ele><time>2026-04-20T17:24:17.404Z</time></trkpt><trkpt lat="45.3761274" lon="9.219859"><ele>97.00000000000001</ele><time>2026-04-20T17:24:19.392Z</time></trkpt><trkpt lat="45.376114" lon="9.2197367"><ele>97.0</ele><time>2026-04-20T17:24:22.39Z</time></trkpt><trkpt lat="45.376112" lon="9.2196419"><ele>97.0</ele><time>2026-04-20T17:24:25.392Z</time></trkpt><trkpt lat="45.3761019" lon="9.2195346"><ele>97.0</ele><time>2026-04-20T17:24:28.396Z</time></trkpt><trkpt lat="45.3760155" lon="9.219412"><ele>97.0</ele><time>2026-04-20T17:24:33.392Z</time></trkpt><trkpt lat="45.3759153" lon="9.2193753"><ele>97.0</ele><time>2026-04-20T17:24:35.382Z</time></trkpt><trkpt lat="45.375834" lon="9.2193466"><ele>97.0</ele><time>2026-04-20T17:24:37.396Z</time></trkpt><trkpt lat="45.3757585" lon="9.2193149"><ele>97.00000000000001</ele><time>2026-04-20T17:24:39.396Z</time></trkpt><trkpt lat="45.3756756" lon="9.2192561"><ele>97.0</ele><time>2026-04-20T17:24:41.39Z</time></trkpt><trkpt lat="45.3756091" lon="9.2191866"><ele>97.0</ele><time>2026-04-20T17:24:43.39Z</time></trkpt><trkpt lat="45.3755602" lon="9.2190993"><ele>97.0</ele><time>2026-04-20T17:24:45.394Z</time></trkpt><trkpt lat="45.375521" lon="9.2190012"><ele>97.00000000000001</ele><time>2026-04-20T17:24:47.392Z</time></trkpt><trkpt lat="45.3754917" lon="9.218896"><ele>97.0</ele><time>2026-04-20T17:24:49.391Z</time></trkpt><trkpt lat="45.3754231" lon="9.2188125"><ele>97.50000000000001</ele><time>2026-04-20T17:24:52.39Z</time></trkpt><trkpt lat="45.3753555" lon="9.2188085"><ele>98.0</ele><time>2026-04-20T17:24:54.395Z</time></trkpt><trkpt lat="45.3752767" lon="9.218827"><ele>98.5</ele><time>2026-04-20T17:24:56.402Z</time></trkpt><trkpt lat="45.375211" lon="9.2188475"><ele>99.0</ele><time>2026-04-20T17:24:58.389Z</time></trkpt><trkpt lat="45.375126" lon="9.2188582"><ele>99.50000000000001</ele><time>2026-04-20T17:25:00.385Z</time></trkpt><trkpt lat="45.3750431" lon="9.2188772"><ele>100.0</ele><time>2026-04-20T17:25:02.395Z</time></trkpt><trkpt lat="45.3749672" lon="9.2188935"><ele>100.00000000000001</ele><time>2026-04-20T17:25:04.388Z</time></trkpt><trkpt lat="45.3748852" lon="9.2189048"><ele>100.0</ele><time>2026-04-20T17:25:06.383Z</time></trkpt><trkpt lat="45.3748012" lon="9.2189057"><ele>100.0</ele><time>2026-04-20T17:25:08.39Z</time></trkpt><trkpt lat="45.3747159" lon="9.2189232"><ele>100.0</ele><time>2026-04-20T17:25:10.383Z</time></trkpt><trkpt lat="45.3746316" lon="9.218944"><ele>100.00000000000001</ele><time>2026-04-20T17:25:12.395Z</time></trkpt><trkpt lat="45.374557" lon="9.2189512"><ele>100.0</ele><time>2026-04-20T17:25:14.391Z</time></trkpt><trkpt lat="45.3744815" lon="9.2189651"><ele>99.50000000000001</ele><time>2026-04-20T17:25:16.394Z</time></trkpt><trkpt lat="45.3744036" lon="9.2189693"><ele>99.0</ele><time>2026-04-20T17:25:18.391Z</time></trkpt><trkpt lat="45.3743307" lon="9.2189867"><ele>98.5</ele><time>2026-04-20T17:25:20.398Z</time></trkpt><trkpt lat="45.3742529" lon="9.2189994"><ele>98.0</ele><time>2026-04-20T17:25:22.389Z</time></trkpt><trkpt lat="45.3741774" lon="9.2190045"><ele>97.50000000000001</ele><time>2026-04-20T17:25:24.393Z</time></trkpt><trkpt lat="45.3740998" lon="9.2190102"><ele>97.0</ele><time>2026-04-20T17:25:26.385Z</time></trkpt><trkpt lat="45.3740288" lon="9.2190159"><ele>97.00000000000001</ele><time>2026-04-20T17:25:28.389Z</time></trkpt><trkpt lat="45.3740318" lon="9.2189003"><ele>97.0</ele><time>2026-04-20T17:25:32.383Z</time></trkpt><trkpt lat="45.3740572" lon="9.2188086"><ele>97.0</ele><time>2026-04-20T17:25:34.385Z</time></trkpt><trkpt lat="45.3740352" lon="9.2186913"><ele>97.0</ele><time>2026-04-20T17:25:36.387Z</time></trkpt><trkpt lat="45.3740411" lon="9.2185889"><ele>97.00000000000001</ele><time>2026-04-20T17:25:38.387Z</time></trkpt><trkpt lat="45.3740991" lon="9.218424"><ele>97.0</ele><time>2026-04-20T17:25:41.387Z</time></trkpt><trkpt lat="45.3741526" lon="9.218337"><ele>97.00000000000001</ele><time>2026-04-20T17:25:43.396Z</time></trkpt><trkpt lat="45.3742059" lon="9.2182553"><ele>97.0</ele><time>2026-04-20T17:25:45.389Z</time></trkpt><trkpt lat="45.3742633" lon="9.2181676"><ele>97.0</ele><time>2026-04-20T17:25:47.388Z</time></trkpt><trkpt lat="45.3743113" lon="9.2180611"><ele>97.0</ele><time>2026-04-20T17:25:49.394Z</time></trkpt><trkpt lat="45.3743378" lon="9.2179763"><ele>97.00000000000001</ele><time>2026-04-20T17:25:51.393Z</time></trkpt><trkpt lat="45.3744056" lon="9.2179355"><ele>97.0</ele><time>2026-04-20T17:25:53.392Z</time></trkpt><trkpt lat="45.3744823" lon="9.2179471"><ele>97.50000000000001</ele><time>2026-04-20T17:25:55.385Z</time></trkpt><trkpt lat="45.3745566" lon="9.2179444"><ele>98.0</ele><time>2026-04-20T17:25:57.385Z</time></trkpt><trkpt lat="45.3746257" lon="9.2179326"><ele>98.5</ele><time>2026-04-20T17:25:59.389Z</time></trkpt><trkpt lat="45.3746875" lon="9.2179144"><ele>99.0</ele><time>2026-04-20T17:26:01.393Z</time></trkpt><trkpt lat="45.3747603" lon="9.21787"><ele>99.50000000000001</ele><time>2026-04-20T17:26:03.39Z</time></trkpt><trkpt lat="45.3748426" lon="9.2178227"><ele>100.0</ele><time>2026-04-20T17:26:05.389Z</time></trkpt><trkpt lat="45.3749218" lon="9.2178141"><ele>100.50000000000001</ele><time>2026-04-20T17:26:07.392Z</time></trkpt><trkpt lat="45.3750069" lon="9.217801"><ele>101.0</ele><time>2026-04-20T17:26:09.388Z</time></trkpt><trkpt lat="45.3750829" lon="9.2177933"><ele>101.5</ele><time>2026-04-20T17:26:11.391Z</time></trkpt><trkpt lat="45.3751646" lon="9.2177628"><ele>102.0</ele><time>2026-04-20T17:26:13.387Z</time></trkpt><trkpt lat="45.375245" lon="9.2177388"><ele>102.50000000000001</ele><time>2026-04-20T17:26:15.389Z</time></trkpt><trkpt lat="45.3753264" lon="9.2177044"><ele>103.0</ele><time>2026-04-20T17:26:17.389Z</time></trkpt><trkpt lat="45.3754223" lon="9.2176643"><ele>103.00000000000001</ele><time>2026-04-20T17:26:19.389Z</time></trkpt><trkpt lat="45.3754985" lon="9.217657"><ele>103.0</ele><time>2026-04-20T17:26:21.391Z</time></trkpt><trkpt lat="45.3755863" lon="9.2176104"><ele>103.0</ele><time>2026-04-20T17:26:23.388Z</time></trkpt><trkpt lat="45.3756829" lon="9.2175894"><ele>103.0</ele><time>2026-04-20T17:26:25.389Z</time></trkpt><trkpt lat="45.3757752" lon="9.2175746"><ele>103.00000000000001</ele><time>2026-04-20T17:26:27.399Z</time></trkpt><trkpt lat="45.3758304" lon="9.217514"><ele>103.0</ele><time>2026-04-20T17:26:29.39Z</time></trkpt><trkpt lat="45.3758511" lon="9.217413"><ele>103.00000000000001</ele><time>2026-04-20T17:26:31.396Z</time></trkpt><trkpt lat="45.3758653" lon="9.2173113"><ele>103.0</ele><time>2026-04-20T17:26:33.391Z</time></trkpt><trkpt lat="45.3758625" lon="9.2171987"><ele>103.0</ele><time>2026-04-20T17:26:35.391Z</time></trkpt><trkpt lat="45.375859" lon="9.2170833"><ele>103.0</ele><time>2026-04-20T17:26:37.398Z</time></trkpt><trkpt lat="45.3758432" lon="9.2169653"><ele>103.00000000000001</ele><time>2026-04-20T17:26:39.407Z</time></trkpt><trkpt lat="45.3758158" lon="9.2168546"><ele>103.0</ele><time>2026-04-20T17:26:41.395Z</time></trkpt><trkpt lat="45.3757901" lon="9.2167579"><ele>103.00000000000001</ele><time>2026-04-20T17:26:43.391Z</time></trkpt><trkpt lat="45.3757721" lon="9.2166665"><ele>103.0</ele><time>2026-04-20T17:26:45.387Z</time></trkpt><trkpt lat="45.3757443" lon="9.2165801"><ele>103.0</ele><time>2026-04-20T17:26:47.386Z</time></trkpt><trkpt lat="45.3757143" lon="9.2163782"><ele>103.0</ele><time>2026-04-20T17:26:51.398Z</time></trkpt><trkpt lat="45.3757118" lon="9.2162678"><ele>103.00000000000001</ele><time>2026-04-20T17:26:53.386Z</time></trkpt><trkpt lat="45.3756889" lon="9.2161511"><ele>103.0</ele><time>2026-04-20T17:26:55.389Z</time></trkpt><trkpt lat="45.3756568" lon="9.2159503"><ele>102.66666666666667</ele><time>2026-04-20T17:26:58.39Z</time></trkpt><trkpt lat="45.3756489" lon="9.2158205"><ele>102.33333333333334</ele><time>2026-04-20T17:27:00.387Z</time></trkpt><trkpt lat="45.3756179" lon="9.2157093"><ele>102.0</ele><time>2026-04-20T17:27:02.394Z</time></trkpt><trkpt lat="45.3755945" lon="9.2155981"><ele>101.66666666666666</ele><time>2026-04-20T17:27:04.391Z</time></trkpt><trkpt lat="45.3755731" lon="9.21546"><ele>101.33333333333333</ele><time>2026-04-20T17:27:06.389Z</time></trkpt><trkpt lat="45.3755475" lon="9.2153436"><ele>101.0</ele><time>2026-04-20T17:27:08.397Z</time></trkpt><trkpt lat="45.3755298" lon="9.2152176"><ele>101.0</ele><time>2026-04-20T17:27:10.391Z</time></trkpt><trkpt lat="45.375513" lon="9.2150751"><ele>101.0</ele><time>2026-04-20T17:27:12.389Z</time></trkpt><trkpt lat="45.3754821" lon="9.2149285"><ele>101.0</ele><time>2026-04-20T17:27:14.388Z</time></trkpt><trkpt lat="45.3754586" lon="9.2148015"><ele>101.0</ele><time>2026-04-20T17:27:16.392Z</time></trkpt><trkpt lat="45.375432" lon="9.214668"><ele>101.0</ele><time>2026-04-20T17:27:18.394Z</time></trkpt><trkpt lat="45.3754246" lon="9.2145405"><ele>101.0</ele><time>2026-04-20T17:27:20.392Z</time></trkpt><trkpt lat="45.37541" lon="9.2144054"><ele>101.0</ele><time>2026-04-20T17:27:22.393Z</time></trkpt><trkpt lat="45.3753989" lon="9.214261"><ele>101.0</ele><time>2026-04-20T17:27:24.401Z</time></trkpt><trkpt lat="45.3753701" lon="9.2141315"><ele>101.0</ele><time>2026-04-20T17:27:26.395Z</time></trkpt><trkpt lat="45.3753346" lon="9.2139881"><ele>101.0</ele><time>2026-04-20T17:27:28.392Z</time></trkpt><trkpt lat="45.3753098" lon="9.2138475"><ele>101.0</ele><time>2026-04-20T17:27:30.395Z</time></trkpt><trkpt lat="45.3752752" lon="9.2137101"><ele>101.0</ele><time>2026-04-20T17:27:32.389Z</time></trkpt><trkpt lat="45.3752445" lon="9.2135892"><ele>101.0</ele><time>2026-04-20T17:27:34.396Z</time></trkpt><trkpt lat="45.3752182" lon="9.2134539"><ele>101.0</ele><time>2026-04-20T17:27:36.393Z</time></trkpt><trkpt lat="45.3751922" lon="9.2133133"><ele>101.0</ele><time>2026-04-20T17:27:38.392Z</time></trkpt><trkpt lat="45.3751594" lon="9.2131772"><ele>100.66666666666666</ele><time>2026-04-20T17:27:40.387Z</time></trkpt><trkpt lat="45.3751389" lon="9.2130529"><ele>100.33333333333333</ele><time>2026-04-20T17:27:42.391Z</time></trkpt><trkpt lat="45.3751185" lon="9.2129274"><ele>100.0</ele><time>2026-04-20T17:27:44.393Z</time></trkpt><trkpt lat="45.3750843" lon="9.2128172"><ele>99.66666666666666</ele><time>2026-04-20T17:27:46.395Z</time></trkpt><trkpt lat="45.3750671" lon="9.2127038"><ele>99.33333333333333</ele><time>2026-04-20T17:27:48.388Z</time></trkpt><trkpt lat="45.3750388" lon="9.2125946"><ele>99.0</ele><time>2026-04-20T17:27:50.393Z</time></trkpt><trkpt lat="45.3749922" lon="9.2124926"><ele>99.0</ele><time>2026-04-20T17:27:52.389Z</time></trkpt><trkpt lat="45.3749804" lon="9.2123905"><ele>99.0</ele><time>2026-04-20T17:27:54.391Z</time></trkpt><trkpt lat="45.374977" lon="9.2122863"><ele>99.0</ele><time>2026-04-20T17:27:56.396Z</time></trkpt><trkpt lat="45.3749012" lon="9.2122934"><ele>99.0</ele><time>2026-04-20T17:27:59.386Z</time></trkpt><trkpt lat="45.3748436" lon="9.2122474"><ele>99.0</ele><time>2026-04-20T17:28:01.384Z</time></trkpt><trkpt lat="45.3747807" lon="9.2122242"><ele>99.0</ele><time>2026-04-20T17:28:03.39Z</time></trkpt><trkpt lat="45.374715" lon="9.2122153"><ele>99.0</ele><time>2026-04-20T17:28:05.388Z</time></trkpt><trkpt lat="45.3746425" lon="9.2122069"><ele>99.57142857142857</ele><time>2026-04-20T17:28:07.387Z</time></trkpt><trkpt lat="45.3745764" lon="9.2122221"><ele>100.14285714285714</ele><time>2026-04-20T17:28:09.389Z</time></trkpt><trkpt lat="45.3745124" lon="9.2122427"><ele>100.71428571428571</ele><time>2026-04-20T17:28:11.385Z</time></trkpt><trkpt lat="45.3744497" lon="9.2122509"><ele>101.28571428571428</ele><time>2026-04-20T17:28:13.388Z</time></trkpt><trkpt lat="45.3743745" lon="9.2122747"><ele>101.85714285714286</ele><time>2026-04-20T17:28:16.389Z</time></trkpt><trkpt lat="45.374431" lon="9.212221"><ele>102.42857142857142</ele><time>2026-04-20T17:28:19.387Z</time></trkpt><trkpt lat="45.3744708" lon="9.2121352"><ele>103.0</ele><time>2026-04-20T17:28:22.388Z</time></trkpt><trkpt lat="45.3744886" lon="9.2120384"><ele>103.00000000000001</ele><time>2026-04-20T17:28:25.388Z</time></trkpt><trkpt lat="45.3745084" lon="9.2119396"><ele>103.0</ele><time>2026-04-20T17:28:29.39Z</time></trkpt><trkpt lat="45.3745189" lon="9.2118247"><ele>103.0</ele><time>2026-04-20T17:28:31.397Z</time></trkpt><trkpt lat="45.3745194" lon="9.2117193"><ele>103.0</ele><time>2026-04-20T17:28:33.393Z</time></trkpt><trkpt lat="45.3744195" lon="9.2116916"><ele>103.00000000000001</ele><time>2026-04-20T17:28:36.393Z</time></trkpt><trkpt lat="45.3743378" lon="9.2116839"><ele>103.0</ele><time>2026-04-20T17:28:38.392Z</time></trkpt><trkpt lat="45.3742441" lon="9.2116681"><ele>103.00000000000001</ele><time>2026-04-20T17:28:40.395Z</time></trkpt><trkpt lat="45.3741572" lon="9.211634"><ele>103.0</ele><time>2026-04-20T17:28:42.39Z</time></trkpt><trkpt lat="45.374085" lon="9.211602"><ele>103.0</ele><time>2026-04-20T17:28:44.392Z</time></trkpt><trkpt lat="45.3739975" lon="9.2115729"><ele>103.0</ele><time>2026-04-20T17:28:46.383Z</time></trkpt><trkpt lat="45.373913" lon="9.2115363"><ele>103.00000000000001</ele><time>2026-04-20T17:28:48.397Z</time></trkpt><trkpt lat="45.3738117" lon="9.2115167"><ele>103.0</ele><time>2026-04-20T17:28:50.392Z</time></trkpt><trkpt lat="45.3737291" lon="9.2114747"><ele>103.60000000000001</ele><time>2026-04-20T17:28:52.39Z</time></trkpt><trkpt lat="45.3736362" lon="9.2114514"><ele>104.2</ele><time>2026-04-20T17:28:54.387Z</time></trkpt><trkpt lat="45.3735495" lon="9.2114311"><ele>104.8</ele><time>2026-04-20T17:28:56.395Z</time></trkpt><trkpt lat="45.3734659" lon="9.2113891"><ele>105.4</ele><time>2026-04-20T17:28:58.38Z</time></trkpt><trkpt lat="45.3733766" lon="9.2113646"><ele>106.0</ele><time>2026-04-20T17:29:00.389Z</time></trkpt><trkpt lat="45.3732857" lon="9.2113465"><ele>106.00000000000001</ele><time>2026-04-20T17:29:02.386Z</time></trkpt><trkpt lat="45.3732122" lon="9.2113116"><ele>106.0</ele><time>2026-04-20T17:29:04.384Z</time></trkpt><trkpt lat="45.3731333" lon="9.2113151"><ele>106.0</ele><time>2026-04-20T17:29:06.388Z</time></trkpt><trkpt lat="45.3730624" lon="9.2112981"><ele>106.0</ele><time>2026-04-20T17:29:08.39Z</time></trkpt><trkpt lat="45.3730053" lon="9.2112412"><ele>106.00000000000001</ele><time>2026-04-20T17:29:10.394Z</time></trkpt><trkpt lat="45.3729173" lon="9.2112191"><ele>106.0</ele><time>2026-04-20T17:29:13.395Z</time></trkpt><trkpt lat="45.3728324" lon="9.2111999"><ele>105.00000000000001</ele><time>2026-04-20T17:29:16.387Z</time></trkpt><trkpt lat="45.3727853" lon="9.2111289"><ele>104.0</ele><time>2026-04-20T17:29:19.386Z</time></trkpt><trkpt lat="45.3727504" lon="9.2110529"><ele>103.0</ele><time>2026-04-20T17:29:22.392Z</time></trkpt><trkpt lat="45.3727261" lon="9.2109687"><ele>102.0</ele><time>2026-04-20T17:29:25.392Z</time></trkpt><trkpt lat="45.3726946" lon="9.2108631"><ele>101.00000000000001</ele><time>2026-04-20T17:30:09.387Z</time></trkpt><trkpt lat="45.3726867" lon="9.2107424"><ele>100.0</ele><time>2026-04-20T17:30:11.393Z</time></trkpt><trkpt lat="45.3725964" lon="9.2107705"><ele>100.0</ele><time>2026-04-20T17:30:14.392Z</time></trkpt><trkpt lat="45.3725228" lon="9.2108528"><ele>100.0</ele><time>2026-04-20T17:30:16.389Z</time></trkpt><trkpt lat="45.3724513" lon="9.2109129"><ele>100.0</ele><time>2026-04-20T17:30:18.395Z</time></trkpt><trkpt lat="45.3723689" lon="9.2109503"><ele>100.0</ele><time>2026-04-20T17:30:20.394Z</time></trkpt><trkpt lat="45.3722782" lon="9.2109649"><ele>100.0</ele><time>2026-04-20T17:30:22.39Z</time></trkpt><trkpt lat="45.372177" lon="9.2109368"><ele>99.8</ele><time>2026-04-20T17:30:24.387Z</time></trkpt><trkpt lat="45.3720711" lon="9.2109084"><ele>99.6</ele><time>2026-04-20T17:30:26.384Z</time></trkpt><trkpt lat="45.3719713" lon="9.2108714"><ele>99.4</ele><time>2026-04-20T17:30:28.384Z</time></trkpt><trkpt lat="45.3718726" lon="9.2108432"><ele>99.2</ele><time>2026-04-20T17:30:30.39Z</time></trkpt><trkpt lat="45.3717696" lon="9.2108003"><ele>99.0</ele><time>2026-04-20T17:30:32.388Z</time></trkpt><trkpt lat="45.3716655" lon="9.2107632"><ele>99.0</ele><time>2026-04-20T17:30:34.383Z</time></trkpt><trkpt lat="45.3715658" lon="9.2107268"><ele>99.0</ele><time>2026-04-20T17:30:36.383Z</time></trkpt><trkpt lat="45.3714818" lon="9.2106897"><ele>99.0</ele><time>2026-04-20T17:30:38.389Z</time></trkpt><trkpt lat="45.3713834" lon="9.2106498"><ele>99.0</ele><time>2026-04-20T17:30:40.381Z</time></trkpt><trkpt lat="45.3712896" lon="9.2106203"><ele>99.0</ele><time>2026-04-20T17:30:42.387Z</time></trkpt><trkpt lat="45.3712009" lon="9.210579"><ele>99.0</ele><time>2026-04-20T17:30:44.388Z</time></trkpt><trkpt lat="45.371111" lon="9.2105448"><ele>99.0</ele><time>2026-04-20T17:30:46.393Z</time></trkpt><trkpt lat="45.3710192" lon="9.2105104"><ele>99.0</ele><time>2026-04-20T17:30:48.391Z</time></trkpt><trkpt lat="45.370923" lon="9.2104927"><ele>99.0</ele><time>2026-04-20T17:30:50.394Z</time></trkpt><trkpt lat="45.3708708" lon="9.2104413"><ele>99.0</ele><time>2026-04-20T17:30:52.39Z</time></trkpt><trkpt lat="45.3708323" lon="9.2103646"><ele>99.0</ele><time>2026-04-20T17:30:55.393Z</time></trkpt><trkpt lat="45.3707727" lon="9.2103945"><ele>99.0</ele><time>2026-04-20T17:30:57.394Z</time></trkpt><trkpt lat="45.3706949" lon="9.2104003"><ele>99.0</ele><time>2026-04-20T17:30:59.39Z</time></trkpt><trkpt lat="45.370623" lon="9.2103849"><ele>99.0</ele><time>2026-04-20T17:31:01.387Z</time></trkpt><trkpt lat="45.3705427" lon="9.2103718"><ele>99.0</ele><time>2026-04-20T17:31:03.39Z</time></trkpt><trkpt lat="45.370459" lon="9.2103541"><ele>99.0</ele><time>2026-04-20T17:31:05.386Z</time></trkpt><trkpt lat="45.3703921" lon="9.210316"><ele>99.0</ele><time>2026-04-20T17:31:07.385Z</time></trkpt><trkpt lat="45.3703171" lon="9.2102756"><ele>99.16666666666667</ele><time>2026-04-20T17:31:10.391Z</time></trkpt><trkpt lat="45.3702346" lon="9.2102434"><ele>99.33333333333334</ele><time>2026-04-20T17:31:13.385Z</time></trkpt><trkpt lat="45.3701622" lon="9.2102007"><ele>99.5</ele><time>2026-04-20T17:31:15.388Z</time></trkpt><trkpt lat="45.3700987" lon="9.2101204"><ele>99.66666666666667</ele><time>2026-04-20T17:31:17.395Z</time></trkpt><trkpt lat="45.3700308" lon="9.210022"><ele>99.83333333333334</ele><time>2026-04-20T17:31:19.39Z</time></trkpt><trkpt lat="45.3699826" lon="9.2099295"><ele>100.0</ele><time>2026-04-20T17:31:21.39Z</time></trkpt><trkpt lat="45.3699396" lon="9.2098599"><ele>100.00000000000001</ele><time>2026-04-20T17:31:23.387Z</time></trkpt><trkpt lat="45.3698563" lon="9.2098879"><ele>100.0</ele><time>2026-04-20T17:31:25.388Z</time></trkpt><trkpt lat="45.3697674" lon="9.2099313"><ele>100.0</ele><time>2026-04-20T17:31:27.389Z</time></trkpt><trkpt lat="45.3696755" lon="9.2099544"><ele>100.0</ele><time>2026-04-20T17:31:29.389Z</time></trkpt><trkpt lat="45.3695908" lon="9.2099564"><ele>100.00000000000001</ele><time>2026-04-20T17:31:31.39Z</time></trkpt><trkpt lat="45.3695081" lon="9.2099372"><ele>100.0</ele><time>2026-04-20T17:31:33.397Z</time></trkpt><trkpt lat="45.3694092" lon="9.2098997"><ele>100.0</ele><time>2026-04-20T17:31:35.385Z</time></trkpt><trkpt lat="45.3693192" lon="9.2098702"><ele>100.0</ele><time>2026-04-20T17:31:37.391Z</time></trkpt><trkpt lat="45.3692253" lon="9.2098359"><ele>100.0</ele><time>2026-04-20T17:31:39.39Z</time></trkpt><trkpt lat="45.3691277" lon="9.2098107"><ele>100.0</ele><time>2026-04-20T17:31:41.394Z</time></trkpt><trkpt lat="45.3690292" lon="9.209775"><ele>100.0</ele><time>2026-04-20T17:31:43.385Z</time></trkpt><trkpt lat="45.3689322" lon="9.2097409"><ele>100.2</ele><time>2026-04-20T17:31:45.384Z</time></trkpt><trkpt lat="45.3688438" lon="9.2097058"><ele>100.4</ele><time>2026-04-20T17:31:47.385Z</time></trkpt><trkpt lat="45.3687412" lon="9.2096753"><ele>100.6</ele><time>2026-04-20T17:31:49.393Z</time></trkpt><trkpt lat="45.3686426" lon="9.2096532"><ele>100.8</ele><time>2026-04-20T17:31:51.395Z</time></trkpt><trkpt lat="45.3685419" lon="9.209629"><ele>101.0</ele><time>2026-04-20T17:31:53.403Z</time></trkpt><trkpt lat="45.3684488" lon="9.2095921"><ele>100.99999999999999</ele><time>2026-04-20T17:31:55.392Z</time></trkpt><trkpt lat="45.3683621" lon="9.2095618"><ele>101.0</ele><time>2026-04-20T17:31:57.39Z</time></trkpt><trkpt lat="45.3682986" lon="9.2094814"><ele>101.0</ele><time>2026-04-20T17:31:59.39Z</time></trkpt><trkpt lat="45.3682239" lon="9.2094698"><ele>101.0</ele><time>2026-04-20T17:32:01.389Z</time></trkpt><trkpt lat="45.368138" lon="9.209488"><ele>100.99999999999999</ele><time>2026-04-20T17:32:03.387Z</time></trkpt><trkpt lat="45.368046" lon="9.2094833"><ele>101.0</ele><time>2026-04-20T17:32:05.385Z</time></trkpt><trkpt lat="45.367958" lon="9.2094957"><ele>100.6</ele><time>2026-04-20T17:32:07.382Z</time></trkpt><trkpt lat="45.367864" lon="9.2095"><ele>100.19999999999999</ele><time>2026-04-20T17:32:09.386Z</time></trkpt><trkpt lat="45.3677705" lon="9.2094831"><ele>99.80000000000001</ele><time>2026-04-20T17:32:11.384Z</time></trkpt><trkpt lat="45.3676894" lon="9.2094386"><ele>99.4</ele><time>2026-04-20T17:32:13.389Z</time></trkpt><trkpt lat="45.367605" lon="9.2093879"><ele>99.0</ele><time>2026-04-20T17:32:15.387Z</time></trkpt><trkpt lat="45.367536" lon="9.2093162"><ele>99.0</ele><time>2026-04-20T17:32:17.391Z</time></trkpt><trkpt lat="45.3674875" lon="9.2091953"><ele>99.0</ele><time>2026-04-20T17:32:19.387Z</time></trkpt><trkpt lat="45.3674615" lon="9.2090706"><ele>99.0</ele><time>2026-04-20T17:32:21.388Z</time></trkpt><trkpt lat="45.3674082" lon="9.2089846"><ele>99.0</ele><time>2026-04-20T17:32:23.387Z</time></trkpt><trkpt lat="45.36735" lon="9.208896"><ele>99.0</ele><time>2026-04-20T17:32:25.392Z</time></trkpt><trkpt lat="45.3672807" lon="9.2088178"><ele>99.0</ele><time>2026-04-20T17:32:27.391Z</time></trkpt><trkpt lat="45.3671978" lon="9.2088337"><ele>98.66666666666667</ele><time>2026-04-20T17:32:29.39Z</time></trkpt><trkpt lat="45.3671314" lon="9.208915"><ele>98.33333333333334</ele><time>2026-04-20T17:32:31.392Z</time></trkpt><trkpt lat="45.3670471" lon="9.2089581"><ele>98.0</ele><time>2026-04-20T17:32:33.389Z</time></trkpt><trkpt lat="45.3669512" lon="9.2089722"><ele>97.66666666666667</ele><time>2026-04-20T17:32:35.395Z</time></trkpt><trkpt lat="45.3668673" lon="9.2089651"><ele>97.33333333333334</ele><time>2026-04-20T17:32:37.392Z</time></trkpt><trkpt lat="45.3667787" lon="9.2089759"><ele>97.0</ele><time>2026-04-20T17:32:39.389Z</time></trkpt><trkpt lat="45.3666892" lon="9.2089588"><ele>97.00000000000001</ele><time>2026-04-20T17:32:41.386Z</time></trkpt><trkpt lat="45.3665944" lon="9.2089365"><ele>97.0</ele><time>2026-04-20T17:32:43.393Z</time></trkpt><trkpt lat="45.3665105" lon="9.2089082"><ele>97.0</ele><time>2026-04-20T17:32:45.385Z</time></trkpt><trkpt lat="45.366433" lon="9.2088768"><ele>97.0</ele><time>2026-04-20T17:32:47.399Z</time></trkpt><trkpt lat="45.3663493" lon="9.2088461"><ele>97.00000000000001</ele><time>2026-04-20T17:32:49.392Z</time></trkpt><trkpt lat="45.3662761" lon="9.2088377"><ele>97.0</ele><time>2026-04-20T17:32:51.386Z</time></trkpt><trkpt lat="45.3662109" lon="9.20881"><ele>97.14285714285714</ele><time>2026-04-20T17:32:53.388Z</time></trkpt><trkpt lat="45.3661504" lon="9.2087829"><ele>97.28571428571429</ele><time>2026-04-20T17:32:55.394Z</time></trkpt><trkpt lat="45.3660878" lon="9.2087574"><ele>97.42857142857143</ele><time>2026-04-20T17:32:57.395Z</time></trkpt><trkpt lat="45.3660243" lon="9.2087502"><ele>97.57142857142857</ele><time>2026-04-20T17:32:59.388Z</time></trkpt><trkpt lat="45.3659518" lon="9.2087494"><ele>97.71428571428572</ele><time>2026-04-20T17:33:01.39Z</time></trkpt><trkpt lat="45.3658647" lon="9.208751"><ele>97.85714285714286</ele><time>2026-04-20T17:33:03.394Z</time></trkpt><trkpt lat="45.365772" lon="9.208748"><ele>98.0</ele><time>2026-04-20T17:33:05.383Z</time></trkpt><trkpt lat="45.365684" lon="9.2087073"><ele>98.0</ele><time>2026-04-20T17:33:07.395Z</time></trkpt><trkpt lat="45.3656059" lon="9.2086775"><ele>98.0</ele><time>2026-04-20T17:33:09.391Z</time></trkpt><trkpt lat="45.3655247" lon="9.2086459"><ele>98.0</ele><time>2026-04-20T17:33:11.387Z</time></trkpt><trkpt lat="45.3654262" lon="9.2086593"><ele>98.0</ele><time>2026-04-20T17:33:13.39Z</time></trkpt><trkpt lat="45.3653339" lon="9.2087187"><ele>98.0</ele><time>2026-04-20T17:33:15.391Z</time></trkpt><trkpt lat="45.3652537" lon="9.2087975"><ele>98.2</ele><time>2026-04-20T17:33:17.39Z</time></trkpt><trkpt lat="45.3651926" lon="9.208914"><ele>98.4</ele><time>2026-04-20T17:33:19.394Z</time></trkpt><trkpt lat="45.3652195" lon="9.2090629"><ele>98.60000000000001</ele><time>2026-04-20T17:33:21.392Z</time></trkpt><trkpt lat="45.365247" lon="9.2091952"><ele>98.80000000000001</ele><time>2026-04-20T17:33:23.393Z</time></trkpt><trkpt lat="45.365249" lon="9.2093369"><ele>99.0</ele><time>2026-04-20T17:33:25.392Z</time></trkpt><trkpt lat="45.3652063" lon="9.2094551"><ele>99.0</ele><time>2026-04-20T17:33:27.386Z</time></trkpt><trkpt lat="45.3651355" lon="9.2095589"><ele>99.0</ele><time>2026-04-20T17:33:29.389Z</time></trkpt><trkpt lat="45.3650636" lon="9.2096063"><ele>99.0</ele><time>2026-04-20T17:33:31.394Z</time></trkpt><trkpt lat="45.3649847" lon="9.2096491"><ele>99.0</ele><time>2026-04-20T17:33:33.394Z</time></trkpt><trkpt lat="45.3649052" lon="9.2096949"><ele>99.0</ele><time>2026-04-20T17:33:35.389Z</time></trkpt><trkpt lat="45.3648244" lon="9.2097287"><ele>99.0</ele><time>2026-04-20T17:33:37.387Z</time></trkpt><trkpt lat="45.3647337" lon="9.2097519"><ele>98.4</ele><time>2026-04-20T17:33:39.389Z</time></trkpt><trkpt lat="45.3646517" lon="9.2097825"><ele>97.80000000000001</ele><time>2026-04-20T17:33:41.387Z</time></trkpt><trkpt lat="45.3645671" lon="9.2098194"><ele>97.19999999999999</ele><time>2026-04-20T17:33:43.384Z</time></trkpt><trkpt lat="45.3644758" lon="9.2098579"><ele>96.6</ele><time>2026-04-20T17:33:45.386Z</time></trkpt><trkpt lat="45.3643819" lon="9.2099055"><ele>96.0</ele><time>2026-04-20T17:33:47.392Z</time></trkpt><trkpt lat="45.3643038" lon="9.2099417"><ele>96.0</ele><time>2026-04-20T17:33:49.386Z</time></trkpt><trkpt lat="45.3642154" lon="9.2099804"><ele>96.0</ele><time>2026-04-20T17:33:51.393Z</time></trkpt><trkpt lat="45.3641305" lon="9.210016"><ele>96.0</ele><time>2026-04-20T17:33:53.39Z</time></trkpt><trkpt lat="45.3640464" lon="9.2100551"><ele>96.0</ele><time>2026-04-20T17:33:55.393Z</time></trkpt><trkpt lat="45.3639673" lon="9.2100904"><ele>96.0</ele><time>2026-04-20T17:33:57.393Z</time></trkpt><trkpt lat="45.3638777" lon="9.2101205"><ele>96.0</ele><time>2026-04-20T17:33:59.381Z</time></trkpt><trkpt lat="45.3637888" lon="9.2101671"><ele>96.0</ele><time>2026-04-20T17:34:01.389Z</time></trkpt><trkpt lat="45.3636918" lon="9.2102065"><ele>96.0</ele><time>2026-04-20T17:34:03.388Z</time></trkpt><trkpt lat="45.3635999" lon="9.2102484"><ele>96.0</ele><time>2026-04-20T17:34:05.389Z</time></trkpt><trkpt lat="45.3635086" lon="9.2102847"><ele>96.0</ele><time>2026-04-20T17:34:07.393Z</time></trkpt><trkpt lat="45.3634147" lon="9.2103203"><ele>96.0</ele><time>2026-04-20T17:34:09.393Z</time></trkpt><trkpt lat="45.3633227" lon="9.2103515"><ele>96.0</ele><time>2026-04-20T17:34:11.396Z</time></trkpt><trkpt lat="45.3631032" lon="9.2104553"><ele>96.0</ele><time>2026-04-20T17:34:16.381Z</time></trkpt><trkpt lat="45.3630232" lon="9.2105045"><ele>96.0</ele><time>2026-04-20T17:34:18.393Z</time></trkpt><trkpt lat="45.362938" lon="9.2105555"><ele>96.0</ele><time>2026-04-20T17:34:20.388Z</time></trkpt><trkpt lat="45.3628473" lon="9.2105968"><ele>96.0</ele><time>2026-04-20T17:34:22.384Z</time></trkpt><trkpt lat="45.3627481" lon="9.2106363"><ele>96.0</ele><time>2026-04-20T17:34:24.389Z</time></trkpt><trkpt lat="45.3626601" lon="9.2106755"><ele>96.0</ele><time>2026-04-20T17:34:26.391Z</time></trkpt><trkpt lat="45.362564" lon="9.2107063"><ele>96.0</ele><time>2026-04-20T17:34:28.386Z</time></trkpt><trkpt lat="45.3624717" lon="9.2107253"><ele>96.0</ele><time>2026-04-20T17:34:30.384Z</time></trkpt><trkpt lat="45.3623763" lon="9.2107524"><ele>96.0</ele><time>2026-04-20T17:34:32.396Z</time></trkpt><trkpt lat="45.3622826" lon="9.2107858"><ele>96.0</ele><time>2026-04-20T17:34:34.387Z</time></trkpt><trkpt lat="45.362194" lon="9.2108218"><ele>96.0</ele><time>2026-04-20T17:34:36.383Z</time></trkpt><trkpt lat="45.3621052" lon="9.2108525"><ele>96.0</ele><time>2026-04-20T17:34:38.386Z</time></trkpt><trkpt lat="45.3620084" lon="9.2108788"><ele>96.0</ele><time>2026-04-20T17:34:40.387Z</time></trkpt><trkpt lat="45.3619152" lon="9.2109226"><ele>96.8</ele><time>2026-04-20T17:34:42.387Z</time></trkpt><trkpt lat="45.3618208" lon="9.2109653"><ele>97.6</ele><time>2026-04-20T17:34:44.388Z</time></trkpt><trkpt lat="45.3617207" lon="9.2110135"><ele>98.4</ele><time>2026-04-20T17:34:46.39Z</time></trkpt><trkpt lat="45.3616289" lon="9.2110527"><ele>99.2</ele><time>2026-04-20T17:34:48.39Z</time></trkpt><trkpt lat="45.3615334" lon="9.2110814"><ele>100.0</ele><time>2026-04-20T17:34:50.389Z</time></trkpt><trkpt lat="45.3614373" lon="9.2111202"><ele>99.6</ele><time>2026-04-20T17:34:52.395Z</time></trkpt><trkpt lat="45.3613462" lon="9.2111603"><ele>99.2</ele><time>2026-04-20T17:34:54.392Z</time></trkpt><trkpt lat="45.3612516" lon="9.2112167"><ele>98.80000000000001</ele><time>2026-04-20T17:34:56.392Z</time></trkpt><trkpt lat="45.361168" lon="9.2113102"><ele>98.4</ele><time>2026-04-20T17:34:58.395Z</time></trkpt><trkpt lat="45.3610882" lon="9.2114217"><ele>98.0</ele><time>2026-04-20T17:35:00.389Z</time></trkpt><trkpt lat="45.3609855" lon="9.2114652"><ele>98.0</ele><time>2026-04-20T17:35:02.391Z</time></trkpt><trkpt lat="45.3608928" lon="9.2114873"><ele>98.0</ele><time>2026-04-20T17:35:04.394Z</time></trkpt><trkpt lat="45.3607984" lon="9.2114942"><ele>98.0</ele><time>2026-04-20T17:35:06.385Z</time></trkpt><trkpt lat="45.3606976" lon="9.2115001"><ele>98.0</ele><time>2026-04-20T17:35:08.4Z</time></trkpt><trkpt lat="45.3605954" lon="9.2115406"><ele>98.0</ele><time>2026-04-20T17:35:10.392Z</time></trkpt><trkpt lat="45.3604899" lon="9.211567"><ele>97.4</ele><time>2026-04-20T17:35:12.389Z</time></trkpt><trkpt lat="45.3603842" lon="9.2115798"><ele>96.80000000000001</ele><time>2026-04-20T17:35:14.391Z</time></trkpt><trkpt lat="45.3602866" lon="9.2116078"><ele>96.2</ele><time>2026-04-20T17:35:16.387Z</time></trkpt><trkpt lat="45.3601854" lon="9.211631"><ele>95.6</ele><time>2026-04-20T17:35:18.385Z</time></trkpt><trkpt lat="45.3600857" lon="9.2116501"><ele>95.0</ele><time>2026-04-20T17:35:20.389Z</time></trkpt><trkpt lat="45.3599825" lon="9.2116631"><ele>95.0</ele><time>2026-04-20T17:35:22.387Z</time></trkpt><trkpt lat="45.3598859" lon="9.2116655"><ele>95.0</ele><time>2026-04-20T17:35:24.386Z</time></trkpt><trkpt lat="45.3597424" lon="9.2116851"><ele>95.0</ele><time>2026-04-20T17:35:27.391Z</time></trkpt><trkpt lat="45.3596615" lon="9.2116947"><ele>95.0</ele><time>2026-04-20T17:35:29.386Z</time></trkpt><trkpt lat="45.3595759" lon="9.2116988"><ele>95.0</ele><time>2026-04-20T17:35:31.388Z</time></trkpt><trkpt lat="45.35949" lon="9.2117083"><ele>94.66666666666667</ele><time>2026-04-20T17:35:33.385Z</time></trkpt><trkpt lat="45.3594017" lon="9.2117194"><ele>94.33333333333334</ele><time>2026-04-20T17:35:35.392Z</time></trkpt><trkpt lat="45.3593132" lon="9.211727"><ele>94.0</ele><time>2026-04-20T17:35:37.388Z</time></trkpt><trkpt lat="45.3592205" lon="9.2117496"><ele>93.66666666666667</ele><time>2026-04-20T17:35:39.382Z</time></trkpt><trkpt lat="45.3591367" lon="9.2117781"><ele>93.33333333333333</ele><time>2026-04-20T17:35:41.393Z</time></trkpt><trkpt lat="45.3590555" lon="9.2118138"><ele>93.0</ele><time>2026-04-20T17:35:43.398Z</time></trkpt><trkpt lat="45.3589707" lon="9.211857"><ele>93.0</ele><time>2026-04-20T17:35:45.387Z</time></trkpt><trkpt lat="45.3588924" lon="9.2118698"><ele>93.0</ele><time>2026-04-20T17:35:47.394Z</time></trkpt><trkpt lat="45.3588283" lon="9.2119215"><ele>93.0</ele><time>2026-04-20T17:35:49.386Z</time></trkpt><trkpt lat="45.3587517" lon="9.2119678"><ele>93.0</ele><time>2026-04-20T17:35:52.382Z</time></trkpt><trkpt lat="45.3586795" lon="9.21201"><ele>93.0</ele><time>2026-04-20T17:35:56.392Z</time></trkpt><trkpt lat="45.3586189" lon="9.2120653"><ele>93.0</ele><time>2026-04-20T17:36:56.386Z</time></trkpt><trkpt lat="45.358554" lon="9.2121111"><ele>92.80000000000001</ele><time>2026-04-20T17:36:59.388Z</time></trkpt><trkpt lat="45.3584969" lon="9.2121539"><ele>92.6</ele><time>2026-04-20T17:37:01.386Z</time></trkpt><trkpt lat="45.3584094" lon="9.2122306"><ele>92.4</ele><time>2026-04-20T17:37:03.391Z</time></trkpt><trkpt lat="45.3583305" lon="9.2122884"><ele>92.19999999999999</ele><time>2026-04-20T17:37:05.385Z</time></trkpt><trkpt lat="45.358247" lon="9.2123633"><ele>92.0</ele><time>2026-04-20T17:37:07.392Z</time></trkpt><trkpt lat="45.3581557" lon="9.2124284"><ele>92.0</ele><time>2026-04-20T17:37:09.393Z</time></trkpt><trkpt lat="45.3580605" lon="9.212491"><ele>92.0</ele><time>2026-04-20T17:37:11.391Z</time></trkpt><trkpt lat="45.3579722" lon="9.2125629"><ele>92.0</ele><time>2026-04-20T17:37:13.39Z</time></trkpt><trkpt lat="45.3578869" lon="9.2126426"><ele>92.0</ele><time>2026-04-20T17:37:15.385Z</time></trkpt><trkpt lat="45.3578091" lon="9.2127173"><ele>92.0</ele><time>2026-04-20T17:37:17.39Z</time></trkpt><trkpt lat="45.3577282" lon="9.2127898"><ele>92.19999999999999</ele><time>2026-04-20T17:37:19.394Z</time></trkpt><trkpt lat="45.3576403" lon="9.2128641"><ele>92.4</ele><time>2026-04-20T17:37:21.39Z</time></trkpt><trkpt lat="45.3575505" lon="9.2129254"><ele>92.6</ele><time>2026-04-20T17:37:23.396Z</time></trkpt><trkpt lat="45.3574626" lon="9.2129837"><ele>92.80000000000001</ele><time>2026-04-20T17:37:25.387Z</time></trkpt><trkpt lat="45.3573759" lon="9.2130555"><ele>93.0</ele><time>2026-04-20T17:37:27.391Z</time></trkpt><trkpt lat="45.3572873" lon="9.2131187"><ele>92.4</ele><time>2026-04-20T17:37:29.388Z</time></trkpt><trkpt lat="45.357198" lon="9.2131716"><ele>91.80000000000001</ele><time>2026-04-20T17:37:31.39Z</time></trkpt><trkpt lat="45.3571055" lon="9.2132362"><ele>91.2</ele><time>2026-04-20T17:37:33.384Z</time></trkpt><trkpt lat="45.3570163" lon="9.2132917"><ele>90.6</ele><time>2026-04-20T17:37:35.387Z</time></trkpt><trkpt lat="45.3569222" lon="9.2133623"><ele>90.0</ele><time>2026-04-20T17:37:37.393Z</time></trkpt><trkpt lat="45.3568378" lon="9.2134306"><ele>90.0</ele><time>2026-04-20T17:37:39.385Z</time></trkpt><trkpt lat="45.3567463" lon="9.2135088"><ele>90.0</ele><time>2026-04-20T17:37:41.392Z</time></trkpt><trkpt lat="45.3566646" lon="9.213602"><ele>90.0</ele><time>2026-04-20T17:37:43.386Z</time></trkpt><trkpt lat="45.3565832" lon="9.213704"><ele>90.0</ele><time>2026-04-20T17:37:45.391Z</time></trkpt><trkpt lat="45.3565017" lon="9.2137963"><ele>90.0</ele><time>2026-04-20T17:37:47.388Z</time></trkpt><trkpt lat="45.3564175" lon="9.2138728"><ele>90.4</ele><time>2026-04-20T17:37:49.383Z</time></trkpt><trkpt lat="45.3563341" lon="9.2139449"><ele>90.8</ele><time>2026-04-20T17:37:51.392Z</time></trkpt><trkpt lat="45.3562537" lon="9.2140295"><ele>91.19999999999999</ele><time>2026-04-20T17:37:53.386Z</time></trkpt><trkpt lat="45.3561708" lon="9.2141037"><ele>91.6</ele><time>2026-04-20T17:37:55.386Z</time></trkpt><trkpt lat="45.3560925" lon="9.2141904"><ele>92.0</ele><time>2026-04-20T17:37:57.39Z</time></trkpt><trkpt lat="45.3560126" lon="9.2142759"><ele>92.66666666666667</ele><time>2026-04-20T17:37:59.39Z</time></trkpt><trkpt lat="45.355951" lon="9.2143761"><ele>93.33333333333334</ele><time>2026-04-20T17:38:01.393Z</time></trkpt><trkpt lat="45.355914" lon="9.2144999"><ele>94.0</ele><time>2026-04-20T17:38:03.39Z</time></trkpt><trkpt lat="45.3558983" lon="9.2146204"><ele>94.66666666666667</ele><time>2026-04-20T17:38:05.386Z</time></trkpt><trkpt lat="45.3559071" lon="9.2147225"><ele>95.33333333333333</ele><time>2026-04-20T17:38:07.384Z</time></trkpt><trkpt lat="45.355928" lon="9.2148291"><ele>96.0</ele><time>2026-04-20T17:38:09.388Z</time></trkpt><trkpt lat="45.3559564" lon="9.2149302"><ele>96.0</ele><time>2026-04-20T17:38:11.387Z</time></trkpt><trkpt lat="45.3559841" lon="9.21503"><ele>96.0</ele><time>2026-04-20T17:38:13.388Z</time></trkpt><trkpt lat="45.3560082" lon="9.2151372"><ele>96.0</ele><time>2026-04-20T17:38:15.388Z</time></trkpt><trkpt lat="45.3560358" lon="9.2152412"><ele>96.0</ele><time>2026-04-20T17:38:17.388Z</time></trkpt><trkpt lat="45.3560637" lon="9.215342"><ele>96.0</ele><time>2026-04-20T17:38:19.387Z</time></trkpt><trkpt lat="45.3560893" lon="9.2154529"><ele>96.0</ele><time>2026-04-20T17:38:21.389Z</time></trkpt><trkpt lat="45.3561117" lon="9.2155649"><ele>95.83333333333333</ele><time>2026-04-20T17:38:23.39Z</time></trkpt><trkpt lat="45.3561408" lon="9.2156787"><ele>95.66666666666667</ele><time>2026-04-20T17:38:25.39Z</time></trkpt><trkpt lat="45.3561661" lon="9.2157872"><ele>95.5</ele><time>2026-04-20T17:38:27.4Z</time></trkpt><trkpt lat="45.3561886" lon="9.2159106"><ele>95.33333333333334</ele><time>2026-04-20T17:38:29.388Z</time></trkpt><trkpt lat="45.3562084" lon="9.2160309"><ele>95.16666666666667</ele><time>2026-04-20T17:38:31.39Z</time></trkpt><trkpt lat="45.3562299" lon="9.216148"><ele>95.0</ele><time>2026-04-20T17:38:33.385Z</time></trkpt><trkpt lat="45.3562605" lon="9.216259"><ele>95.0</ele><time>2026-04-20T17:38:35.385Z</time></trkpt><trkpt lat="45.3562795" lon="9.2163927"><ele>95.0</ele><time>2026-04-20T17:38:37.392Z</time></trkpt><trkpt lat="45.3563042" lon="9.2165142"><ele>95.0</ele><time>2026-04-20T17:38:39.385Z</time></trkpt><trkpt lat="45.3563296" lon="9.2166275"><ele>95.0</ele><time>2026-04-20T17:38:41.393Z</time></trkpt><trkpt lat="45.3563489" lon="9.2167431"><ele>95.0</ele><time>2026-04-20T17:38:43.39Z</time></trkpt><trkpt lat="45.356374" lon="9.2168567"><ele>95.0</ele><time>2026-04-20T17:38:45.388Z</time></trkpt><trkpt lat="45.3563932" lon="9.2169699"><ele>95.16666666666667</ele><time>2026-04-20T17:38:47.384Z</time></trkpt><trkpt lat="45.3564239" lon="9.2170833"><ele>95.33333333333334</ele><time>2026-04-20T17:38:49.386Z</time></trkpt><trkpt lat="45.3564545" lon="9.217199"><ele>95.5</ele><time>2026-04-20T17:38:51.39Z</time></trkpt><trkpt lat="45.3564799" lon="9.2173153"><ele>95.66666666666667</ele><time>2026-04-20T17:38:53.384Z</time></trkpt><trkpt lat="45.3564993" lon="9.2174259"><ele>95.83333333333333</ele><time>2026-04-20T17:38:55.391Z</time></trkpt><trkpt lat="45.3565205" lon="9.2175342"><ele>96.0</ele><time>2026-04-20T17:38:57.386Z</time></trkpt><trkpt lat="45.3565433" lon="9.2176467"><ele>96.0</ele><time>2026-04-20T17:38:59.388Z</time></trkpt><trkpt lat="45.356577" lon="9.2177553"><ele>96.0</ele><time>2026-04-20T17:39:01.395Z</time></trkpt><trkpt lat="45.3566022" lon="9.2178598"><ele>96.0</ele><time>2026-04-20T17:39:03.393Z</time></trkpt><trkpt lat="45.3566181" lon="9.2179548"><ele>96.0</ele><time>2026-04-20T17:39:05.39Z</time></trkpt><trkpt lat="45.3566307" lon="9.2180724"><ele>96.0</ele><time>2026-04-20T17:39:08.394Z</time></trkpt><trkpt lat="45.3566478" lon="9.2181734"><ele>96.0</ele><time>2026-04-20T17:39:10.39Z</time></trkpt><trkpt lat="45.3566788" lon="9.2182791"><ele>96.33333333333333</ele><time>2026-04-20T17:39:12.386Z</time></trkpt><trkpt lat="45.3566887" lon="9.218376"><ele>96.66666666666666</ele><time>2026-04-20T17:39:14.39Z</time></trkpt><trkpt lat="45.3566561" lon="9.2184668"><ele>97.0</ele><time>2026-04-20T17:39:16.387Z</time></trkpt><trkpt lat="45.3566145" lon="9.2185578"><ele>97.33333333333333</ele><time>2026-04-20T17:39:18.376Z</time></trkpt><trkpt lat="45.3565785" lon="9.218451"><ele>97.66666666666666</ele><time>2026-04-20T17:39:19.38Z</time></trkpt><trkpt lat="45.3565187" lon="9.2184883"><ele>98.0</ele><time>2026-04-20T17:39:21.38Z</time></trkpt><trkpt lat="45.3565633" lon="9.2186168"><ele>98.0</ele><time>2026-04-20T17:39:22.383Z</time></trkpt><trkpt lat="45.3565936" lon="9.2186969"><ele>98.0</ele><time>2026-04-20T17:39:23.385Z</time></trkpt><trkpt lat="45.3566628" lon="9.218762"><ele>98.0</ele><time>2026-04-20T17:39:25.395Z</time></trkpt><trkpt lat="45.3567102" lon="9.2188329"><ele>98.0</ele><time>2026-04-20T17:39:27.384Z</time></trkpt><trkpt lat="45.3567567" lon="9.2189033"><ele>98.0</ele><time>2026-04-20T17:39:29.388Z</time></trkpt><trkpt lat="45.3568274" lon="9.2189831"><ele>98.0</ele><time>2026-04-20T17:39:32.386Z</time></trkpt><trkpt lat="45.356847" lon="9.2190743"><ele>98.0</ele><time>2026-04-20T17:39:34.384Z</time></trkpt><trkpt lat="45.35687" lon="9.21916"><ele>98.0</ele><time>2026-04-20T17:39:36.385Z</time></trkpt><trkpt lat="45.3568876" lon="9.2192502"><ele>98.0</ele><time>2026-04-20T17:39:38.384Z</time></trkpt><trkpt lat="45.3568881" lon="9.219343"><ele>98.0</ele><time>2026-04-20T17:39:40.389Z</time></trkpt><trkpt lat="45.3569125" lon="9.2194392"><ele>98.0</ele><time>2026-04-20T17:39:42.393Z</time></trkpt><trkpt lat="45.3569423" lon="9.219543"><ele>98.0</ele><time>2026-04-20T17:39:44.386Z</time></trkpt><trkpt lat="45.3569722" lon="9.2196514"><ele>98.0</ele><time>2026-04-20T17:39:46.386Z</time></trkpt><trkpt lat="45.3569922" lon="9.2197518"><ele>98.0</ele><time>2026-04-20T17:39:48.392Z</time></trkpt><trkpt lat="45.3570133" lon="9.2198542"><ele>97.99999999999999</ele><time>2026-04-20T17:39:50.388Z</time></trkpt><trkpt lat="45.3570476" lon="9.2199704"><ele>98.0</ele><time>2026-04-20T17:39:52.394Z</time></trkpt><trkpt lat="45.3570791" lon="9.2200835"><ele>98.0</ele><time>2026-04-20T17:39:54.394Z</time></trkpt><trkpt lat="45.3571131" lon="9.2201959"><ele>98.0</ele><time>2026-04-20T17:39:56.389Z</time></trkpt><trkpt lat="45.3571276" lon="9.2203063"><ele>97.99999999999999</ele><time>2026-04-20T17:39:59.389Z</time></trkpt><trkpt lat="45.3570917" lon="9.2204181"><ele>98.0</ele><time>2026-04-20T17:40:02.384Z</time></trkpt><trkpt lat="45.3570232" lon="9.2204808"><ele>98.0</ele><time>2026-04-20T17:40:04.396Z</time></trkpt><trkpt lat="45.3569206" lon="9.2205169"><ele>98.0</ele><time>2026-04-20T17:40:06.384Z</time></trkpt><trkpt lat="45.3568325" lon="9.2205361"><ele>98.0</ele><time>2026-04-20T17:40:08.386Z</time></trkpt><trkpt lat="45.3567469" lon="9.2205635"><ele>98.0</ele><time>2026-04-20T17:40:10.383Z</time></trkpt><trkpt lat="45.3566724" lon="9.2206133"><ele>98.0</ele><time>2026-04-20T17:40:12.384Z</time></trkpt><trkpt lat="45.3566501" lon="9.2207379"><ele>97.83333333333333</ele><time>2026-04-20T17:40:14.388Z</time></trkpt><trkpt lat="45.3566757" lon="9.2208549"><ele>97.66666666666666</ele><time>2026-04-20T17:40:16.391Z</time></trkpt><trkpt lat="45.3566916" lon="9.2209726"><ele>97.5</ele><time>2026-04-20T17:40:18.387Z</time></trkpt><trkpt lat="45.3567117" lon="9.2210995"><ele>97.33333333333334</ele><time>2026-04-20T17:40:20.383Z</time></trkpt><trkpt lat="45.3567417" lon="9.2212253"><ele>97.16666666666667</ele><time>2026-04-20T17:40:22.388Z</time></trkpt><trkpt lat="45.3567783" lon="9.2213407"><ele>97.0</ele><time>2026-04-20T17:40:24.391Z</time></trkpt><trkpt lat="45.3568211" lon="9.2214633"><ele>97.39999999999999</ele><time>2026-04-20T17:40:26.383Z</time></trkpt><trkpt lat="45.3568531" lon="9.2216111"><ele>97.8</ele><time>2026-04-20T17:40:28.387Z</time></trkpt><trkpt lat="45.3568853" lon="9.2217623"><ele>98.2</ele><time>2026-04-20T17:40:30.397Z</time></trkpt><trkpt lat="45.3569133" lon="9.2218877"><ele>98.6</ele><time>2026-04-20T17:40:32.391Z</time></trkpt><trkpt lat="45.3569318" lon="9.2220054"><ele>99.0</ele><time>2026-04-20T17:40:34.386Z</time></trkpt><trkpt lat="45.3569655" lon="9.2221301"><ele>99.0</ele><time>2026-04-20T17:40:36.383Z</time></trkpt><trkpt lat="45.357018" lon="9.2222412"><ele>99.0</ele><time>2026-04-20T17:40:38.386Z</time></trkpt><trkpt lat="45.3570672" lon="9.2223546"><ele>99.0</ele><time>2026-04-20T17:40:40.385Z</time></trkpt><trkpt lat="45.3571046" lon="9.2224639"><ele>99.0</ele><time>2026-04-20T17:40:42.384Z</time></trkpt><trkpt lat="45.357145" lon="9.2225501"><ele>99.0</ele><time>2026-04-20T17:40:44.389Z</time></trkpt><trkpt lat="45.3571636" lon="9.2226569"><ele>99.0</ele><time>2026-04-20T17:40:46.391Z</time></trkpt><trkpt lat="45.357177" lon="9.2227873"><ele>99.0</ele><time>2026-04-20T17:40:48.39Z</time></trkpt><trkpt lat="45.3572132" lon="9.2229029"><ele>99.0</ele><time>2026-04-20T17:40:50.388Z</time></trkpt><trkpt lat="45.3572606" lon="9.2230245"><ele>99.0</ele><time>2026-04-20T17:40:52.391Z</time></trkpt><trkpt lat="45.3573102" lon="9.2231582"><ele>99.0</ele><time>2026-04-20T17:40:54.385Z</time></trkpt><trkpt lat="45.3573643" lon="9.223283"><ele>99.0</ele><time>2026-04-20T17:40:56.385Z</time></trkpt><trkpt lat="45.3574147" lon="9.2234136"><ele>99.0</ele><time>2026-04-20T17:40:58.389Z</time></trkpt><trkpt lat="45.357464" lon="9.223564"><ele>99.0</ele><time>2026-04-20T17:41:00.385Z</time></trkpt><trkpt lat="45.3575098" lon="9.2237098"><ele>99.0</ele><time>2026-04-20T17:41:02.383Z</time></trkpt><trkpt lat="45.3575464" lon="9.2238571"><ele>99.0</ele><time>2026-04-20T17:41:04.392Z</time></trkpt><trkpt lat="45.3575861" lon="9.2239964"><ele>99.0</ele><time>2026-04-20T17:41:06.384Z</time></trkpt><trkpt lat="45.3576203" lon="9.2241222"><ele>99.0</ele><time>2026-04-20T17:41:08.387Z</time></trkpt><trkpt lat="45.3576307" lon="9.2242483"><ele>99.0</ele><time>2026-04-20T17:41:10.388Z</time></trkpt><trkpt lat="45.3576411" lon="9.2243758"><ele>99.0</ele><time>2026-04-20T17:41:12.388Z</time></trkpt><trkpt lat="45.3576745" lon="9.2244866"><ele>99.0</ele><time>2026-04-20T17:41:14.388Z</time></trkpt><trkpt lat="45.3577037" lon="9.2246138"><ele>99.0</ele><time>2026-04-20T17:41:16.384Z</time></trkpt><trkpt lat="45.3577242" lon="9.224724"><ele>99.0</ele><time>2026-04-20T17:41:18.389Z</time></trkpt><trkpt lat="45.3577571" lon="9.2248364"><ele>99.0</ele><time>2026-04-20T17:41:20.401Z</time></trkpt><trkpt lat="45.3577817" lon="9.2249448"><ele>99.0</ele><time>2026-04-20T17:41:22.394Z</time></trkpt><trkpt lat="45.357814" lon="9.2250445"><ele>99.0</ele><time>2026-04-20T17:41:24.398Z</time></trkpt><trkpt lat="45.357873" lon="9.2251387"><ele>99.0</ele><time>2026-04-20T17:41:26.385Z</time></trkpt><trkpt lat="45.3579175" lon="9.2252372"><ele>99.0</ele><time>2026-04-20T17:41:28.384Z</time></trkpt><trkpt lat="45.3579568" lon="9.2253442"><ele>99.0</ele><time>2026-04-20T17:41:30.392Z</time></trkpt><trkpt lat="45.3579696" lon="9.2254719"><ele>99.0</ele><time>2026-04-20T17:41:32.386Z</time></trkpt><trkpt lat="45.3579895" lon="9.2256084"><ele>99.0</ele><time>2026-04-20T17:41:34.39Z</time></trkpt><trkpt lat="45.3580043" lon="9.2257324"><ele>99.0</ele><time>2026-04-20T17:41:36.391Z</time></trkpt><trkpt lat="45.3580327" lon="9.225866"><ele>99.0</ele><time>2026-04-20T17:41:38.387Z</time></trkpt><trkpt lat="45.3580817" lon="9.2259947"><ele>99.0</ele><time>2026-04-20T17:41:40.399Z</time></trkpt><trkpt lat="45.3581221" lon="9.2261236"><ele>98.80000000000001</ele><time>2026-04-20T17:41:42.383Z</time></trkpt><trkpt lat="45.3581653" lon="9.226247"><ele>98.60000000000001</ele><time>2026-04-20T17:41:44.387Z</time></trkpt><trkpt lat="45.3582129" lon="9.2263724"><ele>98.4</ele><time>2026-04-20T17:41:46.396Z</time></trkpt><trkpt lat="45.358255" lon="9.226502"><ele>98.2</ele><time>2026-04-20T17:41:48.387Z</time></trkpt><trkpt lat="45.3582993" lon="9.2266362"><ele>98.0</ele><time>2026-04-20T17:41:50.389Z</time></trkpt><trkpt lat="45.3583367" lon="9.2267667"><ele>97.80000000000001</ele><time>2026-04-20T17:41:52.394Z</time></trkpt><trkpt lat="45.3583684" lon="9.2268855"><ele>97.6</ele><time>2026-04-20T17:41:54.388Z</time></trkpt><trkpt lat="45.3583623" lon="9.2270475"><ele>97.4</ele><time>2026-04-20T17:41:57.391Z</time></trkpt><trkpt lat="45.3583661" lon="9.2271637"><ele>97.19999999999999</ele><time>2026-04-20T17:41:59.387Z</time></trkpt><trkpt lat="45.3583805" lon="9.2272829"><ele>97.0</ele><time>2026-04-20T17:42:01.386Z</time></trkpt><trkpt lat="45.3584058" lon="9.2274238"><ele>97.00000000000001</ele><time>2026-04-20T17:42:03.393Z</time></trkpt><trkpt lat="45.3584435" lon="9.2275587"><ele>97.0</ele><time>2026-04-20T17:42:05.386Z</time></trkpt><trkpt lat="45.3584824" lon="9.2276582"><ele>97.0</ele><time>2026-04-20T17:42:07.384Z</time></trkpt><trkpt lat="45.3585102" lon="9.227772"><ele>97.0</ele><time>2026-04-20T17:42:09.387Z</time></trkpt><trkpt lat="45.3585281" lon="9.2278825"><ele>97.00000000000001</ele><time>2026-04-20T17:42:11.402Z</time></trkpt><trkpt lat="45.3585505" lon="9.2279866"><ele>97.0</ele><time>2026-04-20T17:42:13.389Z</time></trkpt><trkpt lat="45.3586042" lon="9.2280868"><ele>97.00000000000001</ele><time>2026-04-20T17:42:16.387Z</time></trkpt><trkpt lat="45.3586717" lon="9.2280648"><ele>97.0</ele><time>2026-04-20T17:42:18.385Z</time></trkpt><trkpt lat="45.3587374" lon="9.2279737"><ele>97.0</ele><time>2026-04-20T17:42:20.392Z</time></trkpt><trkpt lat="45.3588155" lon="9.2279054"><ele>97.0</ele><time>2026-04-20T17:42:22.39Z</time></trkpt><trkpt lat="45.3589051" lon="9.2278467"><ele>97.00000000000001</ele><time>2026-04-20T17:42:24.386Z</time></trkpt><trkpt lat="45.3589894" lon="9.227784"><ele>97.0</ele><time>2026-04-20T17:42:26.384Z</time></trkpt><trkpt lat="45.3590756" lon="9.2277307"><ele>96.8</ele><time>2026-04-20T17:42:28.387Z</time></trkpt><trkpt lat="45.3591607" lon="9.2276757"><ele>96.6</ele><time>2026-04-20T17:42:30.391Z</time></trkpt><trkpt lat="45.3592514" lon="9.2276313"><ele>96.39999999999999</ele><time>2026-04-20T17:42:32.388Z</time></trkpt><trkpt lat="45.3593342" lon="9.2275916"><ele>96.19999999999999</ele><time>2026-04-20T17:42:34.392Z</time></trkpt><trkpt lat="45.3594114" lon="9.2275456"><ele>96.0</ele><time>2026-04-20T17:42:36.388Z</time></trkpt><trkpt lat="45.3595021" lon="9.2275234"><ele>96.0</ele><time>2026-04-20T17:42:38.39Z</time></trkpt><trkpt lat="45.3595919" lon="9.2275583"><ele>96.0</ele><time>2026-04-20T17:42:40.386Z</time></trkpt><trkpt lat="45.3596234" lon="9.2276781"><ele>96.0</ele><time>2026-04-20T17:42:42.388Z</time></trkpt><trkpt lat="45.3596535" lon="9.2277891"><ele>96.0</ele><time>2026-04-20T17:42:44.388Z</time></trkpt><trkpt lat="45.3596649" lon="9.2279144"><ele>96.0</ele><time>2026-04-20T17:42:46.391Z</time></trkpt><trkpt lat="45.3596676" lon="9.2280324"><ele>96.0</ele><time>2026-04-20T17:42:48.387Z</time></trkpt><trkpt lat="45.3596434" lon="9.2281442"><ele>96.16666666666667</ele><time>2026-04-20T17:42:50.39Z</time></trkpt><trkpt lat="45.3596536" lon="9.2282627"><ele>96.33333333333334</ele><time>2026-04-20T17:42:52.388Z</time></trkpt><trkpt lat="45.3597453" lon="9.2282863"><ele>96.5</ele><time>2026-04-20T17:42:55.387Z</time></trkpt><trkpt lat="45.3597912" lon="9.2283748"><ele>96.66666666666667</ele><time>2026-04-20T17:42:57.384Z</time></trkpt><trkpt lat="45.3598261" lon="9.2284712"><ele>96.83333333333334</ele><time>2026-04-20T17:42:59.391Z</time></trkpt><trkpt lat="45.3598634" lon="9.2285589"><ele>97.0</ele><time>2026-04-20T17:43:01.391Z</time></trkpt><trkpt lat="45.3598919" lon="9.2286477"><ele>96.83333333333334</ele><time>2026-04-20T17:43:03.387Z</time></trkpt><trkpt lat="45.3599728" lon="9.2286663"><ele>96.66666666666667</ele><time>2026-04-20T17:43:06.384Z</time></trkpt><trkpt lat="45.3600401" lon="9.2287183"><ele>96.5</ele><time>2026-04-20T17:43:08.385Z</time></trkpt><trkpt lat="45.36009" lon="9.2287922"><ele>96.33333333333334</ele><time>2026-04-20T17:43:10.39Z</time></trkpt><trkpt lat="45.3601169" lon="9.2288935"><ele>96.16666666666667</ele><time>2026-04-20T17:43:12.39Z</time></trkpt><trkpt lat="45.3601138" lon="9.22901"><ele>96.0</ele><time>2026-04-20T17:43:14.387Z</time></trkpt><trkpt lat="45.3600937" lon="9.2291278"><ele>96.0</ele><time>2026-04-20T17:43:16.387Z</time></trkpt><trkpt lat="45.360062" lon="9.2292311"><ele>96.0</ele><time>2026-04-20T17:43:18.386Z</time></trkpt><trkpt lat="45.3600128" lon="9.2293022"><ele>96.0</ele><time>2026-04-20T17:43:20.389Z</time></trkpt><trkpt lat="45.3600917" lon="9.229321"><ele>96.0</ele><time>2026-04-20T17:43:53.386Z</time></trkpt><trkpt lat="45.3601525" lon="9.2292594"><ele>96.0</ele><time>2026-04-20T17:43:55.385Z</time></trkpt><trkpt lat="45.3602387" lon="9.2292573"><ele>96.0</ele><time>2026-04-20T17:43:57.388Z</time></trkpt><trkpt lat="45.3603195" lon="9.2293072"><ele>96.0</ele><time>2026-04-20T17:43:59.388Z</time></trkpt><trkpt lat="45.3603641" lon="9.2294042"><ele>96.0</ele><time>2026-04-20T17:44:01.389Z</time></trkpt><trkpt lat="45.3603403" lon="9.2295249"><ele>96.0</ele><time>2026-04-20T17:44:03.382Z</time></trkpt><trkpt lat="45.3602815" lon="9.2296247"><ele>96.0</ele><time>2026-04-20T17:44:05.381Z</time></trkpt><trkpt lat="45.3602353" lon="9.2297332"><ele>96.0</ele><time>2026-04-20T17:44:07.387Z</time></trkpt><trkpt lat="45.3602542" lon="9.229837"><ele>96.0</ele><time>2026-04-20T17:44:09.385Z</time></trkpt><trkpt lat="45.3602695" lon="9.2299242"><ele>96.0</ele><time>2026-04-20T17:44:13.385Z</time></trkpt><trkpt lat="45.3602707" lon="9.2298323"><ele>96.0</ele><time>2026-04-20T17:44:17.382Z</time></trkpt><trkpt lat="45.3602772" lon="9.2297146"><ele>96.0</ele><time>2026-04-20T17:44:19.391Z</time></trkpt><trkpt lat="45.3603099" lon="9.2296016"><ele>96.0</ele><time>2026-04-20T17:44:21.386Z</time></trkpt><trkpt lat="45.3603486" lon="9.2295074"><ele>96.0</ele><time>2026-04-20T17:44:23.384Z</time></trkpt><trkpt lat="45.3603874" lon="9.2294281"><ele>96.0</ele><time>2026-04-20T17:44:25.391Z</time></trkpt><trkpt lat="45.3604636" lon="9.2293733"><ele>95.99999999999999</ele><time>2026-04-20T17:44:28.385Z</time></trkpt><trkpt lat="45.3605216" lon="9.2293013"><ele>96.0</ele><time>2026-04-20T17:44:31.395Z</time></trkpt><trkpt lat="45.3605386" lon="9.2292112"><ele>96.0</ele><time>2026-04-20T17:44:33.386Z</time></trkpt><trkpt lat="45.3605481" lon="9.2291002"><ele>96.0</ele><time>2026-04-20T17:44:36.39Z</time></trkpt><trkpt lat="45.3605542" lon="9.229"><ele>96.0</ele><time>2026-04-20T17:44:39.389Z</time></trkpt><trkpt lat="45.36057" lon="9.2289122"><ele>95.99999999999999</ele><time>2026-04-20T17:44:42.384Z</time></trkpt><trkpt lat="45.3606269" lon="9.2288336"><ele>96.0</ele><time>2026-04-20T17:44:55.398Z</time></trkpt><trkpt lat="45.3606943" lon="9.2287833"><ele>95.66666666666667</ele><time>2026-04-20T17:44:57.39Z</time></trkpt><trkpt lat="45.3607745" lon="9.2287554"><ele>95.33333333333333</ele><time>2026-04-20T17:44:59.386Z</time></trkpt><trkpt lat="45.3608611" lon="9.2287713"><ele>95.0</ele><time>2026-04-20T17:45:01.385Z</time></trkpt><trkpt lat="45.3609436" lon="9.2288025"><ele>94.66666666666666</ele><time>2026-04-20T17:45:03.389Z</time></trkpt><trkpt lat="45.3610171" lon="9.228854"><ele>94.33333333333333</ele><time>2026-04-20T17:45:05.388Z</time></trkpt><trkpt lat="45.3610545" lon="9.2289762"><ele>94.0</ele><time>2026-04-20T17:45:07.383Z</time></trkpt><trkpt lat="45.361067" lon="9.2290649"><ele>94.0</ele><time>2026-04-20T17:45:09.392Z</time></trkpt><trkpt lat="45.361123" lon="9.2291532"><ele>94.0</ele><time>2026-04-20T17:45:23.392Z</time></trkpt><trkpt lat="45.3611524" lon="9.2292681"><ele>94.0</ele><time>2026-04-20T17:45:25.392Z</time></trkpt><trkpt lat="45.361141" lon="9.2294071"><ele>94.0</ele><time>2026-04-20T17:45:27.386Z</time></trkpt><trkpt lat="45.3611214" lon="9.2295389"><ele>94.0</ele><time>2026-04-20T17:45:29.378Z</time></trkpt><trkpt lat="45.3611069" lon="9.2296762"><ele>94.0</ele><time>2026-04-20T17:45:31.386Z</time></trkpt><trkpt lat="45.3611128" lon="9.229806"><ele>94.0</ele><time>2026-04-20T17:45:33.395Z</time></trkpt><trkpt lat="45.3611313" lon="9.229914"><ele>94.0</ele><time>2026-04-20T17:45:35.396Z</time></trkpt><trkpt lat="45.3611447" lon="9.2300183"><ele>94.0</ele><time>2026-04-20T17:45:37.395Z</time></trkpt><trkpt lat="45.3611692" lon="9.2301203"><ele>94.0</ele><time>2026-04-20T17:45:39.386Z</time></trkpt><trkpt lat="45.3611912" lon="9.2302217"><ele>94.0</ele><time>2026-04-20T17:45:41.384Z</time></trkpt><trkpt lat="45.3612156" lon="9.2303324"><ele>94.16666666666666</ele><time>2026-04-20T17:45:43.393Z</time></trkpt><trkpt lat="45.3612497" lon="9.2304402"><ele>94.33333333333333</ele><time>2026-04-20T17:45:45.389Z</time></trkpt><trkpt lat="45.3612846" lon="9.2305523"><ele>94.5</ele><time>2026-04-20T17:45:47.391Z</time></trkpt><trkpt lat="45.3613153" lon="9.2306723"><ele>94.66666666666667</ele><time>2026-04-20T17:45:49.394Z</time></trkpt><trkpt lat="45.3613466" lon="9.2307787"><ele>94.83333333333334</ele><time>2026-04-20T17:45:51.388Z</time></trkpt><trkpt lat="45.3613761" lon="9.2308734"><ele>95.0</ele><time>2026-04-20T17:45:53.387Z</time></trkpt><trkpt lat="45.3613891" lon="9.2309654"><ele>95.0</ele><time>2026-04-20T17:45:55.39Z</time></trkpt><trkpt lat="45.3614094" lon="9.2310559"><ele>95.0</ele><time>2026-04-20T17:45:57.39Z</time></trkpt><trkpt lat="45.3614429" lon="9.2311672"><ele>95.0</ele><time>2026-04-20T17:45:59.386Z</time></trkpt><trkpt lat="45.3614632" lon="9.2312595"><ele>95.0</ele><time>2026-04-20T17:46:01.385Z</time></trkpt><trkpt lat="45.3614807" lon="9.2313523"><ele>95.0</ele><time>2026-04-20T17:46:03.388Z</time></trkpt><trkpt lat="45.3615292" lon="9.2315436"><ele>95.0</ele><time>2026-04-20T17:46:07.391Z</time></trkpt><trkpt lat="45.3615652" lon="9.2316657"><ele>94.8</ele><time>2026-04-20T17:46:09.389Z</time></trkpt><trkpt lat="45.3615874" lon="9.2317958"><ele>94.6</ele><time>2026-04-20T17:46:11.386Z</time></trkpt><trkpt lat="45.3616171" lon="9.2319313"><ele>94.4</ele><time>2026-04-20T17:46:13.394Z</time></trkpt><trkpt lat="45.3616606" lon="9.232069"><ele>94.2</ele><time>2026-04-20T17:46:15.395Z</time></trkpt><trkpt lat="45.3616891" lon="9.2322398"><ele>94.0</ele><time>2026-04-20T17:46:17.392Z</time></trkpt><trkpt lat="45.3617089" lon="9.2323267"><ele>94.0</ele><time>2026-04-20T17:46:18.395Z</time></trkpt><trkpt lat="45.3617328" lon="9.2324171"><ele>94.0</ele><time>2026-04-20T17:46:19.385Z</time></trkpt><trkpt lat="45.3617484" lon="9.2325058"><ele>94.0</ele><time>2026-04-20T17:46:20.389Z</time></trkpt><trkpt lat="45.3617636" lon="9.2325978"><ele>94.0</ele><time>2026-04-20T17:46:21.391Z</time></trkpt><trkpt lat="45.3617768" lon="9.2326953"><ele>94.0</ele><time>2026-04-20T17:46:22.392Z</time></trkpt><trkpt lat="45.3617873" lon="9.2327921"><ele>94.0</ele><time>2026-04-20T17:46:23.385Z</time></trkpt><trkpt lat="45.3618044" lon="9.2328941"><ele>94.0</ele><time>2026-04-20T17:46:24.384Z</time></trkpt><trkpt lat="45.3618167" lon="9.2329989"><ele>94.0</ele><time>2026-04-20T17:46:25.39Z</time></trkpt><trkpt lat="45.3618326" lon="9.2331022"><ele>94.0</ele><time>2026-04-20T17:46:26.389Z</time></trkpt><trkpt lat="45.3618455" lon="9.2332038"><ele>94.0</ele><time>2026-04-20T17:46:27.389Z</time></trkpt><trkpt lat="45.3618583" lon="9.2333156"><ele>94.0</ele><time>2026-04-20T17:46:28.39Z</time></trkpt><trkpt lat="45.3618732" lon="9.2334216"><ele>94.0</ele><time>2026-04-20T17:46:29.381Z</time></trkpt><trkpt lat="45.3618842" lon="9.2335283"><ele>94.0</ele><time>2026-04-20T17:46:30.381Z</time></trkpt><trkpt lat="45.3618999" lon="9.2336329"><ele>94.16666666666666</ele><time>2026-04-20T17:46:31.384Z</time></trkpt><trkpt lat="45.3619197" lon="9.2337412"><ele>94.33333333333333</ele><time>2026-04-20T17:46:32.393Z</time></trkpt><trkpt lat="45.3619341" lon="9.2338504"><ele>94.5</ele><time>2026-04-20T17:46:33.386Z</time></trkpt><trkpt lat="45.3619471" lon="9.2339598"><ele>94.66666666666667</ele><time>2026-04-20T17:46:34.397Z</time></trkpt><trkpt lat="45.3619642" lon="9.2340582"><ele>94.83333333333334</ele><time>2026-04-20T17:46:35.386Z</time></trkpt><trkpt lat="45.3619782" lon="9.2341577"><ele>95.0</ele><time>2026-04-20T17:46:36.388Z</time></trkpt><trkpt lat="45.3619877" lon="9.2342625"><ele>94.85714285714286</ele><time>2026-04-20T17:46:37.381Z</time></trkpt><trkpt lat="45.3619964" lon="9.2343597"><ele>94.71428571428572</ele><time>2026-04-20T17:46:38.39Z</time></trkpt><trkpt lat="45.3620068" lon="9.2344616"><ele>94.57142857142857</ele><time>2026-04-20T17:46:39.384Z</time></trkpt><trkpt lat="45.3620167" lon="9.2345567"><ele>94.42857142857143</ele><time>2026-04-20T17:46:40.387Z</time></trkpt><trkpt lat="45.3620243" lon="9.2346492"><ele>94.28571428571428</ele><time>2026-04-20T17:46:41.393Z</time></trkpt><trkpt lat="45.3620288" lon="9.2347479"><ele>94.14285714285714</ele><time>2026-04-20T17:46:42.389Z</time></trkpt><trkpt lat="45.3620393" lon="9.2348392"><ele>94.0</ele><time>2026-04-20T17:46:43.385Z</time></trkpt><trkpt lat="45.3620559" lon="9.2350155"><ele>94.0</ele><time>2026-04-20T17:46:45.391Z</time></trkpt><trkpt lat="45.3620605" lon="9.2351054"><ele>94.0</ele><time>2026-04-20T17:46:46.382Z</time></trkpt><trkpt lat="45.3620655" lon="9.2352782"><ele>94.0</ele><time>2026-04-20T17:46:48.391Z</time></trkpt><trkpt lat="45.3620589" lon="9.2354579"><ele>94.0</ele><time>2026-04-20T17:46:50.387Z</time></trkpt><trkpt lat="45.3620345" lon="9.2355474"><ele>94.0</ele><time>2026-04-20T17:46:51.389Z</time></trkpt><trkpt lat="45.3619424" lon="9.2356682"><ele>94.4</ele><time>2026-04-20T17:46:53.388Z</time></trkpt><trkpt lat="45.3618316" lon="9.2357189"><ele>94.80000000000001</ele><time>2026-04-20T17:46:55.387Z</time></trkpt><trkpt lat="45.3617352" lon="9.2357997"><ele>95.19999999999999</ele><time>2026-04-20T17:46:57.385Z</time></trkpt><trkpt lat="45.3616709" lon="9.23596"><ele>95.6</ele><time>2026-04-20T17:46:59.39Z</time></trkpt><trkpt lat="45.3616557" lon="9.2360572"><ele>96.0</ele><time>2026-04-20T17:47:00.388Z</time></trkpt><trkpt lat="45.3616565" lon="9.2361506"><ele>96.0</ele><time>2026-04-20T17:47:01.389Z</time></trkpt><trkpt lat="45.3616665" lon="9.2362409"><ele>96.0</ele><time>2026-04-20T17:47:02.393Z</time></trkpt><trkpt lat="45.3616725" lon="9.2363328"><ele>96.0</ele><time>2026-04-20T17:47:03.384Z</time></trkpt><trkpt lat="45.3616742" lon="9.2364241"><ele>96.0</ele><time>2026-04-20T17:47:04.39Z</time></trkpt><trkpt lat="45.3616665" lon="9.2365157"><ele>96.0</ele><time>2026-04-20T17:47:05.394Z</time></trkpt><trkpt lat="45.361644" lon="9.2366911"><ele>96.0</ele><time>2026-04-20T17:47:07.393Z</time></trkpt><trkpt lat="45.3616301" lon="9.2368617"><ele>95.6</ele><time>2026-04-20T17:47:09.386Z</time></trkpt><trkpt lat="45.3616147" lon="9.2370255"><ele>95.19999999999999</ele><time>2026-04-20T17:47:11.389Z</time></trkpt><trkpt lat="45.3615954" lon="9.2371807"><ele>94.80000000000001</ele><time>2026-04-20T17:47:13.39Z</time></trkpt><trkpt lat="45.3615843" lon="9.2373385"><ele>94.4</ele><time>2026-04-20T17:47:15.391Z</time></trkpt><trkpt lat="45.3615723" lon="9.2374616"><ele>94.0</ele><time>2026-04-20T17:47:17.387Z</time></trkpt><trkpt lat="45.3615588" lon="9.2376021"><ele>93.66666666666666</ele><time>2026-04-20T17:47:19.388Z</time></trkpt><trkpt lat="45.3615454" lon="9.237733"><ele>93.33333333333333</ele><time>2026-04-20T17:47:21.392Z</time></trkpt><trkpt lat="45.3615323" lon="9.2378667"><ele>93.0</ele><time>2026-04-20T17:47:23.391Z</time></trkpt><trkpt lat="45.361521" lon="9.2379915"><ele>92.66666666666667</ele><time>2026-04-20T17:47:25.397Z</time></trkpt><trkpt lat="45.3615286" lon="9.2380934"><ele>92.33333333333334</ele><time>2026-04-20T17:47:27.395Z</time></trkpt><trkpt lat="45.3615741" lon="9.238178"><ele>92.0</ele><time>2026-04-20T17:47:29.387Z</time></trkpt><trkpt lat="45.3616265" lon="9.2382439"><ele>92.0</ele><time>2026-04-20T17:47:31.39Z</time></trkpt><trkpt lat="45.3616174" lon="9.2383461"><ele>92.0</ele><time>2026-04-20T17:47:36.38Z</time></trkpt><trkpt lat="45.3616349" lon="9.238469"><ele>92.0</ele><time>2026-04-20T17:47:39.383Z</time></trkpt><trkpt lat="45.361656" lon="9.2385909"><ele>92.0</ele><time>2026-04-20T17:47:41.39Z</time></trkpt><trkpt lat="45.3616735" lon="9.2387178"><ele>92.0</ele><time>2026-04-20T17:47:43.387Z</time></trkpt><trkpt lat="45.3616866" lon="9.23884"><ele>92.0</ele><time>2026-04-20T17:47:45.386Z</time></trkpt><trkpt lat="45.3617066" lon="9.2390858"><ele>92.19999999999999</ele><time>2026-04-20T17:47:49.387Z</time></trkpt><trkpt lat="45.3617173" lon="9.2392228"><ele>92.4</ele><time>2026-04-20T17:47:51.387Z</time></trkpt><trkpt lat="45.3617406" lon="9.2394125"><ele>92.6</ele><time>2026-04-20T17:47:54.386Z</time></trkpt><trkpt lat="45.361757" lon="9.2395513"><ele>92.80000000000001</ele><time>2026-04-20T17:47:56.386Z</time></trkpt><trkpt lat="45.3617758" lon="9.2396967"><ele>93.0</ele><time>2026-04-20T17:47:58.379Z</time></trkpt><trkpt lat="45.3617955" lon="9.2398346"><ele>93.2</ele><time>2026-04-20T17:48:00.389Z</time></trkpt><trkpt lat="45.3618208" lon="9.2399737"><ele>93.4</ele><time>2026-04-20T17:48:02.387Z</time></trkpt><trkpt lat="45.3618388" lon="9.2401169"><ele>93.60000000000001</ele><time>2026-04-20T17:48:04.392Z</time></trkpt><trkpt lat="45.3618531" lon="9.2402601"><ele>93.80000000000001</ele><time>2026-04-20T17:48:06.384Z</time></trkpt><trkpt lat="45.361883" lon="9.2403995"><ele>94.0</ele><time>2026-04-20T17:48:08.384Z</time></trkpt><trkpt lat="45.3619115" lon="9.240542"><ele>94.2</ele><time>2026-04-20T17:48:10.392Z</time></trkpt><trkpt lat="45.3619508" lon="9.2406834"><ele>94.4</ele><time>2026-04-20T17:48:12.386Z</time></trkpt><trkpt lat="45.3619939" lon="9.2408231"><ele>94.6</ele><time>2026-04-20T17:48:14.386Z</time></trkpt><trkpt lat="45.3620355" lon="9.2409445"><ele>94.8</ele><time>2026-04-20T17:48:16.383Z</time></trkpt><trkpt lat="45.3620885" lon="9.2410929"><ele>95.0</ele><time>2026-04-20T17:48:18.408Z</time></trkpt><trkpt lat="45.3621426" lon="9.2412246"><ele>95.0</ele><time>2026-04-20T17:48:20.387Z</time></trkpt><trkpt lat="45.3621895" lon="9.2413573"><ele>95.0</ele><time>2026-04-20T17:48:22.392Z</time></trkpt><trkpt lat="45.3622372" lon="9.2414879"><ele>95.0</ele><time>2026-04-20T17:48:24.388Z</time></trkpt><trkpt lat="45.3622739" lon="9.2416226"><ele>95.0</ele><time>2026-04-20T17:48:26.39Z</time></trkpt><trkpt lat="45.3623193" lon="9.2417661"><ele>95.0</ele><time>2026-04-20T17:48:28.388Z</time></trkpt><trkpt lat="45.3623631" lon="9.2418854"><ele>95.0</ele><time>2026-04-20T17:48:30.382Z</time></trkpt><trkpt lat="45.3624062" lon="9.2420123"><ele>95.0</ele><time>2026-04-20T17:48:32.386Z</time></trkpt><trkpt lat="45.3624535" lon="9.2421392"><ele>95.0</ele><time>2026-04-20T17:48:34.383Z</time></trkpt><trkpt lat="45.3624972" lon="9.2422571"><ele>95.0</ele><time>2026-04-20T17:48:36.39Z</time></trkpt><trkpt lat="45.3625544" lon="9.2423724"><ele>95.0</ele><time>2026-04-20T17:48:38.388Z</time></trkpt><trkpt lat="45.3626363" lon="9.2424325"><ele>94.6</ele><time>2026-04-20T17:48:40.393Z</time></trkpt><trkpt lat="45.3627408" lon="9.242437"><ele>94.2</ele><time>2026-04-20T17:48:42.393Z</time></trkpt><trkpt lat="45.3628298" lon="9.2425091"><ele>93.80000000000001</ele><time>2026-04-20T17:48:44.39Z</time></trkpt><trkpt lat="45.3628767" lon="9.242624"><ele>93.4</ele><time>2026-04-20T17:48:46.387Z</time></trkpt><trkpt lat="45.3629152" lon="9.2427502"><ele>93.0</ele><time>2026-04-20T17:48:48.384Z</time></trkpt><trkpt lat="45.3629515" lon="9.2428856"><ele>93.0</ele><time>2026-04-20T17:48:50.391Z</time></trkpt><trkpt lat="45.3629802" lon="9.243024"><ele>93.0</ele><time>2026-04-20T17:48:52.389Z</time></trkpt><trkpt lat="45.363005" lon="9.2431613"><ele>93.0</ele><time>2026-04-20T17:48:54.388Z</time></trkpt><trkpt lat="45.3630252" lon="9.2432964"><ele>93.0</ele><time>2026-04-20T17:48:56.39Z</time></trkpt><trkpt lat="45.363047" lon="9.2434386"><ele>93.0</ele><time>2026-04-20T17:48:58.385Z</time></trkpt><trkpt lat="45.3630778" lon="9.2435755"><ele>93.2</ele><time>2026-04-20T17:49:00.386Z</time></trkpt><trkpt lat="45.363107" lon="9.2437121"><ele>93.4</ele><time>2026-04-20T17:49:02.38Z</time></trkpt><trkpt lat="45.3631426" lon="9.2438444"><ele>93.60000000000001</ele><time>2026-04-20T17:49:04.388Z</time></trkpt><trkpt lat="45.3631669" lon="9.2439844"><ele>93.80000000000001</ele><time>2026-04-20T17:49:06.386Z</time></trkpt><trkpt lat="45.3631896" lon="9.244121"><ele>94.0</ele><time>2026-04-20T17:49:08.383Z</time></trkpt><trkpt lat="45.363214" lon="9.2442544"><ele>94.2</ele><time>2026-04-20T17:49:10.391Z</time></trkpt><trkpt lat="45.3632393" lon="9.2443941"><ele>94.4</ele><time>2026-04-20T17:49:12.389Z</time></trkpt><trkpt lat="45.3632668" lon="9.2445375"><ele>94.6</ele><time>2026-04-20T17:49:14.385Z</time></trkpt><trkpt lat="45.3632884" lon="9.2446645"><ele>94.8</ele><time>2026-04-20T17:49:16.391Z</time></trkpt><trkpt lat="45.3633119" lon="9.2448054"><ele>95.0</ele><time>2026-04-20T17:49:18.39Z</time></trkpt><trkpt lat="45.3633321" lon="9.2449543"><ele>94.6</ele><time>2026-04-20T17:49:20.386Z</time></trkpt><trkpt lat="45.3633598" lon="9.2451001"><ele>94.2</ele><time>2026-04-20T17:49:22.384Z</time></trkpt><trkpt lat="45.3633841" lon="9.2452457"><ele>93.80000000000001</ele><time>2026-04-20T17:49:24.384Z</time></trkpt><trkpt lat="45.3634099" lon="9.245394"><ele>93.4</ele><time>2026-04-20T17:49:26.382Z</time></trkpt><trkpt lat="45.3634433" lon="9.245533"><ele>93.0</ele><time>2026-04-20T17:49:28.387Z</time></trkpt><trkpt lat="45.3634953" lon="9.2456678"><ele>93.0</ele><time>2026-04-20T17:49:30.389Z</time></trkpt><trkpt lat="45.3635578" lon="9.2457869"><ele>93.0</ele><time>2026-04-20T17:49:32.383Z</time></trkpt><trkpt lat="45.3636254" lon="9.2459162"><ele>93.0</ele><time>2026-04-20T17:49:34.383Z</time></trkpt><trkpt lat="45.3636971" lon="9.2460364"><ele>93.0</ele><time>2026-04-20T17:49:36.39Z</time></trkpt><trkpt lat="45.3637641" lon="9.2461558"><ele>93.0</ele><time>2026-04-20T17:49:38.385Z</time></trkpt><trkpt lat="45.363832" lon="9.2462661"><ele>93.0</ele><time>2026-04-20T17:49:40.389Z</time></trkpt><trkpt lat="45.363903" lon="9.2463807"><ele>93.0</ele><time>2026-04-20T17:49:42.382Z</time></trkpt><trkpt lat="45.3639743" lon="9.2464917"><ele>93.0</ele><time>2026-04-20T17:49:44.385Z</time></trkpt><trkpt lat="45.3640461" lon="9.246606"><ele>93.0</ele><time>2026-04-20T17:49:46.384Z</time></trkpt><trkpt lat="45.3641203" lon="9.2467188"><ele>93.0</ele><time>2026-04-20T17:49:48.401Z</time></trkpt><trkpt lat="45.3641974" lon="9.2468188"><ele>93.0</ele><time>2026-04-20T17:49:50.393Z</time></trkpt><trkpt lat="45.3642789" lon="9.2469111"><ele>93.0</ele><time>2026-04-20T17:49:52.386Z</time></trkpt><trkpt lat="45.364346" lon="9.2470073"><ele>93.0</ele><time>2026-04-20T17:49:54.388Z</time></trkpt><trkpt lat="45.3644132" lon="9.2471244"><ele>93.0</ele><time>2026-04-20T17:49:56.395Z</time></trkpt><trkpt lat="45.3644905" lon="9.2472198"><ele>93.0</ele><time>2026-04-20T17:49:58.388Z</time></trkpt><trkpt lat="45.364577" lon="9.2473028"><ele>93.0</ele><time>2026-04-20T17:50:00.388Z</time></trkpt><trkpt lat="45.3646577" lon="9.2473888"><ele>93.0</ele><time>2026-04-20T17:50:02.387Z</time></trkpt><trkpt lat="45.3647459" lon="9.2474763"><ele>93.0</ele><time>2026-04-20T17:50:04.383Z</time></trkpt><trkpt lat="45.3648338" lon="9.247552"><ele>93.0</ele><time>2026-04-20T17:50:06.389Z</time></trkpt><trkpt lat="45.3649181" lon="9.2476167"><ele>93.0</ele><time>2026-04-20T17:50:08.381Z</time></trkpt><trkpt lat="45.3650077" lon="9.2476803"><ele>93.33333333333333</ele><time>2026-04-20T17:50:10.39Z</time></trkpt><trkpt lat="45.3650962" lon="9.2477399"><ele>93.66666666666667</ele><time>2026-04-20T17:50:12.386Z</time></trkpt><trkpt lat="45.3651775" lon="9.2477893"><ele>94.0</ele><time>2026-04-20T17:50:14.392Z</time></trkpt><trkpt lat="45.3652544" lon="9.2478371"><ele>94.33333333333334</ele><time>2026-04-20T17:50:16.387Z</time></trkpt><trkpt lat="45.3653221" lon="9.2478799"><ele>94.66666666666667</ele><time>2026-04-20T17:50:18.387Z</time></trkpt><trkpt lat="45.3653855" lon="9.2479055"><ele>95.0</ele><time>2026-04-20T17:50:20.391Z</time></trkpt><trkpt lat="45.3654853" lon="9.2478874"><ele>94.4</ele><time>2026-04-20T17:50:22.391Z</time></trkpt><trkpt lat="45.3655804" lon="9.2478595"><ele>93.8</ele><time>2026-04-20T17:50:24.392Z</time></trkpt><trkpt lat="45.3656798" lon="9.2478639"><ele>93.19999999999999</ele><time>2026-04-20T17:50:26.388Z</time></trkpt><trkpt lat="45.3657683" lon="9.2479307"><ele>92.6</ele><time>2026-04-20T17:50:28.385Z</time></trkpt><trkpt lat="45.3658616" lon="9.2480035"><ele>92.0</ele><time>2026-04-20T17:50:30.384Z</time></trkpt><trkpt lat="45.3659463" lon="9.2480913"><ele>92.0</ele><time>2026-04-20T17:50:32.4Z</time></trkpt><trkpt lat="45.3660327" lon="9.2481781"><ele>92.0</ele><time>2026-04-20T17:50:34.387Z</time></trkpt><trkpt lat="45.3661144" lon="9.2482622"><ele>92.0</ele><time>2026-04-20T17:50:36.39Z</time></trkpt><trkpt lat="45.3661999" lon="9.2483465"><ele>92.0</ele><time>2026-04-20T17:50:38.384Z</time></trkpt><trkpt lat="45.3662815" lon="9.2484216"><ele>92.0</ele><time>2026-04-20T17:50:40.39Z</time></trkpt><trkpt lat="45.3663662" lon="9.2484717"><ele>92.0</ele><time>2026-04-20T17:50:42.39Z</time></trkpt><trkpt lat="45.3664563" lon="9.2484726"><ele>92.0</ele><time>2026-04-20T17:50:44.383Z</time></trkpt><trkpt lat="45.3665406" lon="9.2484399"><ele>92.0</ele><time>2026-04-20T17:50:46.386Z</time></trkpt><trkpt lat="45.3666218" lon="9.2484258"><ele>92.0</ele><time>2026-04-20T17:50:48.387Z</time></trkpt><trkpt lat="45.366712" lon="9.2484489"><ele>92.0</ele><time>2026-04-20T17:50:50.389Z</time></trkpt><trkpt lat="45.3667972" lon="9.2485105"><ele>92.0</ele><time>2026-04-20T17:50:52.382Z</time></trkpt><trkpt lat="45.3668845" lon="9.2485927"><ele>92.0</ele><time>2026-04-20T17:50:54.383Z</time></trkpt><trkpt lat="45.3669595" lon="9.2486926"><ele>92.0</ele><time>2026-04-20T17:50:56.38Z</time></trkpt><trkpt lat="45.3670277" lon="9.248778"><ele>92.0</ele><time>2026-04-20T17:50:58.389Z</time></trkpt><trkpt lat="45.367102" lon="9.2488712"><ele>92.0</ele><time>2026-04-20T17:51:00.389Z</time></trkpt><trkpt lat="45.3671771" lon="9.2489515"><ele>92.0</ele><time>2026-04-20T17:51:02.384Z</time></trkpt><trkpt lat="45.3672474" lon="9.2490396"><ele>92.66666666666667</ele><time>2026-04-20T17:51:04.412Z</time></trkpt><trkpt lat="45.3673161" lon="9.2491284"><ele>93.33333333333334</ele><time>2026-04-20T17:51:06.384Z</time></trkpt><trkpt lat="45.3673715" lon="9.249221"><ele>94.0</ele><time>2026-04-20T17:51:08.395Z</time></trkpt><trkpt lat="45.3673916" lon="9.2493316"><ele>94.66666666666667</ele><time>2026-04-20T17:51:11.391Z</time></trkpt><trkpt lat="45.367381" lon="9.2494217"><ele>95.33333333333333</ele><time>2026-04-20T17:51:15.392Z</time></trkpt><trkpt lat="45.3674016" lon="9.2495474"><ele>96.0</ele><time>2026-04-20T17:51:18.388Z</time></trkpt><trkpt lat="45.3674034" lon="9.249646"><ele>96.0</ele><time>2026-04-20T17:51:20.383Z</time></trkpt><trkpt lat="45.3674182" lon="9.2497403"><ele>96.0</ele><time>2026-04-20T17:51:22.387Z</time></trkpt><trkpt lat="45.3674466" lon="9.249843"><ele>96.0</ele><time>2026-04-20T17:51:25.387Z</time></trkpt><trkpt lat="45.3674939" lon="9.2499592"><ele>96.0</ele><time>2026-04-20T17:51:28.391Z</time></trkpt><trkpt lat="45.3675271" lon="9.2500694"><ele>96.0</ele><time>2026-04-20T17:51:30.388Z</time></trkpt><trkpt lat="45.3675695" lon="9.250183"><ele>96.0</ele><time>2026-04-20T17:51:32.387Z</time></trkpt><trkpt lat="45.3676143" lon="9.2503017"><ele>96.0</ele><time>2026-04-20T17:51:34.386Z</time></trkpt><trkpt lat="45.3676537" lon="9.2504152"><ele>96.0</ele><time>2026-04-20T17:51:36.389Z</time></trkpt><trkpt lat="45.3676984" lon="9.2505198"><ele>96.0</ele><time>2026-04-20T17:51:38.386Z</time></trkpt><trkpt lat="45.3677452" lon="9.2506383"><ele>96.0</ele><time>2026-04-20T17:51:40.381Z</time></trkpt><trkpt lat="45.367788" lon="9.2507428"><ele>96.0</ele><time>2026-04-20T17:51:42.389Z</time></trkpt><trkpt lat="45.3678237" lon="9.2508631"><ele>96.0</ele><time>2026-04-20T17:51:44.391Z</time></trkpt><trkpt lat="45.3678612" lon="9.2509903"><ele>96.19999999999999</ele><time>2026-04-20T17:51:46.385Z</time></trkpt><trkpt lat="45.367879" lon="9.2511157"><ele>96.39999999999999</ele><time>2026-04-20T17:51:48.384Z</time></trkpt><trkpt lat="45.3678843" lon="9.2512385"><ele>96.6</ele><time>2026-04-20T17:51:50.391Z</time></trkpt><trkpt lat="45.367886" lon="9.2513773"><ele>96.8</ele><time>2026-04-20T17:51:52.385Z</time></trkpt><trkpt lat="45.3678632" lon="9.2515043"><ele>97.0</ele><time>2026-04-20T17:51:54.387Z</time></trkpt><trkpt lat="45.367799" lon="9.2515877"><ele>96.66666666666667</ele><time>2026-04-20T17:51:56.383Z</time></trkpt><trkpt lat="45.367718" lon="9.2516167"><ele>96.33333333333334</ele><time>2026-04-20T17:51:58.382Z</time></trkpt><trkpt lat="45.3676378" lon="9.2516589"><ele>96.0</ele><time>2026-04-20T17:52:00.386Z</time></trkpt><trkpt lat="45.3675645" lon="9.251708"><ele>95.66666666666667</ele><time>2026-04-20T17:52:02.383Z</time></trkpt><trkpt lat="45.3675465" lon="9.2518164"><ele>95.33333333333334</ele><time>2026-04-20T17:52:04.384Z</time></trkpt><trkpt lat="45.36759" lon="9.2519222"><ele>95.0</ele><time>2026-04-20T17:52:06.386Z</time></trkpt><trkpt lat="45.3676309" lon="9.2520308"><ele>95.0</ele><time>2026-04-20T17:52:08.385Z</time></trkpt><trkpt lat="45.3676749" lon="9.2521473"><ele>95.0</ele><time>2026-04-20T17:52:10.386Z</time></trkpt><trkpt lat="45.3677135" lon="9.2522568"><ele>95.0</ele><time>2026-04-20T17:52:12.385Z</time></trkpt><trkpt lat="45.3677651" lon="9.2523461"><ele>95.0</ele><time>2026-04-20T17:52:14.389Z</time></trkpt><trkpt lat="45.3678208" lon="9.2524548"><ele>95.0</ele><time>2026-04-20T17:52:16.385Z</time></trkpt><trkpt lat="45.3678722" lon="9.25256"><ele>95.0</ele><time>2026-04-20T17:52:18.388Z</time></trkpt><trkpt lat="45.3679155" lon="9.2526789"><ele>94.8</ele><time>2026-04-20T17:52:20.383Z</time></trkpt><trkpt lat="45.3679602" lon="9.2527848"><ele>94.6</ele><time>2026-04-20T17:52:22.386Z</time></trkpt><trkpt lat="45.368009" lon="9.2528977"><ele>94.4</ele><time>2026-04-20T17:52:24.381Z</time></trkpt><trkpt lat="45.3680588" lon="9.2530108"><ele>94.2</ele><time>2026-04-20T17:52:26.382Z</time></trkpt><trkpt lat="45.3680968" lon="9.2531172"><ele>94.0</ele><time>2026-04-20T17:52:28.392Z</time></trkpt><trkpt lat="45.3681487" lon="9.2532276"><ele>93.80000000000001</ele><time>2026-04-20T17:52:30.388Z</time></trkpt><trkpt lat="45.3681969" lon="9.2533398"><ele>93.60000000000001</ele><time>2026-04-20T17:52:32.383Z</time></trkpt><trkpt lat="45.3682355" lon="9.2534514"><ele>93.4</ele><time>2026-04-20T17:52:34.382Z</time></trkpt><trkpt lat="45.3682862" lon="9.2535646"><ele>93.2</ele><time>2026-04-20T17:52:36.387Z</time></trkpt><trkpt lat="45.3683311" lon="9.2536729"><ele>93.0</ele><time>2026-04-20T17:52:38.387Z</time></trkpt><trkpt lat="45.3683844" lon="9.2537881"><ele>93.0</ele><time>2026-04-20T17:52:40.391Z</time></trkpt><trkpt lat="45.3684349" lon="9.253908"><ele>93.0</ele><time>2026-04-20T17:52:42.382Z</time></trkpt><trkpt lat="45.3684887" lon="9.2540135"><ele>93.0</ele><time>2026-04-20T17:52:44.391Z</time></trkpt><trkpt lat="45.3685338" lon="9.2541176"><ele>93.0</ele><time>2026-04-20T17:52:46.388Z</time></trkpt><trkpt lat="45.3685817" lon="9.2542256"><ele>93.0</ele><time>2026-04-20T17:52:48.388Z</time></trkpt><trkpt lat="45.3686328" lon="9.2543337"><ele>93.2</ele><time>2026-04-20T17:52:50.39Z</time></trkpt><trkpt lat="45.3686798" lon="9.2544563"><ele>93.4</ele><time>2026-04-20T17:52:52.389Z</time></trkpt><trkpt lat="45.3687284" lon="9.2545647"><ele>93.60000000000001</ele><time>2026-04-20T17:52:54.388Z</time></trkpt><trkpt lat="45.3687782" lon="9.2546739"><ele>93.80000000000001</ele><time>2026-04-20T17:52:56.396Z</time></trkpt><trkpt lat="45.3688219" lon="9.254789"><ele>94.0</ele><time>2026-04-20T17:52:58.387Z</time></trkpt><trkpt lat="45.3688751" lon="9.2548987"><ele>94.0</ele><time>2026-04-20T17:53:00.389Z</time></trkpt><trkpt lat="45.3689215" lon="9.255005"><ele>94.0</ele><time>2026-04-20T17:53:02.389Z</time></trkpt><trkpt lat="45.3689672" lon="9.2551154"><ele>94.0</ele><time>2026-04-20T17:53:04.389Z</time></trkpt><trkpt lat="45.36901" lon="9.2552286"><ele>94.0</ele><time>2026-04-20T17:53:06.386Z</time></trkpt><trkpt lat="45.369047" lon="9.2553465"><ele>94.0</ele><time>2026-04-20T17:53:08.387Z</time></trkpt><trkpt lat="45.3690866" lon="9.2554539"><ele>94.0</ele><time>2026-04-20T17:53:10.389Z</time></trkpt><trkpt lat="45.3691287" lon="9.2555558"><ele>94.0</ele><time>2026-04-20T17:53:12.384Z</time></trkpt><trkpt lat="45.3691775" lon="9.2556623"><ele>94.0</ele><time>2026-04-20T17:53:14.398Z</time></trkpt><trkpt lat="45.3692433" lon="9.2557467"><ele>94.0</ele><time>2026-04-20T17:53:16.389Z</time></trkpt><trkpt lat="45.3693445" lon="9.2557552"><ele>94.0</ele><time>2026-04-20T17:53:18.381Z</time></trkpt><trkpt lat="45.3694276" lon="9.2557172"><ele>94.0</ele><time>2026-04-20T17:53:20.382Z</time></trkpt><trkpt lat="45.3695168" lon="9.2556686"><ele>94.0</ele><time>2026-04-20T17:53:22.385Z</time></trkpt><trkpt lat="45.3695988" lon="9.2556324"><ele>94.0</ele><time>2026-04-20T17:53:24.386Z</time></trkpt><trkpt lat="45.3696789" lon="9.2556016"><ele>94.0</ele><time>2026-04-20T17:53:26.386Z</time></trkpt><trkpt lat="45.3697648" lon="9.2555518"><ele>94.0</ele><time>2026-04-20T17:53:28.38Z</time></trkpt><trkpt lat="45.3698495" lon="9.2555187"><ele>94.0</ele><time>2026-04-20T17:53:30.383Z</time></trkpt><trkpt lat="45.3699304" lon="9.255482"><ele>94.0</ele><time>2026-04-20T17:53:32.387Z</time></trkpt><trkpt lat="45.3700182" lon="9.2554484"><ele>94.0</ele><time>2026-04-20T17:53:34.383Z</time></trkpt><trkpt lat="45.3701013" lon="9.2554101"><ele>94.0</ele><time>2026-04-20T17:53:36.381Z</time></trkpt><trkpt lat="45.370186" lon="9.255381"><ele>94.0</ele><time>2026-04-20T17:53:38.385Z</time></trkpt><trkpt lat="45.3702676" lon="9.2553595"><ele>94.0</ele><time>2026-04-20T17:53:40.39Z</time></trkpt><trkpt lat="45.370344" lon="9.2553277"><ele>94.0</ele><time>2026-04-20T17:53:42.388Z</time></trkpt><trkpt lat="45.3704224" lon="9.255292"><ele>94.0</ele><time>2026-04-20T17:53:44.393Z</time></trkpt><trkpt lat="45.370508" lon="9.2552572"><ele>94.0</ele><time>2026-04-20T17:53:46.391Z</time></trkpt><trkpt lat="45.3705986" lon="9.255268"><ele>94.0</ele><time>2026-04-20T17:53:48.389Z</time></trkpt><trkpt lat="45.3706668" lon="9.2553589"><ele>94.0</ele><time>2026-04-20T17:53:50.383Z</time></trkpt><trkpt lat="45.3707215" lon="9.2554449"><ele>94.0</ele><time>2026-04-20T17:53:52.382Z</time></trkpt><trkpt lat="45.370776" lon="9.2555397"><ele>94.0</ele><time>2026-04-20T17:53:54.39Z</time></trkpt><trkpt lat="45.3708228" lon="9.2556463"><ele>94.0</ele><time>2026-04-20T17:53:56.389Z</time></trkpt><trkpt lat="45.3708714" lon="9.2557496"><ele>94.0</ele><time>2026-04-20T17:53:58.391Z</time></trkpt><trkpt lat="45.3709252" lon="9.2558473"><ele>94.0</ele><time>2026-04-20T17:54:00.393Z</time></trkpt><trkpt lat="45.3709773" lon="9.2559444"><ele>94.0</ele><time>2026-04-20T17:54:02.386Z</time></trkpt><trkpt lat="45.3710337" lon="9.256046"><ele>94.0</ele><time>2026-04-20T17:54:04.388Z</time></trkpt><trkpt lat="45.3710775" lon="9.256153"><ele>94.0</ele><time>2026-04-20T17:54:06.39Z</time></trkpt><trkpt lat="45.371133" lon="9.2562466"><ele>94.0</ele><time>2026-04-20T17:54:08.39Z</time></trkpt><trkpt lat="45.3711925" lon="9.2563482"><ele>94.0</ele><time>2026-04-20T17:54:10.39Z</time></trkpt><trkpt lat="45.3712455" lon="9.2564514"><ele>94.0</ele><time>2026-04-20T17:54:12.388Z</time></trkpt><trkpt lat="45.3712965" lon="9.2565616"><ele>94.0</ele><time>2026-04-20T17:54:14.396Z</time></trkpt><trkpt lat="45.3713514" lon="9.2566626"><ele>94.0</ele><time>2026-04-20T17:54:16.387Z</time></trkpt><trkpt lat="45.3714088" lon="9.2567595"><ele>94.0</ele><time>2026-04-20T17:54:18.385Z</time></trkpt><trkpt lat="45.3714688" lon="9.2568605"><ele>94.0</ele><time>2026-04-20T17:54:20.394Z</time></trkpt><trkpt lat="45.3715174" lon="9.2569584"><ele>94.0</ele><time>2026-04-20T17:54:22.387Z</time></trkpt><trkpt lat="45.3715639" lon="9.2570633"><ele>94.0</ele><time>2026-04-20T17:54:24.391Z</time></trkpt><trkpt lat="45.3716121" lon="9.2571657"><ele>94.0</ele><time>2026-04-20T17:54:26.383Z</time></trkpt><trkpt lat="45.3716567" lon="9.2572749"><ele>94.0</ele><time>2026-04-20T17:54:28.385Z</time></trkpt><trkpt lat="45.3717068" lon="9.2573796"><ele>94.0</ele><time>2026-04-20T17:54:30.394Z</time></trkpt><trkpt lat="45.3717579" lon="9.2574824"><ele>94.0</ele><time>2026-04-20T17:54:32.385Z</time></trkpt><trkpt lat="45.3718115" lon="9.2575834"><ele>94.0</ele><time>2026-04-20T17:54:34.386Z</time></trkpt><trkpt lat="45.3718591" lon="9.2576858"><ele>94.0</ele><time>2026-04-20T17:54:36.384Z</time></trkpt><trkpt lat="45.371905" lon="9.2577871"><ele>94.0</ele><time>2026-04-20T17:54:38.392Z</time></trkpt><trkpt lat="45.3719576" lon="9.2578934"><ele>94.0</ele><time>2026-04-20T17:54:40.391Z</time></trkpt><trkpt lat="45.3720113" lon="9.2579986"><ele>94.0</ele><time>2026-04-20T17:54:42.381Z</time></trkpt><trkpt lat="45.3720602" lon="9.2580952"><ele>94.16666666666666</ele><time>2026-04-20T17:54:44.39Z</time></trkpt><trkpt lat="45.3721076" lon="9.258197"><ele>94.33333333333333</ele><time>2026-04-20T17:54:46.386Z</time></trkpt><trkpt lat="45.3721585" lon="9.2583037"><ele>94.5</ele><time>2026-04-20T17:54:48.387Z</time></trkpt><trkpt lat="45.3722021" lon="9.2584074"><ele>94.66666666666667</ele><time>2026-04-20T17:54:50.394Z</time></trkpt><trkpt lat="45.3722451" lon="9.2585161"><ele>94.83333333333334</ele><time>2026-04-20T17:54:52.391Z</time></trkpt><trkpt lat="45.3722871" lon="9.2586271"><ele>95.0</ele><time>2026-04-20T17:54:54.386Z</time></trkpt><trkpt lat="45.3723248" lon="9.258739"><ele>95.16666666666667</ele><time>2026-04-20T17:54:56.391Z</time></trkpt><trkpt lat="45.372364" lon="9.2588452"><ele>95.33333333333334</ele><time>2026-04-20T17:54:58.384Z</time></trkpt><trkpt lat="45.3724102" lon="9.2589422"><ele>95.5</ele><time>2026-04-20T17:55:00.388Z</time></trkpt><trkpt lat="45.3724628" lon="9.2590384"><ele>95.66666666666667</ele><time>2026-04-20T17:55:02.388Z</time></trkpt><trkpt lat="45.3725379" lon="9.2590816"><ele>95.83333333333333</ele><time>2026-04-20T17:55:04.387Z</time></trkpt><trkpt lat="45.372612" lon="9.2590566"><ele>96.0</ele><time>2026-04-20T17:55:06.391Z</time></trkpt><trkpt lat="45.372684" lon="9.2590019"><ele>96.0</ele><time>2026-04-20T17:55:08.382Z</time></trkpt><trkpt lat="45.3727529" lon="9.2589429"><ele>96.0</ele><time>2026-04-20T17:55:10.387Z</time></trkpt><trkpt lat="45.3728241" lon="9.2588983"><ele>96.0</ele><time>2026-04-20T17:55:12.383Z</time></trkpt><trkpt lat="45.3729005" lon="9.2588308"><ele>96.0</ele><time>2026-04-20T17:55:14.391Z</time></trkpt><trkpt lat="45.3729783" lon="9.2587751"><ele>96.0</ele><time>2026-04-20T17:55:16.394Z</time></trkpt><trkpt lat="45.3730498" lon="9.2587226"><ele>96.0</ele><time>2026-04-20T17:55:18.386Z</time></trkpt><trkpt lat="45.3731268" lon="9.2586608"><ele>95.66666666666667</ele><time>2026-04-20T17:55:20.393Z</time></trkpt><trkpt lat="45.3732031" lon="9.2586083"><ele>95.33333333333333</ele><time>2026-04-20T17:55:22.391Z</time></trkpt><trkpt lat="45.3732798" lon="9.2585787"><ele>95.0</ele><time>2026-04-20T17:55:24.384Z</time></trkpt><trkpt lat="45.3733619" lon="9.258565"><ele>94.66666666666666</ele><time>2026-04-20T17:55:26.39Z</time></trkpt><trkpt lat="45.373445" lon="9.2585438"><ele>94.33333333333333</ele><time>2026-04-20T17:55:28.388Z</time></trkpt><trkpt lat="45.3735277" lon="9.2585381"><ele>94.0</ele><time>2026-04-20T17:55:30.387Z</time></trkpt><trkpt lat="45.3736105" lon="9.2585171"><ele>94.0</ele><time>2026-04-20T17:55:32.386Z</time></trkpt><trkpt lat="45.3736978" lon="9.2585098"><ele>94.0</ele><time>2026-04-20T17:55:34.383Z</time></trkpt><trkpt lat="45.373786" lon="9.2585114"><ele>94.0</ele><time>2026-04-20T17:55:36.388Z</time></trkpt><trkpt lat="45.3738779" lon="9.2585254"><ele>94.0</ele><time>2026-04-20T17:55:38.385Z</time></trkpt><trkpt lat="45.3739705" lon="9.2585268"><ele>94.0</ele><time>2026-04-20T17:55:40.393Z</time></trkpt><trkpt lat="45.3740542" lon="9.2585454"><ele>94.0</ele><time>2026-04-20T17:55:42.399Z</time></trkpt><trkpt lat="45.3741388" lon="9.2585616"><ele>94.0</ele><time>2026-04-20T17:55:44.386Z</time></trkpt><trkpt lat="45.3742152" lon="9.2585779"><ele>94.0</ele><time>2026-04-20T17:55:46.383Z</time></trkpt><trkpt lat="45.3742938" lon="9.2585772"><ele>94.0</ele><time>2026-04-20T17:55:48.388Z</time></trkpt><trkpt lat="45.3743687" lon="9.2585921"><ele>94.0</ele><time>2026-04-20T17:55:50.385Z</time></trkpt><trkpt lat="45.374448" lon="9.2585896"><ele>94.0</ele><time>2026-04-20T17:55:52.388Z</time></trkpt><trkpt lat="45.3745252" lon="9.2585887"><ele>94.0</ele><time>2026-04-20T17:55:54.392Z</time></trkpt><trkpt lat="45.3746041" lon="9.2585844"><ele>94.33333333333333</ele><time>2026-04-20T17:55:56.388Z</time></trkpt><trkpt lat="45.3746951" lon="9.2585772"><ele>94.66666666666666</ele><time>2026-04-20T17:55:58.384Z</time></trkpt><trkpt lat="45.3747819" lon="9.2586033"><ele>95.0</ele><time>2026-04-20T17:56:00.392Z</time></trkpt><trkpt lat="45.3748705" lon="9.2585948"><ele>95.33333333333333</ele><time>2026-04-20T17:56:02.384Z</time></trkpt><trkpt lat="45.3749468" lon="9.2585994"><ele>95.66666666666667</ele><time>2026-04-20T17:56:04.39Z</time></trkpt><trkpt lat="45.3750227" lon="9.258606"><ele>96.0</ele><time>2026-04-20T17:56:06.383Z</time></trkpt><trkpt lat="45.3751032" lon="9.2586098"><ele>96.0</ele><time>2026-04-20T17:56:08.387Z</time></trkpt><trkpt lat="45.3751887" lon="9.2586057"><ele>96.0</ele><time>2026-04-20T17:56:10.395Z</time></trkpt><trkpt lat="45.3752708" lon="9.2586122"><ele>96.0</ele><time>2026-04-20T17:56:12.387Z</time></trkpt><trkpt lat="45.3753579" lon="9.2586185"><ele>96.0</ele><time>2026-04-20T17:56:14.384Z</time></trkpt><trkpt lat="45.3754537" lon="9.2586204"><ele>96.0</ele><time>2026-04-20T17:56:16.401Z</time></trkpt><trkpt lat="45.3755352" lon="9.2586248"><ele>96.0</ele><time>2026-04-20T17:56:18.382Z</time></trkpt><trkpt lat="45.3756209" lon="9.2586429"><ele>96.16666666666667</ele><time>2026-04-20T17:56:20.389Z</time></trkpt><trkpt lat="45.3757126" lon="9.258641"><ele>96.33333333333334</ele><time>2026-04-20T17:56:22.384Z</time></trkpt><trkpt lat="45.3757994" lon="9.2586549"><ele>96.5</ele><time>2026-04-20T17:56:24.389Z</time></trkpt><trkpt lat="45.375885" lon="9.2586544"><ele>96.66666666666667</ele><time>2026-04-20T17:56:26.387Z</time></trkpt><trkpt lat="45.375968" lon="9.2586506"><ele>96.83333333333334</ele><time>2026-04-20T17:56:28.394Z</time></trkpt><trkpt lat="45.3760453" lon="9.2586465"><ele>97.0</ele><time>2026-04-20T17:56:30.392Z</time></trkpt><trkpt lat="45.3761188" lon="9.258656"><ele>97.00000000000001</ele><time>2026-04-20T17:56:32.404Z</time></trkpt><trkpt lat="45.3761986" lon="9.2586581"><ele>97.0</ele><time>2026-04-20T17:56:34.385Z</time></trkpt><trkpt lat="45.3762829" lon="9.2586735"><ele>97.0</ele><time>2026-04-20T17:56:36.391Z</time></trkpt><trkpt lat="45.3763694" lon="9.2586767"><ele>97.0</ele><time>2026-04-20T17:56:38.39Z</time></trkpt><trkpt lat="45.3764625" lon="9.2587012"><ele>97.00000000000001</ele><time>2026-04-20T17:56:40.386Z</time></trkpt><trkpt lat="45.3765404" lon="9.2587182"><ele>97.0</ele><time>2026-04-20T17:56:42.387Z</time></trkpt><trkpt lat="45.3766115" lon="9.2587425"><ele>96.83333333333334</ele><time>2026-04-20T17:56:44.387Z</time></trkpt><trkpt lat="45.3766758" lon="9.2587913"><ele>96.66666666666667</ele><time>2026-04-20T17:56:46.387Z</time></trkpt><trkpt lat="45.3767395" lon="9.2588635"><ele>96.5</ele><time>2026-04-20T17:56:48.384Z</time></trkpt><trkpt lat="45.3768004" lon="9.2589377"><ele>96.33333333333334</ele><time>2026-04-20T17:56:50.39Z</time></trkpt><trkpt lat="45.376865" lon="9.2590027"><ele>96.16666666666667</ele><time>2026-04-20T17:56:52.384Z</time></trkpt><trkpt lat="45.3769321" lon="9.2590699"><ele>96.0</ele><time>2026-04-20T17:56:54.393Z</time></trkpt><trkpt lat="45.3770029" lon="9.2591337"><ele>96.0</ele><time>2026-04-20T17:56:56.392Z</time></trkpt><trkpt lat="45.3770758" lon="9.2592082"><ele>96.0</ele><time>2026-04-20T17:56:58.379Z</time></trkpt><trkpt lat="45.377137" lon="9.2592875"><ele>96.0</ele><time>2026-04-20T17:57:00.386Z</time></trkpt><trkpt lat="45.3772008" lon="9.2593657"><ele>96.0</ele><time>2026-04-20T17:57:02.387Z</time></trkpt><trkpt lat="45.3772604" lon="9.259456"><ele>96.0</ele><time>2026-04-20T17:57:04.383Z</time></trkpt><trkpt lat="45.3773188" lon="9.2595306"><ele>96.0</ele><time>2026-04-20T17:57:06.378Z</time></trkpt><trkpt lat="45.3773825" lon="9.2596173"><ele>96.0</ele><time>2026-04-20T17:57:08.382Z</time></trkpt><trkpt lat="45.3774401" lon="9.259708"><ele>96.0</ele><time>2026-04-20T17:57:10.384Z</time></trkpt><trkpt lat="45.3774913" lon="9.2598079"><ele>96.0</ele><time>2026-04-20T17:57:12.39Z</time></trkpt><trkpt lat="45.3775427" lon="9.2599041"><ele>96.0</ele><time>2026-04-20T17:57:14.38Z</time></trkpt><trkpt lat="45.3776041" lon="9.2599928"><ele>96.0</ele><time>2026-04-20T17:57:16.389Z</time></trkpt><trkpt lat="45.3776626" lon="9.260082"><ele>96.0</ele><time>2026-04-20T17:57:18.381Z</time></trkpt><trkpt lat="45.3777175" lon="9.2601737"><ele>96.0</ele><time>2026-04-20T17:57:20.391Z</time></trkpt><trkpt lat="45.3777736" lon="9.2602563"><ele>96.0</ele><time>2026-04-20T17:57:22.387Z</time></trkpt><trkpt lat="45.3778286" lon="9.2603435"><ele>96.0</ele><time>2026-04-20T17:57:24.385Z</time></trkpt><trkpt lat="45.3778833" lon="9.2604399"><ele>96.0</ele><time>2026-04-20T17:57:26.38Z</time></trkpt><trkpt lat="45.3779434" lon="9.2605321"><ele>96.0</ele><time>2026-04-20T17:57:28.38Z</time></trkpt><trkpt lat="45.3780009" lon="9.260621"><ele>96.0</ele><time>2026-04-20T17:57:30.386Z</time></trkpt><trkpt lat="45.3780608" lon="9.2607062"><ele>96.0</ele><time>2026-04-20T17:57:32.385Z</time></trkpt><trkpt lat="45.3781211" lon="9.2607922"><ele>96.0</ele><time>2026-04-20T17:57:34.388Z</time></trkpt><trkpt lat="45.378182" lon="9.2608787"><ele>96.0</ele><time>2026-04-20T17:57:36.387Z</time></trkpt><trkpt lat="45.3782369" lon="9.2609823"><ele>96.0</ele><time>2026-04-20T17:57:38.381Z</time></trkpt><trkpt lat="45.3782868" lon="9.2610783"><ele>96.0</ele><time>2026-04-20T17:57:40.383Z</time></trkpt><trkpt lat="45.3783384" lon="9.2611723"><ele>96.0</ele><time>2026-04-20T17:57:42.387Z</time></trkpt><trkpt lat="45.3783993" lon="9.2612532"><ele>96.0</ele><time>2026-04-20T17:57:44.385Z</time></trkpt><trkpt lat="45.378467" lon="9.2613364"><ele>96.0</ele><time>2026-04-20T17:57:46.389Z</time></trkpt><trkpt lat="45.378532" lon="9.2614257"><ele>96.0</ele><time>2026-04-20T17:57:48.387Z</time></trkpt><trkpt lat="45.3786003" lon="9.2615091"><ele>96.0</ele><time>2026-04-20T17:57:50.384Z</time></trkpt><trkpt lat="45.3786642" lon="9.2615823"><ele>96.0</ele><time>2026-04-20T17:57:52.385Z</time></trkpt><trkpt lat="45.3787312" lon="9.2616689"><ele>96.0</ele><time>2026-04-20T17:57:54.386Z</time></trkpt><trkpt lat="45.3787929" lon="9.2617517"><ele>96.0</ele><time>2026-04-20T17:57:56.385Z</time></trkpt><trkpt lat="45.3788569" lon="9.2618494"><ele>96.0</ele><time>2026-04-20T17:57:58.387Z</time></trkpt><trkpt lat="45.3789143" lon="9.2619331"><ele>96.0</ele><time>2026-04-20T17:58:00.386Z</time></trkpt><trkpt lat="45.3789785" lon="9.2620177"><ele>96.0</ele><time>2026-04-20T17:58:02.385Z</time></trkpt><trkpt lat="45.3790445" lon="9.2621237"><ele>96.0</ele><time>2026-04-20T17:58:05.38Z</time></trkpt><trkpt lat="45.3791015" lon="9.262198"><ele>96.0</ele><time>2026-04-20T17:58:08.388Z</time></trkpt><trkpt lat="45.3791455" lon="9.2622831"><ele>96.0</ele><time>2026-04-20T17:58:54.388Z</time></trkpt><trkpt lat="45.3791776" lon="9.262394"><ele>96.0</ele><time>2026-04-20T17:58:57.382Z</time></trkpt><trkpt lat="45.3792045" lon="9.2624782"><ele>96.0</ele><time>2026-04-20T17:58:59.382Z</time></trkpt><trkpt lat="45.3792389" lon="9.2625679"><ele>96.0</ele><time>2026-04-20T17:59:01.383Z</time></trkpt><trkpt lat="45.3792816" lon="9.2626632"><ele>96.0</ele><time>2026-04-20T17:59:03.379Z</time></trkpt><trkpt lat="45.3793219" lon="9.2627622"><ele>96.0</ele><time>2026-04-20T17:59:05.385Z</time></trkpt><trkpt lat="45.3793646" lon="9.2628625"><ele>96.0</ele><time>2026-04-20T17:59:07.382Z</time></trkpt><trkpt lat="45.3794095" lon="9.2629692"><ele>96.0</ele><time>2026-04-20T17:59:09.386Z</time></trkpt><trkpt lat="45.3794541" lon="9.2630754"><ele>96.0</ele><time>2026-04-20T17:59:11.382Z</time></trkpt><trkpt lat="45.3794968" lon="9.2631911"><ele>96.0</ele><time>2026-04-20T17:59:13.386Z</time></trkpt><trkpt lat="45.3795397" lon="9.2632926"><ele>96.0</ele><time>2026-04-20T17:59:15.386Z</time></trkpt><trkpt lat="45.37959" lon="9.2633959"><ele>96.0</ele><time>2026-04-20T17:59:17.389Z</time></trkpt><trkpt lat="45.3796327" lon="9.2635039"><ele>96.0</ele><time>2026-04-20T17:59:19.385Z</time></trkpt><trkpt lat="45.379681" lon="9.2636133"><ele>96.0</ele><time>2026-04-20T17:59:21.385Z</time></trkpt><trkpt lat="45.3797293" lon="9.2637119"><ele>96.0</ele><time>2026-04-20T17:59:23.386Z</time></trkpt><trkpt lat="45.3797741" lon="9.2638189"><ele>96.0</ele><time>2026-04-20T17:59:25.381Z</time></trkpt><trkpt lat="45.3798192" lon="9.2639259"><ele>96.0</ele><time>2026-04-20T17:59:27.382Z</time></trkpt><trkpt lat="45.3798628" lon="9.2640267"><ele>96.0</ele><time>2026-04-20T17:59:29.389Z</time></trkpt><trkpt lat="45.379906" lon="9.2641406"><ele>96.33333333333333</ele><time>2026-04-20T17:59:31.386Z</time></trkpt><trkpt lat="45.3799534" lon="9.264251"><ele>96.66666666666666</ele><time>2026-04-20T17:59:33.385Z</time></trkpt><trkpt lat="45.3799967" lon="9.2643554"><ele>97.0</ele><time>2026-04-20T17:59:35.382Z</time></trkpt><trkpt lat="45.3800424" lon="9.2644583"><ele>97.33333333333333</ele><time>2026-04-20T17:59:37.384Z</time></trkpt><trkpt lat="45.3800848" lon="9.2645619"><ele>97.66666666666666</ele><time>2026-04-20T17:59:39.386Z</time></trkpt><trkpt lat="45.3801267" lon="9.2646875"><ele>98.0</ele><time>2026-04-20T17:59:41.378Z</time></trkpt><trkpt lat="45.3801699" lon="9.264805"><ele>97.99999999999999</ele><time>2026-04-20T17:59:43.39Z</time></trkpt><trkpt lat="45.3802162" lon="9.26492"><ele>98.0</ele><time>2026-04-20T17:59:45.384Z</time></trkpt><trkpt lat="45.3802686" lon="9.2650256"><ele>98.0</ele><time>2026-04-20T17:59:47.386Z</time></trkpt><trkpt lat="45.3803252" lon="9.2651154"><ele>98.0</ele><time>2026-04-20T17:59:49.384Z</time></trkpt><trkpt lat="45.3803835" lon="9.2652046"><ele>97.99999999999999</ele><time>2026-04-20T17:59:51.38Z</time></trkpt><trkpt lat="45.3804329" lon="9.2653018"><ele>98.0</ele><time>2026-04-20T17:59:53.385Z</time></trkpt><trkpt lat="45.3804951" lon="9.2653745"><ele>97.83333333333333</ele><time>2026-04-20T17:59:55.385Z</time></trkpt><trkpt lat="45.3805545" lon="9.2654377"><ele>97.66666666666666</ele><time>2026-04-20T17:59:57.389Z</time></trkpt><trkpt lat="45.3806078" lon="9.2655117"><ele>97.5</ele><time>2026-04-20T17:59:59.386Z</time></trkpt><trkpt lat="45.3806669" lon="9.2655966"><ele>97.33333333333334</ele><time>2026-04-20T18:00:01.385Z</time></trkpt><trkpt lat="45.3807233" lon="9.2656888"><ele>97.16666666666667</ele><time>2026-04-20T18:00:03.38Z</time></trkpt><trkpt lat="45.3807758" lon="9.2657661"><ele>97.0</ele><time>2026-04-20T18:00:05.379Z</time></trkpt><trkpt lat="45.38083" lon="9.2658527"><ele>97.00000000000001</ele><time>2026-04-20T18:00:07.382Z</time></trkpt><trkpt lat="45.3808755" lon="9.2659498"><ele>97.0</ele><time>2026-04-20T18:00:09.386Z</time></trkpt><trkpt lat="45.3809153" lon="9.2660536"><ele>97.0</ele><time>2026-04-20T18:00:11.39Z</time></trkpt><trkpt lat="45.3809282" lon="9.2661853"><ele>97.0</ele><time>2026-04-20T18:00:13.386Z</time></trkpt><trkpt lat="45.3808978" lon="9.2663129"><ele>97.00000000000001</ele><time>2026-04-20T18:00:15.384Z</time></trkpt><trkpt lat="45.3808522" lon="9.2664255"><ele>97.0</ele><time>2026-04-20T18:00:17.382Z</time></trkpt><trkpt lat="45.3807971" lon="9.2665246"><ele>96.8</ele><time>2026-04-20T18:00:19.379Z</time></trkpt><trkpt lat="45.380743" lon="9.266634"><ele>96.6</ele><time>2026-04-20T18:00:21.383Z</time></trkpt><trkpt lat="45.3806801" lon="9.2667361"><ele>96.39999999999999</ele><time>2026-04-20T18:00:23.386Z</time></trkpt><trkpt lat="45.3806177" lon="9.2668233"><ele>96.19999999999999</ele><time>2026-04-20T18:00:25.387Z</time></trkpt><trkpt lat="45.3805552" lon="9.2669162"><ele>96.0</ele><time>2026-04-20T18:00:27.388Z</time></trkpt><trkpt lat="45.3804885" lon="9.2670215"><ele>95.8</ele><time>2026-04-20T18:00:29.383Z</time></trkpt><trkpt lat="45.3804316" lon="9.2671113"><ele>95.6</ele><time>2026-04-20T18:00:31.384Z</time></trkpt><trkpt lat="45.3803703" lon="9.2672127"><ele>95.4</ele><time>2026-04-20T18:00:33.386Z</time></trkpt><trkpt lat="45.3803083" lon="9.2673129"><ele>95.2</ele><time>2026-04-20T18:00:35.388Z</time></trkpt><trkpt lat="45.3802338" lon="9.2673986"><ele>95.0</ele><time>2026-04-20T18:00:37.387Z</time></trkpt><trkpt lat="45.3801631" lon="9.2675064"><ele>94.8</ele><time>2026-04-20T18:00:39.385Z</time></trkpt><trkpt lat="45.3800959" lon="9.2676"><ele>94.6</ele><time>2026-04-20T18:00:41.385Z</time></trkpt><trkpt lat="45.3800377" lon="9.2676986"><ele>94.4</ele><time>2026-04-20T18:00:43.397Z</time></trkpt><trkpt lat="45.3799715" lon="9.2677995"><ele>94.2</ele><time>2026-04-20T18:00:45.388Z</time></trkpt><trkpt lat="45.3799019" lon="9.2678987"><ele>94.0</ele><time>2026-04-20T18:00:47.39Z</time></trkpt><trkpt lat="45.3798441" lon="9.2680028"><ele>94.0</ele><time>2026-04-20T18:00:49.382Z</time></trkpt><trkpt lat="45.3797907" lon="9.2680998"><ele>94.0</ele><time>2026-04-20T18:00:51.389Z</time></trkpt><trkpt lat="45.3797339" lon="9.2681964"><ele>94.0</ele><time>2026-04-20T18:00:53.387Z</time></trkpt><trkpt lat="45.3796678" lon="9.2682994"><ele>94.0</ele><time>2026-04-20T18:00:55.384Z</time></trkpt><trkpt lat="45.3796099" lon="9.2684046"><ele>94.0</ele><time>2026-04-20T18:00:57.392Z</time></trkpt><trkpt lat="45.3795413" lon="9.2684832"><ele>94.2</ele><time>2026-04-20T18:00:59.38Z</time></trkpt><trkpt lat="45.3794769" lon="9.2685732"><ele>94.4</ele><time>2026-04-20T18:01:01.391Z</time></trkpt><trkpt lat="45.3794137" lon="9.2686747"><ele>94.6</ele><time>2026-04-20T18:01:03.391Z</time></trkpt><trkpt lat="45.3793525" lon="9.2687695"><ele>94.8</ele><time>2026-04-20T18:01:05.385Z</time></trkpt><trkpt lat="45.3793001" lon="9.268867"><ele>95.0</ele><time>2026-04-20T18:01:07.382Z</time></trkpt><trkpt lat="45.3792438" lon="9.2689697"><ele>95.2</ele><time>2026-04-20T18:01:09.389Z</time></trkpt><trkpt lat="45.3791799" lon="9.2690578"><ele>95.4</ele><time>2026-04-20T18:01:11.393Z</time></trkpt><trkpt lat="45.3791297" lon="9.2691555"><ele>95.6</ele><time>2026-04-20T18:01:13.383Z</time></trkpt><trkpt lat="45.3790706" lon="9.2692552"><ele>95.8</ele><time>2026-04-20T18:01:15.383Z</time></trkpt><trkpt lat="45.3790026" lon="9.2693544"><ele>96.0</ele><time>2026-04-20T18:01:17.393Z</time></trkpt><trkpt lat="45.3789329" lon="9.2694423"><ele>96.0</ele><time>2026-04-20T18:01:19.387Z</time></trkpt><trkpt lat="45.3788694" lon="9.2695438"><ele>96.0</ele><time>2026-04-20T18:01:21.383Z</time></trkpt><trkpt lat="45.3788045" lon="9.2696481"><ele>96.0</ele><time>2026-04-20T18:01:23.387Z</time></trkpt><trkpt lat="45.3787366" lon="9.2697346"><ele>96.0</ele><time>2026-04-20T18:01:25.39Z</time></trkpt><trkpt lat="45.3786528" lon="9.2698064"><ele>96.0</ele><time>2026-04-20T18:01:27.388Z</time></trkpt><trkpt lat="45.3785881" lon="9.2698785"><ele>96.0</ele><time>2026-04-20T18:01:29.389Z</time></trkpt><trkpt lat="45.3785111" lon="9.2699362"><ele>96.0</ele><time>2026-04-20T18:01:31.383Z</time></trkpt><trkpt lat="45.3784224" lon="9.2699976"><ele>96.0</ele><time>2026-04-20T18:01:33.379Z</time></trkpt><trkpt lat="45.3783402" lon="9.2700568"><ele>96.0</ele><time>2026-04-20T18:01:35.39Z</time></trkpt><trkpt lat="45.3782514" lon="9.2701021"><ele>96.0</ele><time>2026-04-20T18:01:37.39Z</time></trkpt><trkpt lat="45.3781642" lon="9.2701579"><ele>96.0</ele><time>2026-04-20T18:01:39.387Z</time></trkpt><trkpt lat="45.3780796" lon="9.2702008"><ele>96.0</ele><time>2026-04-20T18:01:41.385Z</time></trkpt><trkpt lat="45.377997" lon="9.2702607"><ele>96.0</ele><time>2026-04-20T18:01:43.385Z</time></trkpt><trkpt lat="45.3779197" lon="9.2703346"><ele>96.0</ele><time>2026-04-20T18:01:45.382Z</time></trkpt><trkpt lat="45.3778386" lon="9.2703885"><ele>96.0</ele><time>2026-04-20T18:01:47.389Z</time></trkpt><trkpt lat="45.3777532" lon="9.2704409"><ele>96.0</ele><time>2026-04-20T18:01:49.385Z</time></trkpt><trkpt lat="45.3776697" lon="9.2704879"><ele>96.0</ele><time>2026-04-20T18:01:51.387Z</time></trkpt><trkpt lat="45.3775916" lon="9.2705353"><ele>96.0</ele><time>2026-04-20T18:01:53.38Z</time></trkpt><trkpt lat="45.3775129" lon="9.2705821"><ele>96.0</ele><time>2026-04-20T18:01:55.38Z</time></trkpt><trkpt lat="45.3774416" lon="9.2706454"><ele>96.0</ele><time>2026-04-20T18:01:57.385Z</time></trkpt><trkpt lat="45.3773609" lon="9.2707102"><ele>96.0</ele><time>2026-04-20T18:01:59.384Z</time></trkpt><trkpt lat="45.3772837" lon="9.2707581"><ele>95.83333333333333</ele><time>2026-04-20T18:02:01.392Z</time></trkpt><trkpt lat="45.3772081" lon="9.2708022"><ele>95.66666666666667</ele><time>2026-04-20T18:02:03.4Z</time></trkpt><trkpt lat="45.3771324" lon="9.2708411"><ele>95.5</ele><time>2026-04-20T18:02:05.384Z</time></trkpt><trkpt lat="45.3770569" lon="9.2708964"><ele>95.33333333333334</ele><time>2026-04-20T18:02:07.385Z</time></trkpt><trkpt lat="45.3769885" lon="9.2709468"><ele>95.16666666666667</ele><time>2026-04-20T18:02:09.379Z</time></trkpt><trkpt lat="45.3769134" lon="9.2709925"><ele>95.0</ele><time>2026-04-20T18:02:11.388Z</time></trkpt><trkpt lat="45.3768365" lon="9.2710356"><ele>95.0</ele><time>2026-04-20T18:02:13.386Z</time></trkpt><trkpt lat="45.3767606" lon="9.2710958"><ele>95.0</ele><time>2026-04-20T18:02:15.384Z</time></trkpt><trkpt lat="45.3766836" lon="9.2711623"><ele>95.0</ele><time>2026-04-20T18:02:17.389Z</time></trkpt><trkpt lat="45.3766156" lon="9.2712291"><ele>95.0</ele><time>2026-04-20T18:02:19.386Z</time></trkpt><trkpt lat="45.3765609" lon="9.2713237"><ele>95.0</ele><time>2026-04-20T18:02:21.382Z</time></trkpt><trkpt lat="45.3765161" lon="9.2714379"><ele>95.0</ele><time>2026-04-20T18:02:23.384Z</time></trkpt><trkpt lat="45.3764896" lon="9.2715513"><ele>95.0</ele><time>2026-04-20T18:02:25.379Z</time></trkpt><trkpt lat="45.3764803" lon="9.2716718"><ele>95.0</ele><time>2026-04-20T18:02:27.388Z</time></trkpt><trkpt lat="45.3764831" lon="9.2717956"><ele>95.0</ele><time>2026-04-20T18:02:29.386Z</time></trkpt><trkpt lat="45.3764987" lon="9.2719127"><ele>95.0</ele><time>2026-04-20T18:02:31.382Z</time></trkpt><trkpt lat="45.376528" lon="9.2720324"><ele>95.0</ele><time>2026-04-20T18:02:33.387Z</time></trkpt><trkpt lat="45.3765604" lon="9.2721432"><ele>95.0</ele><time>2026-04-20T18:02:35.384Z</time></trkpt><trkpt lat="45.3765941" lon="9.2722532"><ele>95.0</ele><time>2026-04-20T18:02:37.385Z</time></trkpt><trkpt lat="45.3766339" lon="9.2723587"><ele>95.0</ele><time>2026-04-20T18:02:39.384Z</time></trkpt><trkpt lat="45.3766749" lon="9.272478"><ele>95.0</ele><time>2026-04-20T18:02:41.389Z</time></trkpt><trkpt lat="45.3767106" lon="9.2725964"><ele>95.0</ele><time>2026-04-20T18:02:43.391Z</time></trkpt><trkpt lat="45.376745" lon="9.2727053"><ele>95.0</ele><time>2026-04-20T18:02:45.378Z</time></trkpt><trkpt lat="45.3767803" lon="9.2728188"><ele>95.0</ele><time>2026-04-20T18:02:47.387Z</time></trkpt><trkpt lat="45.3768163" lon="9.2729372"><ele>95.0</ele><time>2026-04-20T18:02:49.386Z</time></trkpt><trkpt lat="45.3768484" lon="9.2730513"><ele>95.0</ele><time>2026-04-20T18:02:51.384Z</time></trkpt><trkpt lat="45.3768836" lon="9.2731675"><ele>95.0</ele><time>2026-04-20T18:02:53.389Z</time></trkpt><trkpt lat="45.376938" lon="9.2733376"><ele>95.0</ele><time>2026-04-20T18:02:56.386Z</time></trkpt><trkpt lat="45.3769721" lon="9.2734549"><ele>95.0</ele><time>2026-04-20T18:02:58.383Z</time></trkpt><trkpt lat="45.3770092" lon="9.2735701"><ele>94.66666666666667</ele><time>2026-04-20T18:03:00.391Z</time></trkpt><trkpt lat="45.3770386" lon="9.2736834"><ele>94.33333333333334</ele><time>2026-04-20T18:03:02.392Z</time></trkpt><trkpt lat="45.3770349" lon="9.2737963"><ele>94.0</ele><time>2026-04-20T18:03:04.383Z</time></trkpt><trkpt lat="45.3770195" lon="9.2739134"><ele>93.66666666666667</ele><time>2026-04-20T18:03:06.387Z</time></trkpt><trkpt lat="45.3769888" lon="9.2740247"><ele>93.33333333333333</ele><time>2026-04-20T18:03:08.381Z</time></trkpt><trkpt lat="45.3769635" lon="9.2741297"><ele>93.0</ele><time>2026-04-20T18:03:10.389Z</time></trkpt><trkpt lat="45.3769406" lon="9.2742304"><ele>93.0</ele><time>2026-04-20T18:03:12.383Z</time></trkpt><trkpt lat="45.37691" lon="9.2743456"><ele>93.0</ele><time>2026-04-20T18:03:14.38Z</time></trkpt><trkpt lat="45.376901" lon="9.2744672"><ele>93.0</ele><time>2026-04-20T18:03:16.383Z</time></trkpt><trkpt lat="45.3769248" lon="9.2745801"><ele>93.0</ele><time>2026-04-20T18:03:18.384Z</time></trkpt><trkpt lat="45.3769587" lon="9.2746949"><ele>93.0</ele><time>2026-04-20T18:03:20.38Z</time></trkpt><trkpt lat="45.3769898" lon="9.2748065"><ele>93.0</ele><time>2026-04-20T18:03:22.393Z</time></trkpt><trkpt lat="45.3770268" lon="9.2749151"><ele>93.0</ele><time>2026-04-20T18:03:24.384Z</time></trkpt><trkpt lat="45.3770623" lon="9.2750209"><ele>93.0</ele><time>2026-04-20T18:03:26.386Z</time></trkpt><trkpt lat="45.3770988" lon="9.2751275"><ele>93.0</ele><time>2026-04-20T18:03:28.381Z</time></trkpt><trkpt lat="45.3771268" lon="9.2752334"><ele>93.0</ele><time>2026-04-20T18:03:30.38Z</time></trkpt><trkpt lat="45.3771595" lon="9.2753403"><ele>93.0</ele><time>2026-04-20T18:03:32.381Z</time></trkpt><trkpt lat="45.3771996" lon="9.2754427"><ele>93.0</ele><time>2026-04-20T18:03:34.384Z</time></trkpt><trkpt lat="45.3772327" lon="9.2755491"><ele>93.33333333333333</ele><time>2026-04-20T18:03:36.38Z</time></trkpt><trkpt lat="45.3772659" lon="9.2756637"><ele>93.66666666666667</ele><time>2026-04-20T18:03:38.383Z</time></trkpt><trkpt lat="45.3773086" lon="9.2757687"><ele>94.0</ele><time>2026-04-20T18:03:40.389Z</time></trkpt><trkpt lat="45.3773469" lon="9.2758787"><ele>94.33333333333334</ele><time>2026-04-20T18:03:42.386Z</time></trkpt><trkpt lat="45.3773755" lon="9.2759912"><ele>94.66666666666667</ele><time>2026-04-20T18:03:44.379Z</time></trkpt><trkpt lat="45.3774015" lon="9.2761124"><ele>95.0</ele><time>2026-04-20T18:03:46.389Z</time></trkpt><trkpt lat="45.3773891" lon="9.2762292"><ele>95.0</ele><time>2026-04-20T18:03:48.384Z</time></trkpt><trkpt lat="45.3773553" lon="9.2763358"><ele>95.0</ele><time>2026-04-20T18:03:50.379Z</time></trkpt><trkpt lat="45.3773224" lon="9.2764373"><ele>95.0</ele><time>2026-04-20T18:03:52.387Z</time></trkpt><trkpt lat="45.3772665" lon="9.2765392"><ele>95.0</ele><time>2026-04-20T18:03:54.385Z</time></trkpt><trkpt lat="45.3772177" lon="9.276631"><ele>95.0</ele><time>2026-04-20T18:03:56.384Z</time></trkpt><trkpt lat="45.3771613" lon="9.2767066"><ele>95.0</ele><time>2026-04-20T18:03:58.382Z</time></trkpt><trkpt lat="45.3770891" lon="9.2767906"><ele>95.16666666666667</ele><time>2026-04-20T18:04:00.392Z</time></trkpt><trkpt lat="45.3770293" lon="9.2768785"><ele>95.33333333333334</ele><time>2026-04-20T18:04:02.389Z</time></trkpt><trkpt lat="45.3769691" lon="9.2769549"><ele>95.5</ele><time>2026-04-20T18:04:04.384Z</time></trkpt><trkpt lat="45.3769063" lon="9.2770424"><ele>95.66666666666667</ele><time>2026-04-20T18:04:06.39Z</time></trkpt><trkpt lat="45.3768455" lon="9.2771255"><ele>95.83333333333333</ele><time>2026-04-20T18:04:08.389Z</time></trkpt><trkpt lat="45.3767859" lon="9.277193"><ele>96.0</ele><time>2026-04-20T18:04:10.386Z</time></trkpt><trkpt lat="45.3767282" lon="9.2772656"><ele>96.0</ele><time>2026-04-20T18:04:12.388Z</time></trkpt><trkpt lat="45.3766607" lon="9.2773509"><ele>96.0</ele><time>2026-04-20T18:04:14.387Z</time></trkpt><trkpt lat="45.3766011" lon="9.27743"><ele>96.0</ele><time>2026-04-20T18:04:16.383Z</time></trkpt><trkpt lat="45.376538" lon="9.277511"><ele>96.0</ele><time>2026-04-20T18:04:18.388Z</time></trkpt><trkpt lat="45.3764731" lon="9.2775915"><ele>96.0</ele><time>2026-04-20T18:04:20.38Z</time></trkpt><trkpt lat="45.376411" lon="9.277673"><ele>96.0</ele><time>2026-04-20T18:04:22.387Z</time></trkpt><trkpt lat="45.3763461" lon="9.277757"><ele>96.0</ele><time>2026-04-20T18:04:24.382Z</time></trkpt><trkpt lat="45.3762879" lon="9.277832"><ele>96.0</ele><time>2026-04-20T18:04:26.38Z</time></trkpt><trkpt lat="45.3762265" lon="9.2779077"><ele>96.0</ele><time>2026-04-20T18:04:28.384Z</time></trkpt><trkpt lat="45.3761604" lon="9.2779889"><ele>96.0</ele><time>2026-04-20T18:04:30.383Z</time></trkpt><trkpt lat="45.3761052" lon="9.2780663"><ele>96.0</ele><time>2026-04-20T18:04:32.381Z</time></trkpt><trkpt lat="45.3760415" lon="9.2781398"><ele>96.0</ele><time>2026-04-20T18:04:34.382Z</time></trkpt><trkpt lat="45.3759849" lon="9.278217"><ele>95.66666666666667</ele><time>2026-04-20T18:04:36.388Z</time></trkpt><trkpt lat="45.3759292" lon="9.2782835"><ele>95.33333333333333</ele><time>2026-04-20T18:04:38.38Z</time></trkpt><trkpt lat="45.3758641" lon="9.2783655"><ele>95.0</ele><time>2026-04-20T18:04:40.382Z</time></trkpt><trkpt lat="45.3758047" lon="9.2784388"><ele>94.66666666666666</ele><time>2026-04-20T18:04:42.383Z</time></trkpt><trkpt lat="45.3757502" lon="9.2785028"><ele>94.33333333333333</ele><time>2026-04-20T18:04:44.384Z</time></trkpt><trkpt lat="45.3756906" lon="9.2785727"><ele>94.0</ele><time>2026-04-20T18:04:46.378Z</time></trkpt><trkpt lat="45.3756414" lon="9.2786343"><ele>94.0</ele><time>2026-04-20T18:04:48.385Z</time></trkpt><trkpt lat="45.375582" lon="9.2787127"><ele>94.0</ele><time>2026-04-20T18:04:50.381Z</time></trkpt><trkpt lat="45.3755158" lon="9.2787732"><ele>94.0</ele><time>2026-04-20T18:04:52.382Z</time></trkpt><trkpt lat="45.3754448" lon="9.2788324"><ele>94.0</ele><time>2026-04-20T18:04:54.382Z</time></trkpt><trkpt lat="45.3753668" lon="9.2788844"><ele>94.0</ele><time>2026-04-20T18:04:56.379Z</time></trkpt><trkpt lat="45.3752919" lon="9.2789247"><ele>94.0</ele><time>2026-04-20T18:04:58.379Z</time></trkpt><trkpt lat="45.3752239" lon="9.2789677"><ele>94.2</ele><time>2026-04-20T18:05:00.386Z</time></trkpt><trkpt lat="45.3751585" lon="9.2790117"><ele>94.4</ele><time>2026-04-20T18:05:02.379Z</time></trkpt><trkpt lat="45.375097" lon="9.2790577"><ele>94.6</ele><time>2026-04-20T18:05:04.386Z</time></trkpt><trkpt lat="45.3750322" lon="9.279116"><ele>94.8</ele><time>2026-04-20T18:05:06.392Z</time></trkpt><trkpt lat="45.3749041" lon="9.2792478"><ele>95.0</ele><time>2026-04-20T18:05:10.381Z</time></trkpt><trkpt lat="45.3748441" lon="9.2793152"><ele>95.0</ele><time>2026-04-20T18:05:12.383Z</time></trkpt><trkpt lat="45.37478" lon="9.2793835"><ele>95.0</ele><time>2026-04-20T18:05:14.386Z</time></trkpt><trkpt lat="45.3747201" lon="9.279468"><ele>95.0</ele><time>2026-04-20T18:05:16.394Z</time></trkpt><trkpt lat="45.3746595" lon="9.27954"><ele>95.0</ele><time>2026-04-20T18:05:18.39Z</time></trkpt><trkpt lat="45.3745979" lon="9.2796111"><ele>95.0</ele><time>2026-04-20T18:05:20.387Z</time></trkpt><trkpt lat="45.3745326" lon="9.2796909"><ele>95.0</ele><time>2026-04-20T18:05:22.384Z</time></trkpt><trkpt lat="45.3744606" lon="9.2797614"><ele>95.0</ele><time>2026-04-20T18:05:24.385Z</time></trkpt><trkpt lat="45.3743965" lon="9.2798475"><ele>95.0</ele><time>2026-04-20T18:05:26.389Z</time></trkpt><trkpt lat="45.3743322" lon="9.2799192"><ele>95.0</ele><time>2026-04-20T18:05:28.391Z</time></trkpt><trkpt lat="45.3742615" lon="9.2799941"><ele>95.0</ele><time>2026-04-20T18:05:30.384Z</time></trkpt><trkpt lat="45.3741874" lon="9.2800671"><ele>95.0</ele><time>2026-04-20T18:05:32.383Z</time></trkpt><trkpt lat="45.3741153" lon="9.2801282"><ele>95.0</ele><time>2026-04-20T18:05:34.387Z</time></trkpt><trkpt lat="45.3740374" lon="9.2801911"><ele>95.0</ele><time>2026-04-20T18:05:36.381Z</time></trkpt><trkpt lat="45.3739521" lon="9.2802435"><ele>95.0</ele><time>2026-04-20T18:05:38.382Z</time></trkpt><trkpt lat="45.3738705" lon="9.2802984"><ele>95.0</ele><time>2026-04-20T18:05:40.387Z</time></trkpt><trkpt lat="45.3737865" lon="9.2803496"><ele>95.0</ele><time>2026-04-20T18:05:42.382Z</time></trkpt><trkpt lat="45.3737061" lon="9.2803916"><ele>95.0</ele><time>2026-04-20T18:05:44.389Z</time></trkpt><trkpt lat="45.3736292" lon="9.2804325"><ele>95.0</ele><time>2026-04-20T18:05:46.381Z</time></trkpt><trkpt lat="45.3735497" lon="9.2804815"><ele>95.0</ele><time>2026-04-20T18:05:48.383Z</time></trkpt><trkpt lat="45.3734704" lon="9.2805381"><ele>95.0</ele><time>2026-04-20T18:05:50.384Z</time></trkpt><trkpt lat="45.3733972" lon="9.2806014"><ele>95.0</ele><time>2026-04-20T18:05:52.383Z</time></trkpt><trkpt lat="45.3733259" lon="9.2806727"><ele>95.0</ele><time>2026-04-20T18:05:54.381Z</time></trkpt><trkpt lat="45.3732585" lon="9.2807607"><ele>95.0</ele><time>2026-04-20T18:05:56.376Z</time></trkpt><trkpt lat="45.3731889" lon="9.2808349"><ele>95.0</ele><time>2026-04-20T18:05:58.385Z</time></trkpt><trkpt lat="45.3731143" lon="9.2809065"><ele>94.83333333333334</ele><time>2026-04-20T18:06:00.386Z</time></trkpt><trkpt lat="45.373038" lon="9.280971"><ele>94.66666666666667</ele><time>2026-04-20T18:06:02.384Z</time></trkpt><trkpt lat="45.3729641" lon="9.2810256"><ele>94.5</ele><time>2026-04-20T18:06:04.385Z</time></trkpt><trkpt lat="45.3728894" lon="9.2810859"><ele>94.33333333333333</ele><time>2026-04-20T18:06:06.383Z</time></trkpt><trkpt lat="45.372812" lon="9.2811443"><ele>94.16666666666666</ele><time>2026-04-20T18:06:08.38Z</time></trkpt><trkpt lat="45.3727318" lon="9.2812123"><ele>94.0</ele><time>2026-04-20T18:06:10.379Z</time></trkpt><trkpt lat="45.3726518" lon="9.2812736"><ele>93.83333333333333</ele><time>2026-04-20T18:06:12.384Z</time></trkpt><trkpt lat="45.3725806" lon="9.2813248"><ele>93.66666666666666</ele><time>2026-04-20T18:06:14.381Z</time></trkpt><trkpt lat="45.3725041" lon="9.2813872"><ele>93.5</ele><time>2026-04-20T18:06:16.382Z</time></trkpt><trkpt lat="45.372424" lon="9.2814489"><ele>93.33333333333333</ele><time>2026-04-20T18:06:18.38Z</time></trkpt><trkpt lat="45.3723515" lon="9.2815125"><ele>93.16666666666667</ele><time>2026-04-20T18:06:20.384Z</time></trkpt><trkpt lat="45.3722741" lon="9.2815769"><ele>93.0</ele><time>2026-04-20T18:06:22.393Z</time></trkpt><trkpt lat="45.3721916" lon="9.2816363"><ele>92.83333333333333</ele><time>2026-04-20T18:06:24.389Z</time></trkpt><trkpt lat="45.3721162" lon="9.281693"><ele>92.66666666666667</ele><time>2026-04-20T18:06:26.386Z</time></trkpt><trkpt lat="45.3720469" lon="9.2817417"><ele>92.5</ele><time>2026-04-20T18:06:28.388Z</time></trkpt><trkpt lat="45.3719739" lon="9.2818032"><ele>92.33333333333334</ele><time>2026-04-20T18:06:30.385Z</time></trkpt><trkpt lat="45.3719016" lon="9.2818579"><ele>92.16666666666667</ele><time>2026-04-20T18:06:32.379Z</time></trkpt><trkpt lat="45.3718269" lon="9.2819052"><ele>92.0</ele><time>2026-04-20T18:06:34.393Z</time></trkpt><trkpt lat="45.3717481" lon="9.2819642"><ele>92.0</ele><time>2026-04-20T18:06:36.389Z</time></trkpt><trkpt lat="45.3716709" lon="9.2820156"><ele>92.0</ele><time>2026-04-20T18:06:38.39Z</time></trkpt><trkpt lat="45.3715933" lon="9.2820723"><ele>92.0</ele><time>2026-04-20T18:06:40.389Z</time></trkpt><trkpt lat="45.3715197" lon="9.2821312"><ele>92.0</ele><time>2026-04-20T18:06:42.382Z</time></trkpt><trkpt lat="45.3714475" lon="9.2821954"><ele>92.0</ele><time>2026-04-20T18:06:44.388Z</time></trkpt><trkpt lat="45.3713763" lon="9.2822425"><ele>92.0</ele><time>2026-04-20T18:06:46.383Z</time></trkpt><trkpt lat="45.3713072" lon="9.2822958"><ele>92.0</ele><time>2026-04-20T18:06:48.386Z</time></trkpt><trkpt lat="45.3712378" lon="9.2823512"><ele>92.0</ele><time>2026-04-20T18:06:50.384Z</time></trkpt><trkpt lat="45.3711773" lon="9.2823906"><ele>92.0</ele><time>2026-04-20T18:06:52.386Z</time></trkpt><trkpt lat="45.3711249" lon="9.2824418"><ele>92.0</ele><time>2026-04-20T18:06:56.385Z</time></trkpt><trkpt lat="45.3710493" lon="9.2825175"><ele>92.0</ele><time>2026-04-20T18:06:59.379Z</time></trkpt><trkpt lat="45.3709783" lon="9.2825598"><ele>92.0</ele><time>2026-04-20T18:07:01.388Z</time></trkpt><trkpt lat="45.3709029" lon="9.2826124"><ele>92.0</ele><time>2026-04-20T18:07:03.378Z</time></trkpt><trkpt lat="45.3708254" lon="9.2826712"><ele>92.0</ele><time>2026-04-20T18:07:05.381Z</time></trkpt><trkpt lat="45.3707522" lon="9.2827331"><ele>92.0</ele><time>2026-04-20T18:07:07.388Z</time></trkpt><trkpt lat="45.3706732" lon="9.2827875"><ele>92.0</ele><time>2026-04-20T18:07:09.382Z</time></trkpt><trkpt lat="45.3705992" lon="9.2828459"><ele>92.0</ele><time>2026-04-20T18:07:11.38Z</time></trkpt><trkpt lat="45.3705328" lon="9.2829057"><ele>92.0</ele><time>2026-04-20T18:07:13.381Z</time></trkpt><trkpt lat="45.3704562" lon="9.2829658"><ele>91.83333333333334</ele><time>2026-04-20T18:07:15.377Z</time></trkpt><trkpt lat="45.3703764" lon="9.2830121"><ele>91.66666666666667</ele><time>2026-04-20T18:07:17.378Z</time></trkpt><trkpt lat="45.3703065" lon="9.2830634"><ele>91.5</ele><time>2026-04-20T18:07:19.387Z</time></trkpt><trkpt lat="45.3702362" lon="9.2831246"><ele>91.33333333333333</ele><time>2026-04-20T18:07:21.383Z</time></trkpt><trkpt lat="45.3701605" lon="9.2831817"><ele>91.16666666666666</ele><time>2026-04-20T18:07:23.386Z</time></trkpt><trkpt lat="45.3700895" lon="9.2832354"><ele>91.0</ele><time>2026-04-20T18:07:25.38Z</time></trkpt><trkpt lat="45.3700106" lon="9.2832919"><ele>91.0</ele><time>2026-04-20T18:07:27.387Z</time></trkpt><trkpt lat="45.3699362" lon="9.283353"><ele>91.0</ele><time>2026-04-20T18:07:29.385Z</time></trkpt><trkpt lat="45.3698653" lon="9.2834125"><ele>91.0</ele><time>2026-04-20T18:07:31.382Z</time></trkpt><trkpt lat="45.3697932" lon="9.283468"><ele>91.0</ele><time>2026-04-20T18:07:33.388Z</time></trkpt><trkpt lat="45.3697136" lon="9.2835232"><ele>91.0</ele><time>2026-04-20T18:07:35.387Z</time></trkpt><trkpt lat="45.3696364" lon="9.2835712"><ele>91.0</ele><time>2026-04-20T18:07:37.384Z</time></trkpt><trkpt lat="45.3695635" lon="9.2836307"><ele>91.16666666666666</ele><time>2026-04-20T18:07:39.38Z</time></trkpt><trkpt lat="45.369486" lon="9.2836867"><ele>91.33333333333333</ele><time>2026-04-20T18:07:41.382Z</time></trkpt><trkpt lat="45.369413" lon="9.2837477"><ele>91.5</ele><time>2026-04-20T18:07:43.387Z</time></trkpt><trkpt lat="45.3693421" lon="9.2838048"><ele>91.66666666666667</ele><time>2026-04-20T18:07:45.383Z</time></trkpt><trkpt lat="45.3692743" lon="9.2838652"><ele>91.83333333333334</ele><time>2026-04-20T18:07:47.395Z</time></trkpt><trkpt lat="45.3692019" lon="9.2839264"><ele>92.0</ele><time>2026-04-20T18:07:49.389Z</time></trkpt><trkpt lat="45.3691258" lon="9.2839964"><ele>92.0</ele><time>2026-04-20T18:07:51.387Z</time></trkpt><trkpt lat="45.3690439" lon="9.284057"><ele>92.0</ele><time>2026-04-20T18:07:53.377Z</time></trkpt><trkpt lat="45.3689632" lon="9.2841043"><ele>92.0</ele><time>2026-04-20T18:07:55.387Z</time></trkpt><trkpt lat="45.3688879" lon="9.2841542"><ele>92.0</ele><time>2026-04-20T18:07:57.385Z</time></trkpt><trkpt lat="45.3688172" lon="9.28421"><ele>92.0</ele><time>2026-04-20T18:07:59.383Z</time></trkpt><trkpt lat="45.3687459" lon="9.2842658"><ele>92.0</ele><time>2026-04-20T18:08:01.387Z</time></trkpt><trkpt lat="45.3686675" lon="9.2843215"><ele>91.83333333333334</ele><time>2026-04-20T18:08:03.384Z</time></trkpt><trkpt lat="45.3685898" lon="9.284384"><ele>91.66666666666667</ele><time>2026-04-20T18:08:05.383Z</time></trkpt><trkpt lat="45.3685126" lon="9.2844431"><ele>91.5</ele><time>2026-04-20T18:08:07.383Z</time></trkpt><trkpt lat="45.3684367" lon="9.2845066"><ele>91.33333333333333</ele><time>2026-04-20T18:08:09.379Z</time></trkpt><trkpt lat="45.3683585" lon="9.2845675"><ele>91.16666666666666</ele><time>2026-04-20T18:08:11.384Z</time></trkpt><trkpt lat="45.3682754" lon="9.2846238"><ele>91.0</ele><time>2026-04-20T18:08:13.385Z</time></trkpt><trkpt lat="45.3681998" lon="9.2846836"><ele>91.0</ele><time>2026-04-20T18:08:15.376Z</time></trkpt><trkpt lat="45.3681284" lon="9.2847645"><ele>91.0</ele><time>2026-04-20T18:08:17.38Z</time></trkpt><trkpt lat="45.3680852" lon="9.2848579"><ele>91.0</ele><time>2026-04-20T18:08:19.385Z</time></trkpt><trkpt lat="45.3680377" lon="9.2849594"><ele>91.0</ele><time>2026-04-20T18:08:21.382Z</time></trkpt><trkpt lat="45.3680136" lon="9.2850765"><ele>91.0</ele><time>2026-04-20T18:08:23.381Z</time></trkpt><trkpt lat="45.3680233" lon="9.2851669"><ele>91.0</ele><time>2026-04-20T18:08:25.379Z</time></trkpt><trkpt lat="45.3680423" lon="9.2852527"><ele>91.0</ele><time>2026-04-20T18:08:27.38Z</time></trkpt><trkpt lat="45.3680978" lon="9.285351"><ele>91.0</ele><time>2026-04-20T18:08:30.385Z</time></trkpt><trkpt lat="45.368153" lon="9.2854313"><ele>91.0</ele><time>2026-04-20T18:08:33.381Z</time></trkpt><trkpt lat="45.3682075" lon="9.285511"><ele>91.0</ele><time>2026-04-20T18:08:36.385Z</time></trkpt><trkpt lat="45.3682731" lon="9.2855858"><ele>91.0</ele><time>2026-04-20T18:08:39.385Z</time></trkpt><trkpt lat="45.3683321" lon="9.2856581"><ele>91.0</ele><time>2026-04-20T18:08:42.389Z</time></trkpt><trkpt lat="45.3683858" lon="9.2857078"><ele>91.33333333333333</ele><time>2026-04-20T18:08:44.392Z</time></trkpt><trkpt lat="45.3684615" lon="9.285791"><ele>91.66666666666666</ele><time>2026-04-20T18:08:47.393Z</time></trkpt><trkpt lat="45.3685214" lon="9.2858704"><ele>92.0</ele><time>2026-04-20T18:08:50.379Z</time></trkpt><trkpt lat="45.3685724" lon="9.2859281"><ele>92.33333333333333</ele><time>2026-04-20T18:08:52.386Z</time></trkpt><trkpt lat="45.3686214" lon="9.2859962"><ele>92.66666666666667</ele><time>2026-04-20T18:08:54.379Z</time></trkpt><trkpt lat="45.3686822" lon="9.2860882"><ele>93.0</ele><time>2026-04-20T18:08:57.378Z</time></trkpt><trkpt lat="45.3687464" lon="9.2861734"><ele>93.0</ele><time>2026-04-20T18:09:00.383Z</time></trkpt><trkpt lat="45.3688037" lon="9.2862753"><ele>93.0</ele><time>2026-04-20T18:09:03.387Z</time></trkpt><trkpt lat="45.3688605" lon="9.2863644"><ele>93.0</ele><time>2026-04-20T18:09:06.383Z</time></trkpt><trkpt lat="45.3689226" lon="9.2864509"><ele>93.0</ele><time>2026-04-20T18:09:09.38Z</time></trkpt><trkpt lat="45.368967" lon="9.2865248"><ele>93.0</ele><time>2026-04-20T18:09:12.383Z</time></trkpt><trkpt lat="45.3690107" lon="9.2865964"><ele>93.0</ele><time>2026-04-20T18:09:15.386Z</time></trkpt><trkpt lat="45.369059" lon="9.2866592"><ele>93.0</ele><time>2026-04-20T18:09:18.381Z</time></trkpt><trkpt lat="45.3691183" lon="9.2867356"><ele>93.0</ele><time>2026-04-20T18:09:22.387Z</time></trkpt><trkpt lat="45.3691647" lon="9.2868077"><ele>93.0</ele><time>2026-04-20T18:09:26.385Z</time></trkpt><trkpt lat="45.3692066" lon="9.2868849"><ele>93.0</ele><time>2026-04-20T18:09:31.385Z</time></trkpt><trkpt lat="45.3692432" lon="9.2869589"><ele>93.0</ele><time>2026-04-20T18:09:35.383Z</time></trkpt><trkpt lat="45.3693171" lon="9.2871124"><ele>93.0</ele><time>2026-04-20T18:10:03.381Z</time></trkpt><trkpt lat="45.3693591" lon="9.287191"><ele>93.0</ele><time>2026-04-20T18:10:05.383Z</time></trkpt><trkpt lat="45.3694111" lon="9.2872827"><ele>93.0</ele><time>2026-04-20T18:10:07.384Z</time></trkpt><trkpt lat="45.3694673" lon="9.2873985"><ele>93.0</ele><time>2026-04-20T18:10:09.385Z</time></trkpt><trkpt lat="45.3695292" lon="9.2875203"><ele>93.0</ele><time>2026-04-20T18:10:11.391Z</time></trkpt><trkpt lat="45.3696076" lon="9.2876447"><ele>93.0</ele><time>2026-04-20T18:10:13.386Z</time></trkpt><trkpt lat="45.369647" lon="9.2877148"><ele>93.0</ele><time>2026-04-20T18:10:14.384Z</time></trkpt><trkpt lat="45.3696887" lon="9.2877919"><ele>93.0</ele><time>2026-04-20T18:10:15.377Z</time></trkpt><trkpt lat="45.3697753" lon="9.2879255"><ele>93.0</ele><time>2026-04-20T18:10:17.373Z</time></trkpt><trkpt lat="45.3698231" lon="9.2880038"><ele>93.0</ele><time>2026-04-20T18:10:18.388Z</time></trkpt><trkpt lat="45.3698712" lon="9.2880788"><ele>93.0</ele><time>2026-04-20T18:10:19.39Z</time></trkpt><trkpt lat="45.3699174" lon="9.2881568"><ele>93.0</ele><time>2026-04-20T18:10:20.378Z</time></trkpt><trkpt lat="45.3699599" lon="9.2882322"><ele>93.0</ele><time>2026-04-20T18:10:21.386Z</time></trkpt><trkpt lat="45.370039" lon="9.2883589"><ele>93.0</ele><time>2026-04-20T18:10:23.384Z</time></trkpt><trkpt lat="45.3701242" lon="9.2883845"><ele>93.0</ele><time>2026-04-20T18:10:25.384Z</time></trkpt><trkpt lat="45.3701691" lon="9.2883032"><ele>93.0</ele><time>2026-04-20T18:10:27.38Z</time></trkpt><trkpt lat="45.3701355" lon="9.288193"><ele>93.0</ele><time>2026-04-20T18:10:30.377Z</time></trkpt><trkpt lat="45.3700954" lon="9.2881086"><ele>93.0</ele><time>2026-04-20T18:10:32.389Z</time></trkpt><trkpt lat="45.3700502" lon="9.2880277"><ele>93.0</ele><time>2026-04-20T18:10:34.373Z</time></trkpt><trkpt lat="45.3700076" lon="9.2879428"><ele>93.0</ele><time>2026-04-20T18:10:36.383Z</time></trkpt><trkpt lat="45.3699627" lon="9.2878552"><ele>93.0</ele><time>2026-04-20T18:10:38.383Z</time></trkpt><trkpt lat="45.3699108" lon="9.2877598"><ele>93.0</ele><time>2026-04-20T18:10:40.378Z</time></trkpt><trkpt lat="45.3698662" lon="9.2876529"><ele>93.0</ele><time>2026-04-20T18:10:42.379Z</time></trkpt><trkpt lat="45.3698132" lon="9.287561"><ele>93.0</ele><time>2026-04-20T18:10:44.381Z</time></trkpt><trkpt lat="45.3697646" lon="9.2874596"><ele>93.0</ele><time>2026-04-20T18:10:46.379Z</time></trkpt><trkpt lat="45.3697167" lon="9.2873543"><ele>93.0</ele><time>2026-04-20T18:10:48.381Z</time></trkpt><trkpt lat="45.3696625" lon="9.2872459"><ele>93.0</ele><time>2026-04-20T18:10:50.381Z</time></trkpt><trkpt lat="45.3696037" lon="9.2871376"><ele>93.0</ele><time>2026-04-20T18:10:52.382Z</time></trkpt><trkpt lat="45.3695677" lon="9.2870149"><ele>93.0</ele><time>2026-04-20T18:10:54.382Z</time></trkpt><trkpt lat="45.3695423" lon="9.2868944"><ele>93.0</ele><time>2026-04-20T18:10:56.38Z</time></trkpt><trkpt lat="45.3695404" lon="9.2867692"><ele>93.0</ele><time>2026-04-20T18:10:58.384Z</time></trkpt><trkpt lat="45.3695628" lon="9.2866505"><ele>93.0</ele><time>2026-04-20T18:11:00.376Z</time></trkpt><trkpt lat="45.3696056" lon="9.2865278"><ele>93.0</ele><time>2026-04-20T18:11:02.378Z</time></trkpt><trkpt lat="45.3696641" lon="9.2864302"><ele>93.0</ele><time>2026-04-20T18:11:04.381Z</time></trkpt><trkpt lat="45.3697266" lon="9.2863374"><ele>93.0</ele><time>2026-04-20T18:11:06.384Z</time></trkpt><trkpt lat="45.3697968" lon="9.2862555"><ele>93.0</ele><time>2026-04-20T18:11:08.379Z</time></trkpt><trkpt lat="45.3698708" lon="9.2861751"><ele>93.0</ele><time>2026-04-20T18:11:10.384Z</time></trkpt><trkpt lat="45.3699393" lon="9.2860931"><ele>93.0</ele><time>2026-04-20T18:11:12.382Z</time></trkpt><trkpt lat="45.3700078" lon="9.2860023"><ele>93.0</ele><time>2026-04-20T18:11:14.386Z</time></trkpt><trkpt lat="45.3700791" lon="9.2859242"><ele>93.0</ele><time>2026-04-20T18:11:16.387Z</time></trkpt><trkpt lat="45.3701515" lon="9.2858344"><ele>93.0</ele><time>2026-04-20T18:11:18.384Z</time></trkpt><trkpt lat="45.3702204" lon="9.2857458"><ele>93.0</ele><time>2026-04-20T18:11:20.38Z</time></trkpt><trkpt lat="45.3702961" lon="9.2856569"><ele>93.0</ele><time>2026-04-20T18:11:22.382Z</time></trkpt><trkpt lat="45.3703713" lon="9.285572"><ele>93.0</ele><time>2026-04-20T18:11:24.384Z</time></trkpt><trkpt lat="45.3704484" lon="9.2854879"><ele>92.80000000000001</ele><time>2026-04-20T18:11:26.385Z</time></trkpt><trkpt lat="45.370528" lon="9.285402"><ele>92.6</ele><time>2026-04-20T18:11:28.387Z</time></trkpt><trkpt lat="45.3705996" lon="9.28532"><ele>92.4</ele><time>2026-04-20T18:11:30.383Z</time></trkpt><trkpt lat="45.3706769" lon="9.285234"><ele>92.19999999999999</ele><time>2026-04-20T18:11:32.384Z</time></trkpt><trkpt lat="45.3707478" lon="9.2851532"><ele>92.0</ele><time>2026-04-20T18:11:34.384Z</time></trkpt><trkpt lat="45.3708141" lon="9.2850624"><ele>92.0</ele><time>2026-04-20T18:11:36.379Z</time></trkpt><trkpt lat="45.37089" lon="9.2849705"><ele>92.0</ele><time>2026-04-20T18:11:38.389Z</time></trkpt><trkpt lat="45.3709657" lon="9.2848795"><ele>92.0</ele><time>2026-04-20T18:11:40.38Z</time></trkpt><trkpt lat="45.3710474" lon="9.2847898"><ele>92.0</ele><time>2026-04-20T18:11:42.375Z</time></trkpt><trkpt lat="45.3711202" lon="9.2846994"><ele>92.0</ele><time>2026-04-20T18:11:44.386Z</time></trkpt><trkpt lat="45.3711978" lon="9.2846118"><ele>92.19999999999999</ele><time>2026-04-20T18:11:46.384Z</time></trkpt><trkpt lat="45.3712717" lon="9.2845227"><ele>92.4</ele><time>2026-04-20T18:11:48.383Z</time></trkpt><trkpt lat="45.3713432" lon="9.2844346"><ele>92.6</ele><time>2026-04-20T18:11:50.391Z</time></trkpt><trkpt lat="45.3714122" lon="9.2843544"><ele>92.80000000000001</ele><time>2026-04-20T18:11:52.381Z</time></trkpt><trkpt lat="45.3714828" lon="9.2842756"><ele>93.0</ele><time>2026-04-20T18:11:54.39Z</time></trkpt><trkpt lat="45.3715517" lon="9.2842012"><ele>93.2</ele><time>2026-04-20T18:11:56.384Z</time></trkpt><trkpt lat="45.3716227" lon="9.2841164"><ele>93.4</ele><time>2026-04-20T18:11:58.39Z</time></trkpt><trkpt lat="45.3716991" lon="9.2840259"><ele>93.60000000000001</ele><time>2026-04-20T18:12:00.382Z</time></trkpt><trkpt lat="45.3717677" lon="9.28394"><ele>93.80000000000001</ele><time>2026-04-20T18:12:02.386Z</time></trkpt><trkpt lat="45.3718351" lon="9.2838436"><ele>94.0</ele><time>2026-04-20T18:12:04.392Z</time></trkpt><trkpt lat="45.3719098" lon="9.2837599"><ele>94.0</ele><time>2026-04-20T18:12:06.386Z</time></trkpt><trkpt lat="45.3719818" lon="9.2836846"><ele>94.0</ele><time>2026-04-20T18:12:08.38Z</time></trkpt><trkpt lat="45.372047" lon="9.2835991"><ele>94.0</ele><time>2026-04-20T18:12:10.389Z</time></trkpt><trkpt lat="45.3721235" lon="9.283508"><ele>94.0</ele><time>2026-04-20T18:12:12.383Z</time></trkpt><trkpt lat="45.3721904" lon="9.2834164"><ele>94.0</ele><time>2026-04-20T18:12:14.38Z</time></trkpt><trkpt lat="45.37226" lon="9.2833264"><ele>93.80000000000001</ele><time>2026-04-20T18:12:16.384Z</time></trkpt><trkpt lat="45.3723282" lon="9.2832438"><ele>93.60000000000001</ele><time>2026-04-20T18:12:18.378Z</time></trkpt><trkpt lat="45.3723993" lon="9.2831564"><ele>93.4</ele><time>2026-04-20T18:12:20.391Z</time></trkpt><trkpt lat="45.372473" lon="9.2830707"><ele>93.2</ele><time>2026-04-20T18:12:22.381Z</time></trkpt><trkpt lat="45.3725465" lon="9.2829835"><ele>93.0</ele><time>2026-04-20T18:12:24.388Z</time></trkpt><trkpt lat="45.3726217" lon="9.2829068"><ele>93.0</ele><time>2026-04-20T18:12:26.384Z</time></trkpt><trkpt lat="45.3726914" lon="9.2828315"><ele>93.0</ele><time>2026-04-20T18:12:28.385Z</time></trkpt><trkpt lat="45.3727643" lon="9.2827443"><ele>93.0</ele><time>2026-04-20T18:12:30.381Z</time></trkpt><trkpt lat="45.3728354" lon="9.2826588"><ele>93.0</ele><time>2026-04-20T18:12:32.384Z</time></trkpt><trkpt lat="45.3729064" lon="9.2825768"><ele>93.0</ele><time>2026-04-20T18:12:34.386Z</time></trkpt><trkpt lat="45.3729732" lon="9.2824953"><ele>93.0</ele><time>2026-04-20T18:12:36.377Z</time></trkpt><trkpt lat="45.3730417" lon="9.2824129"><ele>93.0</ele><time>2026-04-20T18:12:38.383Z</time></trkpt><trkpt lat="45.3731219" lon="9.2823236"><ele>93.0</ele><time>2026-04-20T18:12:40.391Z</time></trkpt><trkpt lat="45.3731922" lon="9.2822425"><ele>93.0</ele><time>2026-04-20T18:12:42.381Z</time></trkpt><trkpt lat="45.3732656" lon="9.2821529"><ele>93.0</ele><time>2026-04-20T18:12:44.387Z</time></trkpt><trkpt lat="45.3733401" lon="9.2820627"><ele>93.0</ele><time>2026-04-20T18:12:46.384Z</time></trkpt><trkpt lat="45.3734226" lon="9.2819761"><ele>93.0</ele><time>2026-04-20T18:12:48.383Z</time></trkpt><trkpt lat="45.3734968" lon="9.2818949"><ele>93.0</ele><time>2026-04-20T18:12:50.381Z</time></trkpt><trkpt lat="45.3735611" lon="9.2818137"><ele>93.0</ele><time>2026-04-20T18:12:52.383Z</time></trkpt><trkpt lat="45.3736375" lon="9.2817234"><ele>93.0</ele><time>2026-04-20T18:12:54.388Z</time></trkpt><trkpt lat="45.3737087" lon="9.2816322"><ele>93.0</ele><time>2026-04-20T18:12:56.384Z</time></trkpt><trkpt lat="45.3737822" lon="9.2815432"><ele>93.0</ele><time>2026-04-20T18:12:58.39Z</time></trkpt><trkpt lat="45.3738561" lon="9.2814517"><ele>93.0</ele><time>2026-04-20T18:13:00.386Z</time></trkpt><trkpt lat="45.3739325" lon="9.281366"><ele>93.0</ele><time>2026-04-20T18:13:02.378Z</time></trkpt><trkpt lat="45.3740128" lon="9.2812778"><ele>93.0</ele><time>2026-04-20T18:13:04.392Z</time></trkpt><trkpt lat="45.3740941" lon="9.2811779"><ele>93.0</ele><time>2026-04-20T18:13:06.382Z</time></trkpt><trkpt lat="45.3741716" lon="9.2810922"><ele>93.0</ele><time>2026-04-20T18:13:08.386Z</time></trkpt><trkpt lat="45.374248" lon="9.2810037"><ele>93.0</ele><time>2026-04-20T18:13:10.393Z</time></trkpt><trkpt lat="45.3743232" lon="9.2809094"><ele>93.0</ele><time>2026-04-20T18:13:12.381Z</time></trkpt><trkpt lat="45.374397" lon="9.280816"><ele>93.0</ele><time>2026-04-20T18:13:14.381Z</time></trkpt><trkpt lat="45.3744705" lon="9.2807303"><ele>93.0</ele><time>2026-04-20T18:13:16.374Z</time></trkpt><trkpt lat="45.3745441" lon="9.2806464"><ele>93.0</ele><time>2026-04-20T18:13:18.382Z</time></trkpt><trkpt lat="45.3746179" lon="9.2805551"><ele>93.0</ele><time>2026-04-20T18:13:20.383Z</time></trkpt><trkpt lat="45.3746935" lon="9.2804662"><ele>93.0</ele><time>2026-04-20T18:13:22.384Z</time></trkpt><trkpt lat="45.3747712" lon="9.2803838"><ele>93.0</ele><time>2026-04-20T18:13:24.386Z</time></trkpt><trkpt lat="45.3748472" lon="9.2803"><ele>93.2</ele><time>2026-04-20T18:13:26.386Z</time></trkpt><trkpt lat="45.3749258" lon="9.280216"><ele>93.4</ele><time>2026-04-20T18:13:28.376Z</time></trkpt><trkpt lat="45.3749999" lon="9.2801228"><ele>93.60000000000001</ele><time>2026-04-20T18:13:30.376Z</time></trkpt><trkpt lat="45.3750807" lon="9.2800535"><ele>93.80000000000001</ele><time>2026-04-20T18:13:32.38Z</time></trkpt><trkpt lat="45.3751619" lon="9.2799891"><ele>94.0</ele><time>2026-04-20T18:13:34.386Z</time></trkpt><trkpt lat="45.3752555" lon="9.2799244"><ele>94.0</ele><time>2026-04-20T18:13:36.388Z</time></trkpt><trkpt lat="45.3753492" lon="9.2798684"><ele>94.0</ele><time>2026-04-20T18:13:38.383Z</time></trkpt><trkpt lat="45.3754458" lon="9.2798258"><ele>94.0</ele><time>2026-04-20T18:13:40.38Z</time></trkpt><trkpt lat="45.3755427" lon="9.2797836"><ele>94.0</ele><time>2026-04-20T18:13:42.379Z</time></trkpt><trkpt lat="45.3756375" lon="9.2797301"><ele>94.0</ele><time>2026-04-20T18:13:44.381Z</time></trkpt><trkpt lat="45.3757336" lon="9.2796732"><ele>94.2</ele><time>2026-04-20T18:13:46.381Z</time></trkpt><trkpt lat="45.3758249" lon="9.2796367"><ele>94.4</ele><time>2026-04-20T18:13:48.386Z</time></trkpt><trkpt lat="45.3759109" lon="9.2795866"><ele>94.6</ele><time>2026-04-20T18:13:50.378Z</time></trkpt><trkpt lat="45.3759942" lon="9.2795284"><ele>94.8</ele><time>2026-04-20T18:13:52.383Z</time></trkpt><trkpt lat="45.3760758" lon="9.2794719"><ele>95.0</ele><time>2026-04-20T18:13:54.381Z</time></trkpt><trkpt lat="45.376166" lon="9.279428"><ele>95.0</ele><time>2026-04-20T18:13:56.381Z</time></trkpt><trkpt lat="45.3762562" lon="9.2793751"><ele>95.0</ele><time>2026-04-20T18:13:58.382Z</time></trkpt><trkpt lat="45.3763485" lon="9.2793198"><ele>95.0</ele><time>2026-04-20T18:14:00.387Z</time></trkpt><trkpt lat="45.3764381" lon="9.2792585"><ele>95.0</ele><time>2026-04-20T18:14:02.384Z</time></trkpt><trkpt lat="45.3765307" lon="9.2792055"><ele>95.0</ele><time>2026-04-20T18:14:04.386Z</time></trkpt><trkpt lat="45.3766183" lon="9.2791551"><ele>95.0</ele><time>2026-04-20T18:14:06.389Z</time></trkpt><trkpt lat="45.3767096" lon="9.2791058"><ele>95.0</ele><time>2026-04-20T18:14:08.386Z</time></trkpt><trkpt lat="45.3767915" lon="9.2790502"><ele>95.0</ele><time>2026-04-20T18:14:10.383Z</time></trkpt><trkpt lat="45.3768745" lon="9.2789964"><ele>95.0</ele><time>2026-04-20T18:14:12.38Z</time></trkpt><trkpt lat="45.3769618" lon="9.2789476"><ele>95.0</ele><time>2026-04-20T18:14:14.383Z</time></trkpt><trkpt lat="45.3770423" lon="9.2788814"><ele>95.0</ele><time>2026-04-20T18:14:16.386Z</time></trkpt><trkpt lat="45.3771204" lon="9.2788141"><ele>95.0</ele><time>2026-04-20T18:14:18.386Z</time></trkpt><trkpt lat="45.3772097" lon="9.2787871"><ele>95.0</ele><time>2026-04-20T18:14:20.385Z</time></trkpt><trkpt lat="45.3773075" lon="9.2787379"><ele>95.0</ele><time>2026-04-20T18:14:22.381Z</time></trkpt><trkpt lat="45.3774011" lon="9.2786813"><ele>95.0</ele><time>2026-04-20T18:14:24.38Z</time></trkpt><trkpt lat="45.3774901" lon="9.278633"><ele>95.0</ele><time>2026-04-20T18:14:26.391Z</time></trkpt><trkpt lat="45.3775812" lon="9.2785719"><ele>95.0</ele><time>2026-04-20T18:14:28.377Z</time></trkpt><trkpt lat="45.3776603" lon="9.2785228"><ele>95.0</ele><time>2026-04-20T18:14:30.38Z</time></trkpt><trkpt lat="45.3777332" lon="9.2784785"><ele>95.0</ele><time>2026-04-20T18:14:32.38Z</time></trkpt><trkpt lat="45.3778152" lon="9.2784251"><ele>95.0</ele><time>2026-04-20T18:14:34.376Z</time></trkpt><trkpt lat="45.3779006" lon="9.2783681"><ele>95.0</ele><time>2026-04-20T18:14:36.386Z</time></trkpt><trkpt lat="45.3779769" lon="9.2783044"><ele>95.0</ele><time>2026-04-20T18:14:38.381Z</time></trkpt><trkpt lat="45.3780594" lon="9.2782412"><ele>95.0</ele><time>2026-04-20T18:14:40.384Z</time></trkpt><trkpt lat="45.3781289" lon="9.2781736"><ele>95.0</ele><time>2026-04-20T18:14:42.377Z</time></trkpt><trkpt lat="45.3782031" lon="9.2781124"><ele>95.0</ele><time>2026-04-20T18:14:44.379Z</time></trkpt><trkpt lat="45.378281" lon="9.2780609"><ele>95.0</ele><time>2026-04-20T18:14:46.379Z</time></trkpt><trkpt lat="45.3783585" lon="9.2780119"><ele>95.4</ele><time>2026-04-20T18:14:48.38Z</time></trkpt><trkpt lat="45.3784441" lon="9.2779559"><ele>95.8</ele><time>2026-04-20T18:14:50.385Z</time></trkpt><trkpt lat="45.3785349" lon="9.2779027"><ele>96.19999999999999</ele><time>2026-04-20T18:14:52.388Z</time></trkpt><trkpt lat="45.3786272" lon="9.2778546"><ele>96.6</ele><time>2026-04-20T18:14:54.382Z</time></trkpt><trkpt lat="45.3787112" lon="9.2777948"><ele>97.0</ele><time>2026-04-20T18:14:56.385Z</time></trkpt><trkpt lat="45.3787978" lon="9.2777481"><ele>96.39999999999999</ele><time>2026-04-20T18:14:58.38Z</time></trkpt><trkpt lat="45.3788842" lon="9.2777019"><ele>95.8</ele><time>2026-04-20T18:15:00.387Z</time></trkpt><trkpt lat="45.3789704" lon="9.2776404"><ele>95.2</ele><time>2026-04-20T18:15:02.384Z</time></trkpt><trkpt lat="45.3790543" lon="9.2775793"><ele>94.6</ele><time>2026-04-20T18:15:04.388Z</time></trkpt><trkpt lat="45.3791375" lon="9.2775394"><ele>94.0</ele><time>2026-04-20T18:15:06.386Z</time></trkpt><trkpt lat="45.3792154" lon="9.2774873"><ele>94.0</ele><time>2026-04-20T18:15:08.381Z</time></trkpt><trkpt lat="45.3792961" lon="9.2774271"><ele>94.0</ele><time>2026-04-20T18:15:10.378Z</time></trkpt><trkpt lat="45.3793834" lon="9.2773807"><ele>94.0</ele><time>2026-04-20T18:15:12.379Z</time></trkpt><trkpt lat="45.3794698" lon="9.27733"><ele>94.0</ele><time>2026-04-20T18:15:14.378Z</time></trkpt><trkpt lat="45.3795606" lon="9.2772825"><ele>94.0</ele><time>2026-04-20T18:15:16.383Z</time></trkpt><trkpt lat="45.3796453" lon="9.2772285"><ele>93.0</ele><time>2026-04-20T18:15:18.385Z</time></trkpt><trkpt lat="45.3797278" lon="9.2771821"><ele>92.0</ele><time>2026-04-20T18:15:20.382Z</time></trkpt><trkpt lat="45.3798083" lon="9.2771273"><ele>91.0</ele><time>2026-04-20T18:15:22.387Z</time></trkpt><trkpt lat="45.3798935" lon="9.2770725"><ele>90.0</ele><time>2026-04-20T18:15:24.382Z</time></trkpt><trkpt lat="45.3799761" lon="9.2770245"><ele>89.0</ele><time>2026-04-20T18:15:26.391Z</time></trkpt><trkpt lat="45.3800595" lon="9.2769655"><ele>89.0</ele><time>2026-04-20T18:15:28.387Z</time></trkpt><trkpt lat="45.3801448" lon="9.2769197"><ele>89.0</ele><time>2026-04-20T18:15:30.386Z</time></trkpt><trkpt lat="45.3802218" lon="9.2768637"><ele>89.0</ele><time>2026-04-20T18:15:32.393Z</time></trkpt><trkpt lat="45.3803117" lon="9.2768147"><ele>89.0</ele><time>2026-04-20T18:15:34.384Z</time></trkpt><trkpt lat="45.3803966" lon="9.2767624"><ele>89.0</ele><time>2026-04-20T18:15:36.386Z</time></trkpt><trkpt lat="45.3804769" lon="9.2767148"><ele>89.5</ele><time>2026-04-20T18:15:38.377Z</time></trkpt><trkpt lat="45.3805549" lon="9.2766574"><ele>90.0</ele><time>2026-04-20T18:15:40.382Z</time></trkpt><trkpt lat="45.3806352" lon="9.2766091"><ele>90.5</ele><time>2026-04-20T18:15:42.386Z</time></trkpt><trkpt lat="45.3807234" lon="9.2765585"><ele>91.0</ele><time>2026-04-20T18:15:44.385Z</time></trkpt><trkpt lat="45.3808024" lon="9.276506"><ele>91.5</ele><time>2026-04-20T18:15:46.38Z</time></trkpt><trkpt lat="45.3808873" lon="9.2764559"><ele>92.0</ele><time>2026-04-20T18:15:48.378Z</time></trkpt><trkpt lat="45.3809744" lon="9.2764101"><ele>92.0</ele><time>2026-04-20T18:15:50.38Z</time></trkpt><trkpt lat="45.3810558" lon="9.2763564"><ele>92.0</ele><time>2026-04-20T18:15:52.387Z</time></trkpt><trkpt lat="45.3811435" lon="9.2762991"><ele>92.0</ele><time>2026-04-20T18:15:54.382Z</time></trkpt><trkpt lat="45.3812271" lon="9.276247"><ele>92.0</ele><time>2026-04-20T18:15:56.387Z</time></trkpt><trkpt lat="45.3813142" lon="9.2761965"><ele>92.0</ele><time>2026-04-20T18:15:58.381Z</time></trkpt><trkpt lat="45.3814044" lon="9.2761365"><ele>92.39999999999999</ele><time>2026-04-20T18:16:00.384Z</time></trkpt><trkpt lat="45.381491" lon="9.2760856"><ele>92.8</ele><time>2026-04-20T18:16:02.378Z</time></trkpt><trkpt lat="45.3815781" lon="9.2760359"><ele>93.2</ele><time>2026-04-20T18:16:04.382Z</time></trkpt><trkpt lat="45.3816601" lon="9.2759892"><ele>93.6</ele><time>2026-04-20T18:16:06.385Z</time></trkpt><trkpt lat="45.3817413" lon="9.2759347"><ele>94.0</ele><time>2026-04-20T18:16:08.384Z</time></trkpt><trkpt lat="45.3818243" lon="9.27588"><ele>94.0</ele><time>2026-04-20T18:16:10.381Z</time></trkpt><trkpt lat="45.3819085" lon="9.2758303"><ele>94.0</ele><time>2026-04-20T18:16:12.38Z</time></trkpt><trkpt lat="45.3819928" lon="9.2757842"><ele>94.0</ele><time>2026-04-20T18:16:14.385Z</time></trkpt><trkpt lat="45.3820772" lon="9.2757382"><ele>94.0</ele><time>2026-04-20T18:16:16.377Z</time></trkpt><trkpt lat="45.3821562" lon="9.2756833"><ele>94.0</ele><time>2026-04-20T18:16:18.384Z</time></trkpt><trkpt lat="45.3822404" lon="9.275629"><ele>93.80000000000001</ele><time>2026-04-20T18:16:20.387Z</time></trkpt><trkpt lat="45.3823261" lon="9.2755697"><ele>93.60000000000001</ele><time>2026-04-20T18:16:22.384Z</time></trkpt><trkpt lat="45.3824135" lon="9.2755218"><ele>93.4</ele><time>2026-04-20T18:16:24.38Z</time></trkpt><trkpt lat="45.382493" lon="9.2754744"><ele>93.2</ele><time>2026-04-20T18:16:26.386Z</time></trkpt><trkpt lat="45.3825771" lon="9.2754244"><ele>93.0</ele><time>2026-04-20T18:16:28.385Z</time></trkpt><trkpt lat="45.3826625" lon="9.2753674"><ele>93.0</ele><time>2026-04-20T18:16:30.393Z</time></trkpt><trkpt lat="45.3827487" lon="9.2753153"><ele>93.0</ele><time>2026-04-20T18:16:32.383Z</time></trkpt><trkpt lat="45.3828358" lon="9.275259"><ele>93.0</ele><time>2026-04-20T18:16:34.388Z</time></trkpt><trkpt lat="45.3829259" lon="9.2752118"><ele>93.0</ele><time>2026-04-20T18:16:36.387Z</time></trkpt><trkpt lat="45.3830109" lon="9.275167"><ele>93.0</ele><time>2026-04-20T18:16:38.378Z</time></trkpt><trkpt lat="45.3830975" lon="9.2751182"><ele>93.2</ele><time>2026-04-20T18:16:40.382Z</time></trkpt><trkpt lat="45.3831864" lon="9.2750763"><ele>93.4</ele><time>2026-04-20T18:16:42.382Z</time></trkpt><trkpt lat="45.3832724" lon="9.2750379"><ele>93.60000000000001</ele><time>2026-04-20T18:16:44.381Z</time></trkpt><trkpt lat="45.3833635" lon="9.2750062"><ele>93.80000000000001</ele><time>2026-04-20T18:16:46.378Z</time></trkpt><trkpt lat="45.3834563" lon="9.2749766"><ele>94.0</ele><time>2026-04-20T18:16:48.385Z</time></trkpt><trkpt lat="45.3835409" lon="9.2749467"><ele>94.0</ele><time>2026-04-20T18:16:50.381Z</time></trkpt><trkpt lat="45.3836241" lon="9.2749202"><ele>94.0</ele><time>2026-04-20T18:16:52.381Z</time></trkpt><trkpt lat="45.3836936" lon="9.2748869"><ele>94.0</ele><time>2026-04-20T18:16:54.376Z</time></trkpt><trkpt lat="45.3837584" lon="9.2748647"><ele>94.0</ele><time>2026-04-20T18:16:56.383Z</time></trkpt><trkpt lat="45.3838251" lon="9.274842"><ele>94.0</ele><time>2026-04-20T18:16:59.382Z</time></trkpt><trkpt lat="45.3839113" lon="9.274811"><ele>94.0</ele><time>2026-04-20T18:17:03.381Z</time></trkpt><trkpt lat="45.3839762" lon="9.2747683"><ele>93.83333333333333</ele><time>2026-04-20T18:17:05.382Z</time></trkpt><trkpt lat="45.3840534" lon="9.2747476"><ele>93.66666666666666</ele><time>2026-04-20T18:17:07.385Z</time></trkpt><trkpt lat="45.3841323" lon="9.2747194"><ele>93.5</ele><time>2026-04-20T18:17:09.379Z</time></trkpt><trkpt lat="45.3842072" lon="9.2746912"><ele>93.33333333333333</ele><time>2026-04-20T18:17:11.382Z</time></trkpt><trkpt lat="45.3842814" lon="9.2746559"><ele>93.16666666666667</ele><time>2026-04-20T18:17:13.38Z</time></trkpt><trkpt lat="45.3843492" lon="9.2746242"><ele>93.0</ele><time>2026-04-20T18:17:15.387Z</time></trkpt><trkpt lat="45.3844267" lon="9.2745842"><ele>93.0</ele><time>2026-04-20T18:17:17.378Z</time></trkpt><trkpt lat="45.3845095" lon="9.2745518"><ele>93.0</ele><time>2026-04-20T18:17:19.38Z</time></trkpt><trkpt lat="45.3846012" lon="9.2745092"><ele>93.0</ele><time>2026-04-20T18:17:21.374Z</time></trkpt><trkpt lat="45.384697" lon="9.2744674"><ele>93.0</ele><time>2026-04-20T18:17:23.383Z</time></trkpt><trkpt lat="45.384792" lon="9.2744328"><ele>93.0</ele><time>2026-04-20T18:17:25.386Z</time></trkpt><trkpt lat="45.3848836" lon="9.2743956"><ele>93.33333333333333</ele><time>2026-04-20T18:17:27.382Z</time></trkpt><trkpt lat="45.3849707" lon="9.2743572"><ele>93.66666666666667</ele><time>2026-04-20T18:17:29.383Z</time></trkpt><trkpt lat="45.3850623" lon="9.2743169"><ele>94.0</ele><time>2026-04-20T18:17:31.381Z</time></trkpt><trkpt lat="45.3851497" lon="9.2742774"><ele>94.33333333333334</ele><time>2026-04-20T18:17:33.383Z</time></trkpt><trkpt lat="45.3852343" lon="9.2742265"><ele>94.66666666666667</ele><time>2026-04-20T18:17:35.381Z</time></trkpt><trkpt lat="45.3853086" lon="9.2741981"><ele>95.0</ele><time>2026-04-20T18:17:37.384Z</time></trkpt><trkpt lat="45.3853862" lon="9.2741394"><ele>95.0</ele><time>2026-04-20T18:17:39.38Z</time></trkpt><trkpt lat="45.3854728" lon="9.2741753"><ele>95.0</ele><time>2026-04-20T18:17:41.379Z</time></trkpt><trkpt lat="45.3854985" lon="9.2742801"><ele>95.0</ele><time>2026-04-20T18:17:43.38Z</time></trkpt><trkpt lat="45.3855228" lon="9.2743979"><ele>95.0</ele><time>2026-04-20T18:17:45.385Z</time></trkpt><trkpt lat="45.3855408" lon="9.2745131"><ele>95.0</ele><time>2026-04-20T18:17:47.376Z</time></trkpt><trkpt lat="45.385551" lon="9.2746345"><ele>95.0</ele><time>2026-04-20T18:17:49.381Z</time></trkpt><trkpt lat="45.3855552" lon="9.2747639"><ele>95.0</ele><time>2026-04-20T18:17:51.382Z</time></trkpt><trkpt lat="45.3855637" lon="9.274894"><ele>95.0</ele><time>2026-04-20T18:17:53.383Z</time></trkpt><trkpt lat="45.3855696" lon="9.2750089"><ele>95.0</ele><time>2026-04-20T18:17:55.384Z</time></trkpt><trkpt lat="45.3855732" lon="9.2751207"><ele>95.0</ele><time>2026-04-20T18:17:57.375Z</time></trkpt><trkpt lat="45.3855821" lon="9.2752393"><ele>95.0</ele><time>2026-04-20T18:17:59.382Z</time></trkpt><trkpt lat="45.3855835" lon="9.2753496"><ele>95.0</ele><time>2026-04-20T18:18:01.382Z</time></trkpt><trkpt lat="45.3855678" lon="9.2754669"><ele>95.0</ele><time>2026-04-20T18:18:03.383Z</time></trkpt><trkpt lat="45.3855426" lon="9.275578"><ele>95.0</ele><time>2026-04-20T18:18:05.381Z</time></trkpt><trkpt lat="45.3855245" lon="9.2756926"><ele>95.0</ele><time>2026-04-20T18:18:07.376Z</time></trkpt><trkpt lat="45.385518" lon="9.2758072"><ele>95.0</ele><time>2026-04-20T18:18:09.39Z</time></trkpt><trkpt lat="45.3855145" lon="9.2759243"><ele>95.0</ele><time>2026-04-20T18:18:11.376Z</time></trkpt><trkpt lat="45.3855053" lon="9.2760376"><ele>95.0</ele><time>2026-04-20T18:18:13.376Z</time></trkpt><trkpt lat="45.3854994" lon="9.2761551"><ele>95.6</ele><time>2026-04-20T18:18:15.382Z</time></trkpt><trkpt lat="45.3854862" lon="9.2762707"><ele>96.2</ele><time>2026-04-20T18:18:17.379Z</time></trkpt><trkpt lat="45.3854783" lon="9.2763969"><ele>96.80000000000001</ele><time>2026-04-20T18:18:19.383Z</time></trkpt><trkpt lat="45.3854744" lon="9.276525"><ele>97.4</ele><time>2026-04-20T18:18:21.376Z</time></trkpt><trkpt lat="45.3854547" lon="9.276661"><ele>98.0</ele><time>2026-04-20T18:18:23.382Z</time></trkpt><trkpt lat="45.385448" lon="9.2767899"><ele>98.0</ele><time>2026-04-20T18:18:25.377Z</time></trkpt><trkpt lat="45.3854344" lon="9.2769207"><ele>98.0</ele><time>2026-04-20T18:18:27.376Z</time></trkpt><trkpt lat="45.3854186" lon="9.2770533"><ele>98.0</ele><time>2026-04-20T18:18:29.382Z</time></trkpt><trkpt lat="45.3854035" lon="9.277185"><ele>98.0</ele><time>2026-04-20T18:18:31.384Z</time></trkpt><trkpt lat="45.3853986" lon="9.2773211"><ele>98.0</ele><time>2026-04-20T18:18:33.381Z</time></trkpt><trkpt lat="45.3854051" lon="9.2774446"><ele>98.0</ele><time>2026-04-20T18:18:35.381Z</time></trkpt><trkpt lat="45.3854185" lon="9.2775758"><ele>98.0</ele><time>2026-04-20T18:18:37.381Z</time></trkpt><trkpt lat="45.3854221" lon="9.2777073"><ele>98.0</ele><time>2026-04-20T18:18:39.382Z</time></trkpt><trkpt lat="45.3854413" lon="9.2778343"><ele>98.0</ele><time>2026-04-20T18:18:41.375Z</time></trkpt><trkpt lat="45.3854812" lon="9.2779686"><ele>98.0</ele><time>2026-04-20T18:18:43.375Z</time></trkpt><trkpt lat="45.3855251" lon="9.2780921"><ele>97.66666666666666</ele><time>2026-04-20T18:18:45.38Z</time></trkpt><trkpt lat="45.385547" lon="9.2782203"><ele>97.33333333333333</ele><time>2026-04-20T18:18:47.38Z</time></trkpt><trkpt lat="45.3855651" lon="9.2783496"><ele>97.0</ele><time>2026-04-20T18:18:49.381Z</time></trkpt><trkpt lat="45.3855714" lon="9.2784759"><ele>96.66666666666666</ele><time>2026-04-20T18:18:51.38Z</time></trkpt><trkpt lat="45.3855526" lon="9.2785936"><ele>96.33333333333333</ele><time>2026-04-20T18:18:53.381Z</time></trkpt><trkpt lat="45.3855413" lon="9.2787196"><ele>96.0</ele><time>2026-04-20T18:18:55.381Z</time></trkpt><trkpt lat="45.3855725" lon="9.2788145"><ele>96.0</ele><time>2026-04-20T18:18:57.377Z</time></trkpt><trkpt lat="45.3856557" lon="9.2788676"><ele>96.0</ele><time>2026-04-20T18:18:59.382Z</time></trkpt><trkpt lat="45.3857356" lon="9.2789267"><ele>96.0</ele><time>2026-04-20T18:19:01.385Z</time></trkpt><trkpt lat="45.3858169" lon="9.2789677"><ele>96.0</ele><time>2026-04-20T18:19:03.377Z</time></trkpt><trkpt lat="45.3859068" lon="9.2790068"><ele>96.0</ele><time>2026-04-20T18:19:05.38Z</time></trkpt><trkpt lat="45.3859944" lon="9.2790602"><ele>95.19999999999999</ele><time>2026-04-20T18:19:07.38Z</time></trkpt><trkpt lat="45.3860754" lon="9.2791271"><ele>94.39999999999999</ele><time>2026-04-20T18:19:09.386Z</time></trkpt><trkpt lat="45.3861583" lon="9.2792107"><ele>93.6</ele><time>2026-04-20T18:19:11.382Z</time></trkpt><trkpt lat="45.38625" lon="9.2792835"><ele>92.8</ele><time>2026-04-20T18:19:13.38Z</time></trkpt><trkpt lat="45.3863266" lon="9.2793761"><ele>92.0</ele><time>2026-04-20T18:19:15.374Z</time></trkpt><trkpt lat="45.3863938" lon="9.2794671"><ele>92.0</ele><time>2026-04-20T18:19:17.379Z</time></trkpt><trkpt lat="45.3864657" lon="9.279556"><ele>92.0</ele><time>2026-04-20T18:19:19.375Z</time></trkpt><trkpt lat="45.3865307" lon="9.2796476"><ele>92.0</ele><time>2026-04-20T18:19:21.375Z</time></trkpt><trkpt lat="45.386596" lon="9.2797317"><ele>92.0</ele><time>2026-04-20T18:19:23.378Z</time></trkpt><trkpt lat="45.3866646" lon="9.2798215"><ele>92.0</ele><time>2026-04-20T18:19:25.379Z</time></trkpt><trkpt lat="45.3867311" lon="9.2799128"><ele>92.33333333333334</ele><time>2026-04-20T18:19:27.378Z</time></trkpt><trkpt lat="45.3867944" lon="9.2800011"><ele>92.66666666666667</ele><time>2026-04-20T18:19:29.379Z</time></trkpt><trkpt lat="45.3868605" lon="9.2800814"><ele>93.0</ele><time>2026-04-20T18:19:31.383Z</time></trkpt><trkpt lat="45.3869246" lon="9.2801647"><ele>93.33333333333333</ele><time>2026-04-20T18:19:33.38Z</time></trkpt><trkpt lat="45.3869851" lon="9.2802467"><ele>93.66666666666666</ele><time>2026-04-20T18:19:35.378Z</time></trkpt><trkpt lat="45.3870483" lon="9.2803331"><ele>94.0</ele><time>2026-04-20T18:19:37.382Z</time></trkpt><trkpt lat="45.3871048" lon="9.2804164"><ele>94.0</ele><time>2026-04-20T18:19:39.38Z</time></trkpt><trkpt lat="45.3871634" lon="9.2804909"><ele>94.0</ele><time>2026-04-20T18:19:41.378Z</time></trkpt><trkpt lat="45.3872275" lon="9.2805667"><ele>94.0</ele><time>2026-04-20T18:19:43.374Z</time></trkpt><trkpt lat="45.3872923" lon="9.2806548"><ele>94.0</ele><time>2026-04-20T18:19:45.376Z</time></trkpt><trkpt lat="45.3873569" lon="9.2807431"><ele>94.0</ele><time>2026-04-20T18:19:47.379Z</time></trkpt><trkpt lat="45.3874213" lon="9.2808353"><ele>94.0</ele><time>2026-04-20T18:19:49.375Z</time></trkpt><trkpt lat="45.3874808" lon="9.2809246"><ele>93.80000000000001</ele><time>2026-04-20T18:19:51.375Z</time></trkpt><trkpt lat="45.3875412" lon="9.281017"><ele>93.60000000000001</ele><time>2026-04-20T18:19:53.377Z</time></trkpt><trkpt lat="45.3876053" lon="9.2811024"><ele>93.4</ele><time>2026-04-20T18:19:55.376Z</time></trkpt><trkpt lat="45.38768" lon="9.2811676"><ele>93.2</ele><time>2026-04-20T18:19:57.374Z</time></trkpt><trkpt lat="45.3877547" lon="9.2812595"><ele>93.0</ele><time>2026-04-20T18:19:59.376Z</time></trkpt><trkpt lat="45.3878235" lon="9.2813453"><ele>93.2</ele><time>2026-04-20T18:20:01.379Z</time></trkpt><trkpt lat="45.3878903" lon="9.2814371"><ele>93.4</ele><time>2026-04-20T18:20:03.379Z</time></trkpt><trkpt lat="45.3879606" lon="9.2815215"><ele>93.60000000000001</ele><time>2026-04-20T18:20:05.378Z</time></trkpt><trkpt lat="45.3880259" lon="9.2816181"><ele>93.80000000000001</ele><time>2026-04-20T18:20:07.377Z</time></trkpt><trkpt lat="45.3880878" lon="9.2816951"><ele>94.0</ele><time>2026-04-20T18:20:09.379Z</time></trkpt><trkpt lat="45.3881514" lon="9.28179"><ele>94.0</ele><time>2026-04-20T18:20:11.382Z</time></trkpt><trkpt lat="45.3882057" lon="9.281866"><ele>94.0</ele><time>2026-04-20T18:20:13.378Z</time></trkpt><trkpt lat="45.3882737" lon="9.2819432"><ele>94.0</ele><time>2026-04-20T18:20:15.371Z</time></trkpt><trkpt lat="45.3883465" lon="9.2820189"><ele>94.0</ele><time>2026-04-20T18:20:17.384Z</time></trkpt><trkpt lat="45.388406" lon="9.2821185"><ele>94.0</ele><time>2026-04-20T18:20:19.385Z</time></trkpt><trkpt lat="45.3884574" lon="9.2822023"><ele>94.0</ele><time>2026-04-20T18:20:21.388Z</time></trkpt><trkpt lat="45.3885294" lon="9.2822963"><ele>94.0</ele><time>2026-04-20T18:20:24.381Z</time></trkpt><trkpt lat="45.3886001" lon="9.2823877"><ele>94.0</ele><time>2026-04-20T18:20:26.382Z</time></trkpt><trkpt lat="45.3886738" lon="9.2824659"><ele>94.0</ele><time>2026-04-20T18:20:28.379Z</time></trkpt><trkpt lat="45.3887401" lon="9.2825394"><ele>94.0</ele><time>2026-04-20T18:20:30.378Z</time></trkpt><trkpt lat="45.3888069" lon="9.2826286"><ele>94.0</ele><time>2026-04-20T18:20:32.39Z</time></trkpt><trkpt lat="45.388866" lon="9.2827278"><ele>94.0</ele><time>2026-04-20T18:20:34.377Z</time></trkpt><trkpt lat="45.3889341" lon="9.2828183"><ele>94.0</ele><time>2026-04-20T18:20:36.383Z</time></trkpt><trkpt lat="45.3889956" lon="9.2828918"><ele>94.0</ele><time>2026-04-20T18:20:38.382Z</time></trkpt><trkpt lat="45.3890691" lon="9.2829811"><ele>94.0</ele><time>2026-04-20T18:20:40.384Z</time></trkpt><trkpt lat="45.3891391" lon="9.2830722"><ele>94.0</ele><time>2026-04-20T18:20:42.376Z</time></trkpt><trkpt lat="45.3891999" lon="9.2831672"><ele>94.2</ele><time>2026-04-20T18:20:44.377Z</time></trkpt><trkpt lat="45.3892725" lon="9.2832686"><ele>94.4</ele><time>2026-04-20T18:20:46.382Z</time></trkpt><trkpt lat="45.3893459" lon="9.2833637"><ele>94.6</ele><time>2026-04-20T18:20:48.385Z</time></trkpt><trkpt lat="45.3894047" lon="9.283448"><ele>94.8</ele><time>2026-04-20T18:20:50.382Z</time></trkpt><trkpt lat="45.3894692" lon="9.28353"><ele>95.0</ele><time>2026-04-20T18:20:52.378Z</time></trkpt><trkpt lat="45.3895374" lon="9.2836133"><ele>95.0</ele><time>2026-04-20T18:20:54.381Z</time></trkpt><trkpt lat="45.3896027" lon="9.2836833"><ele>95.0</ele><time>2026-04-20T18:20:56.384Z</time></trkpt><trkpt lat="45.3896782" lon="9.2837637"><ele>95.0</ele><time>2026-04-20T18:20:58.378Z</time></trkpt><trkpt lat="45.3897397" lon="9.2838283"><ele>95.0</ele><time>2026-04-20T18:21:00.382Z</time></trkpt><trkpt lat="45.3897945" lon="9.2839027"><ele>95.0</ele><time>2026-04-20T18:21:02.376Z</time></trkpt><trkpt lat="45.3898593" lon="9.2839769"><ele>95.0</ele><time>2026-04-20T18:21:04.381Z</time></trkpt><trkpt lat="45.3899245" lon="9.2840438"><ele>95.0</ele><time>2026-04-20T18:21:06.385Z</time></trkpt><trkpt lat="45.3899913" lon="9.2841299"><ele>95.0</ele><time>2026-04-20T18:21:08.38Z</time></trkpt><trkpt lat="45.3900606" lon="9.2842077"><ele>95.0</ele><time>2026-04-20T18:21:10.378Z</time></trkpt><trkpt lat="45.3901255" lon="9.2842808"><ele>95.0</ele><time>2026-04-20T18:21:12.373Z</time></trkpt><trkpt lat="45.3901802" lon="9.2843754"><ele>95.0</ele><time>2026-04-20T18:21:14.375Z</time></trkpt><trkpt lat="45.3902371" lon="9.2844609"><ele>95.0</ele><time>2026-04-20T18:21:16.375Z</time></trkpt><trkpt lat="45.3902998" lon="9.2845364"><ele>95.0</ele><time>2026-04-20T18:21:18.377Z</time></trkpt><trkpt lat="45.3903569" lon="9.2846205"><ele>95.0</ele><time>2026-04-20T18:21:20.38Z</time></trkpt><trkpt lat="45.390403" lon="9.2847134"><ele>95.0</ele><time>2026-04-20T18:21:22.376Z</time></trkpt><trkpt lat="45.3904693" lon="9.2847814"><ele>95.0</ele><time>2026-04-20T18:21:24.379Z</time></trkpt><trkpt lat="45.3905243" lon="9.2848564"><ele>95.0</ele><time>2026-04-20T18:21:26.381Z</time></trkpt><trkpt lat="45.3905797" lon="9.2849265"><ele>95.0</ele><time>2026-04-20T18:21:28.376Z</time></trkpt><trkpt lat="45.3906326" lon="9.2850062"><ele>95.0</ele><time>2026-04-20T18:21:30.379Z</time></trkpt><trkpt lat="45.3906924" lon="9.285076"><ele>95.0</ele><time>2026-04-20T18:21:32.38Z</time></trkpt><trkpt lat="45.3907481" lon="9.2851273"><ele>95.0</ele><time>2026-04-20T18:21:34.379Z</time></trkpt><trkpt lat="45.3908027" lon="9.2851973"><ele>95.0</ele><time>2026-04-20T18:21:36.384Z</time></trkpt><trkpt lat="45.3908541" lon="9.2852692"><ele>95.0</ele><time>2026-04-20T18:21:38.382Z</time></trkpt><trkpt lat="45.3909063" lon="9.2853313"><ele>95.0</ele><time>2026-04-20T18:21:40.38Z</time></trkpt><trkpt lat="45.3909597" lon="9.285402"><ele>95.0</ele><time>2026-04-20T18:21:42.381Z</time></trkpt><trkpt lat="45.3910087" lon="9.2854676"><ele>95.0</ele><time>2026-04-20T18:21:44.381Z</time></trkpt><trkpt lat="45.3910606" lon="9.2855225"><ele>95.0</ele><time>2026-04-20T18:21:46.381Z</time></trkpt><trkpt lat="45.3911077" lon="9.2855853"><ele>95.0</ele><time>2026-04-20T18:21:48.382Z</time></trkpt><trkpt lat="45.3911511" lon="9.2856516"><ele>95.0</ele><time>2026-04-20T18:21:50.388Z</time></trkpt><trkpt lat="45.3912009" lon="9.2857207"><ele>95.0</ele><time>2026-04-20T18:21:52.381Z</time></trkpt><trkpt lat="45.3912522" lon="9.2858075"><ele>95.0</ele><time>2026-04-20T18:21:54.38Z</time></trkpt><trkpt lat="45.3913296" lon="9.2859027"><ele>95.0</ele><time>2026-04-20T18:21:56.384Z</time></trkpt><trkpt lat="45.391416" lon="9.286011"><ele>95.0</ele><time>2026-04-20T18:21:58.381Z</time></trkpt><trkpt lat="45.391501" lon="9.2861451"><ele>95.0</ele><time>2026-04-20T18:22:00.379Z</time></trkpt><trkpt lat="45.3915961" lon="9.2862499"><ele>95.0</ele><time>2026-04-20T18:22:02.386Z</time></trkpt><trkpt lat="45.3916573" lon="9.28635"><ele>95.0</ele><time>2026-04-20T18:22:04.382Z</time></trkpt><trkpt lat="45.3917257" lon="9.286419"><ele>95.0</ele><time>2026-04-20T18:22:06.377Z</time></trkpt><trkpt lat="45.3917827" lon="9.2864953"><ele>95.0</ele><time>2026-04-20T18:22:08.376Z</time></trkpt><trkpt lat="45.3918409" lon="9.286562"><ele>95.0</ele><time>2026-04-20T18:22:11.382Z</time></trkpt><trkpt lat="45.3918776" lon="9.2864662"><ele>95.0</ele><time>2026-04-20T18:22:14.375Z</time></trkpt><trkpt lat="45.3919547" lon="9.2863996"><ele>95.0</ele><time>2026-04-20T18:22:17.373Z</time></trkpt><trkpt lat="45.3920331" lon="9.2863779"><ele>95.0</ele><time>2026-04-20T18:22:19.383Z</time></trkpt><trkpt lat="45.3921202" lon="9.2863425"><ele>95.0</ele><time>2026-04-20T18:22:21.377Z</time></trkpt><trkpt lat="45.392197" lon="9.2863628"><ele>95.14285714285714</ele><time>2026-04-20T18:22:23.378Z</time></trkpt><trkpt lat="45.3922581" lon="9.2864534"><ele>95.28571428571429</ele><time>2026-04-20T18:22:25.381Z</time></trkpt><trkpt lat="45.3923142" lon="9.2865299"><ele>95.42857142857142</ele><time>2026-04-20T18:22:27.384Z</time></trkpt><trkpt lat="45.3923725" lon="9.2865815"><ele>95.57142857142857</ele><time>2026-04-20T18:22:29.382Z</time></trkpt><trkpt lat="45.3924343" lon="9.2865435"><ele>95.71428571428571</ele><time>2026-04-20T18:22:31.38Z</time></trkpt><trkpt lat="45.3924905" lon="9.2864793"><ele>95.85714285714285</ele><time>2026-04-20T18:22:33.377Z</time></trkpt><trkpt lat="45.3925443" lon="9.2864119"><ele>96.0</ele><time>2026-04-20T18:22:35.379Z</time></trkpt><trkpt lat="45.392605" lon="9.2863258"><ele>96.0</ele><time>2026-04-20T18:22:37.378Z</time></trkpt><trkpt lat="45.3926606" lon="9.2862385"><ele>96.0</ele><time>2026-04-20T18:22:39.378Z</time></trkpt><trkpt lat="45.3927253" lon="9.2861697"><ele>96.0</ele><time>2026-04-20T18:22:41.378Z</time></trkpt><trkpt lat="45.3927834" lon="9.2860851"><ele>96.0</ele><time>2026-04-20T18:22:43.379Z</time></trkpt><trkpt lat="45.3928258" lon="9.285998"><ele>96.0</ele><time>2026-04-20T18:22:45.378Z</time></trkpt><trkpt lat="45.3928617" lon="9.2859063"><ele>96.0</ele><time>2026-04-20T18:22:47.378Z</time></trkpt><trkpt lat="45.3929048" lon="9.2858174"><ele>96.0</ele><time>2026-04-20T18:22:49.383Z</time></trkpt><trkpt lat="45.3929644" lon="9.285748"><ele>96.0</ele><time>2026-04-20T18:22:51.378Z</time></trkpt><trkpt lat="45.3930204" lon="9.285664"><ele>96.0</ele><time>2026-04-20T18:22:53.389Z</time></trkpt><trkpt lat="45.3930626" lon="9.2855768"><ele>96.0</ele><time>2026-04-20T18:22:55.383Z</time></trkpt><trkpt lat="45.3931187" lon="9.2855009"><ele>96.0</ele><time>2026-04-20T18:22:57.38Z</time></trkpt><trkpt lat="45.3931772" lon="9.285419"><ele>96.0</ele><time>2026-04-20T18:22:59.377Z</time></trkpt><trkpt lat="45.3932367" lon="9.2853434"><ele>96.16666666666667</ele><time>2026-04-20T18:23:01.381Z</time></trkpt><trkpt lat="45.3932991" lon="9.2852564"><ele>96.33333333333334</ele><time>2026-04-20T18:23:03.385Z</time></trkpt><trkpt lat="45.3933467" lon="9.2851729"><ele>96.5</ele><time>2026-04-20T18:23:05.382Z</time></trkpt><trkpt lat="45.3934076" lon="9.2850762"><ele>96.66666666666667</ele><time>2026-04-20T18:23:07.376Z</time></trkpt><trkpt lat="45.3934627" lon="9.2849779"><ele>96.83333333333334</ele><time>2026-04-20T18:23:09.38Z</time></trkpt><trkpt lat="45.3935143" lon="9.2848948"><ele>97.0</ele><time>2026-04-20T18:23:11.376Z</time></trkpt><trkpt lat="45.3935609" lon="9.2848182"><ele>97.00000000000001</ele><time>2026-04-20T18:23:13.382Z</time></trkpt><trkpt lat="45.3936247" lon="9.2847529"><ele>97.0</ele><time>2026-04-20T18:23:15.375Z</time></trkpt><trkpt lat="45.3936826" lon="9.2846806"><ele>97.0</ele><time>2026-04-20T18:23:17.373Z</time></trkpt><trkpt lat="45.3937388" lon="9.2845936"><ele>97.0</ele><time>2026-04-20T18:23:19.373Z</time></trkpt><trkpt lat="45.393787" lon="9.2845221"><ele>97.00000000000001</ele><time>2026-04-20T18:23:21.381Z</time></trkpt><trkpt lat="45.3938574" lon="9.2844518"><ele>97.0</ele><time>2026-04-20T18:23:23.379Z</time></trkpt><trkpt lat="45.3939249" lon="9.2843694"><ele>97.00000000000001</ele><time>2026-04-20T18:23:25.379Z</time></trkpt><trkpt lat="45.3939915" lon="9.2843126"><ele>97.0</ele><time>2026-04-20T18:23:27.38Z</time></trkpt><trkpt lat="45.3940529" lon="9.284248"><ele>97.0</ele><time>2026-04-20T18:23:29.376Z</time></trkpt><trkpt lat="45.3941183" lon="9.2841738"><ele>97.0</ele><time>2026-04-20T18:23:31.383Z</time></trkpt><trkpt lat="45.3941792" lon="9.2841014"><ele>97.00000000000001</ele><time>2026-04-20T18:23:33.383Z</time></trkpt><trkpt lat="45.3942428" lon="9.2840441"><ele>97.0</ele><time>2026-04-20T18:23:35.384Z</time></trkpt><trkpt lat="45.3943168" lon="9.2839917"><ele>97.00000000000001</ele><time>2026-04-20T18:23:37.38Z</time></trkpt><trkpt lat="45.3943947" lon="9.2839412"><ele>97.0</ele><time>2026-04-20T18:23:39.38Z</time></trkpt><trkpt lat="45.3944597" lon="9.2838808"><ele>97.0</ele><time>2026-04-20T18:23:41.382Z</time></trkpt><trkpt lat="45.3945213" lon="9.2837835"><ele>97.0</ele><time>2026-04-20T18:23:43.383Z</time></trkpt><trkpt lat="45.3945789" lon="9.2836922"><ele>97.00000000000001</ele><time>2026-04-20T18:23:45.384Z</time></trkpt><trkpt lat="45.3946439" lon="9.2836256"><ele>97.0</ele><time>2026-04-20T18:23:47.383Z</time></trkpt><trkpt lat="45.3947034" lon="9.2835669"><ele>97.33333333333334</ele><time>2026-04-20T18:23:49.377Z</time></trkpt><trkpt lat="45.3947594" lon="9.2835172"><ele>97.66666666666667</ele><time>2026-04-20T18:23:51.383Z</time></trkpt><trkpt lat="45.3948026" lon="9.2834415"><ele>98.0</ele><time>2026-04-20T18:23:53.383Z</time></trkpt><trkpt lat="45.3948651" lon="9.2833741"><ele>98.33333333333334</ele><time>2026-04-20T18:23:55.38Z</time></trkpt><trkpt lat="45.394941" lon="9.2833287"><ele>98.66666666666667</ele><time>2026-04-20T18:23:57.383Z</time></trkpt><trkpt lat="45.3950064" lon="9.2832768"><ele>99.0</ele><time>2026-04-20T18:23:59.382Z</time></trkpt><trkpt lat="45.3950986" lon="9.2832328"><ele>99.0</ele><time>2026-04-20T18:24:01.382Z</time></trkpt><trkpt lat="45.3951698" lon="9.2831697"><ele>99.0</ele><time>2026-04-20T18:24:03.38Z</time></trkpt><trkpt lat="45.3952409" lon="9.2831119"><ele>99.0</ele><time>2026-04-20T18:24:05.383Z</time></trkpt><trkpt lat="45.3953073" lon="9.2830263"><ele>99.0</ele><time>2026-04-20T18:24:07.379Z</time></trkpt><trkpt lat="45.3953765" lon="9.2829274"><ele>99.0</ele><time>2026-04-20T18:24:10.383Z</time></trkpt><trkpt lat="45.3954413" lon="9.282848"><ele>99.0</ele><time>2026-04-20T18:24:12.386Z</time></trkpt><trkpt lat="45.3955249" lon="9.2827652"><ele>99.0</ele><time>2026-04-20T18:24:14.375Z</time></trkpt><trkpt lat="45.3955986" lon="9.2827004"><ele>99.0</ele><time>2026-04-20T18:24:16.38Z</time></trkpt><trkpt lat="45.3956557" lon="9.2826487"><ele>99.0</ele><time>2026-04-20T18:24:18.383Z</time></trkpt><trkpt lat="45.3957146" lon="9.2825962"><ele>99.0</ele><time>2026-04-20T18:24:20.373Z</time></trkpt><trkpt lat="45.3957887" lon="9.2825367"><ele>99.0</ele><time>2026-04-20T18:24:22.382Z</time></trkpt><trkpt lat="45.3958618" lon="9.282446"><ele>99.0</ele><time>2026-04-20T18:24:24.387Z</time></trkpt><trkpt lat="45.3959163" lon="9.2823719"><ele>99.0</ele><time>2026-04-20T18:24:26.381Z</time></trkpt><trkpt lat="45.395981" lon="9.2823188"><ele>99.0</ele><time>2026-04-20T18:24:28.383Z</time></trkpt><trkpt lat="45.3960586" lon="9.2822579"><ele>99.0</ele><time>2026-04-20T18:24:31.379Z</time></trkpt><trkpt lat="45.3961291" lon="9.2821938"><ele>99.0</ele><time>2026-04-20T18:24:34.384Z</time></trkpt><trkpt lat="45.396196" lon="9.2821299"><ele>99.0</ele><time>2026-04-20T18:24:37.375Z</time></trkpt><trkpt lat="45.3962631" lon="9.2820638"><ele>99.0</ele><time>2026-04-20T18:24:40.381Z</time></trkpt><trkpt lat="45.3963528" lon="9.2820062"><ele>99.16666666666667</ele><time>2026-04-20T18:24:43.381Z</time></trkpt><trkpt lat="45.3964074" lon="9.2819488"><ele>99.33333333333334</ele><time>2026-04-20T18:24:45.381Z</time></trkpt><trkpt lat="45.39647" lon="9.2818766"><ele>99.5</ele><time>2026-04-20T18:24:47.38Z</time></trkpt><trkpt lat="45.3965409" lon="9.2817841"><ele>99.66666666666667</ele><time>2026-04-20T18:24:50.376Z</time></trkpt><trkpt lat="45.3965961" lon="9.2817058"><ele>99.83333333333334</ele><time>2026-04-20T18:24:52.377Z</time></trkpt><trkpt lat="45.3966572" lon="9.2816561"><ele>100.0</ele><time>2026-04-20T18:24:54.378Z</time></trkpt><trkpt lat="45.396721" lon="9.2815929"><ele>100.00000000000001</ele><time>2026-04-20T18:24:56.381Z</time></trkpt><trkpt lat="45.396787" lon="9.2815267"><ele>100.0</ele><time>2026-04-20T18:24:58.378Z</time></trkpt><trkpt lat="45.3968548" lon="9.2814506"><ele>100.0</ele><time>2026-04-20T18:25:00.376Z</time></trkpt><trkpt lat="45.3969195" lon="9.2813905"><ele>100.0</ele><time>2026-04-20T18:25:02.38Z</time></trkpt><trkpt lat="45.3969884" lon="9.2813375"><ele>100.00000000000001</ele><time>2026-04-20T18:25:04.38Z</time></trkpt><trkpt lat="45.3970671" lon="9.2812702"><ele>100.0</ele><time>2026-04-20T18:25:06.385Z</time></trkpt><trkpt lat="45.3971362" lon="9.2812063"><ele>100.00000000000001</ele><time>2026-04-20T18:25:08.375Z</time></trkpt><trkpt lat="45.3971979" lon="9.2811362"><ele>100.0</ele><time>2026-04-20T18:25:10.377Z</time></trkpt><trkpt lat="45.3972613" lon="9.2810694"><ele>100.0</ele><time>2026-04-20T18:25:12.386Z</time></trkpt><trkpt lat="45.397332" lon="9.2810239"><ele>100.0</ele><time>2026-04-20T18:25:14.382Z</time></trkpt><trkpt lat="45.3974045" lon="9.2809718"><ele>100.00000000000001</ele><time>2026-04-20T18:25:16.381Z</time></trkpt><trkpt lat="45.3974627" lon="9.280901"><ele>100.0</ele><time>2026-04-20T18:25:18.373Z</time></trkpt><trkpt lat="45.3975301" lon="9.2808476"><ele>100.00000000000001</ele><time>2026-04-20T18:25:20.383Z</time></trkpt><trkpt lat="45.3976075" lon="9.2807938"><ele>100.0</ele><time>2026-04-20T18:25:22.379Z</time></trkpt><trkpt lat="45.397683" lon="9.2807562"><ele>100.0</ele><time>2026-04-20T18:25:24.388Z</time></trkpt><trkpt lat="45.3977465" lon="9.2806993"><ele>100.0</ele><time>2026-04-20T18:25:26.378Z</time></trkpt><trkpt lat="45.3978028" lon="9.2806263"><ele>100.00000000000001</ele><time>2026-04-20T18:25:28.382Z</time></trkpt><trkpt lat="45.3978672" lon="9.2805355"><ele>100.0</ele><time>2026-04-20T18:25:30.376Z</time></trkpt><trkpt lat="45.397927" lon="9.2804568"><ele>100.00000000000001</ele><time>2026-04-20T18:25:32.378Z</time></trkpt><trkpt lat="45.3979919" lon="9.2803895"><ele>100.0</ele><time>2026-04-20T18:25:34.391Z</time></trkpt><trkpt lat="45.3980615" lon="9.2803151"><ele>100.0</ele><time>2026-04-20T18:25:36.38Z</time></trkpt><trkpt lat="45.3981107" lon="9.2802498"><ele>100.0</ele><time>2026-04-20T18:25:38.379Z</time></trkpt><trkpt lat="45.398168" lon="9.2801888"><ele>100.00000000000001</ele><time>2026-04-20T18:25:40.382Z</time></trkpt><trkpt lat="45.3982285" lon="9.2801192"><ele>100.0</ele><time>2026-04-20T18:25:42.383Z</time></trkpt><trkpt lat="45.3982844" lon="9.2800519"><ele>100.00000000000001</ele><time>2026-04-20T18:25:44.382Z</time></trkpt><trkpt lat="45.3983351" lon="9.2799806"><ele>100.0</ele><time>2026-04-20T18:25:46.384Z</time></trkpt><trkpt lat="45.398388" lon="9.2799127"><ele>100.0</ele><time>2026-04-20T18:25:48.383Z</time></trkpt><trkpt lat="45.3984416" lon="9.2798347"><ele>100.0</ele><time>2026-04-20T18:25:50.383Z</time></trkpt><trkpt lat="45.3984948" lon="9.2797584"><ele>100.00000000000001</ele><time>2026-04-20T18:25:52.377Z</time></trkpt><trkpt lat="45.3985586" lon="9.279691"><ele>100.0</ele><time>2026-04-20T18:25:54.381Z</time></trkpt><trkpt lat="45.3986217" lon="9.2796203"><ele>100.00000000000001</ele><time>2026-04-20T18:25:56.383Z</time></trkpt><trkpt lat="45.398677" lon="9.279568"><ele>100.0</ele><time>2026-04-20T18:25:58.374Z</time></trkpt><trkpt lat="45.3987359" lon="9.2795062"><ele>100.0</ele><time>2026-04-20T18:26:00.383Z</time></trkpt><trkpt lat="45.3987981" lon="9.2794425"><ele>100.0</ele><time>2026-04-20T18:26:02.377Z</time></trkpt><trkpt lat="45.3988541" lon="9.2793804"><ele>100.0</ele><time>2026-04-20T18:26:04.381Z</time></trkpt><trkpt lat="45.398917" lon="9.2793422"><ele>100.00000000000001</ele><time>2026-04-20T18:26:06.386Z</time></trkpt><trkpt lat="45.3989701" lon="9.2794005"><ele>100.0</ele><time>2026-04-20T18:26:08.379Z</time></trkpt><trkpt lat="45.3990163" lon="9.2794856"><ele>99.83333333333334</ele><time>2026-04-20T18:26:10.381Z</time></trkpt><trkpt lat="45.399078" lon="9.2796032"><ele>99.66666666666667</ele><time>2026-04-20T18:26:12.398Z</time></trkpt><trkpt lat="45.3991131" lon="9.2797186"><ele>99.5</ele><time>2026-04-20T18:26:14.384Z</time></trkpt><trkpt lat="45.3991828" lon="9.2797986"><ele>99.33333333333334</ele><time>2026-04-20T18:26:16.382Z</time></trkpt><trkpt lat="45.3992553" lon="9.2798237"><ele>99.16666666666667</ele><time>2026-04-20T18:26:18.379Z</time></trkpt><trkpt lat="45.3993304" lon="9.2797795"><ele>99.0</ele><time>2026-04-20T18:26:20.375Z</time></trkpt><trkpt lat="45.3994104" lon="9.2797266"><ele>99.0</ele><time>2026-04-20T18:26:22.382Z</time></trkpt><trkpt lat="45.3994769" lon="9.2796477"><ele>99.0</ele><time>2026-04-20T18:26:24.371Z</time></trkpt><trkpt lat="45.3995564" lon="9.279574"><ele>99.0</ele><time>2026-04-20T18:26:26.375Z</time></trkpt><trkpt lat="45.3996325" lon="9.2795091"><ele>99.0</ele><time>2026-04-20T18:26:28.387Z</time></trkpt><trkpt lat="45.3997017" lon="9.2794423"><ele>99.0</ele><time>2026-04-20T18:26:30.379Z</time></trkpt><trkpt lat="45.3997987" lon="9.2795089"><ele>99.2</ele><time>2026-04-20T18:26:32.374Z</time></trkpt><trkpt lat="45.3998576" lon="9.2796362"><ele>99.4</ele><time>2026-04-20T18:26:34.382Z</time></trkpt><trkpt lat="45.3999381" lon="9.2797243"><ele>99.6</ele><time>2026-04-20T18:26:36.379Z</time></trkpt><trkpt lat="45.4000012" lon="9.2798208"><ele>99.8</ele><time>2026-04-20T18:26:38.38Z</time></trkpt><trkpt lat="45.4000722" lon="9.2799176"><ele>100.0</ele><time>2026-04-20T18:26:40.383Z</time></trkpt><trkpt lat="45.4001388" lon="9.2800127"><ele>100.00000000000001</ele><time>2026-04-20T18:26:42.38Z</time></trkpt><trkpt lat="45.4002024" lon="9.2801037"><ele>100.0</ele><time>2026-04-20T18:26:44.379Z</time></trkpt><trkpt lat="45.4002562" lon="9.2802075"><ele>100.0</ele><time>2026-04-20T18:26:46.381Z</time></trkpt><trkpt lat="45.4003253" lon="9.2802652"><ele>100.0</ele><time>2026-04-20T18:26:48.384Z</time></trkpt><trkpt lat="45.4004136" lon="9.2802127"><ele>100.00000000000001</ele><time>2026-04-20T18:26:50.383Z</time></trkpt><trkpt lat="45.4004622" lon="9.2801145"><ele>100.0</ele><time>2026-04-20T18:26:52.388Z</time></trkpt><trkpt lat="45.4005235" lon="9.2800365"><ele>100.0</ele><time>2026-04-20T18:26:54.377Z</time></trkpt><trkpt lat="45.4005987" lon="9.2799405"><ele>100.0</ele><time>2026-04-20T18:26:56.387Z</time></trkpt><trkpt lat="45.4006665" lon="9.279842"><ele>100.0</ele><time>2026-04-20T18:26:58.388Z</time></trkpt><trkpt lat="45.4007383" lon="9.2797373"><ele>100.0</ele><time>2026-04-20T18:27:00.387Z</time></trkpt><trkpt lat="45.4008195" lon="9.2796211"><ele>100.0</ele><time>2026-04-20T18:27:02.376Z</time></trkpt><trkpt lat="45.4008813" lon="9.2795088"><ele>100.8</ele><time>2026-04-20T18:27:04.379Z</time></trkpt><trkpt lat="45.4009564" lon="9.2793691"><ele>101.6</ele><time>2026-04-20T18:27:06.384Z</time></trkpt><trkpt lat="45.4010102" lon="9.2792449"><ele>102.4</ele><time>2026-04-20T18:27:08.377Z</time></trkpt><trkpt lat="45.4010776" lon="9.2791237"><ele>103.2</ele><time>2026-04-20T18:27:10.382Z</time></trkpt><trkpt lat="45.4011408" lon="9.2790077"><ele>104.0</ele><time>2026-04-20T18:27:12.38Z</time></trkpt><trkpt lat="45.4012019" lon="9.2789158"><ele>104.0</ele><time>2026-04-20T18:27:14.374Z</time></trkpt><trkpt lat="45.401263" lon="9.278805"><ele>104.0</ele><time>2026-04-20T18:27:16.376Z</time></trkpt><trkpt lat="45.4013179" lon="9.2786959"><ele>104.0</ele><time>2026-04-20T18:27:18.375Z</time></trkpt><trkpt lat="45.4013826" lon="9.2786066"><ele>104.0</ele><time>2026-04-20T18:27:20.389Z</time></trkpt><trkpt lat="45.4014559" lon="9.2785276"><ele>104.0</ele><time>2026-04-20T18:27:22.377Z</time></trkpt><trkpt lat="45.4015238" lon="9.2784372"><ele>103.6</ele><time>2026-04-20T18:27:24.376Z</time></trkpt><trkpt lat="45.4015824" lon="9.2783205"><ele>103.2</ele><time>2026-04-20T18:27:26.377Z</time></trkpt><trkpt lat="45.4016455" lon="9.2781989"><ele>102.8</ele><time>2026-04-20T18:27:28.382Z</time></trkpt><trkpt lat="45.4017063" lon="9.2780958"><ele>102.39999999999999</ele><time>2026-04-20T18:27:30.375Z</time></trkpt><trkpt lat="45.4017643" lon="9.2779997"><ele>102.0</ele><time>2026-04-20T18:27:32.38Z</time></trkpt><trkpt lat="45.4018247" lon="9.2779132"><ele>102.0</ele><time>2026-04-20T18:27:34.381Z</time></trkpt><trkpt lat="45.40187" lon="9.2777793"><ele>102.0</ele><time>2026-04-20T18:27:36.376Z</time></trkpt><trkpt lat="45.4019291" lon="9.2776809"><ele>102.0</ele><time>2026-04-20T18:27:38.381Z</time></trkpt><trkpt lat="45.4019791" lon="9.2775878"><ele>102.0</ele><time>2026-04-20T18:27:40.375Z</time></trkpt><trkpt lat="45.4020469" lon="9.2774956"><ele>102.0</ele><time>2026-04-20T18:27:42.381Z</time></trkpt><trkpt lat="45.402123" lon="9.2774074"><ele>101.66666666666667</ele><time>2026-04-20T18:27:44.387Z</time></trkpt><trkpt lat="45.4021806" lon="9.2773477"><ele>101.33333333333334</ele><time>2026-04-20T18:27:46.378Z</time></trkpt><trkpt lat="45.4022371" lon="9.2772852"><ele>101.0</ele><time>2026-04-20T18:27:50.385Z</time></trkpt><trkpt lat="45.4023034" lon="9.2773804"><ele>100.66666666666667</ele><time>2026-04-20T18:27:53.391Z</time></trkpt><trkpt lat="45.4023361" lon="9.2774819"><ele>100.33333333333334</ele><time>2026-04-20T18:27:55.377Z</time></trkpt><trkpt lat="45.4023877" lon="9.2775849"><ele>100.0</ele><time>2026-04-20T18:27:57.379Z</time></trkpt><trkpt lat="45.4024423" lon="9.277692"><ele>100.0</ele><time>2026-04-20T18:27:59.379Z</time></trkpt><trkpt lat="45.4025123" lon="9.2778088"><ele>100.0</ele><time>2026-04-20T18:28:01.386Z</time></trkpt><trkpt lat="45.402588" lon="9.2779148"><ele>100.0</ele><time>2026-04-20T18:28:03.378Z</time></trkpt><trkpt lat="45.4026628" lon="9.2780238"><ele>100.0</ele><time>2026-04-20T18:28:05.379Z</time></trkpt><trkpt lat="45.402753" lon="9.2781175"><ele>100.0</ele><time>2026-04-20T18:28:07.376Z</time></trkpt><trkpt lat="45.4028263" lon="9.2782222"><ele>99.66666666666667</ele><time>2026-04-20T18:28:09.375Z</time></trkpt><trkpt lat="45.4028784" lon="9.2783211"><ele>99.33333333333334</ele><time>2026-04-20T18:28:11.376Z</time></trkpt><trkpt lat="45.4029267" lon="9.2784151"><ele>99.0</ele><time>2026-04-20T18:28:13.378Z</time></trkpt><trkpt lat="45.4029923" lon="9.2784374"><ele>98.66666666666666</ele><time>2026-04-20T18:28:15.376Z</time></trkpt><trkpt lat="45.4030603" lon="9.2783843"><ele>98.33333333333333</ele><time>2026-04-20T18:28:17.388Z</time></trkpt><trkpt lat="45.4031349" lon="9.2782932"><ele>98.0</ele><time>2026-04-20T18:28:19.375Z</time></trkpt><trkpt lat="45.4032025" lon="9.2781985"><ele>97.60000000000001</ele><time>2026-04-20T18:28:21.381Z</time></trkpt><trkpt lat="45.4032735" lon="9.2780891"><ele>97.2</ele><time>2026-04-20T18:28:23.381Z</time></trkpt><trkpt lat="45.4033449" lon="9.2779984"><ele>96.8</ele><time>2026-04-20T18:28:25.377Z</time></trkpt><trkpt lat="45.4034114" lon="9.2779049"><ele>96.4</ele><time>2026-04-20T18:28:27.379Z</time></trkpt><trkpt lat="45.4034786" lon="9.2778216"><ele>96.0</ele><time>2026-04-20T18:28:29.374Z</time></trkpt><trkpt lat="45.4035411" lon="9.2777366"><ele>96.0</ele><time>2026-04-20T18:28:31.379Z</time></trkpt><trkpt lat="45.4035932" lon="9.2776543"><ele>96.0</ele><time>2026-04-20T18:28:33.38Z</time></trkpt><trkpt lat="45.4036502" lon="9.2775792"><ele>96.0</ele><time>2026-04-20T18:28:35.376Z</time></trkpt><trkpt lat="45.4037135" lon="9.2774996"><ele>96.0</ele><time>2026-04-20T18:28:37.376Z</time></trkpt><trkpt lat="45.4037888" lon="9.2774289"><ele>96.0</ele><time>2026-04-20T18:28:39.379Z</time></trkpt><trkpt lat="45.4038555" lon="9.277354"><ele>96.0</ele><time>2026-04-20T18:28:41.382Z</time></trkpt><trkpt lat="45.4039163" lon="9.2772784"><ele>96.33333333333333</ele><time>2026-04-20T18:28:43.385Z</time></trkpt><trkpt lat="45.4039709" lon="9.2772001"><ele>96.66666666666666</ele><time>2026-04-20T18:28:45.379Z</time></trkpt><trkpt lat="45.4040258" lon="9.2771215"><ele>97.0</ele><time>2026-04-20T18:28:47.38Z</time></trkpt><trkpt lat="45.4040925" lon="9.277042"><ele>97.33333333333333</ele><time>2026-04-20T18:28:49.38Z</time></trkpt><trkpt lat="45.4041608" lon="9.276967"><ele>97.66666666666666</ele><time>2026-04-20T18:28:51.381Z</time></trkpt><trkpt lat="45.4042287" lon="9.2768922"><ele>98.0</ele><time>2026-04-20T18:28:53.379Z</time></trkpt><trkpt lat="45.4043002" lon="9.2768371"><ele>97.99999999999999</ele><time>2026-04-20T18:28:55.395Z</time></trkpt><trkpt lat="45.4043626" lon="9.2767671"><ele>98.0</ele><time>2026-04-20T18:28:57.379Z</time></trkpt><trkpt lat="45.4044337" lon="9.2766987"><ele>98.0</ele><time>2026-04-20T18:28:59.38Z</time></trkpt><trkpt lat="45.4044884" lon="9.2766381"><ele>98.0</ele><time>2026-04-20T18:29:01.378Z</time></trkpt><trkpt lat="45.4045337" lon="9.2765646"><ele>97.99999999999999</ele><time>2026-04-20T18:29:03.381Z</time></trkpt><trkpt lat="45.4045903" lon="9.2764919"><ele>98.0</ele><time>2026-04-20T18:29:05.378Z</time></trkpt><trkpt lat="45.4046587" lon="9.2764122"><ele>98.16666666666666</ele><time>2026-04-20T18:29:07.374Z</time></trkpt><trkpt lat="45.404718" lon="9.2763433"><ele>98.33333333333333</ele><time>2026-04-20T18:29:09.389Z</time></trkpt><trkpt lat="45.4047839" lon="9.2762931"><ele>98.5</ele><time>2026-04-20T18:29:11.383Z</time></trkpt><trkpt lat="45.4048569" lon="9.2762672"><ele>98.66666666666666</ele><time>2026-04-20T18:29:13.382Z</time></trkpt><trkpt lat="45.4049371" lon="9.2763319"><ele>98.83333333333333</ele><time>2026-04-20T18:29:15.373Z</time></trkpt><trkpt lat="45.405007" lon="9.2763951"><ele>99.0</ele><time>2026-04-20T18:29:17.38Z</time></trkpt><trkpt lat="45.4050683" lon="9.2763555"><ele>99.0</ele><time>2026-04-20T18:29:19.378Z</time></trkpt><trkpt lat="45.4051188" lon="9.2763016"><ele>99.0</ele><time>2026-04-20T18:29:21.377Z</time></trkpt><trkpt lat="45.4051859" lon="9.2762463"><ele>99.0</ele><time>2026-04-20T18:29:23.379Z</time></trkpt><trkpt lat="45.4052486" lon="9.2761848"><ele>99.0</ele><time>2026-04-20T18:29:25.382Z</time></trkpt><trkpt lat="45.4053087" lon="9.2761183"><ele>99.0</ele><time>2026-04-20T18:29:27.38Z</time></trkpt><trkpt lat="45.4053724" lon="9.2760554"><ele>99.0</ele><time>2026-04-20T18:29:29.38Z</time></trkpt><trkpt lat="45.4054443" lon="9.2760491"><ele>99.0</ele><time>2026-04-20T18:29:31.377Z</time></trkpt><trkpt lat="45.4055285" lon="9.2761182"><ele>97.80000000000001</ele><time>2026-04-20T18:29:33.383Z</time></trkpt><trkpt lat="45.4055837" lon="9.2762199"><ele>96.60000000000001</ele><time>2026-04-20T18:29:35.382Z</time></trkpt><trkpt lat="45.4056402" lon="9.276326"><ele>95.4</ele><time>2026-04-20T18:29:37.381Z</time></trkpt><trkpt lat="45.4056944" lon="9.2764295"><ele>94.2</ele><time>2026-04-20T18:29:39.378Z</time></trkpt><trkpt lat="45.4057561" lon="9.2765356"><ele>93.0</ele><time>2026-04-20T18:29:41.387Z</time></trkpt><trkpt lat="45.4057763" lon="9.2766544"><ele>93.0</ele><time>2026-04-20T18:29:43.377Z</time></trkpt><trkpt lat="45.4057834" lon="9.2767746"><ele>93.0</ele><time>2026-04-20T18:29:45.39Z</time></trkpt><trkpt lat="45.405866" lon="9.2768537"><ele>93.0</ele><time>2026-04-20T18:29:47.379Z</time></trkpt><trkpt lat="45.4059365" lon="9.2768451"><ele>93.0</ele><time>2026-04-20T18:29:49.377Z</time></trkpt><trkpt lat="45.4060102" lon="9.2768101"><ele>93.0</ele><time>2026-04-20T18:29:51.38Z</time></trkpt><trkpt lat="45.4060951" lon="9.2767945"><ele>93.0</ele><time>2026-04-20T18:29:53.381Z</time></trkpt><trkpt lat="45.4061907" lon="9.2767675"><ele>93.0</ele><time>2026-04-20T18:29:55.388Z</time></trkpt><trkpt lat="45.4062781" lon="9.2767143"><ele>93.0</ele><time>2026-04-20T18:29:57.382Z</time></trkpt><trkpt lat="45.4063616" lon="9.276648"><ele>93.0</ele><time>2026-04-20T18:29:59.379Z</time></trkpt><trkpt lat="45.4064378" lon="9.2765916"><ele>93.0</ele><time>2026-04-20T18:30:01.383Z</time></trkpt><trkpt lat="45.4065101" lon="9.2765201"><ele>93.0</ele><time>2026-04-20T18:30:03.379Z</time></trkpt><trkpt lat="45.4065826" lon="9.2764374"><ele>94.2</ele><time>2026-04-20T18:30:05.379Z</time></trkpt><trkpt lat="45.4066446" lon="9.2763463"><ele>95.4</ele><time>2026-04-20T18:30:07.38Z</time></trkpt><trkpt lat="45.4067196" lon="9.2762703"><ele>96.60000000000001</ele><time>2026-04-20T18:30:09.38Z</time></trkpt><trkpt lat="45.4068051" lon="9.2762446"><ele>97.80000000000001</ele><time>2026-04-20T18:30:11.386Z</time></trkpt><trkpt lat="45.406893" lon="9.2763269"><ele>99.0</ele><time>2026-04-20T18:30:13.374Z</time></trkpt><trkpt lat="45.4069748" lon="9.2763876"><ele>99.0</ele><time>2026-04-20T18:30:15.383Z</time></trkpt><trkpt lat="45.4070613" lon="9.2763822"><ele>99.0</ele><time>2026-04-20T18:30:17.374Z</time></trkpt><trkpt lat="45.4071417" lon="9.2763621"><ele>99.0</ele><time>2026-04-20T18:30:19.378Z</time></trkpt><trkpt lat="45.4071937" lon="9.2762781"><ele>99.0</ele><time>2026-04-20T18:30:21.377Z</time></trkpt><trkpt lat="45.4072467" lon="9.2761901"><ele>99.0</ele><time>2026-04-20T18:30:23.381Z</time></trkpt><trkpt lat="45.4073001" lon="9.2760991"><ele>99.0</ele><time>2026-04-20T18:30:25.378Z</time></trkpt><trkpt lat="45.4073532" lon="9.2760075"><ele>98.71428571428572</ele><time>2026-04-20T18:30:27.378Z</time></trkpt><trkpt lat="45.4073954" lon="9.2759267"><ele>98.42857142857142</ele><time>2026-04-20T18:30:29.374Z</time></trkpt><trkpt lat="45.4074269" lon="9.2758324"><ele>98.14285714285714</ele><time>2026-04-20T18:30:31.378Z</time></trkpt><trkpt lat="45.4074718" lon="9.2757526"><ele>97.85714285714286</ele><time>2026-04-20T18:30:33.379Z</time></trkpt><trkpt lat="45.4075284" lon="9.2756957"><ele>97.57142857142858</ele><time>2026-04-20T18:30:35.377Z</time></trkpt><trkpt lat="45.4075627" lon="9.2756141"><ele>97.28571428571428</ele><time>2026-04-20T18:30:38.385Z</time></trkpt><trkpt lat="45.4076248" lon="9.2755683"><ele>97.0</ele><time>2026-04-20T18:30:41.382Z</time></trkpt><trkpt lat="45.4077089" lon="9.2755552"><ele>96.85714285714285</ele><time>2026-04-20T18:30:44.386Z</time></trkpt><trkpt lat="45.4077702" lon="9.2755324"><ele>96.71428571428572</ele><time>2026-04-20T18:30:46.379Z</time></trkpt><trkpt lat="45.4077736" lon="9.2754063"><ele>96.57142857142857</ele><time>2026-04-20T18:30:52.381Z</time></trkpt><trkpt lat="45.4077695" lon="9.2753155"><ele>96.42857142857142</ele><time>2026-04-20T18:30:54.379Z</time></trkpt><trkpt lat="45.4077578" lon="9.2752268"><ele>96.28571428571428</ele><time>2026-04-20T18:30:56.38Z</time></trkpt><trkpt lat="45.4077523" lon="9.275132"><ele>96.14285714285714</ele><time>2026-04-20T18:30:58.381Z</time></trkpt><trkpt lat="45.4077542" lon="9.2749945"><ele>96.0</ele><time>2026-04-20T18:31:01.381Z</time></trkpt><trkpt lat="45.4077422" lon="9.2748574"><ele>96.28571428571428</ele><time>2026-04-20T18:31:04.382Z</time></trkpt><trkpt lat="45.4077445" lon="9.2747593"><ele>96.57142857142857</ele><time>2026-04-20T18:31:06.379Z</time></trkpt><trkpt lat="45.4077455" lon="9.2746552"><ele>96.85714285714286</ele><time>2026-04-20T18:31:08.384Z</time></trkpt><trkpt lat="45.4077376" lon="9.274551"><ele>97.14285714285714</ele><time>2026-04-20T18:31:10.377Z</time></trkpt><trkpt lat="45.4077198" lon="9.2744413"><ele>97.42857142857143</ele><time>2026-04-20T18:31:12.384Z</time></trkpt><trkpt lat="45.4076974" lon="9.274342"><ele>97.71428571428571</ele><time>2026-04-20T18:31:14.378Z</time></trkpt><trkpt lat="45.4076789" lon="9.2742429"><ele>98.0</ele><time>2026-04-20T18:31:16.377Z</time></trkpt><trkpt lat="45.407663" lon="9.2741173"><ele>97.99999999999999</ele><time>2026-04-20T18:31:19.384Z</time></trkpt><trkpt lat="45.4076265" lon="9.2740214"><ele>98.0</ele><time>2026-04-20T18:31:22.378Z</time></trkpt><trkpt lat="45.4076306" lon="9.2739231"><ele>98.0</ele><time>2026-04-20T18:31:26.38Z</time></trkpt><trkpt lat="45.4076418" lon="9.2738167"><ele>98.0</ele><time>2026-04-20T18:31:29.375Z</time></trkpt><trkpt lat="45.4076352" lon="9.2736976"><ele>97.99999999999999</ele><time>2026-04-20T18:31:32.381Z</time></trkpt><trkpt lat="45.4076112" lon="9.273584"><ele>98.0</ele><time>2026-04-20T18:31:35.384Z</time></trkpt><trkpt lat="45.4076079" lon="9.2734784"><ele>97.83333333333333</ele><time>2026-04-20T18:31:38.375Z</time></trkpt><trkpt lat="45.4076198" lon="9.2733684"><ele>97.66666666666666</ele><time>2026-04-20T18:31:41.384Z</time></trkpt><trkpt lat="45.407624" lon="9.2732536"><ele>97.5</ele><time>2026-04-20T18:31:44.403Z</time></trkpt><trkpt lat="45.4075892" lon="9.2731535"><ele>97.33333333333334</ele><time>2026-04-20T18:31:48.411Z</time></trkpt><trkpt lat="45.4076375" lon="9.2730589"><ele>97.16666666666667</ele><time>2026-04-20T18:31:53.395Z</time></trkpt><trkpt lat="45.4076684" lon="9.2729519"><ele>97.0</ele><time>2026-04-20T18:31:56.385Z</time></trkpt><trkpt lat="45.407668" lon="9.2728297"><ele>97.16666666666667</ele><time>2026-04-20T18:31:58.386Z</time></trkpt><trkpt lat="45.4077019" lon="9.2727183"><ele>97.33333333333334</ele><time>2026-04-20T18:32:00.409Z</time></trkpt><trkpt lat="45.4077197" lon="9.2726019"><ele>97.5</ele><time>2026-04-20T18:32:02.391Z</time></trkpt><trkpt lat="45.407734" lon="9.2724975"><ele>97.66666666666666</ele><time>2026-04-20T18:32:04.383Z</time></trkpt><trkpt lat="45.4077582" lon="9.2723989"><ele>97.83333333333333</ele><time>2026-04-20T18:32:06.394Z</time></trkpt><trkpt lat="45.4077751" lon="9.2722977"><ele>98.0</ele><time>2026-04-20T18:32:08.395Z</time></trkpt><trkpt lat="45.4078025" lon="9.2721908"><ele>97.99999999999999</ele><time>2026-04-20T18:32:10.38Z</time></trkpt><trkpt lat="45.4078362" lon="9.272093"><ele>98.0</ele><time>2026-04-20T18:32:12.418Z</time></trkpt><trkpt lat="45.4078641" lon="9.2719969"><ele>98.0</ele><time>2026-04-20T18:32:14.451Z</time></trkpt><trkpt lat="45.4079005" lon="9.2719151"><ele>98.0</ele><time>2026-04-20T18:32:16.382Z</time></trkpt><trkpt lat="45.4079459" lon="9.2717954"><ele>97.99999999999999</ele><time>2026-04-20T18:32:19.396Z</time></trkpt><trkpt lat="45.4079913" lon="9.2717212"><ele>98.0</ele><time>2026-04-20T18:32:21.374Z</time></trkpt><trkpt lat="45.4080513" lon="9.2716243"><ele>98.49999999999999</ele><time>2026-04-20T18:32:24.384Z</time></trkpt><trkpt lat="45.4081015" lon="9.2715383"><ele>99.0</ele><time>2026-04-20T18:32:27.384Z</time></trkpt><trkpt lat="45.4081364" lon="9.2714356"><ele>99.5</ele><time>2026-04-20T18:32:30.379Z</time></trkpt><trkpt lat="45.408129" lon="9.2713162"><ele>100.0</ele><time>2026-04-20T18:32:33.372Z</time></trkpt><trkpt lat="45.4081401" lon="9.2712026"><ele>100.49999999999999</ele><time>2026-04-20T18:32:36.392Z</time></trkpt><trkpt lat="45.4082016" lon="9.2711299"><ele>101.0</ele><time>2026-04-20T18:32:39.379Z</time></trkpt><trkpt lat="45.4082816" lon="9.2710482"><ele>101.0</ele><time>2026-04-20T18:32:42.38Z</time></trkpt><trkpt lat="45.4083317" lon="9.2709882"><ele>101.0</ele><time>2026-04-20T18:32:44.375Z</time></trkpt><trkpt lat="45.4083864" lon="9.2709303"><ele>101.0</ele><time>2026-04-20T18:32:46.39Z</time></trkpt><trkpt lat="45.408439" lon="9.2708644"><ele>101.0</ele><time>2026-04-20T18:32:48.392Z</time></trkpt><trkpt lat="45.4084984" lon="9.2708107"><ele>101.0</ele><time>2026-04-20T18:32:50.385Z</time></trkpt><trkpt lat="45.4085581" lon="9.2707608"><ele>101.0</ele><time>2026-04-20T18:32:52.385Z</time></trkpt><trkpt lat="45.4086083" lon="9.2706974"><ele>101.0</ele><time>2026-04-20T18:32:54.394Z</time></trkpt><trkpt lat="45.4086627" lon="9.2706354"><ele>101.14285714285714</ele><time>2026-04-20T18:32:56.395Z</time></trkpt><trkpt lat="45.408707" lon="9.2705607"><ele>101.28571428571428</ele><time>2026-04-20T18:32:58.391Z</time></trkpt><trkpt lat="45.4087443" lon="9.2704712"><ele>101.42857142857143</ele><time>2026-04-20T18:33:00.401Z</time></trkpt><trkpt lat="45.4087874" lon="9.2703785"><ele>101.57142857142857</ele><time>2026-04-20T18:33:02.379Z</time></trkpt><trkpt lat="45.4088367" lon="9.2703163"><ele>101.71428571428572</ele><time>2026-04-20T18:33:04.391Z</time></trkpt><trkpt lat="45.4088984" lon="9.2702873"><ele>101.85714285714286</ele><time>2026-04-20T18:33:06.379Z</time></trkpt><trkpt lat="45.4089686" lon="9.2702898"><ele>102.0</ele><time>2026-04-20T18:33:08.392Z</time></trkpt><trkpt lat="45.4090193" lon="9.2703736"><ele>102.0</ele><time>2026-04-20T18:33:10.393Z</time></trkpt><trkpt lat="45.4090391" lon="9.2704754"><ele>102.0</ele><time>2026-04-20T18:33:12.389Z</time></trkpt><trkpt lat="45.4090782" lon="9.2705499"><ele>102.0</ele><time>2026-04-20T18:33:14.388Z</time></trkpt><trkpt lat="45.4091234" lon="9.270624"><ele>100.0</ele><time>2026-04-20T18:33:16.385Z</time></trkpt><trkpt lat="45.4091225" lon="9.2707202"><ele>100.0</ele><time>2026-04-20T18:33:19.383Z</time></trkpt></trkseg></trk></gpx>